<?xml version="1.0" encoding="UTF-8" standalone="no" ?>
<gpx xmlns="http://www.topografix.com/GPX/1/1" xmlns:xsi="http://www.w3.org/2001/XMLSchema-instance" xsi:schemaLocation="http://www.topografix.com/GPX/1/1 http://www.topografix.com/GPX/1/1/gpx.xsd" version="1.1" creator="VisuGPX - https://www.visugpx.com">
  <metadata>
    <name>lbvm 2024  ollive 3</name>
  </metadata>
  <trk>
    <name><![CDATA[Tour au dessus bourg d'oisans-19148416]]></name>
    <trkseg>
      <trkpt lat="45.06844" lon="6.02079">
        <ele>715</ele>
        <time>2024-06-04T20:32:40Z</time>
      </trkpt>
      <trkpt lat="45.06733" lon="6.02166">
        <ele>717</ele>
        <time>2024-06-04T20:33:03Z</time>
      </trkpt>
      <trkpt lat="45.06584" lon="6.02278">
        <ele>721</ele>
        <time>2024-06-04T20:33:33Z</time>
      </trkpt>
      <trkpt lat="45.06396" lon="6.02425">
        <ele>719</ele>
        <time>2024-06-04T20:34:11Z</time>
      </trkpt>
      <trkpt lat="45.06366" lon="6.02438">
        <ele>719</ele>
        <time>2024-06-04T20:34:16Z</time>
      </trkpt>
      <trkpt lat="45.06355" lon="6.02435">
        <ele>719</ele>
        <time>2024-06-04T20:34:18Z</time>
      </trkpt>
      <trkpt lat="45.06349" lon="6.02439">
        <ele>719</ele>
        <time>2024-06-04T20:34:20Z</time>
      </trkpt>
      <trkpt lat="45.06344" lon="6.02445">
        <ele>719</ele>
        <time>2024-06-04T20:34:21Z</time>
      </trkpt>
      <trkpt lat="45.0634" lon="6.02453">
        <ele>719</ele>
        <time>2024-06-04T20:34:22Z</time>
      </trkpt>
      <trkpt lat="45.06339" lon="6.02463">
        <ele>719</ele>
        <time>2024-06-04T20:34:23Z</time>
      </trkpt>
      <trkpt lat="45.06341" lon="6.02472">
        <ele>718</ele>
        <time>2024-06-04T20:34:24Z</time>
      </trkpt>
      <trkpt lat="45.06344" lon="6.02481">
        <ele>718</ele>
        <time>2024-06-04T20:34:26Z</time>
      </trkpt>
      <trkpt lat="45.06352" lon="6.02488">
        <ele>719</ele>
        <time>2024-06-04T20:34:27Z</time>
      </trkpt>
      <trkpt lat="45.06361" lon="6.02489">
        <ele>719</ele>
        <time>2024-06-04T20:34:29Z</time>
      </trkpt>
      <trkpt lat="45.06384" lon="6.02529">
        <ele>720</ele>
        <time>2024-06-04T20:34:35Z</time>
      </trkpt>
      <trkpt lat="45.0639" lon="6.02546">
        <ele>721</ele>
        <time>2024-06-04T20:34:38Z</time>
      </trkpt>
      <trkpt lat="45.06401" lon="6.02573">
        <ele>722</ele>
        <time>2024-06-04T20:34:42Z</time>
      </trkpt>
      <trkpt lat="45.06415" lon="6.02612">
        <ele>722</ele>
        <time>2024-06-04T20:34:47Z</time>
      </trkpt>
      <trkpt lat="45.06479" lon="6.02781">
        <ele>723</ele>
        <time>2024-06-04T20:35:11Z</time>
      </trkpt>
      <trkpt lat="45.06492" lon="6.02827">
        <ele>723</ele>
        <time>2024-06-04T20:35:18Z</time>
      </trkpt>
      <trkpt lat="45.06498" lon="6.02856">
        <ele>723</ele>
        <time>2024-06-04T20:35:21Z</time>
      </trkpt>
      <trkpt lat="45.06501" lon="6.02886">
        <ele>722</ele>
        <time>2024-06-04T20:35:25Z</time>
      </trkpt>
      <trkpt lat="45.06502" lon="6.02926">
        <ele>722</ele>
        <time>2024-06-04T20:35:30Z</time>
      </trkpt>
      <trkpt lat="45.065" lon="6.02963">
        <ele>720</ele>
        <time>2024-06-04T20:35:35Z</time>
      </trkpt>
      <trkpt lat="45.06493" lon="6.03009">
        <ele>719</ele>
        <time>2024-06-04T20:35:41Z</time>
      </trkpt>
      <trkpt lat="45.06484" lon="6.03042">
        <ele>718</ele>
        <time>2024-06-04T20:35:45Z</time>
      </trkpt>
      <trkpt lat="45.06477" lon="6.03063">
        <ele>718</ele>
        <time>2024-06-04T20:35:48Z</time>
      </trkpt>
      <trkpt lat="45.06462" lon="6.03098">
        <ele>717</ele>
        <time>2024-06-04T20:35:53Z</time>
      </trkpt>
      <trkpt lat="45.06437" lon="6.03138">
        <ele>716</ele>
        <time>2024-06-04T20:36:00Z</time>
      </trkpt>
      <trkpt lat="45.06411" lon="6.03169">
        <ele>716</ele>
        <time>2024-06-04T20:36:06Z</time>
      </trkpt>
      <trkpt lat="45.06394" lon="6.03184">
        <ele>717</ele>
        <time>2024-06-04T20:36:10Z</time>
      </trkpt>
      <trkpt lat="45.06219" lon="6.03317">
        <ele>721</ele>
        <time>2024-06-04T20:36:45Z</time>
      </trkpt>
      <trkpt lat="45.06186" lon="6.03346">
        <ele>723</ele>
        <time>2024-06-04T20:36:52Z</time>
      </trkpt>
      <trkpt lat="45.06168" lon="6.03364">
        <ele>724</ele>
        <time>2024-06-04T20:36:56Z</time>
      </trkpt>
      <trkpt lat="45.06091" lon="6.03458">
        <ele>722</ele>
        <time>2024-06-04T20:37:14Z</time>
      </trkpt>
      <trkpt lat="45.05991" lon="6.03587">
        <ele>720</ele>
        <time>2024-06-04T20:37:38Z</time>
      </trkpt>
      <trkpt lat="45.05971" lon="6.03622">
        <ele>721</ele>
        <time>2024-06-04T20:37:44Z</time>
      </trkpt>
      <trkpt lat="45.05961" lon="6.03645">
        <ele>722</ele>
        <time>2024-06-04T20:37:47Z</time>
      </trkpt>
      <trkpt lat="45.05952" lon="6.0367">
        <ele>722</ele>
        <time>2024-06-04T20:37:51Z</time>
      </trkpt>
      <trkpt lat="45.05941" lon="6.03711">
        <ele>723</ele>
        <time>2024-06-04T20:37:56Z</time>
      </trkpt>
      <trkpt lat="45.05929" lon="6.0374">
        <ele>724</ele>
        <time>2024-06-04T20:38:00Z</time>
      </trkpt>
      <trkpt lat="45.05919" lon="6.03755">
        <ele>724</ele>
        <time>2024-06-04T20:38:03Z</time>
      </trkpt>
      <trkpt lat="45.05909" lon="6.03764">
        <ele>723</ele>
        <time>2024-06-04T20:38:05Z</time>
      </trkpt>
      <trkpt lat="45.05905" lon="6.03776">
        <ele>723</ele>
        <time>2024-06-04T20:38:07Z</time>
      </trkpt>
      <trkpt lat="45.05906" lon="6.03788">
        <ele>723</ele>
        <time>2024-06-04T20:38:08Z</time>
      </trkpt>
      <trkpt lat="45.05911" lon="6.03799">
        <ele>722</ele>
        <time>2024-06-04T20:38:10Z</time>
      </trkpt>
      <trkpt lat="45.0591" lon="6.03821">
        <ele>722</ele>
        <time>2024-06-04T20:38:13Z</time>
      </trkpt>
      <trkpt lat="45.05905" lon="6.03845">
        <ele>721</ele>
        <time>2024-06-04T20:38:16Z</time>
      </trkpt>
      <trkpt lat="45.05897" lon="6.03869">
        <ele>721</ele>
        <time>2024-06-04T20:38:19Z</time>
      </trkpt>
      <trkpt lat="45.05882" lon="6.03897">
        <ele>721</ele>
        <time>2024-06-04T20:38:23Z</time>
      </trkpt>
      <trkpt lat="45.0587" lon="6.03915">
        <ele>720</ele>
        <time>2024-06-04T20:38:27Z</time>
      </trkpt>
      <trkpt lat="45.05843" lon="6.03936">
        <ele>721</ele>
        <time>2024-06-04T20:38:32Z</time>
      </trkpt>
      <trkpt lat="45.05689" lon="6.04025">
        <ele>724</ele>
        <time>2024-06-04T20:39:02Z</time>
      </trkpt>
      <trkpt lat="45.05641" lon="6.04062">
        <ele>723</ele>
        <time>2024-06-04T20:39:11Z</time>
      </trkpt>
      <trkpt lat="45.05621" lon="6.04082">
        <ele>722</ele>
        <time>2024-06-04T20:39:16Z</time>
      </trkpt>
      <trkpt lat="45.05596" lon="6.04109">
        <ele>723</ele>
        <time>2024-06-04T20:39:21Z</time>
      </trkpt>
      <trkpt lat="45.05445" lon="6.04298">
        <ele>724</ele>
        <time>2024-06-04T20:39:57Z</time>
      </trkpt>
      <trkpt lat="45.05129" lon="6.04699">
        <ele>726</ele>
        <time>2024-06-04T20:41:13Z</time>
      </trkpt>
      <trkpt lat="45.05108" lon="6.04731">
        <ele>725</ele>
        <time>2024-06-04T20:41:18Z</time>
      </trkpt>
      <trkpt lat="45.04655" lon="6.05503">
        <ele>723</ele>
        <time>2024-06-04T20:43:24Z</time>
      </trkpt>
      <trkpt lat="45.04618" lon="6.05565">
        <ele>725</ele>
        <time>2024-06-04T20:43:35Z</time>
      </trkpt>
      <trkpt lat="45.04596" lon="6.05599">
        <ele>726</ele>
        <time>2024-06-04T20:43:40Z</time>
      </trkpt>
      <trkpt lat="45.04575" lon="6.05626">
        <ele>726</ele>
        <time>2024-06-04T20:43:45Z</time>
      </trkpt>
      <trkpt lat="45.04547" lon="6.05656">
        <ele>727</ele>
        <time>2024-06-04T20:43:52Z</time>
      </trkpt>
      <trkpt lat="45.04315" lon="6.05861">
        <ele>730</ele>
        <time>2024-06-04T20:44:40Z</time>
      </trkpt>
      <trkpt lat="45.04292" lon="6.05858">
        <ele>730</ele>
        <time>2024-06-04T20:44:44Z</time>
      </trkpt>
      <trkpt lat="45.04271" lon="6.05864">
        <ele>730</ele>
        <time>2024-06-04T20:44:48Z</time>
      </trkpt>
      <trkpt lat="45.04244" lon="6.05886">
        <ele>729</ele>
        <time>2024-06-04T20:44:54Z</time>
      </trkpt>
      <trkpt lat="45.04212" lon="6.05917">
        <ele>729</ele>
        <time>2024-06-04T20:45:01Z</time>
      </trkpt>
      <trkpt lat="45.04192" lon="6.0595">
        <ele>729</ele>
        <time>2024-06-04T20:45:06Z</time>
      </trkpt>
      <trkpt lat="45.04191" lon="6.0597">
        <ele>729</ele>
        <time>2024-06-04T20:45:09Z</time>
      </trkpt>
      <trkpt lat="45.03004" lon="6.07014">
        <ele>744</ele>
        <time>2024-06-04T20:49:17Z</time>
      </trkpt>
      <trkpt lat="45.02981" lon="6.07034">
        <ele>743</ele>
        <time>2024-06-04T20:49:22Z</time>
      </trkpt>
      <trkpt lat="45.02857" lon="6.07141">
        <ele>745</ele>
        <time>2024-06-04T20:49:48Z</time>
      </trkpt>
      <trkpt lat="45.02847" lon="6.07153">
        <ele>746</ele>
        <time>2024-06-04T20:49:50Z</time>
      </trkpt>
      <trkpt lat="45.02841" lon="6.07163">
        <ele>747</ele>
        <time>2024-06-04T20:49:52Z</time>
      </trkpt>
      <trkpt lat="45.02838" lon="6.07177">
        <ele>750</ele>
        <time>2024-06-04T20:49:54Z</time>
      </trkpt>
      <trkpt lat="45.02837" lon="6.07186">
        <ele>752</ele>
        <time>2024-06-04T20:49:55Z</time>
      </trkpt>
      <trkpt lat="45.02839" lon="6.07198">
        <ele>755</ele>
        <time>2024-06-04T20:49:56Z</time>
      </trkpt>
      <trkpt lat="45.02846" lon="6.07213">
        <ele>758</ele>
        <time>2024-06-04T20:49:59Z</time>
      </trkpt>
      <trkpt lat="45.02858" lon="6.07224">
        <ele>760</ele>
        <time>2024-06-04T20:50:01Z</time>
      </trkpt>
      <trkpt lat="45.02916" lon="6.0725">
        <ele>761</ele>
        <time>2024-06-04T20:50:12Z</time>
      </trkpt>
      <trkpt lat="45.02937" lon="6.07266">
        <ele>764</ele>
        <time>2024-06-04T20:50:16Z</time>
      </trkpt>
      <trkpt lat="45.0302" lon="6.0736">
        <ele>776</ele>
        <time>2024-06-04T20:50:35Z</time>
      </trkpt>
      <trkpt lat="45.0306" lon="6.07437">
        <ele>781</ele>
        <time>2024-06-04T20:50:47Z</time>
      </trkpt>
      <trkpt lat="45.0307" lon="6.07459">
        <ele>780</ele>
        <time>2024-06-04T20:50:51Z</time>
      </trkpt>
      <trkpt lat="45.03075" lon="6.07477">
        <ele>780</ele>
        <time>2024-06-04T20:50:53Z</time>
      </trkpt>
      <trkpt lat="45.03078" lon="6.07494">
        <ele>781</ele>
        <time>2024-06-04T20:50:55Z</time>
      </trkpt>
      <trkpt lat="45.03089" lon="6.07639">
        <ele>790</ele>
        <time>2024-06-04T20:51:14Z</time>
      </trkpt>
      <trkpt lat="45.03089" lon="6.07655">
        <ele>790</ele>
        <time>2024-06-04T20:51:16Z</time>
      </trkpt>
      <trkpt lat="45.03085" lon="6.07675">
        <ele>789</ele>
        <time>2024-06-04T20:51:18Z</time>
      </trkpt>
      <trkpt lat="45.03079" lon="6.0769">
        <ele>787</ele>
        <time>2024-06-04T20:51:20Z</time>
      </trkpt>
      <trkpt lat="45.03067" lon="6.07705">
        <ele>785</ele>
        <time>2024-06-04T20:51:23Z</time>
      </trkpt>
      <trkpt lat="45.03057" lon="6.07711">
        <ele>786</ele>
        <time>2024-06-04T20:51:25Z</time>
      </trkpt>
      <trkpt lat="45.03046" lon="6.07714">
        <ele>787</ele>
        <time>2024-06-04T20:51:27Z</time>
      </trkpt>
      <trkpt lat="45.02996" lon="6.07713">
        <ele>798</ele>
        <time>2024-06-04T20:51:36Z</time>
      </trkpt>
      <trkpt lat="45.02987" lon="6.07711">
        <ele>801</ele>
        <time>2024-06-04T20:51:38Z</time>
      </trkpt>
      <trkpt lat="45.0297" lon="6.07702">
        <ele>808</ele>
        <time>2024-06-04T20:51:41Z</time>
      </trkpt>
      <trkpt lat="45.02942" lon="6.07683">
        <ele>824</ele>
        <time>2024-06-04T20:51:46Z</time>
      </trkpt>
      <trkpt lat="45.0291" lon="6.07663">
        <ele>842</ele>
        <time>2024-06-04T20:51:53Z</time>
      </trkpt>
      <trkpt lat="45.0288" lon="6.07652">
        <ele>861</ele>
        <time>2024-06-04T20:51:58Z</time>
      </trkpt>
      <trkpt lat="45.02857" lon="6.0765">
        <ele>871</ele>
        <time>2024-06-04T20:52:02Z</time>
      </trkpt>
      <trkpt lat="45.02835" lon="6.0765">
        <ele>881</ele>
        <time>2024-06-04T20:52:06Z</time>
      </trkpt>
      <trkpt lat="45.0282" lon="6.07654">
        <ele>891</ele>
        <time>2024-06-04T20:52:09Z</time>
      </trkpt>
      <trkpt lat="45.02792" lon="6.07666">
        <ele>910</ele>
        <time>2024-06-04T20:52:14Z</time>
      </trkpt>
      <trkpt lat="45.02777" lon="6.07676">
        <ele>916</ele>
        <time>2024-06-04T20:52:17Z</time>
      </trkpt>
      <trkpt lat="45.02738" lon="6.07721">
        <ele>922</ele>
        <time>2024-06-04T20:52:26Z</time>
      </trkpt>
      <trkpt lat="45.02724" lon="6.07745">
        <ele>925</ele>
        <time>2024-06-04T20:52:30Z</time>
      </trkpt>
      <trkpt lat="45.0271" lon="6.0778">
        <ele>925</ele>
        <time>2024-06-04T20:52:35Z</time>
      </trkpt>
      <trkpt lat="45.02701" lon="6.07816">
        <ele>920</ele>
        <time>2024-06-04T20:52:40Z</time>
      </trkpt>
      <trkpt lat="45.02697" lon="6.07837">
        <ele>919</ele>
        <time>2024-06-04T20:52:42Z</time>
      </trkpt>
      <trkpt lat="45.02695" lon="6.07862">
        <ele>922</ele>
        <time>2024-06-04T20:52:46Z</time>
      </trkpt>
      <trkpt lat="45.02695" lon="6.07912">
        <ele>922</ele>
        <time>2024-06-04T20:52:52Z</time>
      </trkpt>
      <trkpt lat="45.027" lon="6.07996">
        <ele>935</ele>
        <time>2024-06-04T20:53:03Z</time>
      </trkpt>
      <trkpt lat="45.02723" lon="6.08087">
        <ele>940</ele>
        <time>2024-06-04T20:53:15Z</time>
      </trkpt>
      <trkpt lat="45.02729" lon="6.08106">
        <ele>932</ele>
        <time>2024-06-04T20:53:17Z</time>
      </trkpt>
      <trkpt lat="45.0274" lon="6.08123">
        <ele>918</ele>
        <time>2024-06-04T20:53:20Z</time>
      </trkpt>
      <trkpt lat="45.02773" lon="6.08155">
        <ele>879</ele>
        <time>2024-06-04T20:53:27Z</time>
      </trkpt>
      <trkpt lat="45.028" lon="6.08186">
        <ele>860</ele>
        <time>2024-06-04T20:53:34Z</time>
      </trkpt>
      <trkpt lat="45.02838" lon="6.08219">
        <ele>839</ele>
        <time>2024-06-04T20:53:41Z</time>
      </trkpt>
      <trkpt lat="45.02849" lon="6.08234">
        <ele>839</ele>
        <time>2024-06-04T20:53:44Z</time>
      </trkpt>
      <trkpt lat="45.02882" lon="6.08296">
        <ele>844</ele>
        <time>2024-06-04T20:53:54Z</time>
      </trkpt>
      <trkpt lat="45.02951" lon="6.08412">
        <ele>867</ele>
        <time>2024-06-04T20:54:13Z</time>
      </trkpt>
      <trkpt lat="45.02965" lon="6.08429">
        <ele>867</ele>
        <time>2024-06-04T20:54:16Z</time>
      </trkpt>
      <trkpt lat="45.02978" lon="6.08443">
        <ele>867</ele>
        <time>2024-06-04T20:54:19Z</time>
      </trkpt>
      <trkpt lat="45.03104" lon="6.08548">
        <ele>859</ele>
        <time>2024-06-04T20:54:45Z</time>
      </trkpt>
      <trkpt lat="45.03121" lon="6.08565">
        <ele>855</ele>
        <time>2024-06-04T20:54:49Z</time>
      </trkpt>
      <trkpt lat="45.03137" lon="6.08584">
        <ele>853</ele>
        <time>2024-06-04T20:54:53Z</time>
      </trkpt>
      <trkpt lat="45.03148" lon="6.08604">
        <ele>858</ele>
        <time>2024-06-04T20:54:56Z</time>
      </trkpt>
      <trkpt lat="45.03174" lon="6.0867">
        <ele>890</ele>
        <time>2024-06-04T20:55:05Z</time>
      </trkpt>
      <trkpt lat="45.03182" lon="6.08687">
        <ele>889</ele>
        <time>2024-06-04T20:55:08Z</time>
      </trkpt>
      <trkpt lat="45.03195" lon="6.08701">
        <ele>886</ele>
        <time>2024-06-04T20:55:11Z</time>
      </trkpt>
      <trkpt lat="45.03223" lon="6.08716">
        <ele>877</ele>
        <time>2024-06-04T20:55:16Z</time>
      </trkpt>
      <trkpt lat="45.03228" lon="6.08721">
        <ele>877</ele>
        <time>2024-06-04T20:55:17Z</time>
      </trkpt>
      <trkpt lat="45.03236" lon="6.08733">
        <ele>879</ele>
        <time>2024-06-04T20:55:19Z</time>
      </trkpt>
      <trkpt lat="45.03241" lon="6.08757">
        <ele>889</ele>
        <time>2024-06-04T20:55:22Z</time>
      </trkpt>
      <trkpt lat="45.03242" lon="6.08771">
        <ele>892</ele>
        <time>2024-06-04T20:55:24Z</time>
      </trkpt>
      <trkpt lat="45.03234" lon="6.08834">
        <ele>909</ele>
        <time>2024-06-04T20:55:32Z</time>
      </trkpt>
      <trkpt lat="45.03234" lon="6.0886">
        <ele>910</ele>
        <time>2024-06-04T20:55:35Z</time>
      </trkpt>
      <trkpt lat="45.03246" lon="6.08961">
        <ele>911</ele>
        <time>2024-06-04T20:55:48Z</time>
      </trkpt>
      <trkpt lat="45.03253" lon="6.08991">
        <ele>912</ele>
        <time>2024-06-04T20:55:52Z</time>
      </trkpt>
      <trkpt lat="45.03261" lon="6.0901">
        <ele>914</ele>
        <time>2024-06-04T20:55:55Z</time>
      </trkpt>
      <trkpt lat="45.03271" lon="6.09028">
        <ele>916</ele>
        <time>2024-06-04T20:55:58Z</time>
      </trkpt>
      <trkpt lat="45.03291" lon="6.09044">
        <ele>919</ele>
        <time>2024-06-04T20:56:02Z</time>
      </trkpt>
      <trkpt lat="45.03311" lon="6.09052">
        <ele>920</ele>
        <time>2024-06-04T20:56:06Z</time>
      </trkpt>
      <trkpt lat="45.03357" lon="6.09056">
        <ele>917</ele>
        <time>2024-06-04T20:56:14Z</time>
      </trkpt>
      <trkpt lat="45.03367" lon="6.09059">
        <ele>916</ele>
        <time>2024-06-04T20:56:16Z</time>
      </trkpt>
      <trkpt lat="45.0338" lon="6.09072">
        <ele>918</ele>
        <time>2024-06-04T20:56:19Z</time>
      </trkpt>
      <trkpt lat="45.03385" lon="6.09082">
        <ele>920</ele>
        <time>2024-06-04T20:56:20Z</time>
      </trkpt>
      <trkpt lat="45.03388" lon="6.09095">
        <ele>923</ele>
        <time>2024-06-04T20:56:22Z</time>
      </trkpt>
      <trkpt lat="45.03389" lon="6.09111">
        <ele>925</ele>
        <time>2024-06-04T20:56:24Z</time>
      </trkpt>
      <trkpt lat="45.03388" lon="6.09141">
        <ele>931</ele>
        <time>2024-06-04T20:56:28Z</time>
      </trkpt>
      <trkpt lat="45.0339" lon="6.09153">
        <ele>933</ele>
        <time>2024-06-04T20:56:29Z</time>
      </trkpt>
      <trkpt lat="45.03394" lon="6.09164">
        <ele>934</ele>
        <time>2024-06-04T20:56:31Z</time>
      </trkpt>
      <trkpt lat="45.03403" lon="6.09177">
        <ele>937</ele>
        <time>2024-06-04T20:56:33Z</time>
      </trkpt>
      <trkpt lat="45.0342" lon="6.09189">
        <ele>938</ele>
        <time>2024-06-04T20:56:36Z</time>
      </trkpt>
      <trkpt lat="45.03503" lon="6.09218">
        <ele>940</ele>
        <time>2024-06-04T20:56:52Z</time>
      </trkpt>
      <trkpt lat="45.03521" lon="6.09228">
        <ele>942</ele>
        <time>2024-06-04T20:56:55Z</time>
      </trkpt>
      <trkpt lat="45.03544" lon="6.09251">
        <ele>947</ele>
        <time>2024-06-04T20:57:00Z</time>
      </trkpt>
      <trkpt lat="45.03592" lon="6.09311">
        <ele>954</ele>
        <time>2024-06-04T20:57:12Z</time>
      </trkpt>
      <trkpt lat="45.03599" lon="6.09318">
        <ele>955</ele>
        <time>2024-06-04T20:57:13Z</time>
      </trkpt>
      <trkpt lat="45.03614" lon="6.09327">
        <ele>956</ele>
        <time>2024-06-04T20:57:16Z</time>
      </trkpt>
      <trkpt lat="45.03629" lon="6.09327">
        <ele>956</ele>
        <time>2024-06-04T20:57:19Z</time>
      </trkpt>
      <trkpt lat="45.03639" lon="6.09322">
        <ele>955</ele>
        <time>2024-06-04T20:57:21Z</time>
      </trkpt>
      <trkpt lat="45.03649" lon="6.09309">
        <ele>953</ele>
        <time>2024-06-04T20:57:23Z</time>
      </trkpt>
      <trkpt lat="45.03683" lon="6.09226">
        <ele>950</ele>
        <time>2024-06-04T20:57:35Z</time>
      </trkpt>
      <trkpt lat="45.03693" lon="6.09209">
        <ele>951</ele>
        <time>2024-06-04T20:57:38Z</time>
      </trkpt>
      <trkpt lat="45.03708" lon="6.09192">
        <ele>952</ele>
        <time>2024-06-04T20:57:41Z</time>
      </trkpt>
      <trkpt lat="45.03729" lon="6.09171">
        <ele>955</ele>
        <time>2024-06-04T20:57:46Z</time>
      </trkpt>
      <trkpt lat="45.03745" lon="6.09158">
        <ele>952</ele>
        <time>2024-06-04T20:57:49Z</time>
      </trkpt>
      <trkpt lat="45.03763" lon="6.0915">
        <ele>945</ele>
        <time>2024-06-04T20:57:52Z</time>
      </trkpt>
      <trkpt lat="45.03774" lon="6.09151">
        <ele>944</ele>
        <time>2024-06-04T20:57:54Z</time>
      </trkpt>
      <trkpt lat="45.0379" lon="6.09161">
        <ele>951</ele>
        <time>2024-06-04T20:57:57Z</time>
      </trkpt>
      <trkpt lat="45.03797" lon="6.09168">
        <ele>956</ele>
        <time>2024-06-04T20:57:59Z</time>
      </trkpt>
      <trkpt lat="45.03809" lon="6.09187">
        <ele>958</ele>
        <time>2024-06-04T20:58:02Z</time>
      </trkpt>
      <trkpt lat="45.03866" lon="6.09307">
        <ele>972</ele>
        <time>2024-06-04T20:58:20Z</time>
      </trkpt>
      <trkpt lat="45.03889" lon="6.0937">
        <ele>975</ele>
        <time>2024-06-04T20:58:29Z</time>
      </trkpt>
      <trkpt lat="45.03898" lon="6.09388">
        <ele>977</ele>
        <time>2024-06-04T20:58:32Z</time>
      </trkpt>
      <trkpt lat="45.0394" lon="6.09438">
        <ele>979</ele>
        <time>2024-06-04T20:58:42Z</time>
      </trkpt>
      <trkpt lat="45.03957" lon="6.09463">
        <ele>980</ele>
        <time>2024-06-04T20:58:46Z</time>
      </trkpt>
      <trkpt lat="45.03977" lon="6.09505">
        <ele>983</ele>
        <time>2024-06-04T20:58:53Z</time>
      </trkpt>
      <trkpt lat="45.04" lon="6.09559">
        <ele>988</ele>
        <time>2024-06-04T20:59:00Z</time>
      </trkpt>
      <trkpt lat="45.04029" lon="6.09617">
        <ele>984</ele>
        <time>2024-06-04T20:59:09Z</time>
      </trkpt>
      <trkpt lat="45.04035" lon="6.09646">
        <ele>984</ele>
        <time>2024-06-04T20:59:13Z</time>
      </trkpt>
      <trkpt lat="45.04035" lon="6.09666">
        <ele>985</ele>
        <time>2024-06-04T20:59:16Z</time>
      </trkpt>
      <trkpt lat="45.04031" lon="6.09696">
        <ele>986</ele>
        <time>2024-06-04T20:59:20Z</time>
      </trkpt>
      <trkpt lat="45.04018" lon="6.09762">
        <ele>991</ele>
        <time>2024-06-04T20:59:28Z</time>
      </trkpt>
      <trkpt lat="45.04017" lon="6.09783">
        <ele>996</ele>
        <time>2024-06-04T20:59:31Z</time>
      </trkpt>
      <trkpt lat="45.04021" lon="6.09801">
        <ele>999</ele>
        <time>2024-06-04T20:59:33Z</time>
      </trkpt>
      <trkpt lat="45.04027" lon="6.0982">
        <ele>1001</ele>
        <time>2024-06-04T20:59:36Z</time>
      </trkpt>
      <trkpt lat="45.04037" lon="6.09835">
        <ele>1001</ele>
        <time>2024-06-04T20:59:38Z</time>
      </trkpt>
      <trkpt lat="45.04047" lon="6.09847">
        <ele>1000</ele>
        <time>2024-06-04T20:59:41Z</time>
      </trkpt>
      <trkpt lat="45.04074" lon="6.09869">
        <ele>993</ele>
        <time>2024-06-04T20:59:46Z</time>
      </trkpt>
      <trkpt lat="45.04082" lon="6.09878">
        <ele>991</ele>
        <time>2024-06-04T20:59:48Z</time>
      </trkpt>
      <trkpt lat="45.04089" lon="6.09888">
        <ele>988</ele>
        <time>2024-06-04T20:59:50Z</time>
      </trkpt>
      <trkpt lat="45.04094" lon="6.09903">
        <ele>985</ele>
        <time>2024-06-04T20:59:52Z</time>
      </trkpt>
      <trkpt lat="45.04097" lon="6.09915">
        <ele>984</ele>
        <time>2024-06-04T20:59:54Z</time>
      </trkpt>
      <trkpt lat="45.04097" lon="6.09925">
        <ele>980</ele>
        <time>2024-06-04T20:59:55Z</time>
      </trkpt>
      <trkpt lat="45.04094" lon="6.09945">
        <ele>975</ele>
        <time>2024-06-04T20:59:57Z</time>
      </trkpt>
      <trkpt lat="45.04077" lon="6.0997">
        <ele>978</ele>
        <time>2024-06-04T21:00:02Z</time>
      </trkpt>
      <trkpt lat="45.0405" lon="6.1">
        <ele>983</ele>
        <time>2024-06-04T21:00:08Z</time>
      </trkpt>
      <trkpt lat="45.04039" lon="6.1001">
        <ele>985</ele>
        <time>2024-06-04T21:00:10Z</time>
      </trkpt>
      <trkpt lat="45.04021" lon="6.10019">
        <ele>991</ele>
        <time>2024-06-04T21:00:14Z</time>
      </trkpt>
      <trkpt lat="45.03992" lon="6.10024">
        <ele>1007</ele>
        <time>2024-06-04T21:00:19Z</time>
      </trkpt>
      <trkpt lat="45.03978" lon="6.10034">
        <ele>1009</ele>
        <time>2024-06-04T21:00:22Z</time>
      </trkpt>
      <trkpt lat="45.03931" lon="6.10102">
        <ele>1006</ele>
        <time>2024-06-04T21:00:34Z</time>
      </trkpt>
      <trkpt lat="45.03913" lon="6.10121">
        <ele>1008</ele>
        <time>2024-06-04T21:00:38Z</time>
      </trkpt>
      <trkpt lat="45.03892" lon="6.1014">
        <ele>1011</ele>
        <time>2024-06-04T21:00:42Z</time>
      </trkpt>
      <trkpt lat="45.03882" lon="6.10153">
        <ele>1012</ele>
        <time>2024-06-04T21:00:44Z</time>
      </trkpt>
      <trkpt lat="45.03878" lon="6.10171">
        <ele>1008</ele>
        <time>2024-06-04T21:00:47Z</time>
      </trkpt>
      <trkpt lat="45.03879" lon="6.10188">
        <ele>1005</ele>
        <time>2024-06-04T21:00:49Z</time>
      </trkpt>
      <trkpt lat="45.03886" lon="6.10215">
        <ele>997</ele>
        <time>2024-06-04T21:00:53Z</time>
      </trkpt>
      <trkpt lat="45.03885" lon="6.10236">
        <ele>995</ele>
        <time>2024-06-04T21:00:55Z</time>
      </trkpt>
      <trkpt lat="45.0388" lon="6.10256">
        <ele>993</ele>
        <time>2024-06-04T21:00:58Z</time>
      </trkpt>
      <trkpt lat="45.03868" lon="6.10274">
        <ele>993</ele>
        <time>2024-06-04T21:01:01Z</time>
      </trkpt>
      <trkpt lat="45.03846" lon="6.10292">
        <ele>997</ele>
        <time>2024-06-04T21:01:05Z</time>
      </trkpt>
      <trkpt lat="45.03808" lon="6.10352">
        <ele>1009</ele>
        <time>2024-06-04T21:01:16Z</time>
      </trkpt>
      <trkpt lat="45.03803" lon="6.10364">
        <ele>1011</ele>
        <time>2024-06-04T21:01:17Z</time>
      </trkpt>
      <trkpt lat="45.03801" lon="6.10377">
        <ele>1011</ele>
        <time>2024-06-04T21:01:19Z</time>
      </trkpt>
      <trkpt lat="45.038" lon="6.10391">
        <ele>1011</ele>
        <time>2024-06-04T21:01:21Z</time>
      </trkpt>
      <trkpt lat="45.03802" lon="6.1041">
        <ele>1007</ele>
        <time>2024-06-04T21:01:23Z</time>
      </trkpt>
      <trkpt lat="45.03815" lon="6.10517">
        <ele>990</ele>
        <time>2024-06-04T21:01:37Z</time>
      </trkpt>
      <trkpt lat="45.03819" lon="6.1054">
        <ele>986</ele>
        <time>2024-06-04T21:01:40Z</time>
      </trkpt>
      <trkpt lat="45.03825" lon="6.10568">
        <ele>980</ele>
        <time>2024-06-04T21:01:44Z</time>
      </trkpt>
      <trkpt lat="45.03854" lon="6.10661">
        <ele>967</ele>
        <time>2024-06-04T21:01:56Z</time>
      </trkpt>
      <trkpt lat="45.03861" lon="6.10687">
        <ele>966</ele>
        <time>2024-06-04T21:02:00Z</time>
      </trkpt>
      <trkpt lat="45.03869" lon="6.10733">
        <ele>969</ele>
        <time>2024-06-04T21:02:06Z</time>
      </trkpt>
      <trkpt lat="45.03874" lon="6.10748">
        <ele>967</ele>
        <time>2024-06-04T21:02:08Z</time>
      </trkpt>
      <trkpt lat="45.03883" lon="6.10771">
        <ele>967</ele>
        <time>2024-06-04T21:02:11Z</time>
      </trkpt>
      <trkpt lat="45.03907" lon="6.10819">
        <ele>966</ele>
        <time>2024-06-04T21:02:19Z</time>
      </trkpt>
      <trkpt lat="45.03912" lon="6.10836">
        <ele>970</ele>
        <time>2024-06-04T21:02:21Z</time>
      </trkpt>
      <trkpt lat="45.03912" lon="6.10854">
        <ele>975</ele>
        <time>2024-06-04T21:02:23Z</time>
      </trkpt>
      <trkpt lat="45.03902" lon="6.1089">
        <ele>992</ele>
        <time>2024-06-04T21:02:28Z</time>
      </trkpt>
      <trkpt lat="45.03898" lon="6.10912">
        <ele>1001</ele>
        <time>2024-06-04T21:02:31Z</time>
      </trkpt>
      <trkpt lat="45.03897" lon="6.10931">
        <ele>1006</ele>
        <time>2024-06-04T21:02:33Z</time>
      </trkpt>
      <trkpt lat="45.03898" lon="6.10945">
        <ele>1008</ele>
        <time>2024-06-04T21:02:35Z</time>
      </trkpt>
      <trkpt lat="45.03904" lon="6.10969">
        <ele>1007</ele>
        <time>2024-06-04T21:02:38Z</time>
      </trkpt>
      <trkpt lat="45.03919" lon="6.11002">
        <ele>998</ele>
        <time>2024-06-04T21:02:43Z</time>
      </trkpt>
      <trkpt lat="45.03925" lon="6.1103">
        <ele>997</ele>
        <time>2024-06-04T21:02:47Z</time>
      </trkpt>
      <trkpt lat="45.03947" lon="6.11251">
        <ele>1092</ele>
        <time>2024-06-04T21:03:15Z</time>
      </trkpt>
      <trkpt lat="45.03952" lon="6.11318">
        <ele>1090</ele>
        <time>2024-06-04T21:03:23Z</time>
      </trkpt>
      <trkpt lat="45.03957" lon="6.11343">
        <ele>1087</ele>
        <time>2024-06-04T21:03:27Z</time>
      </trkpt>
      <trkpt lat="45.03976" lon="6.114">
        <ele>1076</ele>
        <time>2024-06-04T21:03:35Z</time>
      </trkpt>
      <trkpt lat="45.03983" lon="6.11434">
        <ele>1068</ele>
        <time>2024-06-04T21:03:39Z</time>
      </trkpt>
      <trkpt lat="45.03995" lon="6.11555">
        <ele>1036</ele>
        <time>2024-06-04T21:03:54Z</time>
      </trkpt>
      <trkpt lat="45.03996" lon="6.11575">
        <ele>1031</ele>
        <time>2024-06-04T21:03:57Z</time>
      </trkpt>
      <trkpt lat="45.03993" lon="6.11632">
        <ele>1019</ele>
        <time>2024-06-04T21:04:04Z</time>
      </trkpt>
      <trkpt lat="45.04002" lon="6.11725">
        <ele>972</ele>
        <time>2024-06-04T21:04:16Z</time>
      </trkpt>
      <trkpt lat="45.04013" lon="6.11781">
        <ele>959</ele>
        <time>2024-06-04T21:04:23Z</time>
      </trkpt>
      <trkpt lat="45.04028" lon="6.1183">
        <ele>956</ele>
        <time>2024-06-04T21:04:30Z</time>
      </trkpt>
      <trkpt lat="45.04036" lon="6.11848">
        <ele>958</ele>
        <time>2024-06-04T21:04:33Z</time>
      </trkpt>
      <trkpt lat="45.04047" lon="6.11866">
        <ele>959</ele>
        <time>2024-06-04T21:04:36Z</time>
      </trkpt>
      <trkpt lat="45.04121" lon="6.1195">
        <ele>950</ele>
        <time>2024-06-04T21:04:52Z</time>
      </trkpt>
      <trkpt lat="45.04135" lon="6.11972">
        <ele>947</ele>
        <time>2024-06-04T21:04:56Z</time>
      </trkpt>
      <trkpt lat="45.04152" lon="6.1201">
        <ele>943</ele>
        <time>2024-06-04T21:05:02Z</time>
      </trkpt>
      <trkpt lat="45.04158" lon="6.12018">
        <ele>943</ele>
        <time>2024-06-04T21:05:03Z</time>
      </trkpt>
      <trkpt lat="45.04171" lon="6.12028">
        <ele>942</ele>
        <time>2024-06-04T21:05:06Z</time>
      </trkpt>
      <trkpt lat="45.04202" lon="6.12043">
        <ele>942</ele>
        <time>2024-06-04T21:05:12Z</time>
      </trkpt>
      <trkpt lat="45.04221" lon="6.12057">
        <ele>940</ele>
        <time>2024-06-04T21:05:16Z</time>
      </trkpt>
      <trkpt lat="45.04238" lon="6.12079">
        <ele>937</ele>
        <time>2024-06-04T21:05:20Z</time>
      </trkpt>
      <trkpt lat="45.04254" lon="6.1211">
        <ele>938</ele>
        <time>2024-06-04T21:05:24Z</time>
      </trkpt>
      <trkpt lat="45.04259" lon="6.12129">
        <ele>942</ele>
        <time>2024-06-04T21:05:27Z</time>
      </trkpt>
      <trkpt lat="45.04262" lon="6.12152">
        <ele>945</ele>
        <time>2024-06-04T21:05:30Z</time>
      </trkpt>
      <trkpt lat="45.04263" lon="6.12194">
        <ele>943</ele>
        <time>2024-06-04T21:05:35Z</time>
      </trkpt>
      <trkpt lat="45.0426" lon="6.12214">
        <ele>940</ele>
        <time>2024-06-04T21:05:38Z</time>
      </trkpt>
      <trkpt lat="45.04243" lon="6.12266">
        <ele>936</ele>
        <time>2024-06-04T21:05:45Z</time>
      </trkpt>
      <trkpt lat="45.04238" lon="6.12286">
        <ele>936</ele>
        <time>2024-06-04T21:05:48Z</time>
      </trkpt>
      <trkpt lat="45.04236" lon="6.12308">
        <ele>935</ele>
        <time>2024-06-04T21:05:50Z</time>
      </trkpt>
      <trkpt lat="45.04237" lon="6.12329">
        <ele>934</ele>
        <time>2024-06-04T21:05:53Z</time>
      </trkpt>
      <trkpt lat="45.04242" lon="6.12351">
        <ele>933</ele>
        <time>2024-06-04T21:05:56Z</time>
      </trkpt>
      <trkpt lat="45.04249" lon="6.12372">
        <ele>932</ele>
        <time>2024-06-04T21:05:59Z</time>
      </trkpt>
      <trkpt lat="45.04258" lon="6.12394">
        <ele>932</ele>
        <time>2024-06-04T21:06:02Z</time>
      </trkpt>
      <trkpt lat="45.04264" lon="6.12403">
        <ele>932</ele>
        <time>2024-06-04T21:06:04Z</time>
      </trkpt>
      <trkpt lat="45.04281" lon="6.12419">
        <ele>930</ele>
        <time>2024-06-04T21:06:07Z</time>
      </trkpt>
      <trkpt lat="45.04335" lon="6.12442">
        <ele>927</ele>
        <time>2024-06-04T21:06:17Z</time>
      </trkpt>
      <trkpt lat="45.04384" lon="6.1247">
        <ele>928</ele>
        <time>2024-06-04T21:06:27Z</time>
      </trkpt>
      <trkpt lat="45.04461" lon="6.12505">
        <ele>929</ele>
        <time>2024-06-04T21:06:41Z</time>
      </trkpt>
      <trkpt lat="45.04464" lon="6.12513">
        <ele>929</ele>
        <time>2024-06-04T21:06:42Z</time>
      </trkpt>
      <trkpt lat="45.04476" lon="6.12524">
        <ele>929</ele>
        <time>2024-06-04T21:06:45Z</time>
      </trkpt>
      <trkpt lat="45.04482" lon="6.1255">
        <ele>930</ele>
        <time>2024-06-04T21:06:48Z</time>
      </trkpt>
      <trkpt lat="45.04483" lon="6.12594">
        <ele>932</ele>
        <time>2024-06-04T21:06:54Z</time>
      </trkpt>
      <trkpt lat="45.0448" lon="6.12613">
        <ele>933</ele>
        <time>2024-06-04T21:06:56Z</time>
      </trkpt>
      <trkpt lat="45.04502" lon="6.12629">
        <ele>932</ele>
        <time>2024-06-04T21:07:01Z</time>
      </trkpt>
      <trkpt lat="45.04527" lon="6.12666">
        <ele>933</ele>
        <time>2024-06-04T21:07:07Z</time>
      </trkpt>
      <trkpt lat="45.04541" lon="6.12674">
        <ele>934</ele>
        <time>2024-06-04T21:07:10Z</time>
      </trkpt>
      <trkpt lat="45.04552" lon="6.12683">
        <ele>935</ele>
        <time>2024-06-04T21:07:12Z</time>
      </trkpt>
      <trkpt lat="45.04564" lon="6.12695">
        <ele>936</ele>
        <time>2024-06-04T21:07:15Z</time>
      </trkpt>
      <trkpt lat="45.04567" lon="6.12704">
        <ele>937</ele>
        <time>2024-06-04T21:07:16Z</time>
      </trkpt>
      <trkpt lat="45.04585" lon="6.12712">
        <ele>938</ele>
        <time>2024-06-04T21:07:19Z</time>
      </trkpt>
      <trkpt lat="45.046" lon="6.12716">
        <ele>937</ele>
        <time>2024-06-04T21:07:22Z</time>
      </trkpt>
      <trkpt lat="45.04629" lon="6.12739">
        <ele>936</ele>
        <time>2024-06-04T21:07:28Z</time>
      </trkpt>
      <trkpt lat="45.04665" lon="6.12746">
        <ele>932</ele>
        <time>2024-06-04T21:07:34Z</time>
      </trkpt>
      <trkpt lat="45.04678" lon="6.12759">
        <ele>935</ele>
        <time>2024-06-04T21:07:37Z</time>
      </trkpt>
      <trkpt lat="45.04721" lon="6.12784">
        <ele>940</ele>
        <time>2024-06-04T21:07:45Z</time>
      </trkpt>
      <trkpt lat="45.04726" lon="6.1278">
        <ele>939</ele>
        <time>2024-06-04T21:07:46Z</time>
      </trkpt>
      <trkpt lat="45.04735" lon="6.12752">
        <ele>936</ele>
        <time>2024-06-04T21:07:50Z</time>
      </trkpt>
      <trkpt lat="45.04735" lon="6.12742">
        <ele>936</ele>
        <time>2024-06-04T21:07:52Z</time>
      </trkpt>
      <trkpt lat="45.04718" lon="6.12715">
        <ele>935</ele>
        <time>2024-06-04T21:07:56Z</time>
      </trkpt>
      <trkpt lat="45.04713" lon="6.12699">
        <ele>935</ele>
        <time>2024-06-04T21:07:58Z</time>
      </trkpt>
      <trkpt lat="45.04712" lon="6.12685">
        <ele>935</ele>
        <time>2024-06-04T21:08:00Z</time>
      </trkpt>
      <trkpt lat="45.04714" lon="6.12669">
        <ele>935</ele>
        <time>2024-06-04T21:08:02Z</time>
      </trkpt>
      <trkpt lat="45.04729" lon="6.12632">
        <ele>940</ele>
        <time>2024-06-04T21:08:08Z</time>
      </trkpt>
      <trkpt lat="45.0473" lon="6.12617">
        <ele>942</ele>
        <time>2024-06-04T21:08:09Z</time>
      </trkpt>
      <trkpt lat="45.04727" lon="6.12585">
        <ele>944</ele>
        <time>2024-06-04T21:08:13Z</time>
      </trkpt>
      <trkpt lat="45.04728" lon="6.12576">
        <ele>946</ele>
        <time>2024-06-04T21:08:15Z</time>
      </trkpt>
      <trkpt lat="45.04733" lon="6.12571">
        <ele>948</ele>
        <time>2024-06-04T21:08:16Z</time>
      </trkpt>
      <trkpt lat="45.04742" lon="6.12574">
        <ele>949</ele>
        <time>2024-06-04T21:08:17Z</time>
      </trkpt>
      <trkpt lat="45.04756" lon="6.126">
        <ele>949</ele>
        <time>2024-06-04T21:08:21Z</time>
      </trkpt>
      <trkpt lat="45.04763" lon="6.12606">
        <ele>950</ele>
        <time>2024-06-04T21:08:23Z</time>
      </trkpt>
      <trkpt lat="45.04789" lon="6.12611">
        <ele>955</ele>
        <time>2024-06-04T21:08:28Z</time>
      </trkpt>
      <trkpt lat="45.04851" lon="6.12598">
        <ele>969</ele>
        <time>2024-06-04T21:08:39Z</time>
      </trkpt>
      <trkpt lat="45.04859" lon="6.12588">
        <ele>970</ele>
        <time>2024-06-04T21:08:41Z</time>
      </trkpt>
      <trkpt lat="45.04858" lon="6.12581">
        <ele>970</ele>
        <time>2024-06-04T21:08:42Z</time>
      </trkpt>
      <trkpt lat="45.04855" lon="6.12577">
        <ele>971</ele>
        <time>2024-06-04T21:08:42Z</time>
      </trkpt>
      <trkpt lat="45.0484" lon="6.12579">
        <ele>968</ele>
        <time>2024-06-04T21:08:45Z</time>
      </trkpt>
      <trkpt lat="45.04828" lon="6.12578">
        <ele>966</ele>
        <time>2024-06-04T21:08:47Z</time>
      </trkpt>
      <trkpt lat="45.04794" lon="6.1257">
        <ele>961</ele>
        <time>2024-06-04T21:08:53Z</time>
      </trkpt>
      <trkpt lat="45.04781" lon="6.12557">
        <ele>961</ele>
        <time>2024-06-04T21:08:56Z</time>
      </trkpt>
      <trkpt lat="45.04776" lon="6.12544">
        <ele>963</ele>
        <time>2024-06-04T21:08:58Z</time>
      </trkpt>
      <trkpt lat="45.04773" lon="6.12531">
        <ele>965</ele>
        <time>2024-06-04T21:09:00Z</time>
      </trkpt>
      <trkpt lat="45.04768" lon="6.12481">
        <ele>971</ele>
        <time>2024-06-04T21:09:06Z</time>
      </trkpt>
      <trkpt lat="45.04768" lon="6.12424">
        <ele>977</ele>
        <time>2024-06-04T21:09:13Z</time>
      </trkpt>
      <trkpt lat="45.04766" lon="6.12382">
        <ele>983</ele>
        <time>2024-06-04T21:09:18Z</time>
      </trkpt>
      <trkpt lat="45.04763" lon="6.12359">
        <ele>986</ele>
        <time>2024-06-04T21:09:21Z</time>
      </trkpt>
      <trkpt lat="45.04722" lon="6.12244">
        <ele>1005</ele>
        <time>2024-06-04T21:09:38Z</time>
      </trkpt>
      <trkpt lat="45.04712" lon="6.12225">
        <ele>1008</ele>
        <time>2024-06-04T21:09:41Z</time>
      </trkpt>
      <trkpt lat="45.047" lon="6.12205">
        <ele>1011</ele>
        <time>2024-06-04T21:09:44Z</time>
      </trkpt>
      <trkpt lat="45.04693" lon="6.12199">
        <ele>1012</ele>
        <time>2024-06-04T21:09:45Z</time>
      </trkpt>
      <trkpt lat="45.04637" lon="6.12165">
        <ele>1015</ele>
        <time>2024-06-04T21:09:56Z</time>
      </trkpt>
      <trkpt lat="45.04617" lon="6.1214">
        <ele>1021</ele>
        <time>2024-06-04T21:10:01Z</time>
      </trkpt>
      <trkpt lat="45.04609" lon="6.12135">
        <ele>1022</ele>
        <time>2024-06-04T21:10:02Z</time>
      </trkpt>
      <trkpt lat="45.04599" lon="6.12134">
        <ele>1022</ele>
        <time>2024-06-04T21:10:04Z</time>
      </trkpt>
      <trkpt lat="45.04571" lon="6.12137">
        <ele>1019</ele>
        <time>2024-06-04T21:10:09Z</time>
      </trkpt>
      <trkpt lat="45.04562" lon="6.12134">
        <ele>1020</ele>
        <time>2024-06-04T21:10:11Z</time>
      </trkpt>
      <trkpt lat="45.04558" lon="6.12128">
        <ele>1021</ele>
        <time>2024-06-04T21:10:12Z</time>
      </trkpt>
      <trkpt lat="45.0456" lon="6.1212">
        <ele>1023</ele>
        <time>2024-06-04T21:10:13Z</time>
      </trkpt>
      <trkpt lat="45.04571" lon="6.12112">
        <ele>1026</ele>
        <time>2024-06-04T21:10:15Z</time>
      </trkpt>
      <trkpt lat="45.04594" lon="6.12085">
        <ele>1034</ele>
        <time>2024-06-04T21:10:20Z</time>
      </trkpt>
      <trkpt lat="45.04604" lon="6.12076">
        <ele>1037</ele>
        <time>2024-06-04T21:10:23Z</time>
      </trkpt>
      <trkpt lat="45.04615" lon="6.12073">
        <ele>1038</ele>
        <time>2024-06-04T21:10:25Z</time>
      </trkpt>
      <trkpt lat="45.04641" lon="6.12077">
        <ele>1039</ele>
        <time>2024-06-04T21:10:29Z</time>
      </trkpt>
      <trkpt lat="45.04702" lon="6.12063">
        <ele>1049</ele>
        <time>2024-06-04T21:10:40Z</time>
      </trkpt>
      <trkpt lat="45.04743" lon="6.12065">
        <ele>1056</ele>
        <time>2024-06-04T21:10:48Z</time>
      </trkpt>
      <trkpt lat="45.04773" lon="6.12074">
        <ele>1060</ele>
        <time>2024-06-04T21:10:53Z</time>
      </trkpt>
      <trkpt lat="45.04795" lon="6.12089">
        <ele>1060</ele>
        <time>2024-06-04T21:10:57Z</time>
      </trkpt>
      <trkpt lat="45.04801" lon="6.1209">
        <ele>1061</ele>
        <time>2024-06-04T21:10:58Z</time>
      </trkpt>
      <trkpt lat="45.04809" lon="6.12086">
        <ele>1064</ele>
        <time>2024-06-04T21:11:00Z</time>
      </trkpt>
      <trkpt lat="45.04811" lon="6.12083">
        <ele>1065</ele>
        <time>2024-06-04T21:11:00Z</time>
      </trkpt>
      <trkpt lat="45.04809" lon="6.12077">
        <ele>1067</ele>
        <time>2024-06-04T21:11:01Z</time>
      </trkpt>
      <trkpt lat="45.04805" lon="6.1207">
        <ele>1068</ele>
        <time>2024-06-04T21:11:02Z</time>
      </trkpt>
      <trkpt lat="45.04756" lon="6.12032">
        <ele>1067</ele>
        <time>2024-06-04T21:11:12Z</time>
      </trkpt>
      <trkpt lat="45.04749" lon="6.12024">
        <ele>1067</ele>
        <time>2024-06-04T21:11:14Z</time>
      </trkpt>
      <trkpt lat="45.04738" lon="6.12013">
        <ele>1068</ele>
        <time>2024-06-04T21:11:16Z</time>
      </trkpt>
      <trkpt lat="45.04728" lon="6.11995">
        <ele>1071</ele>
        <time>2024-06-04T21:11:19Z</time>
      </trkpt>
      <trkpt lat="45.0472" lon="6.11974">
        <ele>1074</ele>
        <time>2024-06-04T21:11:22Z</time>
      </trkpt>
      <trkpt lat="45.04704" lon="6.11906">
        <ele>1087</ele>
        <time>2024-06-04T21:11:31Z</time>
      </trkpt>
      <trkpt lat="45.04691" lon="6.1189">
        <ele>1089</ele>
        <time>2024-06-04T21:11:34Z</time>
      </trkpt>
      <trkpt lat="45.04644" lon="6.11854">
        <ele>1091</ele>
        <time>2024-06-04T21:11:44Z</time>
      </trkpt>
      <trkpt lat="45.04627" lon="6.11831">
        <ele>1095</ele>
        <time>2024-06-04T21:11:48Z</time>
      </trkpt>
      <trkpt lat="45.04607" lon="6.11812">
        <ele>1099</ele>
        <time>2024-06-04T21:11:52Z</time>
      </trkpt>
      <trkpt lat="45.04537" lon="6.11763">
        <ele>1103</ele>
        <time>2024-06-04T21:12:06Z</time>
      </trkpt>
      <trkpt lat="45.04516" lon="6.11745">
        <ele>1105</ele>
        <time>2024-06-04T21:12:11Z</time>
      </trkpt>
      <trkpt lat="45.04507" lon="6.11732">
        <ele>1107</ele>
        <time>2024-06-04T21:12:13Z</time>
      </trkpt>
      <trkpt lat="45.04488" lon="6.11672">
        <ele>1121</ele>
        <time>2024-06-04T21:12:21Z</time>
      </trkpt>
      <trkpt lat="45.04481" lon="6.11654">
        <ele>1126</ele>
        <time>2024-06-04T21:12:24Z</time>
      </trkpt>
      <trkpt lat="45.0447" lon="6.11638">
        <ele>1131</ele>
        <time>2024-06-04T21:12:26Z</time>
      </trkpt>
      <trkpt lat="45.04451" lon="6.11626">
        <ele>1134</ele>
        <time>2024-06-04T21:12:30Z</time>
      </trkpt>
      <trkpt lat="45.04434" lon="6.11621">
        <ele>1134</ele>
        <time>2024-06-04T21:12:33Z</time>
      </trkpt>
      <trkpt lat="45.04419" lon="6.11618">
        <ele>1133</ele>
        <time>2024-06-04T21:12:36Z</time>
      </trkpt>
      <trkpt lat="45.04379" lon="6.11616">
        <ele>1132</ele>
        <time>2024-06-04T21:12:43Z</time>
      </trkpt>
      <trkpt lat="45.04373" lon="6.11612">
        <ele>1134</ele>
        <time>2024-06-04T21:12:44Z</time>
      </trkpt>
      <trkpt lat="45.04369" lon="6.11604">
        <ele>1138</ele>
        <time>2024-06-04T21:12:46Z</time>
      </trkpt>
      <trkpt lat="45.04371" lon="6.11596">
        <ele>1142</ele>
        <time>2024-06-04T21:12:47Z</time>
      </trkpt>
      <trkpt lat="45.04377" lon="6.11591">
        <ele>1144</ele>
        <time>2024-06-04T21:12:48Z</time>
      </trkpt>
      <trkpt lat="45.04412" lon="6.11595">
        <ele>1143</ele>
        <time>2024-06-04T21:12:54Z</time>
      </trkpt>
      <trkpt lat="45.04478" lon="6.11588">
        <ele>1154</ele>
        <time>2024-06-04T21:13:06Z</time>
      </trkpt>
      <trkpt lat="45.04587" lon="6.11622">
        <ele>1160</ele>
        <time>2024-06-04T21:13:26Z</time>
      </trkpt>
      <trkpt lat="45.04624" lon="6.1164">
        <ele>1160</ele>
        <time>2024-06-04T21:13:33Z</time>
      </trkpt>
      <trkpt lat="45.04638" lon="6.11644">
        <ele>1161</ele>
        <time>2024-06-04T21:13:35Z</time>
      </trkpt>
      <trkpt lat="45.04647" lon="6.11645">
        <ele>1162</ele>
        <time>2024-06-04T21:13:37Z</time>
      </trkpt>
      <trkpt lat="45.04666" lon="6.11639">
        <ele>1168</ele>
        <time>2024-06-04T21:13:40Z</time>
      </trkpt>
      <trkpt lat="45.04682" lon="6.11641">
        <ele>1169</ele>
        <time>2024-06-04T21:13:43Z</time>
      </trkpt>
      <trkpt lat="45.04718" lon="6.11648">
        <ele>1172</ele>
        <time>2024-06-04T21:13:50Z</time>
      </trkpt>
      <trkpt lat="45.04774" lon="6.11652">
        <ele>1181</ele>
        <time>2024-06-04T21:14:00Z</time>
      </trkpt>
      <trkpt lat="45.04806" lon="6.11661">
        <ele>1185</ele>
        <time>2024-06-04T21:14:05Z</time>
      </trkpt>
      <trkpt lat="45.0483" lon="6.11672">
        <ele>1189</ele>
        <time>2024-06-04T21:14:10Z</time>
      </trkpt>
      <trkpt lat="45.04847" lon="6.11683">
        <ele>1192</ele>
        <time>2024-06-04T21:14:13Z</time>
      </trkpt>
      <trkpt lat="45.04869" lon="6.11709">
        <ele>1193</ele>
        <time>2024-06-04T21:14:18Z</time>
      </trkpt>
      <trkpt lat="45.04875" lon="6.11714">
        <ele>1194</ele>
        <time>2024-06-04T21:14:20Z</time>
      </trkpt>
      <trkpt lat="45.0488" lon="6.11714">
        <ele>1195</ele>
        <time>2024-06-04T21:14:20Z</time>
      </trkpt>
      <trkpt lat="45.04886" lon="6.1171">
        <ele>1198</ele>
        <time>2024-06-04T21:14:22Z</time>
      </trkpt>
      <trkpt lat="45.04887" lon="6.11701">
        <ele>1200</ele>
        <time>2024-06-04T21:14:23Z</time>
      </trkpt>
      <trkpt lat="45.04886" lon="6.11691">
        <ele>1202</ele>
        <time>2024-06-04T21:14:24Z</time>
      </trkpt>
      <trkpt lat="45.04878" lon="6.1168">
        <ele>1202</ele>
        <time>2024-06-04T21:14:26Z</time>
      </trkpt>
      <trkpt lat="45.04866" lon="6.11669">
        <ele>1200</ele>
        <time>2024-06-04T21:14:29Z</time>
      </trkpt>
      <trkpt lat="45.04851" lon="6.11651">
        <ele>1201</ele>
        <time>2024-06-04T21:14:32Z</time>
      </trkpt>
      <trkpt lat="45.04824" lon="6.11613">
        <ele>1206</ele>
        <time>2024-06-04T21:14:39Z</time>
      </trkpt>
      <trkpt lat="45.04803" lon="6.11592">
        <ele>1210</ele>
        <time>2024-06-04T21:14:43Z</time>
      </trkpt>
      <trkpt lat="45.04762" lon="6.11569">
        <ele>1213</ele>
        <time>2024-06-04T21:14:51Z</time>
      </trkpt>
      <trkpt lat="45.04606" lon="6.11503">
        <ele>1221</ele>
        <time>2024-06-04T21:15:20Z</time>
      </trkpt>
      <trkpt lat="45.04543" lon="6.11459">
        <ele>1227</ele>
        <time>2024-06-04T21:15:33Z</time>
      </trkpt>
      <trkpt lat="45.04525" lon="6.11443">
        <ele>1229</ele>
        <time>2024-06-04T21:15:36Z</time>
      </trkpt>
      <trkpt lat="45.04506" lon="6.11421">
        <ele>1233</ele>
        <time>2024-06-04T21:15:41Z</time>
      </trkpt>
      <trkpt lat="45.04496" lon="6.11412">
        <ele>1234</ele>
        <time>2024-06-04T21:15:43Z</time>
      </trkpt>
      <trkpt lat="45.04467" lon="6.11402">
        <ele>1234</ele>
        <time>2024-06-04T21:15:48Z</time>
      </trkpt>
      <trkpt lat="45.04452" lon="6.1139">
        <ele>1234</ele>
        <time>2024-06-04T21:15:51Z</time>
      </trkpt>
      <trkpt lat="45.04436" lon="6.11362">
        <ele>1236</ele>
        <time>2024-06-04T21:15:56Z</time>
      </trkpt>
      <trkpt lat="45.04431" lon="6.11347">
        <ele>1236</ele>
        <time>2024-06-04T21:15:58Z</time>
      </trkpt>
      <trkpt lat="45.04428" lon="6.11292">
        <ele>1235</ele>
        <time>2024-06-04T21:16:05Z</time>
      </trkpt>
      <trkpt lat="45.04433" lon="6.11257">
        <ele>1234</ele>
        <time>2024-06-04T21:16:09Z</time>
      </trkpt>
      <trkpt lat="45.04439" lon="6.11242">
        <ele>1234</ele>
        <time>2024-06-04T21:16:12Z</time>
      </trkpt>
      <trkpt lat="45.04447" lon="6.11235">
        <ele>1235</ele>
        <time>2024-06-04T21:16:13Z</time>
      </trkpt>
      <trkpt lat="45.04479" lon="6.11228">
        <ele>1240</ele>
        <time>2024-06-04T21:16:19Z</time>
      </trkpt>
      <trkpt lat="45.04489" lon="6.11219">
        <ele>1241</ele>
        <time>2024-06-04T21:16:21Z</time>
      </trkpt>
      <trkpt lat="45.04498" lon="6.11206">
        <ele>1242</ele>
        <time>2024-06-04T21:16:23Z</time>
      </trkpt>
      <trkpt lat="45.04502" lon="6.11184">
        <ele>1242</ele>
        <time>2024-06-04T21:16:26Z</time>
      </trkpt>
      <trkpt lat="45.04503" lon="6.11167">
        <ele>1241</ele>
        <time>2024-06-04T21:16:28Z</time>
      </trkpt>
      <trkpt lat="45.04499" lon="6.11152">
        <ele>1241</ele>
        <time>2024-06-04T21:16:30Z</time>
      </trkpt>
      <trkpt lat="45.04442" lon="6.1107">
        <ele>1233</ele>
        <time>2024-06-04T21:16:45Z</time>
      </trkpt>
      <trkpt lat="45.04428" lon="6.11041">
        <ele>1231</ele>
        <time>2024-06-04T21:16:49Z</time>
      </trkpt>
      <trkpt lat="45.04417" lon="6.11024">
        <ele>1229</ele>
        <time>2024-06-04T21:16:52Z</time>
      </trkpt>
      <trkpt lat="45.04406" lon="6.11013">
        <ele>1227</ele>
        <time>2024-06-04T21:16:55Z</time>
      </trkpt>
      <trkpt lat="45.0439" lon="6.11002">
        <ele>1222</ele>
        <time>2024-06-04T21:16:58Z</time>
      </trkpt>
      <trkpt lat="45.04381" lon="6.10992">
        <ele>1219</ele>
        <time>2024-06-04T21:17:00Z</time>
      </trkpt>
      <trkpt lat="45.04379" lon="6.10979">
        <ele>1217</ele>
        <time>2024-06-04T21:17:01Z</time>
      </trkpt>
      <trkpt lat="45.04393" lon="6.10926">
        <ele>1221</ele>
        <time>2024-06-04T21:17:09Z</time>
      </trkpt>
      <trkpt lat="45.04391" lon="6.10864">
        <ele>1209</ele>
        <time>2024-06-04T21:17:16Z</time>
      </trkpt>
      <trkpt lat="45.04395" lon="6.10849">
        <ele>1207</ele>
        <time>2024-06-04T21:17:18Z</time>
      </trkpt>
      <trkpt lat="45.04401" lon="6.10841">
        <ele>1208</ele>
        <time>2024-06-04T21:17:20Z</time>
      </trkpt>
      <trkpt lat="45.04431" lon="6.10812">
        <ele>1204</ele>
        <time>2024-06-04T21:17:26Z</time>
      </trkpt>
      <trkpt lat="45.04447" lon="6.10802">
        <ele>1202</ele>
        <time>2024-06-04T21:17:29Z</time>
      </trkpt>
      <trkpt lat="45.04471" lon="6.10783">
        <ele>1197</ele>
        <time>2024-06-04T21:17:34Z</time>
      </trkpt>
      <trkpt lat="45.0448" lon="6.10783">
        <ele>1199</ele>
        <time>2024-06-04T21:17:36Z</time>
      </trkpt>
      <trkpt lat="45.04507" lon="6.10799">
        <ele>1215</ele>
        <time>2024-06-04T21:17:41Z</time>
      </trkpt>
      <trkpt lat="45.04522" lon="6.10803">
        <ele>1218</ele>
        <time>2024-06-04T21:17:44Z</time>
      </trkpt>
      <trkpt lat="45.04539" lon="6.10802">
        <ele>1219</ele>
        <time>2024-06-04T21:17:47Z</time>
      </trkpt>
      <trkpt lat="45.04575" lon="6.10793">
        <ele>1217</ele>
        <time>2024-06-04T21:17:53Z</time>
      </trkpt>
      <trkpt lat="45.04609" lon="6.1077">
        <ele>1211</ele>
        <time>2024-06-04T21:18:00Z</time>
      </trkpt>
      <trkpt lat="45.04625" lon="6.10751">
        <ele>1205</ele>
        <time>2024-06-04T21:18:04Z</time>
      </trkpt>
      <trkpt lat="45.04645" lon="6.10724">
        <ele>1200</ele>
        <time>2024-06-04T21:18:09Z</time>
      </trkpt>
      <trkpt lat="45.04657" lon="6.10703">
        <ele>1196</ele>
        <time>2024-06-04T21:18:12Z</time>
      </trkpt>
      <trkpt lat="45.04669" lon="6.10676">
        <ele>1191</ele>
        <time>2024-06-04T21:18:16Z</time>
      </trkpt>
      <trkpt lat="45.04715" lon="6.10529">
        <ele>1179</ele>
        <time>2024-06-04T21:18:36Z</time>
      </trkpt>
      <trkpt lat="45.04744" lon="6.10466">
        <ele>1175</ele>
        <time>2024-06-04T21:18:46Z</time>
      </trkpt>
      <trkpt lat="45.04778" lon="6.10401">
        <ele>1168</ele>
        <time>2024-06-04T21:18:56Z</time>
      </trkpt>
      <trkpt lat="45.04788" lon="6.10387">
        <ele>1166</ele>
        <time>2024-06-04T21:18:58Z</time>
      </trkpt>
      <trkpt lat="45.04804" lon="6.10374">
        <ele>1166</ele>
        <time>2024-06-04T21:19:02Z</time>
      </trkpt>
      <trkpt lat="45.04831" lon="6.1036">
        <ele>1167</ele>
        <time>2024-06-04T21:19:07Z</time>
      </trkpt>
      <trkpt lat="45.04863" lon="6.10334">
        <ele>1164</ele>
        <time>2024-06-04T21:19:13Z</time>
      </trkpt>
      <trkpt lat="45.04902" lon="6.10298">
        <ele>1160</ele>
        <time>2024-06-04T21:19:22Z</time>
      </trkpt>
      <trkpt lat="45.04934" lon="6.10276">
        <ele>1162</ele>
        <time>2024-06-04T21:19:28Z</time>
      </trkpt>
      <trkpt lat="45.04957" lon="6.10265">
        <ele>1166</ele>
        <time>2024-06-04T21:19:32Z</time>
      </trkpt>
      <trkpt lat="45.04962" lon="6.1026">
        <ele>1167</ele>
        <time>2024-06-04T21:19:33Z</time>
      </trkpt>
      <trkpt lat="45.04966" lon="6.10252">
        <ele>1167</ele>
        <time>2024-06-04T21:19:35Z</time>
      </trkpt>
      <trkpt lat="45.04965" lon="6.10243">
        <ele>1168</ele>
        <time>2024-06-04T21:19:36Z</time>
      </trkpt>
      <trkpt lat="45.04963" lon="6.10236">
        <ele>1169</ele>
        <time>2024-06-04T21:19:37Z</time>
      </trkpt>
      <trkpt lat="45.04955" lon="6.10227">
        <ele>1169</ele>
        <time>2024-06-04T21:19:39Z</time>
      </trkpt>
      <trkpt lat="45.04937" lon="6.10218">
        <ele>1166</ele>
        <time>2024-06-04T21:19:42Z</time>
      </trkpt>
      <trkpt lat="45.04905" lon="6.10208">
        <ele>1158</ele>
        <time>2024-06-04T21:19:48Z</time>
      </trkpt>
      <trkpt lat="45.04891" lon="6.10199">
        <ele>1155</ele>
        <time>2024-06-04T21:19:51Z</time>
      </trkpt>
      <trkpt lat="45.04857" lon="6.10159">
        <ele>1151</ele>
        <time>2024-06-04T21:19:58Z</time>
      </trkpt>
      <trkpt lat="45.04831" lon="6.1012">
        <ele>1147</ele>
        <time>2024-06-04T21:20:05Z</time>
      </trkpt>
      <trkpt lat="45.0482" lon="6.10099">
        <ele>1144</ele>
        <time>2024-06-04T21:20:08Z</time>
      </trkpt>
      <trkpt lat="45.04818" lon="6.10086">
        <ele>1145</ele>
        <time>2024-06-04T21:20:10Z</time>
      </trkpt>
      <trkpt lat="45.0482" lon="6.10074">
        <ele>1145</ele>
        <time>2024-06-04T21:20:12Z</time>
      </trkpt>
      <trkpt lat="45.04826" lon="6.10059">
        <ele>1147</ele>
        <time>2024-06-04T21:20:14Z</time>
      </trkpt>
      <trkpt lat="45.04868" lon="6.10007">
        <ele>1170</ele>
        <time>2024-06-04T21:20:24Z</time>
      </trkpt>
      <trkpt lat="45.04874" lon="6.09973">
        <ele>1175</ele>
        <time>2024-06-04T21:20:28Z</time>
      </trkpt>
      <trkpt lat="45.04876" lon="6.09932">
        <ele>1179</ele>
        <time>2024-06-04T21:20:33Z</time>
      </trkpt>
      <trkpt lat="45.04871" lon="6.09911">
        <ele>1179</ele>
        <time>2024-06-04T21:20:36Z</time>
      </trkpt>
      <trkpt lat="45.04865" lon="6.09896">
        <ele>1180</ele>
        <time>2024-06-04T21:20:38Z</time>
      </trkpt>
      <trkpt lat="45.04843" lon="6.09886">
        <ele>1172</ele>
        <time>2024-06-04T21:20:42Z</time>
      </trkpt>
      <trkpt lat="45.0483" lon="6.09875">
        <ele>1169</ele>
        <time>2024-06-04T21:20:45Z</time>
      </trkpt>
      <trkpt lat="45.04819" lon="6.09856">
        <ele>1169</ele>
        <time>2024-06-04T21:20:48Z</time>
      </trkpt>
      <trkpt lat="45.04801" lon="6.09798">
        <ele>1171</ele>
        <time>2024-06-04T21:20:56Z</time>
      </trkpt>
      <trkpt lat="45.04796" lon="6.09773">
        <ele>1172</ele>
        <time>2024-06-04T21:20:59Z</time>
      </trkpt>
      <trkpt lat="45.04793" lon="6.09745">
        <ele>1174</ele>
        <time>2024-06-04T21:21:03Z</time>
      </trkpt>
      <trkpt lat="45.04798" lon="6.09687">
        <ele>1183</ele>
        <time>2024-06-04T21:21:10Z</time>
      </trkpt>
      <trkpt lat="45.048" lon="6.09643">
        <ele>1188</ele>
        <time>2024-06-04T21:21:16Z</time>
      </trkpt>
      <trkpt lat="45.04796" lon="6.09603">
        <ele>1189</ele>
        <time>2024-06-04T21:21:21Z</time>
      </trkpt>
      <trkpt lat="45.04764" lon="6.09419">
        <ele>1192</ele>
        <time>2024-06-04T21:21:45Z</time>
      </trkpt>
      <trkpt lat="45.04751" lon="6.09375">
        <ele>1188</ele>
        <time>2024-06-04T21:21:51Z</time>
      </trkpt>
      <trkpt lat="45.04741" lon="6.09354">
        <ele>1188</ele>
        <time>2024-06-04T21:21:54Z</time>
      </trkpt>
      <trkpt lat="45.04728" lon="6.09335">
        <ele>1187</ele>
        <time>2024-06-04T21:21:57Z</time>
      </trkpt>
      <trkpt lat="45.04691" lon="6.09291">
        <ele>1184</ele>
        <time>2024-06-04T21:22:06Z</time>
      </trkpt>
      <trkpt lat="45.04666" lon="6.0925">
        <ele>1182</ele>
        <time>2024-06-04T21:22:13Z</time>
      </trkpt>
      <trkpt lat="45.04638" lon="6.09186">
        <ele>1185</ele>
        <time>2024-06-04T21:22:22Z</time>
      </trkpt>
      <trkpt lat="45.04635" lon="6.09175">
        <ele>1186</ele>
        <time>2024-06-04T21:22:24Z</time>
      </trkpt>
      <trkpt lat="45.04634" lon="6.09167">
        <ele>1187</ele>
        <time>2024-06-04T21:22:25Z</time>
      </trkpt>
      <trkpt lat="45.04638" lon="6.09131">
        <ele>1192</ele>
        <time>2024-06-04T21:22:29Z</time>
      </trkpt>
      <trkpt lat="45.04637" lon="6.09123">
        <ele>1193</ele>
        <time>2024-06-04T21:22:30Z</time>
      </trkpt>
      <trkpt lat="45.0463" lon="6.09112">
        <ele>1193</ele>
        <time>2024-06-04T21:22:32Z</time>
      </trkpt>
      <trkpt lat="45.04625" lon="6.0911">
        <ele>1192</ele>
        <time>2024-06-04T21:22:33Z</time>
      </trkpt>
      <trkpt lat="45.04574" lon="6.09109">
        <ele>1185</ele>
        <time>2024-06-04T21:22:42Z</time>
      </trkpt>
      <trkpt lat="45.04555" lon="6.091">
        <ele>1185</ele>
        <time>2024-06-04T21:22:46Z</time>
      </trkpt>
      <trkpt lat="45.04497" lon="6.09066">
        <ele>1190</ele>
        <time>2024-06-04T21:22:57Z</time>
      </trkpt>
      <trkpt lat="45.04416" lon="6.09039">
        <ele>1198</ele>
        <time>2024-06-04T21:23:12Z</time>
      </trkpt>
      <trkpt lat="45.0439" lon="6.09026">
        <ele>1198</ele>
        <time>2024-06-04T21:23:17Z</time>
      </trkpt>
      <trkpt lat="45.04382" lon="6.09018">
        <ele>1199</ele>
        <time>2024-06-04T21:23:18Z</time>
      </trkpt>
      <trkpt lat="45.04353" lon="6.08965">
        <ele>1205</ele>
        <time>2024-06-04T21:23:27Z</time>
      </trkpt>
      <trkpt lat="45.04341" lon="6.08938">
        <ele>1207</ele>
        <time>2024-06-04T21:23:31Z</time>
      </trkpt>
      <trkpt lat="45.04327" lon="6.089">
        <ele>1210</ele>
        <time>2024-06-04T21:23:36Z</time>
      </trkpt>
      <trkpt lat="45.04314" lon="6.0885">
        <ele>1216</ele>
        <time>2024-06-04T21:23:43Z</time>
      </trkpt>
      <trkpt lat="45.04301" lon="6.08816">
        <ele>1219</ele>
        <time>2024-06-04T21:23:48Z</time>
      </trkpt>
      <trkpt lat="45.04282" lon="6.08784">
        <ele>1221</ele>
        <time>2024-06-04T21:23:53Z</time>
      </trkpt>
      <trkpt lat="45.04264" lon="6.0876">
        <ele>1222</ele>
        <time>2024-06-04T21:23:57Z</time>
      </trkpt>
      <trkpt lat="45.04253" lon="6.08749">
        <ele>1222</ele>
        <time>2024-06-04T21:24:00Z</time>
      </trkpt>
      <trkpt lat="45.04244" lon="6.08735">
        <ele>1223</ele>
        <time>2024-06-04T21:24:02Z</time>
      </trkpt>
      <trkpt lat="45.04235" lon="6.0871">
        <ele>1228</ele>
        <time>2024-06-04T21:24:06Z</time>
      </trkpt>
      <trkpt lat="45.04228" lon="6.08695">
        <ele>1231</ele>
        <time>2024-06-04T21:24:08Z</time>
      </trkpt>
      <trkpt lat="45.04221" lon="6.08686">
        <ele>1230</ele>
        <time>2024-06-04T21:24:10Z</time>
      </trkpt>
      <trkpt lat="45.0421" lon="6.08678">
        <ele>1227</ele>
        <time>2024-06-04T21:24:12Z</time>
      </trkpt>
      <trkpt lat="45.042" lon="6.08666">
        <ele>1226</ele>
        <time>2024-06-04T21:24:14Z</time>
      </trkpt>
      <trkpt lat="45.04192" lon="6.08656">
        <ele>1226</ele>
        <time>2024-06-04T21:24:16Z</time>
      </trkpt>
      <trkpt lat="45.04167" lon="6.08609">
        <ele>1230</ele>
        <time>2024-06-04T21:24:23Z</time>
      </trkpt>
      <trkpt lat="45.04156" lon="6.08583">
        <ele>1236</ele>
        <time>2024-06-04T21:24:27Z</time>
      </trkpt>
      <trkpt lat="45.04152" lon="6.0855">
        <ele>1247</ele>
        <time>2024-06-04T21:24:31Z</time>
      </trkpt>
      <trkpt lat="45.04147" lon="6.08537">
        <ele>1250</ele>
        <time>2024-06-04T21:24:33Z</time>
      </trkpt>
      <trkpt lat="45.04077" lon="6.08488">
        <ele>1243</ele>
        <time>2024-06-04T21:24:47Z</time>
      </trkpt>
      <trkpt lat="45.04035" lon="6.08438">
        <ele>1243</ele>
        <time>2024-06-04T21:24:57Z</time>
      </trkpt>
      <trkpt lat="45.04033" lon="6.08426">
        <ele>1246</ele>
        <time>2024-06-04T21:24:58Z</time>
      </trkpt>
      <trkpt lat="45.04026" lon="6.08424">
        <ele>1244</ele>
        <time>2024-06-04T21:25:00Z</time>
      </trkpt>
      <trkpt lat="45.04004" lon="6.08395">
        <ele>1246</ele>
        <time>2024-06-04T21:25:05Z</time>
      </trkpt>
      <trkpt lat="45.03969" lon="6.08361">
        <ele>1248</ele>
        <time>2024-06-04T21:25:13Z</time>
      </trkpt>
      <trkpt lat="45.03938" lon="6.08339">
        <ele>1246</ele>
        <time>2024-06-04T21:25:19Z</time>
      </trkpt>
      <trkpt lat="45.03921" lon="6.0833">
        <ele>1244</ele>
        <time>2024-06-04T21:25:22Z</time>
      </trkpt>
      <trkpt lat="45.03908" lon="6.08317">
        <ele>1245</ele>
        <time>2024-06-04T21:25:25Z</time>
      </trkpt>
      <trkpt lat="45.03894" lon="6.08311">
        <ele>1244</ele>
        <time>2024-06-04T21:25:27Z</time>
      </trkpt>
      <trkpt lat="45.03874" lon="6.08299">
        <ele>1244</ele>
        <time>2024-06-04T21:25:31Z</time>
      </trkpt>
      <trkpt lat="45.03847" lon="6.08272">
        <ele>1248</ele>
        <time>2024-06-04T21:25:37Z</time>
      </trkpt>
      <trkpt lat="45.03806" lon="6.08224">
        <ele>1252</ele>
        <time>2024-06-04T21:25:47Z</time>
      </trkpt>
      <trkpt lat="45.03778" lon="6.08203">
        <ele>1248</ele>
        <time>2024-06-04T21:25:52Z</time>
      </trkpt>
      <trkpt lat="45.03768" lon="6.08193">
        <ele>1246</ele>
        <time>2024-06-04T21:25:55Z</time>
      </trkpt>
      <trkpt lat="45.03758" lon="6.08172">
        <ele>1246</ele>
        <time>2024-06-04T21:25:58Z</time>
      </trkpt>
      <trkpt lat="45.03753" lon="6.08147">
        <ele>1247</ele>
        <time>2024-06-04T21:26:01Z</time>
      </trkpt>
      <trkpt lat="45.03753" lon="6.08129">
        <ele>1248</ele>
        <time>2024-06-04T21:26:03Z</time>
      </trkpt>
      <trkpt lat="45.03755" lon="6.08108">
        <ele>1251</ele>
        <time>2024-06-04T21:26:06Z</time>
      </trkpt>
      <trkpt lat="45.03772" lon="6.0804">
        <ele>1260</ele>
        <time>2024-06-04T21:26:15Z</time>
      </trkpt>
      <trkpt lat="45.03781" lon="6.0801">
        <ele>1263</ele>
        <time>2024-06-04T21:26:19Z</time>
      </trkpt>
      <trkpt lat="45.03796" lon="6.07978">
        <ele>1268</ele>
        <time>2024-06-04T21:26:24Z</time>
      </trkpt>
      <trkpt lat="45.03809" lon="6.07944">
        <ele>1271</ele>
        <time>2024-06-04T21:26:29Z</time>
      </trkpt>
      <trkpt lat="45.03816" lon="6.07908">
        <ele>1272</ele>
        <time>2024-06-04T21:26:33Z</time>
      </trkpt>
      <trkpt lat="45.03819" lon="6.07882">
        <ele>1272</ele>
        <time>2024-06-04T21:26:37Z</time>
      </trkpt>
      <trkpt lat="45.03823" lon="6.0787">
        <ele>1273</ele>
        <time>2024-06-04T21:26:38Z</time>
      </trkpt>
      <trkpt lat="45.03833" lon="6.0786">
        <ele>1276</ele>
        <time>2024-06-04T21:26:41Z</time>
      </trkpt>
      <trkpt lat="45.03855" lon="6.07843">
        <ele>1282</ele>
        <time>2024-06-04T21:26:45Z</time>
      </trkpt>
      <trkpt lat="45.03865" lon="6.07829">
        <ele>1285</ele>
        <time>2024-06-04T21:26:48Z</time>
      </trkpt>
      <trkpt lat="45.03875" lon="6.07804">
        <ele>1287</ele>
        <time>2024-06-04T21:26:51Z</time>
      </trkpt>
      <trkpt lat="45.03881" lon="6.07773">
        <ele>1287</ele>
        <time>2024-06-04T21:26:55Z</time>
      </trkpt>
      <trkpt lat="45.03887" lon="6.0776">
        <ele>1288</ele>
        <time>2024-06-04T21:26:57Z</time>
      </trkpt>
      <trkpt lat="45.03945" lon="6.07709">
        <ele>1306</ele>
        <time>2024-06-04T21:27:09Z</time>
      </trkpt>
      <trkpt lat="45.03953" lon="6.07694">
        <ele>1308</ele>
        <time>2024-06-04T21:27:12Z</time>
      </trkpt>
      <trkpt lat="45.03953" lon="6.07686">
        <ele>1307</ele>
        <time>2024-06-04T21:27:13Z</time>
      </trkpt>
      <trkpt lat="45.0395" lon="6.07671">
        <ele>1306</ele>
        <time>2024-06-04T21:27:15Z</time>
      </trkpt>
      <trkpt lat="45.03944" lon="6.07663">
        <ele>1304</ele>
        <time>2024-06-04T21:27:16Z</time>
      </trkpt>
      <trkpt lat="45.0391" lon="6.07649">
        <ele>1299</ele>
        <time>2024-06-04T21:27:22Z</time>
      </trkpt>
      <trkpt lat="45.039" lon="6.0764">
        <ele>1298</ele>
        <time>2024-06-04T21:27:25Z</time>
      </trkpt>
      <trkpt lat="45.03895" lon="6.07633">
        <ele>1299</ele>
        <time>2024-06-04T21:27:26Z</time>
      </trkpt>
      <trkpt lat="45.0383" lon="6.0746">
        <ele>1316</ele>
        <time>2024-06-04T21:27:50Z</time>
      </trkpt>
      <trkpt lat="45.03819" lon="6.07445">
        <ele>1316</ele>
        <time>2024-06-04T21:27:53Z</time>
      </trkpt>
      <trkpt lat="45.03788" lon="6.07416">
        <ele>1313</ele>
        <time>2024-06-04T21:28:00Z</time>
      </trkpt>
      <trkpt lat="45.03784" lon="6.07399">
        <ele>1315</ele>
        <time>2024-06-04T21:28:02Z</time>
      </trkpt>
      <trkpt lat="45.03779" lon="6.07356">
        <ele>1322</ele>
        <time>2024-06-04T21:28:07Z</time>
      </trkpt>
      <trkpt lat="45.03774" lon="6.0734">
        <ele>1323</ele>
        <time>2024-06-04T21:28:10Z</time>
      </trkpt>
      <trkpt lat="45.03765" lon="6.07325">
        <ele>1322</ele>
        <time>2024-06-04T21:28:12Z</time>
      </trkpt>
      <trkpt lat="45.03757" lon="6.07319">
        <ele>1319</ele>
        <time>2024-06-04T21:28:14Z</time>
      </trkpt>
      <trkpt lat="45.03748" lon="6.07305">
        <ele>1315</ele>
        <time>2024-06-04T21:28:16Z</time>
      </trkpt>
      <trkpt lat="45.03742" lon="6.07287">
        <ele>1312</ele>
        <time>2024-06-04T21:28:19Z</time>
      </trkpt>
      <trkpt lat="45.03742" lon="6.07279">
        <ele>1312</ele>
        <time>2024-06-04T21:28:20Z</time>
      </trkpt>
      <trkpt lat="45.03746" lon="6.07272">
        <ele>1314</ele>
        <time>2024-06-04T21:28:21Z</time>
      </trkpt>
      <trkpt lat="45.03773" lon="6.07244">
        <ele>1327</ele>
        <time>2024-06-04T21:28:27Z</time>
      </trkpt>
      <trkpt lat="45.03779" lon="6.07231">
        <ele>1327</ele>
        <time>2024-06-04T21:28:29Z</time>
      </trkpt>
      <trkpt lat="45.03785" lon="6.0721">
        <ele>1325</ele>
        <time>2024-06-04T21:28:32Z</time>
      </trkpt>
      <trkpt lat="45.03804" lon="6.07183">
        <ele>1329</ele>
        <time>2024-06-04T21:28:36Z</time>
      </trkpt>
      <trkpt lat="45.03813" lon="6.07167">
        <ele>1331</ele>
        <time>2024-06-04T21:28:39Z</time>
      </trkpt>
      <trkpt lat="45.03831" lon="6.07124">
        <ele>1323</ele>
        <time>2024-06-04T21:28:45Z</time>
      </trkpt>
      <trkpt lat="45.03838" lon="6.07089">
        <ele>1311</ele>
        <time>2024-06-04T21:28:50Z</time>
      </trkpt>
      <trkpt lat="45.03848" lon="6.07068">
        <ele>1303</ele>
        <time>2024-06-04T21:28:53Z</time>
      </trkpt>
      <trkpt lat="45.03853" lon="6.07065">
        <ele>1304</ele>
        <time>2024-06-04T21:28:54Z</time>
      </trkpt>
      <trkpt lat="45.03882" lon="6.07064">
        <ele>1322</ele>
        <time>2024-06-04T21:28:59Z</time>
      </trkpt>
      <trkpt lat="45.03891" lon="6.07061">
        <ele>1326</ele>
        <time>2024-06-04T21:29:01Z</time>
      </trkpt>
      <trkpt lat="45.03899" lon="6.0705">
        <ele>1324</ele>
        <time>2024-06-04T21:29:03Z</time>
      </trkpt>
      <trkpt lat="45.03916" lon="6.07042">
        <ele>1331</ele>
        <time>2024-06-04T21:29:06Z</time>
      </trkpt>
      <trkpt lat="45.03929" lon="6.07034">
        <ele>1331</ele>
        <time>2024-06-04T21:29:08Z</time>
      </trkpt>
      <trkpt lat="45.03935" lon="6.07025">
        <ele>1328</ele>
        <time>2024-06-04T21:29:10Z</time>
      </trkpt>
      <trkpt lat="45.03987" lon="6.07003">
        <ele>1330</ele>
        <time>2024-06-04T21:29:20Z</time>
      </trkpt>
      <trkpt lat="45.0402" lon="6.07005">
        <ele>1339</ele>
        <time>2024-06-04T21:29:26Z</time>
      </trkpt>
      <trkpt lat="45.04031" lon="6.07002">
        <ele>1339</ele>
        <time>2024-06-04T21:29:27Z</time>
      </trkpt>
      <trkpt lat="45.04048" lon="6.06982">
        <ele>1328</ele>
        <time>2024-06-04T21:29:31Z</time>
      </trkpt>
      <trkpt lat="45.04059" lon="6.06975">
        <ele>1327</ele>
        <time>2024-06-04T21:29:34Z</time>
      </trkpt>
      <trkpt lat="45.04072" lon="6.06974">
        <ele>1331</ele>
        <time>2024-06-04T21:29:36Z</time>
      </trkpt>
      <trkpt lat="45.04111" lon="6.06984">
        <ele>1348</ele>
        <time>2024-06-04T21:29:43Z</time>
      </trkpt>
      <trkpt lat="45.0412" lon="6.06983">
        <ele>1350</ele>
        <time>2024-06-04T21:29:45Z</time>
      </trkpt>
      <trkpt lat="45.04126" lon="6.06977">
        <ele>1349</ele>
        <time>2024-06-04T21:29:46Z</time>
      </trkpt>
      <trkpt lat="45.04145" lon="6.06922">
        <ele>1328</ele>
        <time>2024-06-04T21:29:54Z</time>
      </trkpt>
      <trkpt lat="45.04153" lon="6.06912">
        <ele>1324</ele>
        <time>2024-06-04T21:29:55Z</time>
      </trkpt>
      <trkpt lat="45.04167" lon="6.069">
        <ele>1321</ele>
        <time>2024-06-04T21:29:58Z</time>
      </trkpt>
      <trkpt lat="45.04193" lon="6.06873">
        <ele>1316</ele>
        <time>2024-06-04T21:30:04Z</time>
      </trkpt>
      <trkpt lat="45.04202" lon="6.0687">
        <ele>1318</ele>
        <time>2024-06-04T21:30:06Z</time>
      </trkpt>
      <trkpt lat="45.0422" lon="6.06859">
        <ele>1320</ele>
        <time>2024-06-04T21:30:09Z</time>
      </trkpt>
      <trkpt lat="45.04251" lon="6.06853">
        <ele>1331</ele>
        <time>2024-06-04T21:30:15Z</time>
      </trkpt>
      <trkpt lat="45.04254" lon="6.0685">
        <ele>1331</ele>
        <time>2024-06-04T21:30:15Z</time>
      </trkpt>
      <trkpt lat="45.04258" lon="6.0683">
        <ele>1321</ele>
        <time>2024-06-04T21:30:18Z</time>
      </trkpt>
      <trkpt lat="45.04263" lon="6.06819">
        <ele>1317</ele>
        <time>2024-06-04T21:30:20Z</time>
      </trkpt>
      <trkpt lat="45.04285" lon="6.06798">
        <ele>1317</ele>
        <time>2024-06-04T21:30:24Z</time>
      </trkpt>
      <trkpt lat="45.0429" lon="6.06791">
        <ele>1316</ele>
        <time>2024-06-04T21:30:26Z</time>
      </trkpt>
      <trkpt lat="45.04301" lon="6.06769">
        <ele>1311</ele>
        <time>2024-06-04T21:30:29Z</time>
      </trkpt>
      <trkpt lat="45.04348" lon="6.06701">
        <ele>1299</ele>
        <time>2024-06-04T21:30:41Z</time>
      </trkpt>
      <trkpt lat="45.04362" lon="6.06676">
        <ele>1295</ele>
        <time>2024-06-04T21:30:45Z</time>
      </trkpt>
      <trkpt lat="45.04389" lon="6.06654">
        <ele>1304</ele>
        <time>2024-06-04T21:30:51Z</time>
      </trkpt>
      <trkpt lat="45.0442" lon="6.06616">
        <ele>1308</ele>
        <time>2024-06-04T21:30:58Z</time>
      </trkpt>
      <trkpt lat="45.04429" lon="6.06592">
        <ele>1301</ele>
        <time>2024-06-04T21:31:01Z</time>
      </trkpt>
      <trkpt lat="45.04433" lon="6.06572">
        <ele>1288</ele>
        <time>2024-06-04T21:31:04Z</time>
      </trkpt>
      <trkpt lat="45.04458" lon="6.06538">
        <ele>1278</ele>
        <time>2024-06-04T21:31:10Z</time>
      </trkpt>
      <trkpt lat="45.04481" lon="6.0652">
        <ele>1285</ele>
        <time>2024-06-04T21:31:15Z</time>
      </trkpt>
      <trkpt lat="45.04499" lon="6.06504">
        <ele>1290</ele>
        <time>2024-06-04T21:31:19Z</time>
      </trkpt>
      <trkpt lat="45.04551" lon="6.06481">
        <ele>1308</ele>
        <time>2024-06-04T21:31:28Z</time>
      </trkpt>
      <trkpt lat="45.04601" lon="6.06476">
        <ele>1338</ele>
        <time>2024-06-04T21:31:37Z</time>
      </trkpt>
      <trkpt lat="45.04607" lon="6.06474">
        <ele>1338</ele>
        <time>2024-06-04T21:31:38Z</time>
      </trkpt>
      <trkpt lat="45.04613" lon="6.0647">
        <ele>1336</ele>
        <time>2024-06-04T21:31:39Z</time>
      </trkpt>
      <trkpt lat="45.04621" lon="6.06458">
        <ele>1326</ele>
        <time>2024-06-04T21:31:42Z</time>
      </trkpt>
      <trkpt lat="45.0463" lon="6.06435">
        <ele>1306</ele>
        <time>2024-06-04T21:31:45Z</time>
      </trkpt>
      <trkpt lat="45.04636" lon="6.0643">
        <ele>1304</ele>
        <time>2024-06-04T21:31:46Z</time>
      </trkpt>
      <trkpt lat="45.04661" lon="6.06403">
        <ele>1294</ele>
        <time>2024-06-04T21:31:52Z</time>
      </trkpt>
      <trkpt lat="45.04673" lon="6.06383">
        <ele>1279</ele>
        <time>2024-06-04T21:31:55Z</time>
      </trkpt>
      <trkpt lat="45.04697" lon="6.06365">
        <ele>1271</ele>
        <time>2024-06-04T21:32:00Z</time>
      </trkpt>
      <trkpt lat="45.04708" lon="6.06339">
        <ele>1251</ele>
        <time>2024-06-04T21:32:04Z</time>
      </trkpt>
      <trkpt lat="45.0472" lon="6.06332">
        <ele>1251</ele>
        <time>2024-06-04T21:32:06Z</time>
      </trkpt>
      <trkpt lat="45.0473" lon="6.06332">
        <ele>1257</ele>
        <time>2024-06-04T21:32:08Z</time>
      </trkpt>
      <trkpt lat="45.04735" lon="6.06336">
        <ele>1264</ele>
        <time>2024-06-04T21:32:09Z</time>
      </trkpt>
      <trkpt lat="45.04749" lon="6.06356">
        <ele>1290</ele>
        <time>2024-06-04T21:32:12Z</time>
      </trkpt>
      <trkpt lat="45.04765" lon="6.06367">
        <ele>1309</ele>
        <time>2024-06-04T21:32:15Z</time>
      </trkpt>
      <trkpt lat="45.0477" lon="6.06366">
        <ele>1312</ele>
        <time>2024-06-04T21:32:16Z</time>
      </trkpt>
      <trkpt lat="45.04775" lon="6.06361">
        <ele>1310</ele>
        <time>2024-06-04T21:32:17Z</time>
      </trkpt>
      <trkpt lat="45.04786" lon="6.06325">
        <ele>1283</ele>
        <time>2024-06-04T21:32:22Z</time>
      </trkpt>
      <trkpt lat="45.04791" lon="6.06318">
        <ele>1280</ele>
        <time>2024-06-04T21:32:24Z</time>
      </trkpt>
      <trkpt lat="45.04802" lon="6.06308">
        <ele>1278</ele>
        <time>2024-06-04T21:32:26Z</time>
      </trkpt>
      <trkpt lat="45.04808" lon="6.06298">
        <ele>1274</ele>
        <time>2024-06-04T21:32:28Z</time>
      </trkpt>
      <trkpt lat="45.04812" lon="6.06288">
        <ele>1268</ele>
        <time>2024-06-04T21:32:29Z</time>
      </trkpt>
      <trkpt lat="45.04833" lon="6.06265">
        <ele>1261</ele>
        <time>2024-06-04T21:32:34Z</time>
      </trkpt>
      <trkpt lat="45.04843" lon="6.06246">
        <ele>1254</ele>
        <time>2024-06-04T21:32:37Z</time>
      </trkpt>
      <trkpt lat="45.04852" lon="6.06235">
        <ele>1253</ele>
        <time>2024-06-04T21:32:39Z</time>
      </trkpt>
      <trkpt lat="45.04882" lon="6.0623">
        <ele>1273</ele>
        <time>2024-06-04T21:32:44Z</time>
      </trkpt>
      <trkpt lat="45.04904" lon="6.06196">
        <ele>1263</ele>
        <time>2024-06-04T21:32:50Z</time>
      </trkpt>
      <trkpt lat="45.04941" lon="6.0615">
        <ele>1249</ele>
        <time>2024-06-04T21:32:59Z</time>
      </trkpt>
      <trkpt lat="45.04956" lon="6.06114">
        <ele>1226</ele>
        <time>2024-06-04T21:33:04Z</time>
      </trkpt>
      <trkpt lat="45.04966" lon="6.06106">
        <ele>1225</ele>
        <time>2024-06-04T21:33:06Z</time>
      </trkpt>
      <trkpt lat="45.04985" lon="6.06099">
        <ele>1232</ele>
        <time>2024-06-04T21:33:10Z</time>
      </trkpt>
      <trkpt lat="45.05008" lon="6.06087">
        <ele>1238</ele>
        <time>2024-06-04T21:33:14Z</time>
      </trkpt>
      <trkpt lat="45.05052" lon="6.06041">
        <ele>1228</ele>
        <time>2024-06-04T21:33:24Z</time>
      </trkpt>
      <trkpt lat="45.05084" lon="6.05997">
        <ele>1216</ele>
        <time>2024-06-04T21:33:32Z</time>
      </trkpt>
      <trkpt lat="45.051" lon="6.06">
        <ele>1229</ele>
        <time>2024-06-04T21:33:34Z</time>
      </trkpt>
      <trkpt lat="45.05108" lon="6.05996">
        <ele>1230</ele>
        <time>2024-06-04T21:33:36Z</time>
      </trkpt>
      <trkpt lat="45.05115" lon="6.0598">
        <ele>1222</ele>
        <time>2024-06-04T21:33:38Z</time>
      </trkpt>
      <trkpt lat="45.05125" lon="6.05975">
        <ele>1225</ele>
        <time>2024-06-04T21:33:40Z</time>
      </trkpt>
      <trkpt lat="45.0513" lon="6.05969">
        <ele>1224</ele>
        <time>2024-06-04T21:33:41Z</time>
      </trkpt>
      <trkpt lat="45.05143" lon="6.05947">
        <ele>1217</ele>
        <time>2024-06-04T21:33:45Z</time>
      </trkpt>
      <trkpt lat="45.05154" lon="6.05935">
        <ele>1217</ele>
        <time>2024-06-04T21:33:47Z</time>
      </trkpt>
      <trkpt lat="45.05166" lon="6.05913">
        <ele>1212</ele>
        <time>2024-06-04T21:33:51Z</time>
      </trkpt>
      <trkpt lat="45.05185" lon="6.05899">
        <ele>1215</ele>
        <time>2024-06-04T21:33:55Z</time>
      </trkpt>
      <trkpt lat="45.05189" lon="6.05894">
        <ele>1214</ele>
        <time>2024-06-04T21:33:56Z</time>
      </trkpt>
      <trkpt lat="45.05194" lon="6.05882">
        <ele>1210</ele>
        <time>2024-06-04T21:33:57Z</time>
      </trkpt>
      <trkpt lat="45.05201" lon="6.05855">
        <ele>1198</ele>
        <time>2024-06-04T21:34:01Z</time>
      </trkpt>
      <trkpt lat="45.05223" lon="6.05801">
        <ele>1183</ele>
        <time>2024-06-04T21:34:09Z</time>
      </trkpt>
      <trkpt lat="45.05227" lon="6.05794">
        <ele>1183</ele>
        <time>2024-06-04T21:34:10Z</time>
      </trkpt>
      <trkpt lat="45.0525" lon="6.05779">
        <ele>1196</ele>
        <time>2024-06-04T21:34:15Z</time>
      </trkpt>
      <trkpt lat="45.05254" lon="6.05775">
        <ele>1197</ele>
        <time>2024-06-04T21:34:15Z</time>
      </trkpt>
      <trkpt lat="45.05257" lon="6.05765">
        <ele>1193</ele>
        <time>2024-06-04T21:34:17Z</time>
      </trkpt>
      <trkpt lat="45.05262" lon="6.05724">
        <ele>1176</ele>
        <time>2024-06-04T21:34:22Z</time>
      </trkpt>
      <trkpt lat="45.05268" lon="6.05714">
        <ele>1175</ele>
        <time>2024-06-04T21:34:24Z</time>
      </trkpt>
      <trkpt lat="45.05305" lon="6.05665">
        <ele>1178</ele>
        <time>2024-06-04T21:34:33Z</time>
      </trkpt>
      <trkpt lat="45.05341" lon="6.05629">
        <ele>1185</ele>
        <time>2024-06-04T21:34:41Z</time>
      </trkpt>
      <trkpt lat="45.05378" lon="6.05584">
        <ele>1184</ele>
        <time>2024-06-04T21:34:49Z</time>
      </trkpt>
      <trkpt lat="45.0541" lon="6.05527">
        <ele>1180</ele>
        <time>2024-06-04T21:34:58Z</time>
      </trkpt>
      <trkpt lat="45.05427" lon="6.05494">
        <ele>1176</ele>
        <time>2024-06-04T21:35:03Z</time>
      </trkpt>
      <trkpt lat="45.05436" lon="6.05484">
        <ele>1177</ele>
        <time>2024-06-04T21:35:06Z</time>
      </trkpt>
      <trkpt lat="45.05442" lon="6.0548">
        <ele>1178</ele>
        <time>2024-06-04T21:35:07Z</time>
      </trkpt>
      <trkpt lat="45.05449" lon="6.0548">
        <ele>1180</ele>
        <time>2024-06-04T21:35:08Z</time>
      </trkpt>
      <trkpt lat="45.05465" lon="6.05492">
        <ele>1191</ele>
        <time>2024-06-04T21:35:11Z</time>
      </trkpt>
      <trkpt lat="45.05469" lon="6.05489">
        <ele>1191</ele>
        <time>2024-06-04T21:35:12Z</time>
      </trkpt>
      <trkpt lat="45.05483" lon="6.05469">
        <ele>1191</ele>
        <time>2024-06-04T21:35:16Z</time>
      </trkpt>
      <trkpt lat="45.05482" lon="6.05455">
        <ele>1186</ele>
        <time>2024-06-04T21:35:17Z</time>
      </trkpt>
      <trkpt lat="45.05477" lon="6.05436">
        <ele>1178</ele>
        <time>2024-06-04T21:35:20Z</time>
      </trkpt>
      <trkpt lat="45.05473" lon="6.05399">
        <ele>1166</ele>
        <time>2024-06-04T21:35:25Z</time>
      </trkpt>
      <trkpt lat="45.05484" lon="6.05376">
        <ele>1167</ele>
        <time>2024-06-04T21:35:28Z</time>
      </trkpt>
      <trkpt lat="45.05513" lon="6.05297">
        <ele>1166</ele>
        <time>2024-06-04T21:35:39Z</time>
      </trkpt>
      <trkpt lat="45.05546" lon="6.05219">
        <ele>1160</ele>
        <time>2024-06-04T21:35:51Z</time>
      </trkpt>
      <trkpt lat="45.05558" lon="6.05192">
        <ele>1157</ele>
        <time>2024-06-04T21:35:55Z</time>
      </trkpt>
      <trkpt lat="45.0557" lon="6.05176">
        <ele>1156</ele>
        <time>2024-06-04T21:35:58Z</time>
      </trkpt>
      <trkpt lat="45.05587" lon="6.05172">
        <ele>1158</ele>
        <time>2024-06-04T21:36:01Z</time>
      </trkpt>
      <trkpt lat="45.05632" lon="6.0518">
        <ele>1154</ele>
        <time>2024-06-04T21:36:09Z</time>
      </trkpt>
      <trkpt lat="45.05651" lon="6.05186">
        <ele>1154</ele>
        <time>2024-06-04T21:36:12Z</time>
      </trkpt>
      <trkpt lat="45.05679" lon="6.05202">
        <ele>1155</ele>
        <time>2024-06-04T21:36:18Z</time>
      </trkpt>
      <trkpt lat="45.05738" lon="6.05241">
        <ele>1160</ele>
        <time>2024-06-04T21:36:29Z</time>
      </trkpt>
      <trkpt lat="45.05742" lon="6.05248">
        <ele>1162</ele>
        <time>2024-06-04T21:36:30Z</time>
      </trkpt>
      <trkpt lat="45.05745" lon="6.05257">
        <ele>1166</ele>
        <time>2024-06-04T21:36:32Z</time>
      </trkpt>
      <trkpt lat="45.0575" lon="6.05265">
        <ele>1168</ele>
        <time>2024-06-04T21:36:33Z</time>
      </trkpt>
      <trkpt lat="45.05769" lon="6.0528">
        <ele>1173</ele>
        <time>2024-06-04T21:36:37Z</time>
      </trkpt>
      <trkpt lat="45.05776" lon="6.05283">
        <ele>1174</ele>
        <time>2024-06-04T21:36:38Z</time>
      </trkpt>
      <trkpt lat="45.05781" lon="6.05281">
        <ele>1173</ele>
        <time>2024-06-04T21:36:39Z</time>
      </trkpt>
      <trkpt lat="45.05783" lon="6.05278">
        <ele>1172</ele>
        <time>2024-06-04T21:36:39Z</time>
      </trkpt>
      <trkpt lat="45.05794" lon="6.05241">
        <ele>1156</ele>
        <time>2024-06-04T21:36:45Z</time>
      </trkpt>
      <trkpt lat="45.05804" lon="6.0522">
        <ele>1147</ele>
        <time>2024-06-04T21:36:48Z</time>
      </trkpt>
      <trkpt lat="45.05814" lon="6.05186">
        <ele>1133</ele>
        <time>2024-06-04T21:36:52Z</time>
      </trkpt>
      <trkpt lat="45.05819" lon="6.05175">
        <ele>1128</ele>
        <time>2024-06-04T21:36:54Z</time>
      </trkpt>
      <trkpt lat="45.05829" lon="6.05166">
        <ele>1125</ele>
        <time>2024-06-04T21:36:56Z</time>
      </trkpt>
      <trkpt lat="45.05886" lon="6.05164">
        <ele>1132</ele>
        <time>2024-06-04T21:37:06Z</time>
      </trkpt>
      <trkpt lat="45.05908" lon="6.05159">
        <ele>1134</ele>
        <time>2024-06-04T21:37:10Z</time>
      </trkpt>
      <trkpt lat="45.05921" lon="6.05161">
        <ele>1138</ele>
        <time>2024-06-04T21:37:13Z</time>
      </trkpt>
      <trkpt lat="45.05931" lon="6.05166">
        <ele>1142</ele>
        <time>2024-06-04T21:37:14Z</time>
      </trkpt>
      <trkpt lat="45.05935" lon="6.05164">
        <ele>1143</ele>
        <time>2024-06-04T21:37:15Z</time>
      </trkpt>
      <trkpt lat="45.05937" lon="6.05159">
        <ele>1142</ele>
        <time>2024-06-04T21:37:16Z</time>
      </trkpt>
      <trkpt lat="45.05935" lon="6.05137">
        <ele>1135</ele>
        <time>2024-06-04T21:37:19Z</time>
      </trkpt>
      <trkpt lat="45.05928" lon="6.05103">
        <ele>1124</ele>
        <time>2024-06-04T21:37:23Z</time>
      </trkpt>
      <trkpt lat="45.05923" lon="6.05059">
        <ele>1113</ele>
        <time>2024-06-04T21:37:29Z</time>
      </trkpt>
      <trkpt lat="45.05923" lon="6.05024">
        <ele>1107</ele>
        <time>2024-06-04T21:37:33Z</time>
      </trkpt>
      <trkpt lat="45.05928" lon="6.04994">
        <ele>1102</ele>
        <time>2024-06-04T21:37:37Z</time>
      </trkpt>
      <trkpt lat="45.05933" lon="6.04982">
        <ele>1099</ele>
        <time>2024-06-04T21:37:39Z</time>
      </trkpt>
      <trkpt lat="45.05944" lon="6.04972">
        <ele>1098</ele>
        <time>2024-06-04T21:37:41Z</time>
      </trkpt>
      <trkpt lat="45.05954" lon="6.04968">
        <ele>1099</ele>
        <time>2024-06-04T21:37:43Z</time>
      </trkpt>
      <trkpt lat="45.06016" lon="6.04965">
        <ele>1107</ele>
        <time>2024-06-04T21:37:54Z</time>
      </trkpt>
      <trkpt lat="45.06035" lon="6.04968">
        <ele>1111</ele>
        <time>2024-06-04T21:37:57Z</time>
      </trkpt>
      <trkpt lat="45.06049" lon="6.04968">
        <ele>1112</ele>
        <time>2024-06-04T21:38:00Z</time>
      </trkpt>
      <trkpt lat="45.06058" lon="6.04964">
        <ele>1111</ele>
        <time>2024-06-04T21:38:02Z</time>
      </trkpt>
      <trkpt lat="45.06068" lon="6.04957">
        <ele>1109</ele>
        <time>2024-06-04T21:38:04Z</time>
      </trkpt>
      <trkpt lat="45.06076" lon="6.04943">
        <ele>1105</ele>
        <time>2024-06-04T21:38:06Z</time>
      </trkpt>
      <trkpt lat="45.06095" lon="6.04902">
        <ele>1095</ele>
        <time>2024-06-04T21:38:12Z</time>
      </trkpt>
      <trkpt lat="45.06107" lon="6.04853">
        <ele>1085</ele>
        <time>2024-06-04T21:38:18Z</time>
      </trkpt>
      <trkpt lat="45.06113" lon="6.04839">
        <ele>1083</ele>
        <time>2024-06-04T21:38:21Z</time>
      </trkpt>
      <trkpt lat="45.06122" lon="6.04827">
        <ele>1082</ele>
        <time>2024-06-04T21:38:23Z</time>
      </trkpt>
      <trkpt lat="45.0614" lon="6.04813">
        <ele>1084</ele>
        <time>2024-06-04T21:38:26Z</time>
      </trkpt>
      <trkpt lat="45.06146" lon="6.04806">
        <ele>1084</ele>
        <time>2024-06-04T21:38:28Z</time>
      </trkpt>
      <trkpt lat="45.06152" lon="6.04793">
        <ele>1082</ele>
        <time>2024-06-04T21:38:30Z</time>
      </trkpt>
      <trkpt lat="45.06171" lon="6.04745">
        <ele>1071</ele>
        <time>2024-06-04T21:38:37Z</time>
      </trkpt>
      <trkpt lat="45.06181" lon="6.04727">
        <ele>1065</ele>
        <time>2024-06-04T21:38:40Z</time>
      </trkpt>
      <trkpt lat="45.06186" lon="6.04722">
        <ele>1063</ele>
        <time>2024-06-04T21:38:41Z</time>
      </trkpt>
      <trkpt lat="45.06192" lon="6.04722">
        <ele>1063</ele>
        <time>2024-06-04T21:38:42Z</time>
      </trkpt>
      <trkpt lat="45.06228" lon="6.04735">
        <ele>1070</ele>
        <time>2024-06-04T21:38:48Z</time>
      </trkpt>
      <trkpt lat="45.06251" lon="6.04739">
        <ele>1072</ele>
        <time>2024-06-04T21:38:52Z</time>
      </trkpt>
      <trkpt lat="45.06306" lon="6.04767">
        <ele>1066</ele>
        <time>2024-06-04T21:39:03Z</time>
      </trkpt>
      <trkpt lat="45.06432" lon="6.04824">
        <ele>1060</ele>
        <time>2024-06-04T21:39:26Z</time>
      </trkpt>
      <trkpt lat="45.06451" lon="6.04828">
        <ele>1060</ele>
        <time>2024-06-04T21:39:30Z</time>
      </trkpt>
      <trkpt lat="45.06475" lon="6.04827">
        <ele>1056</ele>
        <time>2024-06-04T21:39:34Z</time>
      </trkpt>
      <trkpt lat="45.06496" lon="6.04818">
        <ele>1049</ele>
        <time>2024-06-04T21:39:38Z</time>
      </trkpt>
      <trkpt lat="45.06513" lon="6.04802">
        <ele>1039</ele>
        <time>2024-06-04T21:39:42Z</time>
      </trkpt>
      <trkpt lat="45.06531" lon="6.04792">
        <ele>1032</ele>
        <time>2024-06-04T21:39:45Z</time>
      </trkpt>
      <trkpt lat="45.0654" lon="6.04791">
        <ele>1030</ele>
        <time>2024-06-04T21:39:47Z</time>
      </trkpt>
      <trkpt lat="45.06554" lon="6.04799">
        <ele>1030</ele>
        <time>2024-06-04T21:39:49Z</time>
      </trkpt>
      <trkpt lat="45.06599" lon="6.04832">
        <ele>1029</ele>
        <time>2024-06-04T21:39:58Z</time>
      </trkpt>
      <trkpt lat="45.06612" lon="6.04843">
        <ele>1029</ele>
        <time>2024-06-04T21:40:01Z</time>
      </trkpt>
      <trkpt lat="45.06616" lon="6.04855">
        <ele>1032</ele>
        <time>2024-06-04T21:40:03Z</time>
      </trkpt>
      <trkpt lat="45.06624" lon="6.04871">
        <ele>1034</ele>
        <time>2024-06-04T21:40:05Z</time>
      </trkpt>
      <trkpt lat="45.06641" lon="6.04888">
        <ele>1034</ele>
        <time>2024-06-04T21:40:09Z</time>
      </trkpt>
      <trkpt lat="45.0666" lon="6.04897">
        <ele>1029</ele>
        <time>2024-06-04T21:40:12Z</time>
      </trkpt>
      <trkpt lat="45.0668" lon="6.04913">
        <ele>1026</ele>
        <time>2024-06-04T21:40:16Z</time>
      </trkpt>
      <trkpt lat="45.06727" lon="6.04945">
        <ele>1020</ele>
        <time>2024-06-04T21:40:26Z</time>
      </trkpt>
      <trkpt lat="45.06732" lon="6.04951">
        <ele>1019</ele>
        <time>2024-06-04T21:40:27Z</time>
      </trkpt>
      <trkpt lat="45.06785" lon="6.05046">
        <ele>1018</ele>
        <time>2024-06-04T21:40:42Z</time>
      </trkpt>
      <trkpt lat="45.06792" lon="6.05053">
        <ele>1016</ele>
        <time>2024-06-04T21:40:44Z</time>
      </trkpt>
      <trkpt lat="45.06821" lon="6.05061">
        <ele>1005</ele>
        <time>2024-06-04T21:40:49Z</time>
      </trkpt>
      <trkpt lat="45.06834" lon="6.05082">
        <ele>1004</ele>
        <time>2024-06-04T21:40:52Z</time>
      </trkpt>
      <trkpt lat="45.06852" lon="6.05116">
        <ele>1005</ele>
        <time>2024-06-04T21:40:58Z</time>
      </trkpt>
      <trkpt lat="45.06861" lon="6.05125">
        <ele>1004</ele>
        <time>2024-06-04T21:41:00Z</time>
      </trkpt>
      <trkpt lat="45.06907" lon="6.0516">
        <ele>995</ele>
        <time>2024-06-04T21:41:09Z</time>
      </trkpt>
      <trkpt lat="45.06915" lon="6.05169">
        <ele>994</ele>
        <time>2024-06-04T21:41:11Z</time>
      </trkpt>
      <trkpt lat="45.06982" lon="6.05273">
        <ele>994</ele>
        <time>2024-06-04T21:41:29Z</time>
      </trkpt>
      <trkpt lat="45.06985" lon="6.05291">
        <ele>997</ele>
        <time>2024-06-04T21:41:31Z</time>
      </trkpt>
      <trkpt lat="45.06982" lon="6.05324">
        <ele>1006</ele>
        <time>2024-06-04T21:41:35Z</time>
      </trkpt>
      <trkpt lat="45.06982" lon="6.05332">
        <ele>1008</ele>
        <time>2024-06-04T21:41:36Z</time>
      </trkpt>
      <trkpt lat="45.06986" lon="6.05339">
        <ele>1008</ele>
        <time>2024-06-04T21:41:37Z</time>
      </trkpt>
      <trkpt lat="45.07002" lon="6.05351">
        <ele>1004</ele>
        <time>2024-06-04T21:41:40Z</time>
      </trkpt>
      <trkpt lat="45.07007" lon="6.05352">
        <ele>1007</ele>
        <time>2024-06-04T21:41:41Z</time>
      </trkpt>
      <trkpt lat="45.07011" lon="6.05348">
        <ele>1008</ele>
        <time>2024-06-04T21:41:42Z</time>
      </trkpt>
      <trkpt lat="45.07027" lon="6.05315">
        <ele>1008</ele>
        <time>2024-06-04T21:41:47Z</time>
      </trkpt>
      <trkpt lat="45.07031" lon="6.05303">
        <ele>1006</ele>
        <time>2024-06-04T21:41:49Z</time>
      </trkpt>
      <trkpt lat="45.07033" lon="6.05292">
        <ele>1004</ele>
        <time>2024-06-04T21:41:50Z</time>
      </trkpt>
      <trkpt lat="45.07036" lon="6.05248">
        <ele>995</ele>
        <time>2024-06-04T21:41:56Z</time>
      </trkpt>
      <trkpt lat="45.07038" lon="6.05236">
        <ele>994</ele>
        <time>2024-06-04T21:41:57Z</time>
      </trkpt>
      <trkpt lat="45.07046" lon="6.05217">
        <ele>994</ele>
        <time>2024-06-04T21:42:00Z</time>
      </trkpt>
      <trkpt lat="45.07053" lon="6.05185">
        <ele>992</ele>
        <time>2024-06-04T21:42:04Z</time>
      </trkpt>
      <trkpt lat="45.07052" lon="6.05131">
        <ele>986</ele>
        <time>2024-06-04T21:42:11Z</time>
      </trkpt>
      <trkpt lat="45.07062" lon="6.05069">
        <ele>986</ele>
        <time>2024-06-04T21:42:19Z</time>
      </trkpt>
      <trkpt lat="45.07062" lon="6.05046">
        <ele>984</ele>
        <time>2024-06-04T21:42:22Z</time>
      </trkpt>
      <trkpt lat="45.0706" lon="6.05022">
        <ele>982</ele>
        <time>2024-06-04T21:42:25Z</time>
      </trkpt>
      <trkpt lat="45.07041" lon="6.04954">
        <ele>970</ele>
        <time>2024-06-04T21:42:34Z</time>
      </trkpt>
      <trkpt lat="45.07039" lon="6.04937">
        <ele>968</ele>
        <time>2024-06-04T21:42:36Z</time>
      </trkpt>
      <trkpt lat="45.0704" lon="6.04907">
        <ele>968</ele>
        <time>2024-06-04T21:42:40Z</time>
      </trkpt>
      <trkpt lat="45.07045" lon="6.04899">
        <ele>971</ele>
        <time>2024-06-04T21:42:42Z</time>
      </trkpt>
      <trkpt lat="45.07067" lon="6.04876">
        <ele>980</ele>
        <time>2024-06-04T21:42:46Z</time>
      </trkpt>
      <trkpt lat="45.0707" lon="6.04868">
        <ele>981</ele>
        <time>2024-06-04T21:42:48Z</time>
      </trkpt>
      <trkpt lat="45.07071" lon="6.04856">
        <ele>982</ele>
        <time>2024-06-04T21:42:49Z</time>
      </trkpt>
      <trkpt lat="45.07069" lon="6.04849">
        <ele>981</ele>
        <time>2024-06-04T21:42:50Z</time>
      </trkpt>
      <trkpt lat="45.07062" lon="6.04842">
        <ele>979</ele>
        <time>2024-06-04T21:42:52Z</time>
      </trkpt>
      <trkpt lat="45.07053" lon="6.0484">
        <ele>976</ele>
        <time>2024-06-04T21:42:53Z</time>
      </trkpt>
      <trkpt lat="45.07035" lon="6.04842">
        <ele>970</ele>
        <time>2024-06-04T21:42:56Z</time>
      </trkpt>
      <trkpt lat="45.07027" lon="6.04839">
        <ele>967</ele>
        <time>2024-06-04T21:42:58Z</time>
      </trkpt>
      <trkpt lat="45.07023" lon="6.04832">
        <ele>967</ele>
        <time>2024-06-04T21:42:59Z</time>
      </trkpt>
      <trkpt lat="45.07019" lon="6.04821">
        <ele>967</ele>
        <time>2024-06-04T21:43:01Z</time>
      </trkpt>
      <trkpt lat="45.07011" lon="6.04771">
        <ele>971</ele>
        <time>2024-06-04T21:43:07Z</time>
      </trkpt>
      <trkpt lat="45.07005" lon="6.04757">
        <ele>970</ele>
        <time>2024-06-04T21:43:09Z</time>
      </trkpt>
      <trkpt lat="45.06987" lon="6.04713">
        <ele>971</ele>
        <time>2024-06-04T21:43:15Z</time>
      </trkpt>
      <trkpt lat="45.06976" lon="6.04682">
        <ele>974</ele>
        <time>2024-06-04T21:43:20Z</time>
      </trkpt>
      <trkpt lat="45.06971" lon="6.0467">
        <ele>974</ele>
        <time>2024-06-04T21:43:22Z</time>
      </trkpt>
      <trkpt lat="45.06961" lon="6.04657">
        <ele>974</ele>
        <time>2024-06-04T21:43:24Z</time>
      </trkpt>
      <trkpt lat="45.06939" lon="6.04636">
        <ele>973</ele>
        <time>2024-06-04T21:43:29Z</time>
      </trkpt>
      <trkpt lat="45.06916" lon="6.04618">
        <ele>971</ele>
        <time>2024-06-04T21:43:33Z</time>
      </trkpt>
      <trkpt lat="45.06883" lon="6.04599">
        <ele>970</ele>
        <time>2024-06-04T21:43:40Z</time>
      </trkpt>
      <trkpt lat="45.06867" lon="6.04588">
        <ele>969</ele>
        <time>2024-06-04T21:43:43Z</time>
      </trkpt>
      <trkpt lat="45.06854" lon="6.04574">
        <ele>970</ele>
        <time>2024-06-04T21:43:46Z</time>
      </trkpt>
      <trkpt lat="45.06825" lon="6.04519">
        <ele>975</ele>
        <time>2024-06-04T21:43:54Z</time>
      </trkpt>
      <trkpt lat="45.06816" lon="6.04505">
        <ele>977</ele>
        <time>2024-06-04T21:43:57Z</time>
      </trkpt>
      <trkpt lat="45.06807" lon="6.04496">
        <ele>977</ele>
        <time>2024-06-04T21:43:59Z</time>
      </trkpt>
      <trkpt lat="45.06765" lon="6.04481">
        <ele>973</ele>
        <time>2024-06-04T21:44:06Z</time>
      </trkpt>
      <trkpt lat="45.06759" lon="6.04477">
        <ele>973</ele>
        <time>2024-06-04T21:44:08Z</time>
      </trkpt>
      <trkpt lat="45.0675" lon="6.04466">
        <ele>973</ele>
        <time>2024-06-04T21:44:10Z</time>
      </trkpt>
      <trkpt lat="45.06737" lon="6.04442">
        <ele>973</ele>
        <time>2024-06-04T21:44:14Z</time>
      </trkpt>
      <trkpt lat="45.06733" lon="6.04433">
        <ele>973</ele>
        <time>2024-06-04T21:44:15Z</time>
      </trkpt>
      <trkpt lat="45.06732" lon="6.04426">
        <ele>973</ele>
        <time>2024-06-04T21:44:16Z</time>
      </trkpt>
      <trkpt lat="45.06733" lon="6.04419">
        <ele>975</ele>
        <time>2024-06-04T21:44:17Z</time>
      </trkpt>
      <trkpt lat="45.06736" lon="6.04414">
        <ele>975</ele>
        <time>2024-06-04T21:44:18Z</time>
      </trkpt>
      <trkpt lat="45.06767" lon="6.04446">
        <ele>979</ele>
        <time>2024-06-04T21:44:24Z</time>
      </trkpt>
      <trkpt lat="45.0679" lon="6.0446">
        <ele>981</ele>
        <time>2024-06-04T21:44:29Z</time>
      </trkpt>
      <trkpt lat="45.06807" lon="6.04468">
        <ele>982</ele>
        <time>2024-06-04T21:44:32Z</time>
      </trkpt>
      <trkpt lat="45.06875" lon="6.04485">
        <ele>993</ele>
        <time>2024-06-04T21:44:44Z</time>
      </trkpt>
      <trkpt lat="45.06889" lon="6.04496">
        <ele>994</ele>
        <time>2024-06-04T21:44:47Z</time>
      </trkpt>
      <trkpt lat="45.06911" lon="6.04529">
        <ele>991</ele>
        <time>2024-06-04T21:44:53Z</time>
      </trkpt>
      <trkpt lat="45.06919" lon="6.04538">
        <ele>991</ele>
        <time>2024-06-04T21:44:55Z</time>
      </trkpt>
      <trkpt lat="45.0695" lon="6.04563">
        <ele>993</ele>
        <time>2024-06-04T21:45:01Z</time>
      </trkpt>
      <trkpt lat="45.06998" lon="6.04585">
        <ele>1000</ele>
        <time>2024-06-04T21:45:10Z</time>
      </trkpt>
      <trkpt lat="45.07005" lon="6.04591">
        <ele>1001</ele>
        <time>2024-06-04T21:45:11Z</time>
      </trkpt>
      <trkpt lat="45.07018" lon="6.04609">
        <ele>1003</ele>
        <time>2024-06-04T21:45:15Z</time>
      </trkpt>
      <trkpt lat="45.0705" lon="6.04671">
        <ele>1007</ele>
        <time>2024-06-04T21:45:24Z</time>
      </trkpt>
      <trkpt lat="45.07067" lon="6.04695">
        <ele>1010</ele>
        <time>2024-06-04T21:45:29Z</time>
      </trkpt>
      <trkpt lat="45.07144" lon="6.04767">
        <ele>1024</ele>
        <time>2024-06-04T21:45:45Z</time>
      </trkpt>
      <trkpt lat="45.0717" lon="6.04796">
        <ele>1026</ele>
        <time>2024-06-04T21:45:51Z</time>
      </trkpt>
      <trkpt lat="45.07183" lon="6.04814">
        <ele>1027</ele>
        <time>2024-06-04T21:45:54Z</time>
      </trkpt>
      <trkpt lat="45.07189" lon="6.04817">
        <ele>1028</ele>
        <time>2024-06-04T21:45:55Z</time>
      </trkpt>
      <trkpt lat="45.07196" lon="6.04811">
        <ele>1033</ele>
        <time>2024-06-04T21:45:57Z</time>
      </trkpt>
      <trkpt lat="45.07198" lon="6.04802">
        <ele>1036</ele>
        <time>2024-06-04T21:45:58Z</time>
      </trkpt>
      <trkpt lat="45.07196" lon="6.04793">
        <ele>1038</ele>
        <time>2024-06-04T21:45:59Z</time>
      </trkpt>
      <trkpt lat="45.07193" lon="6.04789">
        <ele>1038</ele>
        <time>2024-06-04T21:46:00Z</time>
      </trkpt>
      <trkpt lat="45.07173" lon="6.04774">
        <ele>1033</ele>
        <time>2024-06-04T21:46:04Z</time>
      </trkpt>
      <trkpt lat="45.07163" lon="6.04763">
        <ele>1032</ele>
        <time>2024-06-04T21:46:06Z</time>
      </trkpt>
      <trkpt lat="45.07132" lon="6.04721">
        <ele>1032</ele>
        <time>2024-06-04T21:46:14Z</time>
      </trkpt>
      <trkpt lat="45.07111" lon="6.04681">
        <ele>1032</ele>
        <time>2024-06-04T21:46:20Z</time>
      </trkpt>
      <trkpt lat="45.07106" lon="6.04664">
        <ele>1034</ele>
        <time>2024-06-04T21:46:22Z</time>
      </trkpt>
      <trkpt lat="45.07104" lon="6.0464">
        <ele>1035</ele>
        <time>2024-06-04T21:46:25Z</time>
      </trkpt>
      <trkpt lat="45.07104" lon="6.04616">
        <ele>1037</ele>
        <time>2024-06-04T21:46:28Z</time>
      </trkpt>
      <trkpt lat="45.07109" lon="6.04508">
        <ele>1051</ele>
        <time>2024-06-04T21:46:42Z</time>
      </trkpt>
      <trkpt lat="45.07108" lon="6.04497">
        <ele>1052</ele>
        <time>2024-06-04T21:46:43Z</time>
      </trkpt>
      <trkpt lat="45.07103" lon="6.04478">
        <ele>1055</ele>
        <time>2024-06-04T21:46:46Z</time>
      </trkpt>
      <trkpt lat="45.07089" lon="6.04445">
        <ele>1061</ele>
        <time>2024-06-04T21:46:51Z</time>
      </trkpt>
      <trkpt lat="45.07087" lon="6.04435">
        <ele>1063</ele>
        <time>2024-06-04T21:46:52Z</time>
      </trkpt>
      <trkpt lat="45.0709" lon="6.04427">
        <ele>1066</ele>
        <time>2024-06-04T21:46:53Z</time>
      </trkpt>
      <trkpt lat="45.07095" lon="6.04423">
        <ele>1068</ele>
        <time>2024-06-04T21:46:54Z</time>
      </trkpt>
      <trkpt lat="45.07098" lon="6.04423">
        <ele>1069</ele>
        <time>2024-06-04T21:46:55Z</time>
      </trkpt>
      <trkpt lat="45.07104" lon="6.04428">
        <ele>1069</ele>
        <time>2024-06-04T21:46:56Z</time>
      </trkpt>
      <trkpt lat="45.0713" lon="6.04489">
        <ele>1062</ele>
        <time>2024-06-04T21:47:05Z</time>
      </trkpt>
      <trkpt lat="45.07151" lon="6.04608">
        <ele>1060</ele>
        <time>2024-06-04T21:47:20Z</time>
      </trkpt>
      <trkpt lat="45.0716" lon="6.04635">
        <ele>1061</ele>
        <time>2024-06-04T21:47:24Z</time>
      </trkpt>
      <trkpt lat="45.0717" lon="6.04653">
        <ele>1064</ele>
        <time>2024-06-04T21:47:27Z</time>
      </trkpt>
      <trkpt lat="45.07185" lon="6.04675">
        <ele>1068</ele>
        <time>2024-06-04T21:47:31Z</time>
      </trkpt>
      <trkpt lat="45.07204" lon="6.04695">
        <ele>1071</ele>
        <time>2024-06-04T21:47:35Z</time>
      </trkpt>
      <trkpt lat="45.07285" lon="6.0476">
        <ele>1082</ele>
        <time>2024-06-04T21:47:52Z</time>
      </trkpt>
      <trkpt lat="45.07297" lon="6.04767">
        <ele>1083</ele>
        <time>2024-06-04T21:47:54Z</time>
      </trkpt>
      <trkpt lat="45.07305" lon="6.04769">
        <ele>1086</ele>
        <time>2024-06-04T21:47:55Z</time>
      </trkpt>
      <trkpt lat="45.07335" lon="6.04771">
        <ele>1095</ele>
        <time>2024-06-04T21:48:01Z</time>
      </trkpt>
      <trkpt lat="45.07348" lon="6.04783">
        <ele>1098</ele>
        <time>2024-06-04T21:48:03Z</time>
      </trkpt>
      <trkpt lat="45.07354" lon="6.04793">
        <ele>1098</ele>
        <time>2024-06-04T21:48:05Z</time>
      </trkpt>
      <trkpt lat="45.07357" lon="6.04804">
        <ele>1098</ele>
        <time>2024-06-04T21:48:07Z</time>
      </trkpt>
      <trkpt lat="45.07367" lon="6.0485">
        <ele>1098</ele>
        <time>2024-06-04T21:48:13Z</time>
      </trkpt>
      <trkpt lat="45.07368" lon="6.04861">
        <ele>1099</ele>
        <time>2024-06-04T21:48:14Z</time>
      </trkpt>
      <trkpt lat="45.07366" lon="6.04878">
        <ele>1100</ele>
        <time>2024-06-04T21:48:16Z</time>
      </trkpt>
      <trkpt lat="45.07364" lon="6.04884">
        <ele>1099</ele>
        <time>2024-06-04T21:48:17Z</time>
      </trkpt>
      <trkpt lat="45.07339" lon="6.04919">
        <ele>1093</ele>
        <time>2024-06-04T21:48:23Z</time>
      </trkpt>
      <trkpt lat="45.07332" lon="6.04939">
        <ele>1096</ele>
        <time>2024-06-04T21:48:26Z</time>
      </trkpt>
      <trkpt lat="45.07326" lon="6.0497">
        <ele>1103</ele>
        <time>2024-06-04T21:48:30Z</time>
      </trkpt>
      <trkpt lat="45.07315" lon="6.04992">
        <ele>1106</ele>
        <time>2024-06-04T21:48:33Z</time>
      </trkpt>
      <trkpt lat="45.07244" lon="6.05107">
        <ele>1105</ele>
        <time>2024-06-04T21:48:53Z</time>
      </trkpt>
      <trkpt lat="45.07243" lon="6.05118">
        <ele>1107</ele>
        <time>2024-06-04T21:48:54Z</time>
      </trkpt>
      <trkpt lat="45.07245" lon="6.05122">
        <ele>1109</ele>
        <time>2024-06-04T21:48:55Z</time>
      </trkpt>
      <trkpt lat="45.0725" lon="6.05126">
        <ele>1114</ele>
        <time>2024-06-04T21:48:56Z</time>
      </trkpt>
      <trkpt lat="45.07257" lon="6.05124">
        <ele>1118</ele>
        <time>2024-06-04T21:48:57Z</time>
      </trkpt>
      <trkpt lat="45.0726" lon="6.05119">
        <ele>1118</ele>
        <time>2024-06-04T21:48:58Z</time>
      </trkpt>
      <trkpt lat="45.07272" lon="6.05094">
        <ele>1118</ele>
        <time>2024-06-04T21:49:02Z</time>
      </trkpt>
      <trkpt lat="45.07287" lon="6.05076">
        <ele>1121</ele>
        <time>2024-06-04T21:49:05Z</time>
      </trkpt>
      <trkpt lat="45.07359" lon="6.05018">
        <ele>1134</ele>
        <time>2024-06-04T21:49:20Z</time>
      </trkpt>
      <trkpt lat="45.07367" lon="6.0501">
        <ele>1134</ele>
        <time>2024-06-04T21:49:22Z</time>
      </trkpt>
      <trkpt lat="45.07396" lon="6.04968">
        <ele>1131</ele>
        <time>2024-06-04T21:49:29Z</time>
      </trkpt>
      <trkpt lat="45.07406" lon="6.04961">
        <ele>1133</ele>
        <time>2024-06-04T21:49:31Z</time>
      </trkpt>
      <trkpt lat="45.07455" lon="6.04955">
        <ele>1151</ele>
        <time>2024-06-04T21:49:40Z</time>
      </trkpt>
      <trkpt lat="45.07463" lon="6.0495">
        <ele>1153</ele>
        <time>2024-06-04T21:49:41Z</time>
      </trkpt>
      <trkpt lat="45.07476" lon="6.04936">
        <ele>1154</ele>
        <time>2024-06-04T21:49:44Z</time>
      </trkpt>
      <trkpt lat="45.07487" lon="6.04911">
        <ele>1153</ele>
        <time>2024-06-04T21:49:48Z</time>
      </trkpt>
      <trkpt lat="45.07501" lon="6.04866">
        <ele>1159</ele>
        <time>2024-06-04T21:49:54Z</time>
      </trkpt>
      <trkpt lat="45.07501" lon="6.0485">
        <ele>1159</ele>
        <time>2024-06-04T21:49:56Z</time>
      </trkpt>
      <trkpt lat="45.07499" lon="6.04837">
        <ele>1158</ele>
        <time>2024-06-04T21:49:58Z</time>
      </trkpt>
      <trkpt lat="45.0749" lon="6.04812">
        <ele>1155</ele>
        <time>2024-06-04T21:50:01Z</time>
      </trkpt>
      <trkpt lat="45.07476" lon="6.04778">
        <ele>1151</ele>
        <time>2024-06-04T21:50:06Z</time>
      </trkpt>
      <trkpt lat="45.07475" lon="6.04773">
        <ele>1151</ele>
        <time>2024-06-04T21:50:07Z</time>
      </trkpt>
      <trkpt lat="45.07476" lon="6.04765">
        <ele>1152</ele>
        <time>2024-06-04T21:50:08Z</time>
      </trkpt>
      <trkpt lat="45.07478" lon="6.04761">
        <ele>1153</ele>
        <time>2024-06-04T21:50:08Z</time>
      </trkpt>
      <trkpt lat="45.07484" lon="6.04759">
        <ele>1156</ele>
        <time>2024-06-04T21:50:10Z</time>
      </trkpt>
      <trkpt lat="45.07487" lon="6.0476">
        <ele>1157</ele>
        <time>2024-06-04T21:50:10Z</time>
      </trkpt>
      <trkpt lat="45.07492" lon="6.04766">
        <ele>1159</ele>
        <time>2024-06-04T21:50:11Z</time>
      </trkpt>
      <trkpt lat="45.07498" lon="6.04802">
        <ele>1159</ele>
        <time>2024-06-04T21:50:16Z</time>
      </trkpt>
      <trkpt lat="45.0752" lon="6.04859">
        <ele>1169</ele>
        <time>2024-06-04T21:50:24Z</time>
      </trkpt>
      <trkpt lat="45.07525" lon="6.04889">
        <ele>1172</ele>
        <time>2024-06-04T21:50:28Z</time>
      </trkpt>
      <trkpt lat="45.07523" lon="6.04948">
        <ele>1180</ele>
        <time>2024-06-04T21:50:35Z</time>
      </trkpt>
      <trkpt lat="45.0752" lon="6.04973">
        <ele>1186</ele>
        <time>2024-06-04T21:50:39Z</time>
      </trkpt>
      <trkpt lat="45.07514" lon="6.04988">
        <ele>1187</ele>
        <time>2024-06-04T21:50:41Z</time>
      </trkpt>
      <trkpt lat="45.07504" lon="6.05">
        <ele>1186</ele>
        <time>2024-06-04T21:50:43Z</time>
      </trkpt>
      <trkpt lat="45.07498" lon="6.05004">
        <ele>1185</ele>
        <time>2024-06-04T21:50:44Z</time>
      </trkpt>
      <trkpt lat="45.07459" lon="6.05019">
        <ele>1176</ele>
        <time>2024-06-04T21:50:51Z</time>
      </trkpt>
      <trkpt lat="45.07445" lon="6.05029">
        <ele>1175</ele>
        <time>2024-06-04T21:50:54Z</time>
      </trkpt>
      <trkpt lat="45.07436" lon="6.05045">
        <ele>1178</ele>
        <time>2024-06-04T21:50:57Z</time>
      </trkpt>
      <trkpt lat="45.07428" lon="6.05067">
        <ele>1184</ele>
        <time>2024-06-04T21:51:00Z</time>
      </trkpt>
      <trkpt lat="45.07417" lon="6.05084">
        <ele>1187</ele>
        <time>2024-06-04T21:51:03Z</time>
      </trkpt>
      <trkpt lat="45.07357" lon="6.05166">
        <ele>1194</ele>
        <time>2024-06-04T21:51:18Z</time>
      </trkpt>
      <trkpt lat="45.07339" lon="6.05184">
        <ele>1192</ele>
        <time>2024-06-04T21:51:22Z</time>
      </trkpt>
      <trkpt lat="45.07322" lon="6.05198">
        <ele>1185</ele>
        <time>2024-06-04T21:51:25Z</time>
      </trkpt>
      <trkpt lat="45.0732" lon="6.05204">
        <ele>1185</ele>
        <time>2024-06-04T21:51:26Z</time>
      </trkpt>
      <trkpt lat="45.0732" lon="6.05212">
        <ele>1188</ele>
        <time>2024-06-04T21:51:27Z</time>
      </trkpt>
      <trkpt lat="45.07325" lon="6.05217">
        <ele>1193</ele>
        <time>2024-06-04T21:51:28Z</time>
      </trkpt>
      <trkpt lat="45.0733" lon="6.05216">
        <ele>1197</ele>
        <time>2024-06-04T21:51:29Z</time>
      </trkpt>
      <trkpt lat="45.07382" lon="6.05158">
        <ele>1203</ele>
        <time>2024-06-04T21:51:41Z</time>
      </trkpt>
      <trkpt lat="45.0745" lon="6.05096">
        <ele>1206</ele>
        <time>2024-06-04T21:51:55Z</time>
      </trkpt>
      <trkpt lat="45.07481" lon="6.0508">
        <ele>1211</ele>
        <time>2024-06-04T21:52:01Z</time>
      </trkpt>
      <trkpt lat="45.07521" lon="6.0507">
        <ele>1223</ele>
        <time>2024-06-04T21:52:08Z</time>
      </trkpt>
      <trkpt lat="45.07538" lon="6.05063">
        <ele>1227</ele>
        <time>2024-06-04T21:52:11Z</time>
      </trkpt>
      <trkpt lat="45.07584" lon="6.05027">
        <ele>1233</ele>
        <time>2024-06-04T21:52:21Z</time>
      </trkpt>
      <trkpt lat="45.07592" lon="6.05011">
        <ele>1232</ele>
        <time>2024-06-04T21:52:23Z</time>
      </trkpt>
      <trkpt lat="45.0761" lon="6.04951">
        <ele>1228</ele>
        <time>2024-06-04T21:52:31Z</time>
      </trkpt>
      <trkpt lat="45.07634" lon="6.04897">
        <ele>1235</ele>
        <time>2024-06-04T21:52:39Z</time>
      </trkpt>
      <trkpt lat="45.07637" lon="6.04888">
        <ele>1236</ele>
        <time>2024-06-04T21:52:41Z</time>
      </trkpt>
      <trkpt lat="45.07638" lon="6.04869">
        <ele>1237</ele>
        <time>2024-06-04T21:52:43Z</time>
      </trkpt>
      <trkpt lat="45.07628" lon="6.04807">
        <ele>1231</ele>
        <time>2024-06-04T21:52:51Z</time>
      </trkpt>
      <trkpt lat="45.07629" lon="6.04795">
        <ele>1231</ele>
        <time>2024-06-04T21:52:53Z</time>
      </trkpt>
      <trkpt lat="45.07649" lon="6.04735">
        <ele>1245</ele>
        <time>2024-06-04T21:53:01Z</time>
      </trkpt>
      <trkpt lat="45.07654" lon="6.04728">
        <ele>1249</ele>
        <time>2024-06-04T21:53:02Z</time>
      </trkpt>
      <trkpt lat="45.0766" lon="6.04727">
        <ele>1252</ele>
        <time>2024-06-04T21:53:03Z</time>
      </trkpt>
      <trkpt lat="45.07665" lon="6.04733">
        <ele>1254</ele>
        <time>2024-06-04T21:53:04Z</time>
      </trkpt>
      <trkpt lat="45.07666" lon="6.04743">
        <ele>1253</ele>
        <time>2024-06-04T21:53:06Z</time>
      </trkpt>
      <trkpt lat="45.0765" lon="6.04783">
        <ele>1244</ele>
        <time>2024-06-04T21:53:11Z</time>
      </trkpt>
      <trkpt lat="45.07649" lon="6.04789">
        <ele>1243</ele>
        <time>2024-06-04T21:53:12Z</time>
      </trkpt>
      <trkpt lat="45.07648" lon="6.04803">
        <ele>1243</ele>
        <time>2024-06-04T21:53:14Z</time>
      </trkpt>
      <trkpt lat="45.07656" lon="6.04832">
        <ele>1248</ele>
        <time>2024-06-04T21:53:18Z</time>
      </trkpt>
      <trkpt lat="45.07667" lon="6.04856">
        <ele>1255</ele>
        <time>2024-06-04T21:53:21Z</time>
      </trkpt>
      <trkpt lat="45.0767" lon="6.04865">
        <ele>1257</ele>
        <time>2024-06-04T21:53:23Z</time>
      </trkpt>
      <trkpt lat="45.07672" lon="6.0489">
        <ele>1258</ele>
        <time>2024-06-04T21:53:26Z</time>
      </trkpt>
      <trkpt lat="45.07671" lon="6.04935">
        <ele>1260</ele>
        <time>2024-06-04T21:53:31Z</time>
      </trkpt>
      <trkpt lat="45.07671" lon="6.04946">
        <ele>1262</ele>
        <time>2024-06-04T21:53:33Z</time>
      </trkpt>
      <trkpt lat="45.07667" lon="6.04964">
        <ele>1263</ele>
        <time>2024-06-04T21:53:35Z</time>
      </trkpt>
      <trkpt lat="45.07654" lon="6.05002">
        <ele>1263</ele>
        <time>2024-06-04T21:53:41Z</time>
      </trkpt>
      <trkpt lat="45.07652" lon="6.05016">
        <ele>1265</ele>
        <time>2024-06-04T21:53:42Z</time>
      </trkpt>
      <trkpt lat="45.07649" lon="6.05061">
        <ele>1275</ele>
        <time>2024-06-04T21:53:48Z</time>
      </trkpt>
      <trkpt lat="45.07643" lon="6.05081">
        <ele>1278</ele>
        <time>2024-06-04T21:53:51Z</time>
      </trkpt>
      <trkpt lat="45.07632" lon="6.05104">
        <ele>1281</ele>
        <time>2024-06-04T21:53:54Z</time>
      </trkpt>
      <trkpt lat="45.07607" lon="6.05144">
        <ele>1284</ele>
        <time>2024-06-04T21:54:01Z</time>
      </trkpt>
      <trkpt lat="45.07598" lon="6.05155">
        <ele>1285</ele>
        <time>2024-06-04T21:54:03Z</time>
      </trkpt>
      <trkpt lat="45.07568" lon="6.05178">
        <ele>1286</ele>
        <time>2024-06-04T21:54:09Z</time>
      </trkpt>
      <trkpt lat="45.07519" lon="6.0521">
        <ele>1291</ele>
        <time>2024-06-04T21:54:19Z</time>
      </trkpt>
      <trkpt lat="45.07502" lon="6.05218">
        <ele>1291</ele>
        <time>2024-06-04T21:54:22Z</time>
      </trkpt>
      <trkpt lat="45.07481" lon="6.05223">
        <ele>1286</ele>
        <time>2024-06-04T21:54:26Z</time>
      </trkpt>
      <trkpt lat="45.07476" lon="6.05234">
        <ele>1291</ele>
        <time>2024-06-04T21:54:27Z</time>
      </trkpt>
      <trkpt lat="45.07477" lon="6.05244">
        <ele>1297</ele>
        <time>2024-06-04T21:54:29Z</time>
      </trkpt>
      <trkpt lat="45.07481" lon="6.05249">
        <ele>1302</ele>
        <time>2024-06-04T21:54:30Z</time>
      </trkpt>
      <trkpt lat="45.07488" lon="6.0525">
        <ele>1305</ele>
        <time>2024-06-04T21:54:31Z</time>
      </trkpt>
      <trkpt lat="45.07499" lon="6.05242">
        <ele>1305</ele>
        <time>2024-06-04T21:54:33Z</time>
      </trkpt>
      <trkpt lat="45.07515" lon="6.05226">
        <ele>1299</ele>
        <time>2024-06-04T21:54:37Z</time>
      </trkpt>
      <trkpt lat="45.07523" lon="6.05222">
        <ele>1299</ele>
        <time>2024-06-04T21:54:38Z</time>
      </trkpt>
      <trkpt lat="45.07575" lon="6.05198">
        <ele>1299</ele>
        <time>2024-06-04T21:54:48Z</time>
      </trkpt>
      <trkpt lat="45.07626" lon="6.05188">
        <ele>1310</ele>
        <time>2024-06-04T21:54:57Z</time>
      </trkpt>
      <trkpt lat="45.07662" lon="6.05175">
        <ele>1316</ele>
        <time>2024-06-04T21:55:04Z</time>
      </trkpt>
      <trkpt lat="45.07678" lon="6.05165">
        <ele>1319</ele>
        <time>2024-06-04T21:55:07Z</time>
      </trkpt>
      <trkpt lat="45.07688" lon="6.05155">
        <ele>1322</ele>
        <time>2024-06-04T21:55:09Z</time>
      </trkpt>
      <trkpt lat="45.07711" lon="6.05119">
        <ele>1324</ele>
        <time>2024-06-04T21:55:15Z</time>
      </trkpt>
      <trkpt lat="45.07725" lon="6.05086">
        <ele>1323</ele>
        <time>2024-06-04T21:55:20Z</time>
      </trkpt>
      <trkpt lat="45.07772" lon="6.05011">
        <ele>1333</ele>
        <time>2024-06-04T21:55:32Z</time>
      </trkpt>
      <trkpt lat="45.07798" lon="6.04962">
        <ele>1341</ele>
        <time>2024-06-04T21:55:40Z</time>
      </trkpt>
      <trkpt lat="45.07806" lon="6.04941">
        <ele>1344</ele>
        <time>2024-06-04T21:55:43Z</time>
      </trkpt>
      <trkpt lat="45.07806" lon="6.0493">
        <ele>1343</ele>
        <time>2024-06-04T21:55:44Z</time>
      </trkpt>
      <trkpt lat="45.07793" lon="6.04891">
        <ele>1337</ele>
        <time>2024-06-04T21:55:50Z</time>
      </trkpt>
      <trkpt lat="45.07794" lon="6.04844">
        <ele>1343</ele>
        <time>2024-06-04T21:55:56Z</time>
      </trkpt>
      <trkpt lat="45.07789" lon="6.04821">
        <ele>1341</ele>
        <time>2024-06-04T21:55:59Z</time>
      </trkpt>
      <trkpt lat="45.07781" lon="6.04796">
        <ele>1336</ele>
        <time>2024-06-04T21:56:02Z</time>
      </trkpt>
      <trkpt lat="45.07781" lon="6.04785">
        <ele>1337</ele>
        <time>2024-06-04T21:56:04Z</time>
      </trkpt>
      <trkpt lat="45.07787" lon="6.04779">
        <ele>1341</ele>
        <time>2024-06-04T21:56:05Z</time>
      </trkpt>
      <trkpt lat="45.07792" lon="6.04781">
        <ele>1345</ele>
        <time>2024-06-04T21:56:06Z</time>
      </trkpt>
      <trkpt lat="45.07797" lon="6.04786">
        <ele>1348</ele>
        <time>2024-06-04T21:56:07Z</time>
      </trkpt>
      <trkpt lat="45.07804" lon="6.0483">
        <ele>1351</ele>
        <time>2024-06-04T21:56:13Z</time>
      </trkpt>
      <trkpt lat="45.0781" lon="6.0485">
        <ele>1353</ele>
        <time>2024-06-04T21:56:15Z</time>
      </trkpt>
      <trkpt lat="45.07823" lon="6.04883">
        <ele>1356</ele>
        <time>2024-06-04T21:56:20Z</time>
      </trkpt>
      <trkpt lat="45.07841" lon="6.04919">
        <ele>1362</ele>
        <time>2024-06-04T21:56:26Z</time>
      </trkpt>
      <trkpt lat="45.07843" lon="6.04933">
        <ele>1364</ele>
        <time>2024-06-04T21:56:27Z</time>
      </trkpt>
      <trkpt lat="45.07842" lon="6.0498">
        <ele>1367</ele>
        <time>2024-06-04T21:56:33Z</time>
      </trkpt>
      <trkpt lat="45.07838" lon="6.05014">
        <ele>1369</ele>
        <time>2024-06-04T21:56:38Z</time>
      </trkpt>
      <trkpt lat="45.07832" lon="6.05036">
        <ele>1369</ele>
        <time>2024-06-04T21:56:41Z</time>
      </trkpt>
      <trkpt lat="45.07783" lon="6.0517">
        <ele>1375</ele>
        <time>2024-06-04T21:57:00Z</time>
      </trkpt>
      <trkpt lat="45.0777" lon="6.05223">
        <ele>1383</ele>
        <time>2024-06-04T21:57:07Z</time>
      </trkpt>
      <trkpt lat="45.07766" lon="6.05235">
        <ele>1385</ele>
        <time>2024-06-04T21:57:08Z</time>
      </trkpt>
      <trkpt lat="45.07746" lon="6.05273">
        <ele>1384</ele>
        <time>2024-06-04T21:57:14Z</time>
      </trkpt>
      <trkpt lat="45.07737" lon="6.05285">
        <ele>1382</ele>
        <time>2024-06-04T21:57:16Z</time>
      </trkpt>
      <trkpt lat="45.07708" lon="6.05317">
        <ele>1376</ele>
        <time>2024-06-04T21:57:23Z</time>
      </trkpt>
      <trkpt lat="45.07705" lon="6.05327">
        <ele>1376</ele>
        <time>2024-06-04T21:57:24Z</time>
      </trkpt>
      <trkpt lat="45.07707" lon="6.05338">
        <ele>1377</ele>
        <time>2024-06-04T21:57:26Z</time>
      </trkpt>
      <trkpt lat="45.07711" lon="6.05346">
        <ele>1378</ele>
        <time>2024-06-04T21:57:27Z</time>
      </trkpt>
      <trkpt lat="45.07716" lon="6.05351">
        <ele>1378</ele>
        <time>2024-06-04T21:57:28Z</time>
      </trkpt>
      <trkpt lat="45.0776" lon="6.05362">
        <ele>1391</ele>
        <time>2024-06-04T21:57:36Z</time>
      </trkpt>
      <trkpt lat="45.07774" lon="6.0537">
        <ele>1394</ele>
        <time>2024-06-04T21:57:39Z</time>
      </trkpt>
      <trkpt lat="45.07818" lon="6.05408">
        <ele>1402</ele>
        <time>2024-06-04T21:57:48Z</time>
      </trkpt>
      <trkpt lat="45.07917" lon="6.05466">
        <ele>1413</ele>
        <time>2024-06-04T21:58:07Z</time>
      </trkpt>
      <trkpt lat="45.07936" lon="6.05469">
        <ele>1416</ele>
        <time>2024-06-04T21:58:10Z</time>
      </trkpt>
      <trkpt lat="45.07959" lon="6.05463">
        <ele>1422</ele>
        <time>2024-06-04T21:58:15Z</time>
      </trkpt>
      <trkpt lat="45.07974" lon="6.05462">
        <ele>1425</ele>
        <time>2024-06-04T21:58:17Z</time>
      </trkpt>
      <trkpt lat="45.0804" lon="6.05479">
        <ele>1432</ele>
        <time>2024-06-04T21:58:29Z</time>
      </trkpt>
      <trkpt lat="45.08061" lon="6.05487">
        <ele>1433</ele>
        <time>2024-06-04T21:58:33Z</time>
      </trkpt>
      <trkpt lat="45.08068" lon="6.05493">
        <ele>1433</ele>
        <time>2024-06-04T21:58:34Z</time>
      </trkpt>
      <trkpt lat="45.08077" lon="6.05509">
        <ele>1434</ele>
        <time>2024-06-04T21:58:37Z</time>
      </trkpt>
      <trkpt lat="45.08081" lon="6.05524">
        <ele>1438</ele>
        <time>2024-06-04T21:58:39Z</time>
      </trkpt>
      <trkpt lat="45.08081" lon="6.05537">
        <ele>1440</ele>
        <time>2024-06-04T21:58:41Z</time>
      </trkpt>
      <trkpt lat="45.08076" lon="6.0555">
        <ele>1441</ele>
        <time>2024-06-04T21:58:43Z</time>
      </trkpt>
      <trkpt lat="45.08072" lon="6.05554">
        <ele>1441</ele>
        <time>2024-06-04T21:58:43Z</time>
      </trkpt>
      <trkpt lat="45.0803" lon="6.05574">
        <ele>1433</ele>
        <time>2024-06-04T21:58:51Z</time>
      </trkpt>
      <trkpt lat="45.08019" lon="6.05587">
        <ele>1431</ele>
        <time>2024-06-04T21:58:54Z</time>
      </trkpt>
      <trkpt lat="45.08013" lon="6.05606">
        <ele>1431</ele>
        <time>2024-06-04T21:58:56Z</time>
      </trkpt>
      <trkpt lat="45.08005" lon="6.0566">
        <ele>1433</ele>
        <time>2024-06-04T21:59:03Z</time>
      </trkpt>
      <trkpt lat="45.08006" lon="6.0568">
        <ele>1434</ele>
        <time>2024-06-04T21:59:06Z</time>
      </trkpt>
      <trkpt lat="45.08012" lon="6.05699">
        <ele>1436</ele>
        <time>2024-06-04T21:59:09Z</time>
      </trkpt>
      <trkpt lat="45.08034" lon="6.05753">
        <ele>1444</ele>
        <time>2024-06-04T21:59:16Z</time>
      </trkpt>
      <trkpt lat="45.08074" lon="6.05856">
        <ele>1448</ele>
        <time>2024-06-04T21:59:31Z</time>
      </trkpt>
      <trkpt lat="45.08107" lon="6.05908">
        <ele>1457</ele>
        <time>2024-06-04T21:59:40Z</time>
      </trkpt>
      <trkpt lat="45.08129" lon="6.05974">
        <ele>1462</ele>
        <time>2024-06-04T21:59:49Z</time>
      </trkpt>
      <trkpt lat="45.08149" lon="6.06005">
        <ele>1469</ele>
        <time>2024-06-04T21:59:54Z</time>
      </trkpt>
      <trkpt lat="45.0818" lon="6.06105">
        <ele>1474</ele>
        <time>2024-06-04T22:00:08Z</time>
      </trkpt>
      <trkpt lat="45.08198" lon="6.06178">
        <ele>1474</ele>
        <time>2024-06-04T22:00:18Z</time>
      </trkpt>
      <trkpt lat="45.08212" lon="6.06218">
        <ele>1474</ele>
        <time>2024-06-04T22:00:23Z</time>
      </trkpt>
      <trkpt lat="45.08216" lon="6.06226">
        <ele>1475</ele>
        <time>2024-06-04T22:00:25Z</time>
      </trkpt>
      <trkpt lat="45.08221" lon="6.06231">
        <ele>1477</ele>
        <time>2024-06-04T22:00:26Z</time>
      </trkpt>
      <trkpt lat="45.08226" lon="6.06232">
        <ele>1480</ele>
        <time>2024-06-04T22:00:27Z</time>
      </trkpt>
      <trkpt lat="45.08234" lon="6.06224">
        <ele>1486</ele>
        <time>2024-06-04T22:00:28Z</time>
      </trkpt>
      <trkpt lat="45.08233" lon="6.06212">
        <ele>1487</ele>
        <time>2024-06-04T22:00:30Z</time>
      </trkpt>
      <trkpt lat="45.08212" lon="6.06173">
        <ele>1482</ele>
        <time>2024-06-04T22:00:36Z</time>
      </trkpt>
      <trkpt lat="45.08209" lon="6.06162">
        <ele>1482</ele>
        <time>2024-06-04T22:00:38Z</time>
      </trkpt>
      <trkpt lat="45.08208" lon="6.06142">
        <ele>1484</ele>
        <time>2024-06-04T22:00:40Z</time>
      </trkpt>
      <trkpt lat="45.0822" lon="6.05971">
        <ele>1500</ele>
        <time>2024-06-04T22:01:02Z</time>
      </trkpt>
      <trkpt lat="45.08212" lon="6.05967">
        <ele>1497</ele>
        <time>2024-06-04T22:01:03Z</time>
      </trkpt>
      <trkpt lat="45.0821" lon="6.05962">
        <ele>1496</ele>
        <time>2024-06-04T22:01:04Z</time>
      </trkpt>
      <trkpt lat="45.08205" lon="6.05929">
        <ele>1495</ele>
        <time>2024-06-04T22:01:08Z</time>
      </trkpt>
      <trkpt lat="45.08199" lon="6.05907">
        <ele>1494</ele>
        <time>2024-06-04T22:01:11Z</time>
      </trkpt>
      <trkpt lat="45.08192" lon="6.05872">
        <ele>1493</ele>
        <time>2024-06-04T22:01:16Z</time>
      </trkpt>
      <trkpt lat="45.08176" lon="6.05836">
        <ele>1490</ele>
        <time>2024-06-04T22:01:21Z</time>
      </trkpt>
      <trkpt lat="45.08171" lon="6.05817">
        <ele>1489</ele>
        <time>2024-06-04T22:01:24Z</time>
      </trkpt>
      <trkpt lat="45.08166" lon="6.05788">
        <ele>1488</ele>
        <time>2024-06-04T22:01:27Z</time>
      </trkpt>
      <trkpt lat="45.08166" lon="6.05767">
        <ele>1488</ele>
        <time>2024-06-04T22:01:30Z</time>
      </trkpt>
      <trkpt lat="45.08164" lon="6.05749">
        <ele>1487</ele>
        <time>2024-06-04T22:01:32Z</time>
      </trkpt>
      <trkpt lat="45.08164" lon="6.05735">
        <ele>1486</ele>
        <time>2024-06-04T22:01:34Z</time>
      </trkpt>
      <trkpt lat="45.08174" lon="6.05705">
        <ele>1483</ele>
        <time>2024-06-04T22:01:38Z</time>
      </trkpt>
      <trkpt lat="45.0818" lon="6.05683">
        <ele>1481</ele>
        <time>2024-06-04T22:01:41Z</time>
      </trkpt>
      <trkpt lat="45.08187" lon="6.05667">
        <ele>1480</ele>
        <time>2024-06-04T22:01:43Z</time>
      </trkpt>
      <trkpt lat="45.08195" lon="6.05656">
        <ele>1479</ele>
        <time>2024-06-04T22:01:45Z</time>
      </trkpt>
      <trkpt lat="45.08198" lon="6.0565">
        <ele>1478</ele>
        <time>2024-06-04T22:01:46Z</time>
      </trkpt>
      <trkpt lat="45.08195" lon="6.05633">
        <ele>1475</ele>
        <time>2024-06-04T22:01:49Z</time>
      </trkpt>
      <trkpt lat="45.08208" lon="6.05629">
        <ele>1476</ele>
        <time>2024-06-04T22:01:51Z</time>
      </trkpt>
      <trkpt lat="45.08227" lon="6.05628">
        <ele>1479</ele>
        <time>2024-06-04T22:01:54Z</time>
      </trkpt>
      <trkpt lat="45.08266" lon="6.05618">
        <ele>1485</ele>
        <time>2024-06-04T22:02:01Z</time>
      </trkpt>
      <trkpt lat="45.08276" lon="6.05623">
        <ele>1487</ele>
        <time>2024-06-04T22:02:03Z</time>
      </trkpt>
      <trkpt lat="45.08283" lon="6.05619">
        <ele>1488</ele>
        <time>2024-06-04T22:02:05Z</time>
      </trkpt>
      <trkpt lat="45.08287" lon="6.05609">
        <ele>1489</ele>
        <time>2024-06-04T22:02:06Z</time>
      </trkpt>
      <trkpt lat="45.08288" lon="6.05602">
        <ele>1489</ele>
        <time>2024-06-04T22:02:07Z</time>
      </trkpt>
      <trkpt lat="45.08287" lon="6.05588">
        <ele>1489</ele>
        <time>2024-06-04T22:02:09Z</time>
      </trkpt>
      <trkpt lat="45.08272" lon="6.05526">
        <ele>1493</ele>
        <time>2024-06-04T22:02:17Z</time>
      </trkpt>
      <trkpt lat="45.08264" lon="6.05508">
        <ele>1492</ele>
        <time>2024-06-04T22:02:20Z</time>
      </trkpt>
      <trkpt lat="45.08259" lon="6.05497">
        <ele>1492</ele>
        <time>2024-06-04T22:02:21Z</time>
      </trkpt>
      <trkpt lat="45.08236" lon="6.0547">
        <ele>1490</ele>
        <time>2024-06-04T22:02:27Z</time>
      </trkpt>
      <trkpt lat="45.08222" lon="6.05444">
        <ele>1491</ele>
        <time>2024-06-04T22:02:31Z</time>
      </trkpt>
      <trkpt lat="45.08196" lon="6.05383">
        <ele>1491</ele>
        <time>2024-06-04T22:02:40Z</time>
      </trkpt>
      <trkpt lat="45.08193" lon="6.05372">
        <ele>1491</ele>
        <time>2024-06-04T22:02:41Z</time>
      </trkpt>
      <trkpt lat="45.08191" lon="6.05355">
        <ele>1493</ele>
        <time>2024-06-04T22:02:43Z</time>
      </trkpt>
      <trkpt lat="45.08195" lon="6.05305">
        <ele>1504</ele>
        <time>2024-06-04T22:02:50Z</time>
      </trkpt>
      <trkpt lat="45.08197" lon="6.05275">
        <ele>1511</ele>
        <time>2024-06-04T22:02:53Z</time>
      </trkpt>
      <trkpt lat="45.08195" lon="6.05259">
        <ele>1514</ele>
        <time>2024-06-04T22:02:55Z</time>
      </trkpt>
      <trkpt lat="45.08193" lon="6.05253">
        <ele>1514</ele>
        <time>2024-06-04T22:02:56Z</time>
      </trkpt>
      <trkpt lat="45.08189" lon="6.05249">
        <ele>1514</ele>
        <time>2024-06-04T22:02:57Z</time>
      </trkpt>
      <trkpt lat="45.08181" lon="6.0525">
        <ele>1510</ele>
        <time>2024-06-04T22:02:59Z</time>
      </trkpt>
      <trkpt lat="45.08169" lon="6.05258">
        <ele>1504</ele>
        <time>2024-06-04T22:03:01Z</time>
      </trkpt>
      <trkpt lat="45.08156" lon="6.05262">
        <ele>1503</ele>
        <time>2024-06-04T22:03:03Z</time>
      </trkpt>
      <trkpt lat="45.08114" lon="6.05269">
        <ele>1505</ele>
        <time>2024-06-04T22:03:11Z</time>
      </trkpt>
      <trkpt lat="45.08072" lon="6.05271">
        <ele>1505</ele>
        <time>2024-06-04T22:03:18Z</time>
      </trkpt>
      <trkpt lat="45.08038" lon="6.05264">
        <ele>1501</ele>
        <time>2024-06-04T22:03:24Z</time>
      </trkpt>
      <trkpt lat="45.08004" lon="6.05249">
        <ele>1499</ele>
        <time>2024-06-04T22:03:31Z</time>
      </trkpt>
      <trkpt lat="45.07996" lon="6.05242">
        <ele>1496</ele>
        <time>2024-06-04T22:03:32Z</time>
      </trkpt>
      <trkpt lat="45.07993" lon="6.05226">
        <ele>1495</ele>
        <time>2024-06-04T22:03:35Z</time>
      </trkpt>
      <trkpt lat="45.07992" lon="6.052">
        <ele>1494</ele>
        <time>2024-06-04T22:03:38Z</time>
      </trkpt>
      <trkpt lat="45.07994" lon="6.05181">
        <ele>1495</ele>
        <time>2024-06-04T22:03:40Z</time>
      </trkpt>
      <trkpt lat="45.08029" lon="6.05053">
        <ele>1503</ele>
        <time>2024-06-04T22:03:57Z</time>
      </trkpt>
      <trkpt lat="45.08062" lon="6.04952">
        <ele>1516</ele>
        <time>2024-06-04T22:04:11Z</time>
      </trkpt>
      <trkpt lat="45.08065" lon="6.04936">
        <ele>1517</ele>
        <time>2024-06-04T22:04:14Z</time>
      </trkpt>
      <trkpt lat="45.08069" lon="6.04886">
        <ele>1522</ele>
        <time>2024-06-04T22:04:20Z</time>
      </trkpt>
      <trkpt lat="45.08069" lon="6.04875">
        <ele>1523</ele>
        <time>2024-06-04T22:04:21Z</time>
      </trkpt>
      <trkpt lat="45.08065" lon="6.04858">
        <ele>1522</ele>
        <time>2024-06-04T22:04:23Z</time>
      </trkpt>
      <trkpt lat="45.08056" lon="6.04835">
        <ele>1518</ele>
        <time>2024-06-04T22:04:27Z</time>
      </trkpt>
      <trkpt lat="45.08046" lon="6.04797">
        <ele>1517</ele>
        <time>2024-06-04T22:04:32Z</time>
      </trkpt>
      <trkpt lat="45.08028" lon="6.04766">
        <ele>1510</ele>
        <time>2024-06-04T22:04:37Z</time>
      </trkpt>
      <trkpt lat="45.08025" lon="6.04759">
        <ele>1510</ele>
        <time>2024-06-04T22:04:38Z</time>
      </trkpt>
      <trkpt lat="45.08025" lon="6.0475">
        <ele>1511</ele>
        <time>2024-06-04T22:04:39Z</time>
      </trkpt>
      <trkpt lat="45.0805" lon="6.04693">
        <ele>1520</ele>
        <time>2024-06-04T22:04:47Z</time>
      </trkpt>
      <trkpt lat="45.08058" lon="6.0466">
        <ele>1521</ele>
        <time>2024-06-04T22:04:52Z</time>
      </trkpt>
      <trkpt lat="45.08073" lon="6.04641">
        <ele>1526</ele>
        <time>2024-06-04T22:04:55Z</time>
      </trkpt>
      <trkpt lat="45.08078" lon="6.04629">
        <ele>1527</ele>
        <time>2024-06-04T22:04:57Z</time>
      </trkpt>
      <trkpt lat="45.08079" lon="6.04616">
        <ele>1525</ele>
        <time>2024-06-04T22:04:59Z</time>
      </trkpt>
      <trkpt lat="45.08072" lon="6.04594">
        <ele>1516</ele>
        <time>2024-06-04T22:05:02Z</time>
      </trkpt>
      <trkpt lat="45.08072" lon="6.04584">
        <ele>1513</ele>
        <time>2024-06-04T22:05:03Z</time>
      </trkpt>
      <trkpt lat="45.08077" lon="6.04577">
        <ele>1516</ele>
        <time>2024-06-04T22:05:04Z</time>
      </trkpt>
      <trkpt lat="45.08098" lon="6.04559">
        <ele>1528</ele>
        <time>2024-06-04T22:05:09Z</time>
      </trkpt>
      <trkpt lat="45.08114" lon="6.0454">
        <ele>1539</ele>
        <time>2024-06-04T22:05:12Z</time>
      </trkpt>
      <trkpt lat="45.08116" lon="6.04535">
        <ele>1540</ele>
        <time>2024-06-04T22:05:13Z</time>
      </trkpt>
      <trkpt lat="45.08116" lon="6.04523">
        <ele>1539</ele>
        <time>2024-06-04T22:05:15Z</time>
      </trkpt>
      <trkpt lat="45.08108" lon="6.04504">
        <ele>1532</ele>
        <time>2024-06-04T22:05:17Z</time>
      </trkpt>
      <trkpt lat="45.08107" lon="6.04497">
        <ele>1531</ele>
        <time>2024-06-04T22:05:18Z</time>
      </trkpt>
      <trkpt lat="45.08109" lon="6.04477">
        <ele>1537</ele>
        <time>2024-06-04T22:05:21Z</time>
      </trkpt>
      <trkpt lat="45.08108" lon="6.04471">
        <ele>1537</ele>
        <time>2024-06-04T22:05:22Z</time>
      </trkpt>
      <trkpt lat="45.0809" lon="6.04442">
        <ele>1529</ele>
        <time>2024-06-04T22:05:27Z</time>
      </trkpt>
      <trkpt lat="45.08086" lon="6.04432">
        <ele>1528</ele>
        <time>2024-06-04T22:05:28Z</time>
      </trkpt>
      <trkpt lat="45.08084" lon="6.04416">
        <ele>1530</ele>
        <time>2024-06-04T22:05:30Z</time>
      </trkpt>
      <trkpt lat="45.08085" lon="6.04407">
        <ele>1532</ele>
        <time>2024-06-04T22:05:31Z</time>
      </trkpt>
      <trkpt lat="45.08091" lon="6.04384">
        <ele>1540</ele>
        <time>2024-06-04T22:05:34Z</time>
      </trkpt>
      <trkpt lat="45.08091" lon="6.04373">
        <ele>1542</ele>
        <time>2024-06-04T22:05:36Z</time>
      </trkpt>
      <trkpt lat="45.08087" lon="6.04363">
        <ele>1541</ele>
        <time>2024-06-04T22:05:37Z</time>
      </trkpt>
      <trkpt lat="45.08071" lon="6.04336">
        <ele>1533</ele>
        <time>2024-06-04T22:05:42Z</time>
      </trkpt>
      <trkpt lat="45.08069" lon="6.04329">
        <ele>1533</ele>
        <time>2024-06-04T22:05:42Z</time>
      </trkpt>
      <trkpt lat="45.08071" lon="6.04305">
        <ele>1539</ele>
        <time>2024-06-04T22:05:45Z</time>
      </trkpt>
      <trkpt lat="45.08069" lon="6.04291">
        <ele>1539</ele>
        <time>2024-06-04T22:05:47Z</time>
      </trkpt>
      <trkpt lat="45.08053" lon="6.0426">
        <ele>1531</ele>
        <time>2024-06-04T22:05:52Z</time>
      </trkpt>
      <trkpt lat="45.0805" lon="6.0425">
        <ele>1530</ele>
        <time>2024-06-04T22:05:53Z</time>
      </trkpt>
      <trkpt lat="45.08048" lon="6.04227">
        <ele>1529</ele>
        <time>2024-06-04T22:05:56Z</time>
      </trkpt>
      <trkpt lat="45.08026" lon="6.0417">
        <ele>1517</ele>
        <time>2024-06-04T22:06:05Z</time>
      </trkpt>
      <trkpt lat="45.08025" lon="6.04159">
        <ele>1513</ele>
        <time>2024-06-04T22:06:06Z</time>
      </trkpt>
      <trkpt lat="45.08029" lon="6.04149">
        <ele>1510</ele>
        <time>2024-06-04T22:06:07Z</time>
      </trkpt>
      <trkpt lat="45.08039" lon="6.04138">
        <ele>1512</ele>
        <time>2024-06-04T22:06:10Z</time>
      </trkpt>
      <trkpt lat="45.08045" lon="6.04134">
        <ele>1514</ele>
        <time>2024-06-04T22:06:11Z</time>
      </trkpt>
      <trkpt lat="45.08095" lon="6.04117">
        <ele>1535</ele>
        <time>2024-06-04T22:06:20Z</time>
      </trkpt>
      <trkpt lat="45.08135" lon="6.04094">
        <ele>1532</ele>
        <time>2024-06-04T22:06:28Z</time>
      </trkpt>
      <trkpt lat="45.08159" lon="6.04089">
        <ele>1535</ele>
        <time>2024-06-04T22:06:32Z</time>
      </trkpt>
      <trkpt lat="45.08184" lon="6.04086">
        <ele>1539</ele>
        <time>2024-06-04T22:06:36Z</time>
      </trkpt>
      <trkpt lat="45.08208" lon="6.04075">
        <ele>1539</ele>
        <time>2024-06-04T22:06:41Z</time>
      </trkpt>
      <trkpt lat="45.08239" lon="6.04065">
        <ele>1541</ele>
        <time>2024-06-04T22:06:47Z</time>
      </trkpt>
      <trkpt lat="45.08251" lon="6.04055">
        <ele>1538</ele>
        <time>2024-06-04T22:06:49Z</time>
      </trkpt>
      <trkpt lat="45.08274" lon="6.04032">
        <ele>1534</ele>
        <time>2024-06-04T22:06:54Z</time>
      </trkpt>
      <trkpt lat="45.08307" lon="6.04021">
        <ele>1541</ele>
        <time>2024-06-04T22:07:00Z</time>
      </trkpt>
      <trkpt lat="45.0832" lon="6.04014">
        <ele>1542</ele>
        <time>2024-06-04T22:07:03Z</time>
      </trkpt>
      <trkpt lat="45.08335" lon="6.03994">
        <ele>1536</ele>
        <time>2024-06-04T22:07:06Z</time>
      </trkpt>
      <trkpt lat="45.08346" lon="6.0397">
        <ele>1529</ele>
        <time>2024-06-04T22:07:10Z</time>
      </trkpt>
      <trkpt lat="45.08354" lon="6.03966">
        <ele>1531</ele>
        <time>2024-06-04T22:07:11Z</time>
      </trkpt>
      <trkpt lat="45.0838" lon="6.03962">
        <ele>1544</ele>
        <time>2024-06-04T22:07:16Z</time>
      </trkpt>
      <trkpt lat="45.08383" lon="6.0396">
        <ele>1544</ele>
        <time>2024-06-04T22:07:17Z</time>
      </trkpt>
      <trkpt lat="45.08387" lon="6.03953">
        <ele>1543</ele>
        <time>2024-06-04T22:07:18Z</time>
      </trkpt>
      <trkpt lat="45.08389" lon="6.03941">
        <ele>1537</ele>
        <time>2024-06-04T22:07:19Z</time>
      </trkpt>
      <trkpt lat="45.08388" lon="6.03929">
        <ele>1529</ele>
        <time>2024-06-04T22:07:21Z</time>
      </trkpt>
      <trkpt lat="45.08384" lon="6.03917">
        <ele>1520</ele>
        <time>2024-06-04T22:07:22Z</time>
      </trkpt>
      <trkpt lat="45.08384" lon="6.03907">
        <ele>1516</ele>
        <time>2024-06-04T22:07:24Z</time>
      </trkpt>
      <trkpt lat="45.08394" lon="6.03885">
        <ele>1513</ele>
        <time>2024-06-04T22:07:27Z</time>
      </trkpt>
      <trkpt lat="45.08412" lon="6.03859">
        <ele>1515</ele>
        <time>2024-06-04T22:07:32Z</time>
      </trkpt>
      <trkpt lat="45.08416" lon="6.03849">
        <ele>1514</ele>
        <time>2024-06-04T22:07:33Z</time>
      </trkpt>
      <trkpt lat="45.08419" lon="6.03839">
        <ele>1512</ele>
        <time>2024-06-04T22:07:34Z</time>
      </trkpt>
      <trkpt lat="45.08427" lon="6.03793">
        <ele>1502</ele>
        <time>2024-06-04T22:07:40Z</time>
      </trkpt>
      <trkpt lat="45.08428" lon="6.03755">
        <ele>1492</ele>
        <time>2024-06-04T22:07:45Z</time>
      </trkpt>
      <trkpt lat="45.08438" lon="6.03732">
        <ele>1491</ele>
        <time>2024-06-04T22:07:48Z</time>
      </trkpt>
      <trkpt lat="45.08453" lon="6.03706">
        <ele>1490</ele>
        <time>2024-06-04T22:07:53Z</time>
      </trkpt>
      <trkpt lat="45.08455" lon="6.03689">
        <ele>1486</ele>
        <time>2024-06-04T22:07:55Z</time>
      </trkpt>
      <trkpt lat="45.08456" lon="6.03684">
        <ele>1484</ele>
        <time>2024-06-04T22:07:56Z</time>
      </trkpt>
      <trkpt lat="45.08481" lon="6.03643">
        <ele>1480</ele>
        <time>2024-06-04T22:08:02Z</time>
      </trkpt>
      <trkpt lat="45.08493" lon="6.0363">
        <ele>1480</ele>
        <time>2024-06-04T22:08:05Z</time>
      </trkpt>
      <trkpt lat="45.08498" lon="6.03627">
        <ele>1482</ele>
        <time>2024-06-04T22:08:06Z</time>
      </trkpt>
      <trkpt lat="45.08541" lon="6.0362">
        <ele>1491</ele>
        <time>2024-06-04T22:08:14Z</time>
      </trkpt>
      <trkpt lat="45.08546" lon="6.03617">
        <ele>1491</ele>
        <time>2024-06-04T22:08:15Z</time>
      </trkpt>
      <trkpt lat="45.08557" lon="6.03607">
        <ele>1491</ele>
        <time>2024-06-04T22:08:17Z</time>
      </trkpt>
      <trkpt lat="45.08573" lon="6.03576">
        <ele>1486</ele>
        <time>2024-06-04T22:08:22Z</time>
      </trkpt>
      <trkpt lat="45.08577" lon="6.03572">
        <ele>1486</ele>
        <time>2024-06-04T22:08:23Z</time>
      </trkpt>
      <trkpt lat="45.0858" lon="6.03571">
        <ele>1487</ele>
        <time>2024-06-04T22:08:23Z</time>
      </trkpt>
      <trkpt lat="45.08632" lon="6.03595">
        <ele>1494</ele>
        <time>2024-06-04T22:08:33Z</time>
      </trkpt>
      <trkpt lat="45.08655" lon="6.03609">
        <ele>1498</ele>
        <time>2024-06-04T22:08:37Z</time>
      </trkpt>
      <trkpt lat="45.08666" lon="6.03614">
        <ele>1500</ele>
        <time>2024-06-04T22:08:39Z</time>
      </trkpt>
      <trkpt lat="45.08676" lon="6.03615">
        <ele>1498</ele>
        <time>2024-06-04T22:08:41Z</time>
      </trkpt>
      <trkpt lat="45.08752" lon="6.03611">
        <ele>1483</ele>
        <time>2024-06-04T22:08:55Z</time>
      </trkpt>
      <trkpt lat="45.08776" lon="6.03613">
        <ele>1486</ele>
        <time>2024-06-04T22:08:59Z</time>
      </trkpt>
      <trkpt lat="45.08782" lon="6.03611">
        <ele>1485</ele>
        <time>2024-06-04T22:09:00Z</time>
      </trkpt>
      <trkpt lat="45.08793" lon="6.03603">
        <ele>1483</ele>
        <time>2024-06-04T22:09:02Z</time>
      </trkpt>
      <trkpt lat="45.08823" lon="6.03558">
        <ele>1472</ele>
        <time>2024-06-04T22:09:10Z</time>
      </trkpt>
      <trkpt lat="45.08829" lon="6.03553">
        <ele>1472</ele>
        <time>2024-06-04T22:09:11Z</time>
      </trkpt>
      <trkpt lat="45.0886" lon="6.03534">
        <ele>1474</ele>
        <time>2024-06-04T22:09:17Z</time>
      </trkpt>
      <trkpt lat="45.08871" lon="6.0352">
        <ele>1473</ele>
        <time>2024-06-04T22:09:20Z</time>
      </trkpt>
      <trkpt lat="45.08878" lon="6.03501">
        <ele>1471</ele>
        <time>2024-06-04T22:09:23Z</time>
      </trkpt>
      <trkpt lat="45.0889" lon="6.03446">
        <ele>1465</ele>
        <time>2024-06-04T22:09:30Z</time>
      </trkpt>
      <trkpt lat="45.08897" lon="6.03431">
        <ele>1464</ele>
        <time>2024-06-04T22:09:32Z</time>
      </trkpt>
      <trkpt lat="45.08915" lon="6.03407">
        <ele>1464</ele>
        <time>2024-06-04T22:09:37Z</time>
      </trkpt>
      <trkpt lat="45.08931" lon="6.03391">
        <ele>1460</ele>
        <time>2024-06-04T22:09:40Z</time>
      </trkpt>
      <trkpt lat="45.08963" lon="6.03368">
        <ele>1456</ele>
        <time>2024-06-04T22:09:46Z</time>
      </trkpt>
      <trkpt lat="45.08996" lon="6.03355">
        <ele>1455</ele>
        <time>2024-06-04T22:09:53Z</time>
      </trkpt>
      <trkpt lat="45.09055" lon="6.03346">
        <ele>1449</ele>
        <time>2024-06-04T22:10:03Z</time>
      </trkpt>
      <trkpt lat="45.09085" lon="6.03346">
        <ele>1447</ele>
        <time>2024-06-04T22:10:08Z</time>
      </trkpt>
      <trkpt lat="45.09115" lon="6.03354">
        <ele>1451</ele>
        <time>2024-06-04T22:10:14Z</time>
      </trkpt>
      <trkpt lat="45.09122" lon="6.0336">
        <ele>1453</ele>
        <time>2024-06-04T22:10:15Z</time>
      </trkpt>
      <trkpt lat="45.0913" lon="6.0337">
        <ele>1456</ele>
        <time>2024-06-04T22:10:17Z</time>
      </trkpt>
      <trkpt lat="45.09137" lon="6.03373">
        <ele>1458</ele>
        <time>2024-06-04T22:10:19Z</time>
      </trkpt>
      <trkpt lat="45.09143" lon="6.03372">
        <ele>1458</ele>
        <time>2024-06-04T22:10:20Z</time>
      </trkpt>
      <trkpt lat="45.09146" lon="6.03367">
        <ele>1457</ele>
        <time>2024-06-04T22:10:20Z</time>
      </trkpt>
      <trkpt lat="45.09155" lon="6.03332">
        <ele>1451</ele>
        <time>2024-06-04T22:10:25Z</time>
      </trkpt>
      <trkpt lat="45.09159" lon="6.033">
        <ele>1450</ele>
        <time>2024-06-04T22:10:29Z</time>
      </trkpt>
      <trkpt lat="45.09159" lon="6.03268">
        <ele>1448</ele>
        <time>2024-06-04T22:10:33Z</time>
      </trkpt>
      <trkpt lat="45.09163" lon="6.0323">
        <ele>1448</ele>
        <time>2024-06-04T22:10:38Z</time>
      </trkpt>
      <trkpt lat="45.09174" lon="6.03182">
        <ele>1450</ele>
        <time>2024-06-04T22:10:44Z</time>
      </trkpt>
      <trkpt lat="45.09173" lon="6.03164">
        <ele>1450</ele>
        <time>2024-06-04T22:10:47Z</time>
      </trkpt>
      <trkpt lat="45.09166" lon="6.03144">
        <ele>1447</ele>
        <time>2024-06-04T22:10:49Z</time>
      </trkpt>
      <trkpt lat="45.09174" lon="6.03135">
        <ele>1449</ele>
        <time>2024-06-04T22:10:51Z</time>
      </trkpt>
      <trkpt lat="45.09183" lon="6.03127">
        <ele>1450</ele>
        <time>2024-06-04T22:10:53Z</time>
      </trkpt>
      <trkpt lat="45.09201" lon="6.03136">
        <ele>1455</ele>
        <time>2024-06-04T22:10:57Z</time>
      </trkpt>
      <trkpt lat="45.09219" lon="6.0311">
        <ele>1456</ele>
        <time>2024-06-04T22:11:01Z</time>
      </trkpt>
      <trkpt lat="45.09248" lon="6.03093">
        <ele>1459</ele>
        <time>2024-06-04T22:11:07Z</time>
      </trkpt>
      <trkpt lat="45.09262" lon="6.0308">
        <ele>1458</ele>
        <time>2024-06-04T22:11:10Z</time>
      </trkpt>
      <trkpt lat="45.09282" lon="6.03074">
        <ele>1459</ele>
        <time>2024-06-04T22:11:13Z</time>
      </trkpt>
      <trkpt lat="45.09298" lon="6.03056">
        <ele>1455</ele>
        <time>2024-06-04T22:11:17Z</time>
      </trkpt>
      <trkpt lat="45.09315" lon="6.03061">
        <ele>1457</ele>
        <time>2024-06-04T22:11:20Z</time>
      </trkpt>
      <trkpt lat="45.09378" lon="6.0307">
        <ele>1464</ele>
        <time>2024-06-04T22:11:31Z</time>
      </trkpt>
      <trkpt lat="45.09388" lon="6.03078">
        <ele>1468</ele>
        <time>2024-06-04T22:11:33Z</time>
      </trkpt>
      <trkpt lat="45.09394" lon="6.03079">
        <ele>1469</ele>
        <time>2024-06-04T22:11:34Z</time>
      </trkpt>
      <trkpt lat="45.09423" lon="6.03073">
        <ele>1467</ele>
        <time>2024-06-04T22:11:40Z</time>
      </trkpt>
      <trkpt lat="45.09447" lon="6.03076">
        <ele>1465</ele>
        <time>2024-06-04T22:11:44Z</time>
      </trkpt>
      <trkpt lat="45.09499" lon="6.03092">
        <ele>1464</ele>
        <time>2024-06-04T22:11:53Z</time>
      </trkpt>
      <trkpt lat="45.09565" lon="6.03121">
        <ele>1460</ele>
        <time>2024-06-04T22:12:06Z</time>
      </trkpt>
      <trkpt lat="45.0961" lon="6.03152">
        <ele>1459</ele>
        <time>2024-06-04T22:12:15Z</time>
      </trkpt>
      <trkpt lat="45.09654" lon="6.03192">
        <ele>1459</ele>
        <time>2024-06-04T22:12:24Z</time>
      </trkpt>
      <trkpt lat="45.09754" lon="6.03306">
        <ele>1464</ele>
        <time>2024-06-04T22:12:47Z</time>
      </trkpt>
      <trkpt lat="45.09775" lon="6.03325">
        <ele>1467</ele>
        <time>2024-06-04T22:12:51Z</time>
      </trkpt>
      <trkpt lat="45.09785" lon="6.0333">
        <ele>1466</ele>
        <time>2024-06-04T22:12:53Z</time>
      </trkpt>
      <trkpt lat="45.09832" lon="6.03323">
        <ele>1450</ele>
        <time>2024-06-04T22:13:01Z</time>
      </trkpt>
      <trkpt lat="45.09848" lon="6.03326">
        <ele>1447</ele>
        <time>2024-06-04T22:13:04Z</time>
      </trkpt>
      <trkpt lat="45.09863" lon="6.03333">
        <ele>1446</ele>
        <time>2024-06-04T22:13:07Z</time>
      </trkpt>
      <trkpt lat="45.09888" lon="6.03354">
        <ele>1445</ele>
        <time>2024-06-04T22:13:12Z</time>
      </trkpt>
      <trkpt lat="45.09926" lon="6.03393">
        <ele>1445</ele>
        <time>2024-06-04T22:13:21Z</time>
      </trkpt>
      <trkpt lat="45.09944" lon="6.03405">
        <ele>1440</ele>
        <time>2024-06-04T22:13:24Z</time>
      </trkpt>
      <trkpt lat="45.09957" lon="6.03417">
        <ele>1437</ele>
        <time>2024-06-04T22:13:27Z</time>
      </trkpt>
      <trkpt lat="45.10008" lon="6.03488">
        <ele>1439</ele>
        <time>2024-06-04T22:13:40Z</time>
      </trkpt>
      <trkpt lat="45.10057" lon="6.03536">
        <ele>1432</ele>
        <time>2024-06-04T22:13:50Z</time>
      </trkpt>
      <trkpt lat="45.10067" lon="6.03551">
        <ele>1432</ele>
        <time>2024-06-04T22:13:53Z</time>
      </trkpt>
      <trkpt lat="45.10082" lon="6.03585">
        <ele>1435</ele>
        <time>2024-06-04T22:13:58Z</time>
      </trkpt>
      <trkpt lat="45.1009" lon="6.03599">
        <ele>1437</ele>
        <time>2024-06-04T22:14:00Z</time>
      </trkpt>
      <trkpt lat="45.10098" lon="6.03609">
        <ele>1438</ele>
        <time>2024-06-04T22:14:02Z</time>
      </trkpt>
      <trkpt lat="45.10125" lon="6.03627">
        <ele>1435</ele>
        <time>2024-06-04T22:14:07Z</time>
      </trkpt>
      <trkpt lat="45.10148" lon="6.03638">
        <ele>1431</ele>
        <time>2024-06-04T22:14:12Z</time>
      </trkpt>
      <trkpt lat="45.10204" lon="6.03658">
        <ele>1420</ele>
        <time>2024-06-04T22:14:22Z</time>
      </trkpt>
      <trkpt lat="45.10225" lon="6.03667">
        <ele>1415</ele>
        <time>2024-06-04T22:14:26Z</time>
      </trkpt>
      <trkpt lat="45.10231" lon="6.03672">
        <ele>1415</ele>
        <time>2024-06-04T22:14:27Z</time>
      </trkpt>
      <trkpt lat="45.1025" lon="6.03694">
        <ele>1415</ele>
        <time>2024-06-04T22:14:32Z</time>
      </trkpt>
      <trkpt lat="45.10283" lon="6.03757">
        <ele>1421</ele>
        <time>2024-06-04T22:14:41Z</time>
      </trkpt>
      <trkpt lat="45.10294" lon="6.03771">
        <ele>1419</ele>
        <time>2024-06-04T22:14:44Z</time>
      </trkpt>
      <trkpt lat="45.10315" lon="6.03792">
        <ele>1413</ele>
        <time>2024-06-04T22:14:49Z</time>
      </trkpt>
      <trkpt lat="45.10332" lon="6.03812">
        <ele>1408</ele>
        <time>2024-06-04T22:14:52Z</time>
      </trkpt>
      <trkpt lat="45.10338" lon="6.03823">
        <ele>1408</ele>
        <time>2024-06-04T22:14:54Z</time>
      </trkpt>
      <trkpt lat="45.10349" lon="6.0386">
        <ele>1414</ele>
        <time>2024-06-04T22:14:59Z</time>
      </trkpt>
      <trkpt lat="45.10353" lon="6.03869">
        <ele>1416</ele>
        <time>2024-06-04T22:15:01Z</time>
      </trkpt>
      <trkpt lat="45.1036" lon="6.03876">
        <ele>1416</ele>
        <time>2024-06-04T22:15:02Z</time>
      </trkpt>
      <trkpt lat="45.1037" lon="6.03883">
        <ele>1416</ele>
        <time>2024-06-04T22:15:04Z</time>
      </trkpt>
      <trkpt lat="45.10389" lon="6.03889">
        <ele>1415</ele>
        <time>2024-06-04T22:15:08Z</time>
      </trkpt>
      <trkpt lat="45.10398" lon="6.03888">
        <ele>1413</ele>
        <time>2024-06-04T22:15:09Z</time>
      </trkpt>
      <trkpt lat="45.10427" lon="6.03873">
        <ele>1403</ele>
        <time>2024-06-04T22:15:15Z</time>
      </trkpt>
      <trkpt lat="45.10436" lon="6.03873">
        <ele>1401</ele>
        <time>2024-06-04T22:15:16Z</time>
      </trkpt>
      <trkpt lat="45.10446" lon="6.03876">
        <ele>1401</ele>
        <time>2024-06-04T22:15:18Z</time>
      </trkpt>
      <trkpt lat="45.10459" lon="6.03883">
        <ele>1401</ele>
        <time>2024-06-04T22:15:21Z</time>
      </trkpt>
      <trkpt lat="45.10492" lon="6.03912">
        <ele>1403</ele>
        <time>2024-06-04T22:15:27Z</time>
      </trkpt>
      <trkpt lat="45.10505" lon="6.03921">
        <ele>1406</ele>
        <time>2024-06-04T22:15:30Z</time>
      </trkpt>
      <trkpt lat="45.10528" lon="6.03917">
        <ele>1405</ele>
        <time>2024-06-04T22:15:34Z</time>
      </trkpt>
      <trkpt lat="45.10622" lon="6.03864">
        <ele>1396</ele>
        <time>2024-06-04T22:15:52Z</time>
      </trkpt>
      <trkpt lat="45.10645" lon="6.0384">
        <ele>1392</ele>
        <time>2024-06-04T22:15:57Z</time>
      </trkpt>
      <trkpt lat="45.10664" lon="6.03804">
        <ele>1383</ele>
        <time>2024-06-04T22:16:03Z</time>
      </trkpt>
      <trkpt lat="45.10677" lon="6.03798">
        <ele>1380</ele>
        <time>2024-06-04T22:16:05Z</time>
      </trkpt>
      <trkpt lat="45.10732" lon="6.03808">
        <ele>1378</ele>
        <time>2024-06-04T22:16:15Z</time>
      </trkpt>
      <trkpt lat="45.10785" lon="6.03859">
        <ele>1395</ele>
        <time>2024-06-04T22:16:27Z</time>
      </trkpt>
      <trkpt lat="45.10797" lon="6.03864">
        <ele>1395</ele>
        <time>2024-06-04T22:16:29Z</time>
      </trkpt>
      <trkpt lat="45.10815" lon="6.03864">
        <ele>1391</ele>
        <time>2024-06-04T22:16:32Z</time>
      </trkpt>
      <trkpt lat="45.10854" lon="6.03842">
        <ele>1379</ele>
        <time>2024-06-04T22:16:40Z</time>
      </trkpt>
      <trkpt lat="45.10878" lon="6.03837">
        <ele>1384</ele>
        <time>2024-06-04T22:16:44Z</time>
      </trkpt>
      <trkpt lat="45.10898" lon="6.03824">
        <ele>1382</ele>
        <time>2024-06-04T22:16:48Z</time>
      </trkpt>
      <trkpt lat="45.10924" lon="6.03786">
        <ele>1369</ele>
        <time>2024-06-04T22:16:54Z</time>
      </trkpt>
      <trkpt lat="45.10947" lon="6.03763">
        <ele>1362</ele>
        <time>2024-06-04T22:16:59Z</time>
      </trkpt>
      <trkpt lat="45.10977" lon="6.03757">
        <ele>1367</ele>
        <time>2024-06-04T22:17:05Z</time>
      </trkpt>
      <trkpt lat="45.10986" lon="6.03753">
        <ele>1367</ele>
        <time>2024-06-04T22:17:06Z</time>
      </trkpt>
      <trkpt lat="45.11003" lon="6.03734">
        <ele>1362</ele>
        <time>2024-06-04T22:17:10Z</time>
      </trkpt>
      <trkpt lat="45.11022" lon="6.03701">
        <ele>1349</ele>
        <time>2024-06-04T22:17:16Z</time>
      </trkpt>
      <trkpt lat="45.11038" lon="6.03685">
        <ele>1342</ele>
        <time>2024-06-04T22:17:19Z</time>
      </trkpt>
      <trkpt lat="45.11092" lon="6.03694">
        <ele>1352</ele>
        <time>2024-06-04T22:17:29Z</time>
      </trkpt>
      <trkpt lat="45.11183" lon="6.03685">
        <ele>1343</ele>
        <time>2024-06-04T22:17:45Z</time>
      </trkpt>
      <trkpt lat="45.11214" lon="6.03691">
        <ele>1351</ele>
        <time>2024-06-04T22:17:51Z</time>
      </trkpt>
      <trkpt lat="45.11233" lon="6.03691">
        <ele>1353</ele>
        <time>2024-06-04T22:17:54Z</time>
      </trkpt>
      <trkpt lat="45.11243" lon="6.03689">
        <ele>1354</ele>
        <time>2024-06-04T22:17:56Z</time>
      </trkpt>
      <trkpt lat="45.11267" lon="6.03678">
        <ele>1345</ele>
        <time>2024-06-04T22:18:00Z</time>
      </trkpt>
      <trkpt lat="45.11287" lon="6.03658">
        <ele>1333</ele>
        <time>2024-06-04T22:18:05Z</time>
      </trkpt>
      <trkpt lat="45.11305" lon="6.03623">
        <ele>1315</ele>
        <time>2024-06-04T22:18:10Z</time>
      </trkpt>
      <trkpt lat="45.11313" lon="6.03615">
        <ele>1312</ele>
        <time>2024-06-04T22:18:12Z</time>
      </trkpt>
      <trkpt lat="45.11322" lon="6.03614">
        <ele>1312</ele>
        <time>2024-06-04T22:18:13Z</time>
      </trkpt>
      <trkpt lat="45.11329" lon="6.03619">
        <ele>1314</ele>
        <time>2024-06-04T22:18:15Z</time>
      </trkpt>
      <trkpt lat="45.11335" lon="6.03629">
        <ele>1315</ele>
        <time>2024-06-04T22:18:16Z</time>
      </trkpt>
      <trkpt lat="45.1134" lon="6.03651">
        <ele>1317</ele>
        <time>2024-06-04T22:18:19Z</time>
      </trkpt>
      <trkpt lat="45.11339" lon="6.03671">
        <ele>1321</ele>
        <time>2024-06-04T22:18:22Z</time>
      </trkpt>
      <trkpt lat="45.11331" lon="6.03721">
        <ele>1324</ele>
        <time>2024-06-04T22:18:28Z</time>
      </trkpt>
      <trkpt lat="45.1131" lon="6.03801">
        <ele>1330</ele>
        <time>2024-06-04T22:18:39Z</time>
      </trkpt>
      <trkpt lat="45.11277" lon="6.03945">
        <ele>1326</ele>
        <time>2024-06-04T22:18:58Z</time>
      </trkpt>
      <trkpt lat="45.11255" lon="6.0412">
        <ele>1312</ele>
        <time>2024-06-04T22:19:20Z</time>
      </trkpt>
      <trkpt lat="45.11237" lon="6.0425">
        <ele>1297</ele>
        <time>2024-06-04T22:19:37Z</time>
      </trkpt>
      <trkpt lat="45.11224" lon="6.04309">
        <ele>1296</ele>
        <time>2024-06-04T22:19:45Z</time>
      </trkpt>
      <trkpt lat="45.1121" lon="6.0435">
        <ele>1301</ele>
        <time>2024-06-04T22:19:51Z</time>
      </trkpt>
      <trkpt lat="45.11209" lon="6.04359">
        <ele>1301</ele>
        <time>2024-06-04T22:19:52Z</time>
      </trkpt>
      <trkpt lat="45.11209" lon="6.04366">
        <ele>1300</ele>
        <time>2024-06-04T22:19:53Z</time>
      </trkpt>
      <trkpt lat="45.11212" lon="6.04376">
        <ele>1297</ele>
        <time>2024-06-04T22:19:54Z</time>
      </trkpt>
      <trkpt lat="45.11219" lon="6.0438">
        <ele>1292</ele>
        <time>2024-06-04T22:19:55Z</time>
      </trkpt>
      <trkpt lat="45.11225" lon="6.0438">
        <ele>1288</ele>
        <time>2024-06-04T22:19:56Z</time>
      </trkpt>
      <trkpt lat="45.1123" lon="6.04377">
        <ele>1285</ele>
        <time>2024-06-04T22:19:57Z</time>
      </trkpt>
      <trkpt lat="45.11234" lon="6.04368">
        <ele>1283</ele>
        <time>2024-06-04T22:19:59Z</time>
      </trkpt>
      <trkpt lat="45.11315" lon="6.04087">
        <ele>1274</ele>
        <time>2024-06-04T22:20:37Z</time>
      </trkpt>
      <trkpt lat="45.11351" lon="6.03975">
        <ele>1271</ele>
        <time>2024-06-04T22:20:52Z</time>
      </trkpt>
      <trkpt lat="45.11392" lon="6.03871">
        <ele>1263</ele>
        <time>2024-06-04T22:21:07Z</time>
      </trkpt>
      <trkpt lat="45.11421" lon="6.03786">
        <ele>1255</ele>
        <time>2024-06-04T22:21:19Z</time>
      </trkpt>
      <trkpt lat="45.11437" lon="6.03711">
        <ele>1252</ele>
        <time>2024-06-04T22:21:29Z</time>
      </trkpt>
      <trkpt lat="45.11446" lon="6.03646">
        <ele>1249</ele>
        <time>2024-06-04T22:21:37Z</time>
      </trkpt>
      <trkpt lat="45.11449" lon="6.03583">
        <ele>1248</ele>
        <time>2024-06-04T22:21:45Z</time>
      </trkpt>
      <trkpt lat="45.11449" lon="6.03549">
        <ele>1241</ele>
        <time>2024-06-04T22:21:49Z</time>
      </trkpt>
      <trkpt lat="45.11443" lon="6.03513">
        <ele>1238</ele>
        <time>2024-06-04T22:21:54Z</time>
      </trkpt>
      <trkpt lat="45.11445" lon="6.03507">
        <ele>1235</ele>
        <time>2024-06-04T22:21:55Z</time>
      </trkpt>
      <trkpt lat="45.11451" lon="6.03505">
        <ele>1231</ele>
        <time>2024-06-04T22:21:56Z</time>
      </trkpt>
      <trkpt lat="45.11453" lon="6.03507">
        <ele>1230</ele>
        <time>2024-06-04T22:21:56Z</time>
      </trkpt>
      <trkpt lat="45.11461" lon="6.03561">
        <ele>1234</ele>
        <time>2024-06-04T22:22:03Z</time>
      </trkpt>
      <trkpt lat="45.11472" lon="6.03755">
        <ele>1223</ele>
        <time>2024-06-04T22:22:28Z</time>
      </trkpt>
      <trkpt lat="45.11472" lon="6.03801">
        <ele>1216</ele>
        <time>2024-06-04T22:22:33Z</time>
      </trkpt>
      <trkpt lat="45.1147" lon="6.03832">
        <ele>1214</ele>
        <time>2024-06-04T22:22:37Z</time>
      </trkpt>
      <trkpt lat="45.11453" lon="6.03941">
        <ele>1210</ele>
        <time>2024-06-04T22:22:51Z</time>
      </trkpt>
      <trkpt lat="45.11424" lon="6.04167">
        <ele>1201</ele>
        <time>2024-06-04T22:23:20Z</time>
      </trkpt>
      <trkpt lat="45.11423" lon="6.04181">
        <ele>1200</ele>
        <time>2024-06-04T22:23:22Z</time>
      </trkpt>
      <trkpt lat="45.11424" lon="6.04189">
        <ele>1199</ele>
        <time>2024-06-04T22:23:23Z</time>
      </trkpt>
      <trkpt lat="45.11427" lon="6.04195">
        <ele>1198</ele>
        <time>2024-06-04T22:23:24Z</time>
      </trkpt>
      <trkpt lat="45.11431" lon="6.04198">
        <ele>1196</ele>
        <time>2024-06-04T22:23:25Z</time>
      </trkpt>
      <trkpt lat="45.11439" lon="6.04197">
        <ele>1192</ele>
        <time>2024-06-04T22:23:26Z</time>
      </trkpt>
      <trkpt lat="45.11445" lon="6.04189">
        <ele>1190</ele>
        <time>2024-06-04T22:23:28Z</time>
      </trkpt>
      <trkpt lat="45.11448" lon="6.04183">
        <ele>1189</ele>
        <time>2024-06-04T22:23:29Z</time>
      </trkpt>
      <trkpt lat="45.1146" lon="6.04085">
        <ele>1192</ele>
        <time>2024-06-04T22:23:41Z</time>
      </trkpt>
      <trkpt lat="45.11519" lon="6.03888">
        <ele>1173</ele>
        <time>2024-06-04T22:24:08Z</time>
      </trkpt>
      <trkpt lat="45.1154" lon="6.03804">
        <ele>1170</ele>
        <time>2024-06-04T22:24:19Z</time>
      </trkpt>
      <trkpt lat="45.11557" lon="6.03723">
        <ele>1164</ele>
        <time>2024-06-04T22:24:30Z</time>
      </trkpt>
      <trkpt lat="45.11562" lon="6.03647">
        <ele>1158</ele>
        <time>2024-06-04T22:24:39Z</time>
      </trkpt>
      <trkpt lat="45.11554" lon="6.03587">
        <ele>1159</ele>
        <time>2024-06-04T22:24:47Z</time>
      </trkpt>
      <trkpt lat="45.11545" lon="6.03567">
        <ele>1165</ele>
        <time>2024-06-04T22:24:50Z</time>
      </trkpt>
      <trkpt lat="45.1154" lon="6.0355">
        <ele>1169</ele>
        <time>2024-06-04T22:24:52Z</time>
      </trkpt>
      <trkpt lat="45.11539" lon="6.03533">
        <ele>1169</ele>
        <time>2024-06-04T22:24:54Z</time>
      </trkpt>
      <trkpt lat="45.11542" lon="6.03526">
        <ele>1166</ele>
        <time>2024-06-04T22:24:55Z</time>
      </trkpt>
      <trkpt lat="45.11548" lon="6.03525">
        <ele>1160</ele>
        <time>2024-06-04T22:24:57Z</time>
      </trkpt>
      <trkpt lat="45.11555" lon="6.03533">
        <ele>1155</ele>
        <time>2024-06-04T22:24:58Z</time>
      </trkpt>
      <trkpt lat="45.11577" lon="6.03603">
        <ele>1142</ele>
        <time>2024-06-04T22:25:08Z</time>
      </trkpt>
      <trkpt lat="45.1159" lon="6.03661">
        <ele>1139</ele>
        <time>2024-06-04T22:25:15Z</time>
      </trkpt>
      <trkpt lat="45.11597" lon="6.03724">
        <ele>1136</ele>
        <time>2024-06-04T22:25:23Z</time>
      </trkpt>
      <trkpt lat="45.11603" lon="6.03837">
        <ele>1126</ele>
        <time>2024-06-04T22:25:38Z</time>
      </trkpt>
      <trkpt lat="45.11599" lon="6.03967">
        <ele>1119</ele>
        <time>2024-06-04T22:25:54Z</time>
      </trkpt>
      <trkpt lat="45.11605" lon="6.04097">
        <ele>1111</ele>
        <time>2024-06-04T22:26:10Z</time>
      </trkpt>
      <trkpt lat="45.11609" lon="6.04119">
        <ele>1109</ele>
        <time>2024-06-04T22:26:13Z</time>
      </trkpt>
      <trkpt lat="45.11616" lon="6.0414">
        <ele>1105</ele>
        <time>2024-06-04T22:26:16Z</time>
      </trkpt>
      <trkpt lat="45.11627" lon="6.04165">
        <ele>1100</ele>
        <time>2024-06-04T22:26:20Z</time>
      </trkpt>
      <trkpt lat="45.11633" lon="6.04188">
        <ele>1097</ele>
        <time>2024-06-04T22:26:23Z</time>
      </trkpt>
      <trkpt lat="45.11636" lon="6.04192">
        <ele>1096</ele>
        <time>2024-06-04T22:26:24Z</time>
      </trkpt>
      <trkpt lat="45.11642" lon="6.04194">
        <ele>1093</ele>
        <time>2024-06-04T22:26:25Z</time>
      </trkpt>
      <trkpt lat="45.11645" lon="6.04191">
        <ele>1092</ele>
        <time>2024-06-04T22:26:25Z</time>
      </trkpt>
      <trkpt lat="45.11648" lon="6.04185">
        <ele>1090</ele>
        <time>2024-06-04T22:26:26Z</time>
      </trkpt>
      <trkpt lat="45.11648" lon="6.04171">
        <ele>1089</ele>
        <time>2024-06-04T22:26:28Z</time>
      </trkpt>
      <trkpt lat="45.11637" lon="6.04113">
        <ele>1095</ele>
        <time>2024-06-04T22:26:36Z</time>
      </trkpt>
      <trkpt lat="45.11637" lon="6.0409">
        <ele>1095</ele>
        <time>2024-06-04T22:26:38Z</time>
      </trkpt>
      <trkpt lat="45.11651" lon="6.03971">
        <ele>1089</ele>
        <time>2024-06-04T22:26:54Z</time>
      </trkpt>
      <trkpt lat="45.11685" lon="6.03714">
        <ele>1077</ele>
        <time>2024-06-04T22:27:26Z</time>
      </trkpt>
      <trkpt lat="45.11685" lon="6.03683">
        <ele>1075</ele>
        <time>2024-06-04T22:27:30Z</time>
      </trkpt>
      <trkpt lat="45.11676" lon="6.03641">
        <ele>1077</ele>
        <time>2024-06-04T22:27:36Z</time>
      </trkpt>
      <trkpt lat="45.11669" lon="6.03599">
        <ele>1075</ele>
        <time>2024-06-04T22:27:41Z</time>
      </trkpt>
      <trkpt lat="45.11662" lon="6.03574">
        <ele>1077</ele>
        <time>2024-06-04T22:27:45Z</time>
      </trkpt>
      <trkpt lat="45.11661" lon="6.03551">
        <ele>1076</ele>
        <time>2024-06-04T22:27:48Z</time>
      </trkpt>
      <trkpt lat="45.11663" lon="6.03548">
        <ele>1074</ele>
        <time>2024-06-04T22:27:48Z</time>
      </trkpt>
      <trkpt lat="45.1167" lon="6.03548">
        <ele>1069</ele>
        <time>2024-06-04T22:27:49Z</time>
      </trkpt>
      <trkpt lat="45.11674" lon="6.03556">
        <ele>1067</ele>
        <time>2024-06-04T22:27:51Z</time>
      </trkpt>
      <trkpt lat="45.11715" lon="6.03712">
        <ele>1056</ele>
        <time>2024-06-04T22:28:11Z</time>
      </trkpt>
      <trkpt lat="45.11732" lon="6.03817">
        <ele>1045</ele>
        <time>2024-06-04T22:28:25Z</time>
      </trkpt>
      <trkpt lat="45.11756" lon="6.03931">
        <ele>1034</ele>
        <time>2024-06-04T22:28:40Z</time>
      </trkpt>
      <trkpt lat="45.11767" lon="6.03972">
        <ele>1031</ele>
        <time>2024-06-04T22:28:45Z</time>
      </trkpt>
      <trkpt lat="45.11803" lon="6.04093">
        <ele>1023</ele>
        <time>2024-06-04T22:29:02Z</time>
      </trkpt>
      <trkpt lat="45.11814" lon="6.04124">
        <ele>1024</ele>
        <time>2024-06-04T22:29:06Z</time>
      </trkpt>
      <trkpt lat="45.11834" lon="6.04145">
        <ele>1020</ele>
        <time>2024-06-04T22:29:11Z</time>
      </trkpt>
      <trkpt lat="45.11853" lon="6.04151">
        <ele>1018</ele>
        <time>2024-06-04T22:29:14Z</time>
      </trkpt>
      <trkpt lat="45.11873" lon="6.04154">
        <ele>1016</ele>
        <time>2024-06-04T22:29:18Z</time>
      </trkpt>
      <trkpt lat="45.11883" lon="6.04152">
        <ele>1014</ele>
        <time>2024-06-04T22:29:20Z</time>
      </trkpt>
      <trkpt lat="45.11896" lon="6.04146">
        <ele>1010</ele>
        <time>2024-06-04T22:29:22Z</time>
      </trkpt>
      <trkpt lat="45.11915" lon="6.04131">
        <ele>1004</ele>
        <time>2024-06-04T22:29:26Z</time>
      </trkpt>
      <trkpt lat="45.11972" lon="6.0408">
        <ele>993</ele>
        <time>2024-06-04T22:29:38Z</time>
      </trkpt>
      <trkpt lat="45.12001" lon="6.04075">
        <ele>992</ele>
        <time>2024-06-04T22:29:43Z</time>
      </trkpt>
      <trkpt lat="45.12026" lon="6.04076">
        <ele>990</ele>
        <time>2024-06-04T22:29:47Z</time>
      </trkpt>
      <trkpt lat="45.12045" lon="6.04087">
        <ele>991</ele>
        <time>2024-06-04T22:29:51Z</time>
      </trkpt>
      <trkpt lat="45.12063" lon="6.04104">
        <ele>993</ele>
        <time>2024-06-04T22:29:55Z</time>
      </trkpt>
      <trkpt lat="45.12088" lon="6.04118">
        <ele>995</ele>
        <time>2024-06-04T22:30:00Z</time>
      </trkpt>
      <trkpt lat="45.12113" lon="6.04122">
        <ele>993</ele>
        <time>2024-06-04T22:30:04Z</time>
      </trkpt>
      <trkpt lat="45.12155" lon="6.04123">
        <ele>987</ele>
        <time>2024-06-04T22:30:12Z</time>
      </trkpt>
      <trkpt lat="45.12187" lon="6.04129">
        <ele>982</ele>
        <time>2024-06-04T22:30:17Z</time>
      </trkpt>
      <trkpt lat="45.12211" lon="6.04145">
        <ele>980</ele>
        <time>2024-06-04T22:30:22Z</time>
      </trkpt>
      <trkpt lat="45.12246" lon="6.04172">
        <ele>975</ele>
        <time>2024-06-04T22:30:29Z</time>
      </trkpt>
      <trkpt lat="45.12275" lon="6.04209">
        <ele>974</ele>
        <time>2024-06-04T22:30:36Z</time>
      </trkpt>
      <trkpt lat="45.1234" lon="6.04301">
        <ele>972</ele>
        <time>2024-06-04T22:30:53Z</time>
      </trkpt>
      <trkpt lat="45.12379" lon="6.04348">
        <ele>968</ele>
        <time>2024-06-04T22:31:02Z</time>
      </trkpt>
      <trkpt lat="45.12394" lon="6.04386">
        <ele>970</ele>
        <time>2024-06-04T22:31:07Z</time>
      </trkpt>
      <trkpt lat="45.12398" lon="6.04391">
        <ele>969</ele>
        <time>2024-06-04T22:31:08Z</time>
      </trkpt>
      <trkpt lat="45.12403" lon="6.04387">
        <ele>965</ele>
        <time>2024-06-04T22:31:09Z</time>
      </trkpt>
      <trkpt lat="45.12405" lon="6.04376">
        <ele>961</ele>
        <time>2024-06-04T22:31:11Z</time>
      </trkpt>
      <trkpt lat="45.12391" lon="6.04342">
        <ele>961</ele>
        <time>2024-06-04T22:31:15Z</time>
      </trkpt>
      <trkpt lat="45.12381" lon="6.04308">
        <ele>957</ele>
        <time>2024-06-04T22:31:20Z</time>
      </trkpt>
      <trkpt lat="45.12369" lon="6.04273">
        <ele>954</ele>
        <time>2024-06-04T22:31:25Z</time>
      </trkpt>
      <trkpt lat="45.12363" lon="6.04252">
        <ele>951</ele>
        <time>2024-06-04T22:31:28Z</time>
      </trkpt>
      <trkpt lat="45.12356" lon="6.04184">
        <ele>942</ele>
        <time>2024-06-04T22:31:36Z</time>
      </trkpt>
      <trkpt lat="45.12351" lon="6.04155">
        <ele>938</ele>
        <time>2024-06-04T22:31:40Z</time>
      </trkpt>
      <trkpt lat="45.1234" lon="6.04124">
        <ele>935</ele>
        <time>2024-06-04T22:31:45Z</time>
      </trkpt>
      <trkpt lat="45.12316" lon="6.04086">
        <ele>936</ele>
        <time>2024-06-04T22:31:51Z</time>
      </trkpt>
      <trkpt lat="45.12251" lon="6.04011">
        <ele>936</ele>
        <time>2024-06-04T22:32:06Z</time>
      </trkpt>
      <trkpt lat="45.12232" lon="6.03982">
        <ele>934</ele>
        <time>2024-06-04T22:32:11Z</time>
      </trkpt>
      <trkpt lat="45.12216" lon="6.03944">
        <ele>929</ele>
        <time>2024-06-04T22:32:16Z</time>
      </trkpt>
      <trkpt lat="45.12203" lon="6.03927">
        <ele>928</ele>
        <time>2024-06-04T22:32:20Z</time>
      </trkpt>
      <trkpt lat="45.12187" lon="6.03913">
        <ele>927</ele>
        <time>2024-06-04T22:32:23Z</time>
      </trkpt>
      <trkpt lat="45.12169" lon="6.03906">
        <ele>929</ele>
        <time>2024-06-04T22:32:26Z</time>
      </trkpt>
      <trkpt lat="45.12159" lon="6.03897">
        <ele>927</ele>
        <time>2024-06-04T22:32:28Z</time>
      </trkpt>
      <trkpt lat="45.12158" lon="6.03882">
        <ele>922</ele>
        <time>2024-06-04T22:32:30Z</time>
      </trkpt>
      <trkpt lat="45.12165" lon="6.03874">
        <ele>919</ele>
        <time>2024-06-04T22:32:32Z</time>
      </trkpt>
      <trkpt lat="45.12171" lon="6.03874">
        <ele>918</ele>
        <time>2024-06-04T22:32:33Z</time>
      </trkpt>
      <trkpt lat="45.12213" lon="6.03907">
        <ele>920</ele>
        <time>2024-06-04T22:32:41Z</time>
      </trkpt>
      <trkpt lat="45.1224" lon="6.03934">
        <ele>921</ele>
        <time>2024-06-04T22:32:47Z</time>
      </trkpt>
      <trkpt lat="45.1227" lon="6.03955">
        <ele>914</ele>
        <time>2024-06-04T22:32:53Z</time>
      </trkpt>
      <trkpt lat="45.12357" lon="6.04049">
        <ele>907</ele>
        <time>2024-06-04T22:33:13Z</time>
      </trkpt>
      <trkpt lat="45.124" lon="6.04112">
        <ele>908</ele>
        <time>2024-06-04T22:33:24Z</time>
      </trkpt>
      <trkpt lat="45.12425" lon="6.04142">
        <ele>905</ele>
        <time>2024-06-04T22:33:30Z</time>
      </trkpt>
      <trkpt lat="45.12447" lon="6.0419">
        <ele>902</ele>
        <time>2024-06-04T22:33:37Z</time>
      </trkpt>
      <trkpt lat="45.12508" lon="6.04343">
        <ele>889</ele>
        <time>2024-06-04T22:33:59Z</time>
      </trkpt>
      <trkpt lat="45.12521" lon="6.04383">
        <ele>887</ele>
        <time>2024-06-04T22:34:04Z</time>
      </trkpt>
      <trkpt lat="45.12525" lon="6.04408">
        <ele>889</ele>
        <time>2024-06-04T22:34:08Z</time>
      </trkpt>
      <trkpt lat="45.12531" lon="6.04425">
        <ele>890</ele>
        <time>2024-06-04T22:34:10Z</time>
      </trkpt>
      <trkpt lat="45.12564" lon="6.04454">
        <ele>878</ele>
        <time>2024-06-04T22:34:17Z</time>
      </trkpt>
      <trkpt lat="45.12586" lon="6.04488">
        <ele>876</ele>
        <time>2024-06-04T22:34:23Z</time>
      </trkpt>
      <trkpt lat="45.12596" lon="6.04509">
        <ele>877</ele>
        <time>2024-06-04T22:34:26Z</time>
      </trkpt>
      <trkpt lat="45.1262" lon="6.04543">
        <ele>872</ele>
        <time>2024-06-04T22:34:32Z</time>
      </trkpt>
      <trkpt lat="45.12628" lon="6.04558">
        <ele>871</ele>
        <time>2024-06-04T22:34:34Z</time>
      </trkpt>
      <trkpt lat="45.12648" lon="6.04609">
        <ele>870</ele>
        <time>2024-06-04T22:34:42Z</time>
      </trkpt>
      <trkpt lat="45.12655" lon="6.04621">
        <ele>868</ele>
        <time>2024-06-04T22:34:43Z</time>
      </trkpt>
      <trkpt lat="45.12687" lon="6.04669">
        <ele>863</ele>
        <time>2024-06-04T22:34:52Z</time>
      </trkpt>
      <trkpt lat="45.12707" lon="6.04706">
        <ele>863</ele>
        <time>2024-06-04T22:34:58Z</time>
      </trkpt>
      <trkpt lat="45.1272" lon="6.04746">
        <ele>865</ele>
        <time>2024-06-04T22:35:03Z</time>
      </trkpt>
      <trkpt lat="45.12726" lon="6.04753">
        <ele>863</ele>
        <time>2024-06-04T22:35:05Z</time>
      </trkpt>
      <trkpt lat="45.12732" lon="6.04757">
        <ele>860</ele>
        <time>2024-06-04T22:35:06Z</time>
      </trkpt>
      <trkpt lat="45.12737" lon="6.04758">
        <ele>857</ele>
        <time>2024-06-04T22:35:07Z</time>
      </trkpt>
      <trkpt lat="45.12741" lon="6.04756">
        <ele>855</ele>
        <time>2024-06-04T22:35:07Z</time>
      </trkpt>
      <trkpt lat="45.12745" lon="6.04748">
        <ele>851</ele>
        <time>2024-06-04T22:35:09Z</time>
      </trkpt>
      <trkpt lat="45.12745" lon="6.04741">
        <ele>849</ele>
        <time>2024-06-04T22:35:09Z</time>
      </trkpt>
      <trkpt lat="45.12736" lon="6.0471">
        <ele>848</ele>
        <time>2024-06-04T22:35:14Z</time>
      </trkpt>
      <trkpt lat="45.12712" lon="6.04642">
        <ele>844</ele>
        <time>2024-06-04T22:35:23Z</time>
      </trkpt>
      <trkpt lat="45.12679" lon="6.04533">
        <ele>833</ele>
        <time>2024-06-04T22:35:38Z</time>
      </trkpt>
      <trkpt lat="45.12661" lon="6.0448">
        <ele>832</ele>
        <time>2024-06-04T22:35:45Z</time>
      </trkpt>
      <trkpt lat="45.12652" lon="6.04456">
        <ele>831</ele>
        <time>2024-06-04T22:35:49Z</time>
      </trkpt>
      <trkpt lat="45.1262" lon="6.04388">
        <ele>828</ele>
        <time>2024-06-04T22:35:59Z</time>
      </trkpt>
      <trkpt lat="45.12605" lon="6.04375">
        <ele>832</ele>
        <time>2024-06-04T22:36:02Z</time>
      </trkpt>
      <trkpt lat="45.12589" lon="6.04368">
        <ele>838</ele>
        <time>2024-06-04T22:36:05Z</time>
      </trkpt>
      <trkpt lat="45.12578" lon="6.04351">
        <ele>840</ele>
        <time>2024-06-04T22:36:08Z</time>
      </trkpt>
      <trkpt lat="45.12576" lon="6.04333">
        <ele>837</ele>
        <time>2024-06-04T22:36:10Z</time>
      </trkpt>
      <trkpt lat="45.12579" lon="6.04307">
        <ele>831</ele>
        <time>2024-06-04T22:36:14Z</time>
      </trkpt>
      <trkpt lat="45.12557" lon="6.04239">
        <ele>835</ele>
        <time>2024-06-04T22:36:23Z</time>
      </trkpt>
      <trkpt lat="45.12547" lon="6.04204">
        <ele>835</ele>
        <time>2024-06-04T22:36:28Z</time>
      </trkpt>
      <trkpt lat="45.12535" lon="6.04136">
        <ele>827</ele>
        <time>2024-06-04T22:36:37Z</time>
      </trkpt>
      <trkpt lat="45.12481" lon="6.04">
        <ele>815</ele>
        <time>2024-06-04T22:36:56Z</time>
      </trkpt>
      <trkpt lat="45.12497" lon="6.04">
        <ele>805</ele>
        <time>2024-06-04T22:36:59Z</time>
      </trkpt>
      <trkpt lat="45.12509" lon="6.04017">
        <ele>803</ele>
        <time>2024-06-04T22:37:02Z</time>
      </trkpt>
      <trkpt lat="45.12515" lon="6.04049">
        <ele>811</ele>
        <time>2024-06-04T22:37:06Z</time>
      </trkpt>
      <trkpt lat="45.12601" lon="6.0426">
        <ele>809</ele>
        <time>2024-06-04T22:37:37Z</time>
      </trkpt>
      <trkpt lat="45.12609" lon="6.043">
        <ele>812</ele>
        <time>2024-06-04T22:37:42Z</time>
      </trkpt>
      <trkpt lat="45.12625" lon="6.04323">
        <ele>808</ele>
        <time>2024-06-04T22:37:46Z</time>
      </trkpt>
      <trkpt lat="45.1266" lon="6.04339">
        <ele>794</ele>
        <time>2024-06-04T22:37:53Z</time>
      </trkpt>
      <trkpt lat="45.12703" lon="6.04377">
        <ele>782</ele>
        <time>2024-06-04T22:38:02Z</time>
      </trkpt>
      <trkpt lat="45.1274" lon="6.04423">
        <ele>773</ele>
        <time>2024-06-04T22:38:10Z</time>
      </trkpt>
      <trkpt lat="45.12801" lon="6.04539">
        <ele>785</ele>
        <time>2024-06-04T22:38:29Z</time>
      </trkpt>
      <trkpt lat="45.12805" lon="6.04543">
        <ele>785</ele>
        <time>2024-06-04T22:38:30Z</time>
      </trkpt>
      <trkpt lat="45.12808" lon="6.04543">
        <ele>784</ele>
        <time>2024-06-04T22:38:30Z</time>
      </trkpt>
      <trkpt lat="45.12807" lon="6.04556">
        <ele>787</ele>
        <time>2024-06-04T22:38:32Z</time>
      </trkpt>
      <trkpt lat="45.12811" lon="6.04565">
        <ele>788</ele>
        <time>2024-06-04T22:38:33Z</time>
      </trkpt>
      <trkpt lat="45.12828" lon="6.04594">
        <ele>790</ele>
        <time>2024-06-04T22:38:38Z</time>
      </trkpt>
      <trkpt lat="45.12938" lon="6.04765">
        <ele>790</ele>
        <time>2024-06-04T22:39:07Z</time>
      </trkpt>
      <trkpt lat="45.1296" lon="6.04784">
        <ele>794</ele>
        <time>2024-06-04T22:39:11Z</time>
      </trkpt>
      <trkpt lat="45.1299" lon="6.04793">
        <ele>796</ele>
        <time>2024-06-04T22:39:17Z</time>
      </trkpt>
      <trkpt lat="45.1301" lon="6.04797">
        <ele>796</ele>
        <time>2024-06-04T22:39:20Z</time>
      </trkpt>
      <trkpt lat="45.13027" lon="6.04804">
        <ele>797</ele>
        <time>2024-06-04T22:39:24Z</time>
      </trkpt>
      <trkpt lat="45.13227" lon="6.04859">
        <ele>770</ele>
        <time>2024-06-04T22:40:00Z</time>
      </trkpt>
      <trkpt lat="45.13599" lon="6.04952">
        <ele>781</ele>
        <time>2024-06-04T22:41:07Z</time>
      </trkpt>
      <trkpt lat="45.1362" lon="6.04953">
        <ele>786</ele>
        <time>2024-06-04T22:41:11Z</time>
      </trkpt>
      <trkpt lat="45.1364" lon="6.04946">
        <ele>788</ele>
        <time>2024-06-04T22:41:14Z</time>
      </trkpt>
      <trkpt lat="45.13737" lon="6.04867">
        <ele>783</ele>
        <time>2024-06-04T22:41:34Z</time>
      </trkpt>
      <trkpt lat="45.13759" lon="6.04853">
        <ele>780</ele>
        <time>2024-06-04T22:41:39Z</time>
      </trkpt>
      <trkpt lat="45.13792" lon="6.04843">
        <ele>778</ele>
        <time>2024-06-04T22:41:45Z</time>
      </trkpt>
      <trkpt lat="45.13809" lon="6.04842">
        <ele>779</ele>
        <time>2024-06-04T22:41:48Z</time>
      </trkpt>
      <trkpt lat="45.13824" lon="6.04843">
        <ele>780</ele>
        <time>2024-06-04T22:41:50Z</time>
      </trkpt>
      <trkpt lat="45.13859" lon="6.04856">
        <ele>784</ele>
        <time>2024-06-04T22:41:57Z</time>
      </trkpt>
      <trkpt lat="45.13884" lon="6.04869">
        <ele>787</ele>
        <time>2024-06-04T22:42:02Z</time>
      </trkpt>
      <trkpt lat="45.1393" lon="6.04891">
        <ele>792</ele>
        <time>2024-06-04T22:42:10Z</time>
      </trkpt>
      <trkpt lat="45.13945" lon="6.04896">
        <ele>793</ele>
        <time>2024-06-04T22:42:13Z</time>
      </trkpt>
      <trkpt lat="45.14021" lon="6.04893">
        <ele>787</ele>
        <time>2024-06-04T22:42:26Z</time>
      </trkpt>
      <trkpt lat="45.14078" lon="6.04903">
        <ele>785</ele>
        <time>2024-06-04T22:42:37Z</time>
      </trkpt>
      <trkpt lat="45.14099" lon="6.04909">
        <ele>785</ele>
        <time>2024-06-04T22:42:40Z</time>
      </trkpt>
      <trkpt lat="45.14143" lon="6.04929">
        <ele>790</ele>
        <time>2024-06-04T22:42:49Z</time>
      </trkpt>
      <trkpt lat="45.14208" lon="6.04966">
        <ele>793</ele>
        <time>2024-06-04T22:43:01Z</time>
      </trkpt>
      <trkpt lat="45.14311" lon="6.05034">
        <ele>787</ele>
        <time>2024-06-04T22:43:21Z</time>
      </trkpt>
      <trkpt lat="45.1434" lon="6.05058">
        <ele>788</ele>
        <time>2024-06-04T22:43:27Z</time>
      </trkpt>
      <trkpt lat="45.14379" lon="6.05102">
        <ele>790</ele>
        <time>2024-06-04T22:43:36Z</time>
      </trkpt>
      <trkpt lat="45.14408" lon="6.05123">
        <ele>787</ele>
        <time>2024-06-04T22:43:42Z</time>
      </trkpt>
      <trkpt lat="45.14443" lon="6.05143">
        <ele>788</ele>
        <time>2024-06-04T22:43:49Z</time>
      </trkpt>
      <trkpt lat="45.14451" lon="6.05151">
        <ele>789</ele>
        <time>2024-06-04T22:43:50Z</time>
      </trkpt>
      <trkpt lat="45.14459" lon="6.05165">
        <ele>791</ele>
        <time>2024-06-04T22:43:53Z</time>
      </trkpt>
      <trkpt lat="45.14463" lon="6.05182">
        <ele>792</ele>
        <time>2024-06-04T22:43:55Z</time>
      </trkpt>
      <trkpt lat="45.14464" lon="6.05196">
        <ele>794</ele>
        <time>2024-06-04T22:43:57Z</time>
      </trkpt>
      <trkpt lat="45.14461" lon="6.05213">
        <ele>797</ele>
        <time>2024-06-04T22:43:59Z</time>
      </trkpt>
      <trkpt lat="45.14443" lon="6.05273">
        <ele>810</ele>
        <time>2024-06-04T22:44:07Z</time>
      </trkpt>
      <trkpt lat="45.1444" lon="6.05306">
        <ele>814</ele>
        <time>2024-06-04T22:44:11Z</time>
      </trkpt>
      <trkpt lat="45.14445" lon="6.05354">
        <ele>820</ele>
        <time>2024-06-04T22:44:17Z</time>
      </trkpt>
      <trkpt lat="45.14454" lon="6.05399">
        <ele>826</ele>
        <time>2024-06-04T22:44:23Z</time>
      </trkpt>
      <trkpt lat="45.1446" lon="6.05413">
        <ele>826</ele>
        <time>2024-06-04T22:44:25Z</time>
      </trkpt>
      <trkpt lat="45.1447" lon="6.05428">
        <ele>825</ele>
        <time>2024-06-04T22:44:28Z</time>
      </trkpt>
      <trkpt lat="45.14484" lon="6.05444">
        <ele>822</ele>
        <time>2024-06-04T22:44:31Z</time>
      </trkpt>
      <trkpt lat="45.14498" lon="6.05451">
        <ele>817</ele>
        <time>2024-06-04T22:44:34Z</time>
      </trkpt>
      <trkpt lat="45.14511" lon="6.0545">
        <ele>816</ele>
        <time>2024-06-04T22:44:36Z</time>
      </trkpt>
      <trkpt lat="45.14528" lon="6.05444">
        <ele>817</ele>
        <time>2024-06-04T22:44:39Z</time>
      </trkpt>
      <trkpt lat="45.1455" lon="6.05425">
        <ele>815</ele>
        <time>2024-06-04T22:44:44Z</time>
      </trkpt>
      <trkpt lat="45.14555" lon="6.05418">
        <ele>814</ele>
        <time>2024-06-04T22:44:45Z</time>
      </trkpt>
      <trkpt lat="45.14563" lon="6.05402">
        <ele>815</ele>
        <time>2024-06-04T22:44:47Z</time>
      </trkpt>
      <trkpt lat="45.14577" lon="6.05363">
        <ele>817</ele>
        <time>2024-06-04T22:44:53Z</time>
      </trkpt>
      <trkpt lat="45.1458" lon="6.05347">
        <ele>817</ele>
        <time>2024-06-04T22:44:55Z</time>
      </trkpt>
      <trkpt lat="45.14593" lon="6.05235">
        <ele>813</ele>
        <time>2024-06-04T22:45:09Z</time>
      </trkpt>
      <trkpt lat="45.14598" lon="6.05196">
        <ele>808</ele>
        <time>2024-06-04T22:45:14Z</time>
      </trkpt>
      <trkpt lat="45.14604" lon="6.05174">
        <ele>806</ele>
        <time>2024-06-04T22:45:17Z</time>
      </trkpt>
      <trkpt lat="45.1461" lon="6.05163">
        <ele>806</ele>
        <time>2024-06-04T22:45:19Z</time>
      </trkpt>
      <trkpt lat="45.14628" lon="6.05139">
        <ele>807</ele>
        <time>2024-06-04T22:45:23Z</time>
      </trkpt>
      <trkpt lat="45.14638" lon="6.05136">
        <ele>810</ele>
        <time>2024-06-04T22:45:25Z</time>
      </trkpt>
      <trkpt lat="45.14644" lon="6.05136">
        <ele>811</ele>
        <time>2024-06-04T22:45:26Z</time>
      </trkpt>
      <trkpt lat="45.14652" lon="6.05132">
        <ele>813</ele>
        <time>2024-06-04T22:45:28Z</time>
      </trkpt>
      <trkpt lat="45.14657" lon="6.05127">
        <ele>813</ele>
        <time>2024-06-04T22:45:29Z</time>
      </trkpt>
      <trkpt lat="45.14669" lon="6.0511">
        <ele>812</ele>
        <time>2024-06-04T22:45:32Z</time>
      </trkpt>
      <trkpt lat="45.14675" lon="6.05104">
        <ele>812</ele>
        <time>2024-06-04T22:45:33Z</time>
      </trkpt>
      <trkpt lat="45.14685" lon="6.05101">
        <ele>813</ele>
        <time>2024-06-04T22:45:35Z</time>
      </trkpt>
      <trkpt lat="45.14729" lon="6.05099">
        <ele>821</ele>
        <time>2024-06-04T22:45:43Z</time>
      </trkpt>
      <trkpt lat="45.14774" lon="6.05093">
        <ele>829</ele>
        <time>2024-06-04T22:45:51Z</time>
      </trkpt>
      <trkpt lat="45.14783" lon="6.05089">
        <ele>831</ele>
        <time>2024-06-04T22:45:53Z</time>
      </trkpt>
      <trkpt lat="45.14837" lon="6.05063">
        <ele>837</ele>
        <time>2024-06-04T22:46:03Z</time>
      </trkpt>
      <trkpt lat="45.14849" lon="6.05054">
        <ele>840</ele>
        <time>2024-06-04T22:46:05Z</time>
      </trkpt>
      <trkpt lat="45.14863" lon="6.05026">
        <ele>838</ele>
        <time>2024-06-04T22:46:09Z</time>
      </trkpt>
      <trkpt lat="45.14872" lon="6.05015">
        <ele>839</ele>
        <time>2024-06-04T22:46:12Z</time>
      </trkpt>
      <trkpt lat="45.1488" lon="6.05014">
        <ele>841</ele>
        <time>2024-06-04T22:46:13Z</time>
      </trkpt>
      <trkpt lat="45.14886" lon="6.05018">
        <ele>844</ele>
        <time>2024-06-04T22:46:14Z</time>
      </trkpt>
      <trkpt lat="45.14889" lon="6.05023">
        <ele>847</ele>
        <time>2024-06-04T22:46:15Z</time>
      </trkpt>
      <trkpt lat="45.14889" lon="6.05036">
        <ele>850</ele>
        <time>2024-06-04T22:46:17Z</time>
      </trkpt>
      <trkpt lat="45.14886" lon="6.05041">
        <ele>850</ele>
        <time>2024-06-04T22:46:17Z</time>
      </trkpt>
      <trkpt lat="45.14846" lon="6.05081">
        <ele>845</ele>
        <time>2024-06-04T22:46:26Z</time>
      </trkpt>
      <trkpt lat="45.14825" lon="6.05114">
        <ele>848</ele>
        <time>2024-06-04T22:46:32Z</time>
      </trkpt>
      <trkpt lat="45.148" lon="6.05184">
        <ele>860</ele>
        <time>2024-06-04T22:46:42Z</time>
      </trkpt>
      <trkpt lat="45.14792" lon="6.05198">
        <ele>861</ele>
        <time>2024-06-04T22:46:44Z</time>
      </trkpt>
      <trkpt lat="45.14742" lon="6.05271">
        <ele>861</ele>
        <time>2024-06-04T22:46:57Z</time>
      </trkpt>
      <trkpt lat="45.14725" lon="6.0531">
        <ele>863</ele>
        <time>2024-06-04T22:47:02Z</time>
      </trkpt>
      <trkpt lat="45.14713" lon="6.05332">
        <ele>863</ele>
        <time>2024-06-04T22:47:06Z</time>
      </trkpt>
      <trkpt lat="45.14712" lon="6.0534">
        <ele>864</ele>
        <time>2024-06-04T22:47:07Z</time>
      </trkpt>
      <trkpt lat="45.14714" lon="6.05358">
        <ele>866</ele>
        <time>2024-06-04T22:47:09Z</time>
      </trkpt>
      <trkpt lat="45.14724" lon="6.05374">
        <ele>870</ele>
        <time>2024-06-04T22:47:12Z</time>
      </trkpt>
      <trkpt lat="45.1475" lon="6.05394">
        <ele>879</ele>
        <time>2024-06-04T22:47:17Z</time>
      </trkpt>
      <trkpt lat="45.14756" lon="6.05402">
        <ele>882</ele>
        <time>2024-06-04T22:47:19Z</time>
      </trkpt>
      <trkpt lat="45.14756" lon="6.05413">
        <ele>884</ele>
        <time>2024-06-04T22:47:20Z</time>
      </trkpt>
      <trkpt lat="45.14753" lon="6.05421">
        <ele>884</ele>
        <time>2024-06-04T22:47:21Z</time>
      </trkpt>
      <trkpt lat="45.14739" lon="6.05434">
        <ele>884</ele>
        <time>2024-06-04T22:47:24Z</time>
      </trkpt>
      <trkpt lat="45.14722" lon="6.05443">
        <ele>881</ele>
        <time>2024-06-04T22:47:27Z</time>
      </trkpt>
      <trkpt lat="45.1471" lon="6.05457">
        <ele>880</ele>
        <time>2024-06-04T22:47:30Z</time>
      </trkpt>
      <trkpt lat="45.14702" lon="6.05475">
        <ele>882</ele>
        <time>2024-06-04T22:47:33Z</time>
      </trkpt>
      <trkpt lat="45.14683" lon="6.05549">
        <ele>889</ele>
        <time>2024-06-04T22:47:43Z</time>
      </trkpt>
      <trkpt lat="45.14675" lon="6.05591">
        <ele>891</ele>
        <time>2024-06-04T22:47:48Z</time>
      </trkpt>
      <trkpt lat="45.14672" lon="6.05614">
        <ele>891</ele>
        <time>2024-06-04T22:47:51Z</time>
      </trkpt>
      <trkpt lat="45.14673" lon="6.05632">
        <ele>892</ele>
        <time>2024-06-04T22:47:53Z</time>
      </trkpt>
      <trkpt lat="45.14679" lon="6.05638">
        <ele>895</ele>
        <time>2024-06-04T22:47:55Z</time>
      </trkpt>
      <trkpt lat="45.14685" lon="6.05641">
        <ele>898</ele>
        <time>2024-06-04T22:47:56Z</time>
      </trkpt>
      <trkpt lat="45.14692" lon="6.05639">
        <ele>901</ele>
        <time>2024-06-04T22:47:57Z</time>
      </trkpt>
      <trkpt lat="45.14697" lon="6.05627">
        <ele>903</ele>
        <time>2024-06-04T22:47:59Z</time>
      </trkpt>
      <trkpt lat="45.14703" lon="6.05597">
        <ele>903</ele>
        <time>2024-06-04T22:48:03Z</time>
      </trkpt>
      <trkpt lat="45.14708" lon="6.05582">
        <ele>904</ele>
        <time>2024-06-04T22:48:05Z</time>
      </trkpt>
      <trkpt lat="45.14716" lon="6.05569">
        <ele>905</ele>
        <time>2024-06-04T22:48:07Z</time>
      </trkpt>
      <trkpt lat="45.14749" lon="6.05528">
        <ele>911</ele>
        <time>2024-06-04T22:48:15Z</time>
      </trkpt>
      <trkpt lat="45.14756" lon="6.05524">
        <ele>912</ele>
        <time>2024-06-04T22:48:16Z</time>
      </trkpt>
      <trkpt lat="45.1477" lon="6.05521">
        <ele>914</ele>
        <time>2024-06-04T22:48:19Z</time>
      </trkpt>
      <trkpt lat="45.14815" lon="6.05527">
        <ele>926</ele>
        <time>2024-06-04T22:48:27Z</time>
      </trkpt>
      <trkpt lat="45.14862" lon="6.05539">
        <ele>941</ele>
        <time>2024-06-04T22:48:35Z</time>
      </trkpt>
      <trkpt lat="45.1487" lon="6.0554">
        <ele>943</ele>
        <time>2024-06-04T22:48:37Z</time>
      </trkpt>
      <trkpt lat="45.14877" lon="6.05533">
        <ele>944</ele>
        <time>2024-06-04T22:48:38Z</time>
      </trkpt>
      <trkpt lat="45.1488" lon="6.05516">
        <ele>942</ele>
        <time>2024-06-04T22:48:40Z</time>
      </trkpt>
      <trkpt lat="45.14876" lon="6.05502">
        <ele>939</ele>
        <time>2024-06-04T22:48:42Z</time>
      </trkpt>
      <trkpt lat="45.14867" lon="6.05479">
        <ele>932</ele>
        <time>2024-06-04T22:48:45Z</time>
      </trkpt>
      <trkpt lat="45.14866" lon="6.05463">
        <ele>929</ele>
        <time>2024-06-04T22:48:47Z</time>
      </trkpt>
      <trkpt lat="45.14869" lon="6.05451">
        <ele>928</ele>
        <time>2024-06-04T22:48:49Z</time>
      </trkpt>
      <trkpt lat="45.14876" lon="6.05443">
        <ele>929</ele>
        <time>2024-06-04T22:48:51Z</time>
      </trkpt>
      <trkpt lat="45.14915" lon="6.05412">
        <ele>936</ele>
        <time>2024-06-04T22:48:59Z</time>
      </trkpt>
      <trkpt lat="45.14963" lon="6.05366">
        <ele>948</ele>
        <time>2024-06-04T22:49:09Z</time>
      </trkpt>
      <trkpt lat="45.14972" lon="6.05354">
        <ele>949</ele>
        <time>2024-06-04T22:49:11Z</time>
      </trkpt>
      <trkpt lat="45.14975" lon="6.05341">
        <ele>948</ele>
        <time>2024-06-04T22:49:13Z</time>
      </trkpt>
      <trkpt lat="45.14977" lon="6.05304">
        <ele>944</ele>
        <time>2024-06-04T22:49:17Z</time>
      </trkpt>
      <trkpt lat="45.14979" lon="6.05298">
        <ele>944</ele>
        <time>2024-06-04T22:49:18Z</time>
      </trkpt>
      <trkpt lat="45.14985" lon="6.05291">
        <ele>945</ele>
        <time>2024-06-04T22:49:20Z</time>
      </trkpt>
      <trkpt lat="45.14993" lon="6.05292">
        <ele>949</ele>
        <time>2024-06-04T22:49:21Z</time>
      </trkpt>
      <trkpt lat="45.14997" lon="6.05296">
        <ele>951</ele>
        <time>2024-06-04T22:49:22Z</time>
      </trkpt>
      <trkpt lat="45.15" lon="6.05306">
        <ele>953</ele>
        <time>2024-06-04T22:49:23Z</time>
      </trkpt>
      <trkpt lat="45.15" lon="6.05311">
        <ele>954</ele>
        <time>2024-06-04T22:49:24Z</time>
      </trkpt>
      <trkpt lat="45.14978" lon="6.05378">
        <ele>956</ele>
        <time>2024-06-04T22:49:33Z</time>
      </trkpt>
      <trkpt lat="45.14957" lon="6.05462">
        <ele>962</ele>
        <time>2024-06-04T22:49:44Z</time>
      </trkpt>
      <trkpt lat="45.14945" lon="6.05503">
        <ele>964</ele>
        <time>2024-06-04T22:49:50Z</time>
      </trkpt>
      <trkpt lat="45.14944" lon="6.05514">
        <ele>964</ele>
        <time>2024-06-04T22:49:51Z</time>
      </trkpt>
      <trkpt lat="45.14946" lon="6.05524">
        <ele>966</ele>
        <time>2024-06-04T22:49:53Z</time>
      </trkpt>
      <trkpt lat="45.14951" lon="6.05534">
        <ele>969</ele>
        <time>2024-06-04T22:49:54Z</time>
      </trkpt>
      <trkpt lat="45.14975" lon="6.05567">
        <ele>982</ele>
        <time>2024-06-04T22:50:00Z</time>
      </trkpt>
      <trkpt lat="45.14981" lon="6.05587">
        <ele>987</ele>
        <time>2024-06-04T22:50:03Z</time>
      </trkpt>
      <trkpt lat="45.14983" lon="6.05608">
        <ele>990</ele>
        <time>2024-06-04T22:50:06Z</time>
      </trkpt>
      <trkpt lat="45.14983" lon="6.05626">
        <ele>992</ele>
        <time>2024-06-04T22:50:08Z</time>
      </trkpt>
      <trkpt lat="45.14981" lon="6.05637">
        <ele>992</ele>
        <time>2024-06-04T22:50:09Z</time>
      </trkpt>
      <trkpt lat="45.14977" lon="6.05646">
        <ele>992</ele>
        <time>2024-06-04T22:50:11Z</time>
      </trkpt>
      <trkpt lat="45.1497" lon="6.05653">
        <ele>990</ele>
        <time>2024-06-04T22:50:12Z</time>
      </trkpt>
      <trkpt lat="45.14948" lon="6.05669">
        <ele>986</ele>
        <time>2024-06-04T22:50:17Z</time>
      </trkpt>
      <trkpt lat="45.1494" lon="6.05682">
        <ele>985</ele>
        <time>2024-06-04T22:50:19Z</time>
      </trkpt>
      <trkpt lat="45.14928" lon="6.05715">
        <ele>987</ele>
        <time>2024-06-04T22:50:23Z</time>
      </trkpt>
      <trkpt lat="45.14919" lon="6.0575">
        <ele>991</ele>
        <time>2024-06-04T22:50:28Z</time>
      </trkpt>
      <trkpt lat="45.14916" lon="6.05772">
        <ele>992</ele>
        <time>2024-06-04T22:50:31Z</time>
      </trkpt>
      <trkpt lat="45.14917" lon="6.05812">
        <ele>998</ele>
        <time>2024-06-04T22:50:36Z</time>
      </trkpt>
      <trkpt lat="45.14924" lon="6.05901">
        <ele>1003</ele>
        <time>2024-06-04T22:50:47Z</time>
      </trkpt>
      <trkpt lat="45.14946" lon="6.05973">
        <ele>1009</ele>
        <time>2024-06-04T22:50:57Z</time>
      </trkpt>
      <trkpt lat="45.1497" lon="6.06029">
        <ele>1014</ele>
        <time>2024-06-04T22:51:05Z</time>
      </trkpt>
      <trkpt lat="45.14983" lon="6.06064">
        <ele>1016</ele>
        <time>2024-06-04T22:51:10Z</time>
      </trkpt>
      <trkpt lat="45.14987" lon="6.06072">
        <ele>1017</ele>
        <time>2024-06-04T22:51:11Z</time>
      </trkpt>
      <trkpt lat="45.14994" lon="6.06074">
        <ele>1019</ele>
        <time>2024-06-04T22:51:13Z</time>
      </trkpt>
      <trkpt lat="45.15" lon="6.06071">
        <ele>1020</ele>
        <time>2024-06-04T22:51:14Z</time>
      </trkpt>
      <trkpt lat="45.15003" lon="6.06067">
        <ele>1022</ele>
        <time>2024-06-04T22:51:14Z</time>
      </trkpt>
      <trkpt lat="45.15005" lon="6.06061">
        <ele>1023</ele>
        <time>2024-06-04T22:51:15Z</time>
      </trkpt>
      <trkpt lat="45.15004" lon="6.06047">
        <ele>1023</ele>
        <time>2024-06-04T22:51:17Z</time>
      </trkpt>
      <trkpt lat="45.14995" lon="6.06017">
        <ele>1021</ele>
        <time>2024-06-04T22:51:21Z</time>
      </trkpt>
      <trkpt lat="45.14996" lon="6.06003">
        <ele>1022</ele>
        <time>2024-06-04T22:51:23Z</time>
      </trkpt>
      <trkpt lat="45.15039" lon="6.05907">
        <ele>1032</ele>
        <time>2024-06-04T22:51:37Z</time>
      </trkpt>
      <trkpt lat="45.15066" lon="6.05834">
        <ele>1037</ele>
        <time>2024-06-04T22:51:48Z</time>
      </trkpt>
      <trkpt lat="45.15077" lon="6.0578">
        <ele>1040</ele>
        <time>2024-06-04T22:51:55Z</time>
      </trkpt>
      <trkpt lat="45.15081" lon="6.05773">
        <ele>1041</ele>
        <time>2024-06-04T22:51:56Z</time>
      </trkpt>
      <trkpt lat="45.15091" lon="6.05771">
        <ele>1046</ele>
        <time>2024-06-04T22:51:58Z</time>
      </trkpt>
      <trkpt lat="45.15096" lon="6.05775">
        <ele>1049</ele>
        <time>2024-06-04T22:51:59Z</time>
      </trkpt>
      <trkpt lat="45.15099" lon="6.0578">
        <ele>1050</ele>
        <time>2024-06-04T22:51:59Z</time>
      </trkpt>
      <trkpt lat="45.15099" lon="6.05789">
        <ele>1050</ele>
        <time>2024-06-04T22:52:01Z</time>
      </trkpt>
      <trkpt lat="45.15094" lon="6.05804">
        <ele>1048</ele>
        <time>2024-06-04T22:52:03Z</time>
      </trkpt>
      <trkpt lat="45.15082" lon="6.05835">
        <ele>1043</ele>
        <time>2024-06-04T22:52:07Z</time>
      </trkpt>
      <trkpt lat="45.15081" lon="6.05849">
        <ele>1043</ele>
        <time>2024-06-04T22:52:09Z</time>
      </trkpt>
      <trkpt lat="45.15083" lon="6.05866">
        <ele>1044</ele>
        <time>2024-06-04T22:52:11Z</time>
      </trkpt>
      <trkpt lat="45.15097" lon="6.05927">
        <ele>1054</ele>
        <time>2024-06-04T22:52:19Z</time>
      </trkpt>
      <trkpt lat="45.15099" lon="6.05946">
        <ele>1055</ele>
        <time>2024-06-04T22:52:21Z</time>
      </trkpt>
      <trkpt lat="45.15099" lon="6.05982">
        <ele>1057</ele>
        <time>2024-06-04T22:52:26Z</time>
      </trkpt>
      <trkpt lat="45.15101" lon="6.05995">
        <ele>1058</ele>
        <time>2024-06-04T22:52:28Z</time>
      </trkpt>
      <trkpt lat="45.15117" lon="6.0603">
        <ele>1065</ele>
        <time>2024-06-04T22:52:33Z</time>
      </trkpt>
      <trkpt lat="45.15119" lon="6.06041">
        <ele>1066</ele>
        <time>2024-06-04T22:52:34Z</time>
      </trkpt>
      <trkpt lat="45.15119" lon="6.0608">
        <ele>1065</ele>
        <time>2024-06-04T22:52:39Z</time>
      </trkpt>
      <trkpt lat="45.15123" lon="6.06119">
        <ele>1069</ele>
        <time>2024-06-04T22:52:44Z</time>
      </trkpt>
      <trkpt lat="45.15131" lon="6.06169">
        <ele>1077</ele>
        <time>2024-06-04T22:52:51Z</time>
      </trkpt>
      <trkpt lat="45.15139" lon="6.06204">
        <ele>1082</ele>
        <time>2024-06-04T22:52:55Z</time>
      </trkpt>
      <trkpt lat="45.1514" lon="6.06241">
        <ele>1083</ele>
        <time>2024-06-04T22:53:00Z</time>
      </trkpt>
      <trkpt lat="45.15137" lon="6.06257">
        <ele>1083</ele>
        <time>2024-06-04T22:53:02Z</time>
      </trkpt>
      <trkpt lat="45.15118" lon="6.06292">
        <ele>1078</ele>
        <time>2024-06-04T22:53:07Z</time>
      </trkpt>
      <trkpt lat="45.15115" lon="6.06333">
        <ele>1079</ele>
        <time>2024-06-04T22:53:13Z</time>
      </trkpt>
      <trkpt lat="45.15119" lon="6.06378">
        <ele>1083</ele>
        <time>2024-06-04T22:53:18Z</time>
      </trkpt>
      <trkpt lat="45.15122" lon="6.064">
        <ele>1085</ele>
        <time>2024-06-04T22:53:21Z</time>
      </trkpt>
      <trkpt lat="45.15129" lon="6.06426">
        <ele>1088</ele>
        <time>2024-06-04T22:53:25Z</time>
      </trkpt>
      <trkpt lat="45.15142" lon="6.06458">
        <ele>1094</ele>
        <time>2024-06-04T22:53:29Z</time>
      </trkpt>
      <trkpt lat="45.15151" lon="6.06506">
        <ele>1097</ele>
        <time>2024-06-04T22:53:35Z</time>
      </trkpt>
      <trkpt lat="45.15153" lon="6.06511">
        <ele>1097</ele>
        <time>2024-06-04T22:53:36Z</time>
      </trkpt>
      <trkpt lat="45.15156" lon="6.06513">
        <ele>1098</ele>
        <time>2024-06-04T22:53:37Z</time>
      </trkpt>
      <trkpt lat="45.15162" lon="6.06515">
        <ele>1100</ele>
        <time>2024-06-04T22:53:38Z</time>
      </trkpt>
      <trkpt lat="45.15167" lon="6.06513">
        <ele>1102</ele>
        <time>2024-06-04T22:53:39Z</time>
      </trkpt>
      <trkpt lat="45.1517" lon="6.06508">
        <ele>1104</ele>
        <time>2024-06-04T22:53:40Z</time>
      </trkpt>
      <trkpt lat="45.15171" lon="6.06499">
        <ele>1106</ele>
        <time>2024-06-04T22:53:41Z</time>
      </trkpt>
      <trkpt lat="45.15161" lon="6.06455">
        <ele>1101</ele>
        <time>2024-06-04T22:53:47Z</time>
      </trkpt>
      <trkpt lat="45.15162" lon="6.0644">
        <ele>1101</ele>
        <time>2024-06-04T22:53:48Z</time>
      </trkpt>
      <trkpt lat="45.15188" lon="6.06329">
        <ele>1106</ele>
        <time>2024-06-04T22:54:03Z</time>
      </trkpt>
      <trkpt lat="45.15194" lon="6.06322">
        <ele>1109</ele>
        <time>2024-06-04T22:54:05Z</time>
      </trkpt>
      <trkpt lat="45.152" lon="6.06322">
        <ele>1111</ele>
        <time>2024-06-04T22:54:06Z</time>
      </trkpt>
      <trkpt lat="45.15206" lon="6.06326">
        <ele>1114</ele>
        <time>2024-06-04T22:54:07Z</time>
      </trkpt>
      <trkpt lat="45.15209" lon="6.06331">
        <ele>1115</ele>
        <time>2024-06-04T22:54:08Z</time>
      </trkpt>
      <trkpt lat="45.1521" lon="6.06339">
        <ele>1116</ele>
        <time>2024-06-04T22:54:09Z</time>
      </trkpt>
      <trkpt lat="45.15206" lon="6.06352">
        <ele>1115</ele>
        <time>2024-06-04T22:54:10Z</time>
      </trkpt>
      <trkpt lat="45.15195" lon="6.06378">
        <ele>1112</ele>
        <time>2024-06-04T22:54:14Z</time>
      </trkpt>
      <trkpt lat="45.1519" lon="6.06398">
        <ele>1112</ele>
        <time>2024-06-04T22:54:17Z</time>
      </trkpt>
      <trkpt lat="45.15189" lon="6.06426">
        <ele>1113</ele>
        <time>2024-06-04T22:54:20Z</time>
      </trkpt>
      <trkpt lat="45.15192" lon="6.06444">
        <ele>1115</ele>
        <time>2024-06-04T22:54:23Z</time>
      </trkpt>
      <trkpt lat="45.15199" lon="6.06467">
        <ele>1119</ele>
        <time>2024-06-04T22:54:26Z</time>
      </trkpt>
      <trkpt lat="45.15224" lon="6.06533">
        <ele>1128</ele>
        <time>2024-06-04T22:54:35Z</time>
      </trkpt>
      <trkpt lat="45.15252" lon="6.06588">
        <ele>1137</ele>
        <time>2024-06-04T22:54:44Z</time>
      </trkpt>
      <trkpt lat="45.15293" lon="6.06652">
        <ele>1147</ele>
        <time>2024-06-04T22:54:55Z</time>
      </trkpt>
      <trkpt lat="45.15322" lon="6.06702">
        <ele>1150</ele>
        <time>2024-06-04T22:55:03Z</time>
      </trkpt>
      <trkpt lat="45.15338" lon="6.06725">
        <ele>1151</ele>
        <time>2024-06-04T22:55:07Z</time>
      </trkpt>
      <trkpt lat="45.15367" lon="6.06739">
        <ele>1163</ele>
        <time>2024-06-04T22:55:12Z</time>
      </trkpt>
      <trkpt lat="45.15378" lon="6.06748">
        <ele>1167</ele>
        <time>2024-06-04T22:55:14Z</time>
      </trkpt>
      <trkpt lat="45.15389" lon="6.06777">
        <ele>1163</ele>
        <time>2024-06-04T22:55:19Z</time>
      </trkpt>
      <trkpt lat="45.15413" lon="6.06805">
        <ele>1169</ele>
        <time>2024-06-04T22:55:24Z</time>
      </trkpt>
      <trkpt lat="45.15424" lon="6.06824">
        <ele>1170</ele>
        <time>2024-06-04T22:55:27Z</time>
      </trkpt>
      <trkpt lat="45.15459" lon="6.06888">
        <ele>1175</ele>
        <time>2024-06-04T22:55:37Z</time>
      </trkpt>
      <trkpt lat="45.1548" lon="6.06932">
        <ele>1180</ele>
        <time>2024-06-04T22:55:44Z</time>
      </trkpt>
      <trkpt lat="45.155" lon="6.06985">
        <ele>1179</ele>
        <time>2024-06-04T22:55:52Z</time>
      </trkpt>
      <trkpt lat="45.15562" lon="6.07112">
        <ele>1183</ele>
        <time>2024-06-04T22:56:11Z</time>
      </trkpt>
      <trkpt lat="45.15575" lon="6.07131">
        <ele>1185</ele>
        <time>2024-06-04T22:56:14Z</time>
      </trkpt>
      <trkpt lat="45.1562" lon="6.07185">
        <ele>1194</ele>
        <time>2024-06-04T22:56:25Z</time>
      </trkpt>
      <trkpt lat="45.15637" lon="6.07202">
        <ele>1197</ele>
        <time>2024-06-04T22:56:28Z</time>
      </trkpt>
      <trkpt lat="45.15656" lon="6.07216">
        <ele>1201</ele>
        <time>2024-06-04T22:56:32Z</time>
      </trkpt>
      <trkpt lat="45.15704" lon="6.07242">
        <ele>1209</ele>
        <time>2024-06-04T22:56:41Z</time>
      </trkpt>
      <trkpt lat="45.15707" lon="6.07248">
        <ele>1208</ele>
        <time>2024-06-04T22:56:42Z</time>
      </trkpt>
      <trkpt lat="45.15716" lon="6.07282">
        <ele>1207</ele>
        <time>2024-06-04T22:56:47Z</time>
      </trkpt>
      <trkpt lat="45.15722" lon="6.07299">
        <ele>1207</ele>
        <time>2024-06-04T22:56:49Z</time>
      </trkpt>
      <trkpt lat="45.15732" lon="6.07311">
        <ele>1209</ele>
        <time>2024-06-04T22:56:52Z</time>
      </trkpt>
      <trkpt lat="45.15741" lon="6.07317">
        <ele>1211</ele>
        <time>2024-06-04T22:56:53Z</time>
      </trkpt>
      <trkpt lat="45.15749" lon="6.07326">
        <ele>1213</ele>
        <time>2024-06-04T22:56:55Z</time>
      </trkpt>
      <trkpt lat="45.15757" lon="6.07339">
        <ele>1216</ele>
        <time>2024-06-04T22:56:57Z</time>
      </trkpt>
      <trkpt lat="45.15764" lon="6.07379">
        <ele>1218</ele>
        <time>2024-06-04T22:57:03Z</time>
      </trkpt>
      <trkpt lat="45.15769" lon="6.07438">
        <ele>1217</ele>
        <time>2024-06-04T22:57:10Z</time>
      </trkpt>
      <trkpt lat="45.15772" lon="6.07448">
        <ele>1217</ele>
        <time>2024-06-04T22:57:11Z</time>
      </trkpt>
      <trkpt lat="45.15779" lon="6.07456">
        <ele>1218</ele>
        <time>2024-06-04T22:57:13Z</time>
      </trkpt>
      <trkpt lat="45.15828" lon="6.07489">
        <ele>1228</ele>
        <time>2024-06-04T22:57:23Z</time>
      </trkpt>
      <trkpt lat="45.15848" lon="6.07516">
        <ele>1236</ele>
        <time>2024-06-04T22:57:28Z</time>
      </trkpt>
      <trkpt lat="45.15848" lon="6.07524">
        <ele>1238</ele>
        <time>2024-06-04T22:57:29Z</time>
      </trkpt>
      <trkpt lat="45.15844" lon="6.07542">
        <ele>1240</ele>
        <time>2024-06-04T22:57:31Z</time>
      </trkpt>
      <trkpt lat="45.15832" lon="6.07553">
        <ele>1238</ele>
        <time>2024-06-04T22:57:33Z</time>
      </trkpt>
      <trkpt lat="45.15782" lon="6.07582">
        <ele>1231</ele>
        <time>2024-06-04T22:57:43Z</time>
      </trkpt>
      <trkpt lat="45.15772" lon="6.07594">
        <ele>1231</ele>
        <time>2024-06-04T22:57:45Z</time>
      </trkpt>
      <trkpt lat="45.15766" lon="6.07613">
        <ele>1232</ele>
        <time>2024-06-04T22:57:48Z</time>
      </trkpt>
      <trkpt lat="45.15766" lon="6.0763">
        <ele>1235</ele>
        <time>2024-06-04T22:57:50Z</time>
      </trkpt>
      <trkpt lat="45.15772" lon="6.07653">
        <ele>1241</ele>
        <time>2024-06-04T22:57:53Z</time>
      </trkpt>
      <trkpt lat="45.15774" lon="6.07686">
        <ele>1245</ele>
        <time>2024-06-04T22:57:57Z</time>
      </trkpt>
      <trkpt lat="45.15774" lon="6.07693">
        <ele>1245</ele>
        <time>2024-06-04T22:57:58Z</time>
      </trkpt>
      <trkpt lat="45.15771" lon="6.07709">
        <ele>1245</ele>
        <time>2024-06-04T22:58:00Z</time>
      </trkpt>
      <trkpt lat="45.15761" lon="6.07744">
        <ele>1244</ele>
        <time>2024-06-04T22:58:05Z</time>
      </trkpt>
      <trkpt lat="45.15759" lon="6.07811">
        <ele>1246</ele>
        <time>2024-06-04T22:58:13Z</time>
      </trkpt>
      <trkpt lat="45.15763" lon="6.07828">
        <ele>1248</ele>
        <time>2024-06-04T22:58:16Z</time>
      </trkpt>
      <trkpt lat="45.15779" lon="6.07852">
        <ele>1251</ele>
        <time>2024-06-04T22:58:20Z</time>
      </trkpt>
      <trkpt lat="45.15787" lon="6.07867">
        <ele>1252</ele>
        <time>2024-06-04T22:58:22Z</time>
      </trkpt>
      <trkpt lat="45.15806" lon="6.07925">
        <ele>1252</ele>
        <time>2024-06-04T22:58:30Z</time>
      </trkpt>
      <trkpt lat="45.15843" lon="6.07995">
        <ele>1258</ele>
        <time>2024-06-04T22:58:41Z</time>
      </trkpt>
      <trkpt lat="45.1585" lon="6.08027">
        <ele>1259</ele>
        <time>2024-06-04T22:58:45Z</time>
      </trkpt>
      <trkpt lat="45.15851" lon="6.08085">
        <ele>1257</ele>
        <time>2024-06-04T22:58:53Z</time>
      </trkpt>
      <trkpt lat="45.15857" lon="6.081">
        <ele>1257</ele>
        <time>2024-06-04T22:58:55Z</time>
      </trkpt>
      <trkpt lat="45.15869" lon="6.08122">
        <ele>1259</ele>
        <time>2024-06-04T22:58:58Z</time>
      </trkpt>
      <trkpt lat="45.15879" lon="6.08133">
        <ele>1262</ele>
        <time>2024-06-04T22:59:01Z</time>
      </trkpt>
      <trkpt lat="45.15897" lon="6.08145">
        <ele>1269</ele>
        <time>2024-06-04T22:59:04Z</time>
      </trkpt>
      <trkpt lat="45.15918" lon="6.08174">
        <ele>1275</ele>
        <time>2024-06-04T22:59:09Z</time>
      </trkpt>
      <trkpt lat="45.15943" lon="6.08216">
        <ele>1277</ele>
        <time>2024-06-04T22:59:16Z</time>
      </trkpt>
      <trkpt lat="45.16007" lon="6.08298">
        <ele>1288</ele>
        <time>2024-06-04T22:59:32Z</time>
      </trkpt>
      <trkpt lat="45.16074" lon="6.08397">
        <ele>1296</ele>
        <time>2024-06-04T22:59:49Z</time>
      </trkpt>
      <trkpt lat="45.16112" lon="6.08447">
        <ele>1299</ele>
        <time>2024-06-04T22:59:58Z</time>
      </trkpt>
      <trkpt lat="45.16173" lon="6.08509">
        <ele>1307</ele>
        <time>2024-06-04T23:00:11Z</time>
      </trkpt>
      <trkpt lat="45.16267" lon="6.08603">
        <ele>1315</ele>
        <time>2024-06-04T23:00:32Z</time>
      </trkpt>
      <trkpt lat="45.16285" lon="6.08632">
        <ele>1317</ele>
        <time>2024-06-04T23:00:37Z</time>
      </trkpt>
      <trkpt lat="45.16295" lon="6.08644">
        <ele>1318</ele>
        <time>2024-06-04T23:00:39Z</time>
      </trkpt>
      <trkpt lat="45.16343" lon="6.08657">
        <ele>1329</ele>
        <time>2024-06-04T23:00:48Z</time>
      </trkpt>
      <trkpt lat="45.16357" lon="6.08671">
        <ele>1331</ele>
        <time>2024-06-04T23:00:51Z</time>
      </trkpt>
      <trkpt lat="45.16359" lon="6.08677">
        <ele>1331</ele>
        <time>2024-06-04T23:00:52Z</time>
      </trkpt>
      <trkpt lat="45.16359" lon="6.08692">
        <ele>1330</ele>
        <time>2024-06-04T23:00:54Z</time>
      </trkpt>
      <trkpt lat="45.16355" lon="6.08697">
        <ele>1329</ele>
        <time>2024-06-04T23:00:54Z</time>
      </trkpt>
      <trkpt lat="45.16334" lon="6.08706">
        <ele>1323</ele>
        <time>2024-06-04T23:00:58Z</time>
      </trkpt>
      <trkpt lat="45.16327" lon="6.08714">
        <ele>1321</ele>
        <time>2024-06-04T23:01:00Z</time>
      </trkpt>
      <trkpt lat="45.16325" lon="6.08723">
        <ele>1320</ele>
        <time>2024-06-04T23:01:01Z</time>
      </trkpt>
      <trkpt lat="45.16329" lon="6.08743">
        <ele>1320</ele>
        <time>2024-06-04T23:01:04Z</time>
      </trkpt>
      <trkpt lat="45.16334" lon="6.08759">
        <ele>1321</ele>
        <time>2024-06-04T23:01:06Z</time>
      </trkpt>
      <trkpt lat="45.16361" lon="6.08811">
        <ele>1327</ele>
        <time>2024-06-04T23:01:14Z</time>
      </trkpt>
      <trkpt lat="45.16365" lon="6.08823">
        <ele>1328</ele>
        <time>2024-06-04T23:01:16Z</time>
      </trkpt>
      <trkpt lat="45.16374" lon="6.08914">
        <ele>1328</ele>
        <time>2024-06-04T23:01:27Z</time>
      </trkpt>
      <trkpt lat="45.16392" lon="6.08911">
        <ele>1332</ele>
        <time>2024-06-04T23:01:30Z</time>
      </trkpt>
      <trkpt lat="45.16398" lon="6.08912">
        <ele>1333</ele>
        <time>2024-06-04T23:01:32Z</time>
      </trkpt>
      <trkpt lat="45.16408" lon="6.08908">
        <ele>1335</ele>
        <time>2024-06-04T23:01:33Z</time>
      </trkpt>
      <trkpt lat="45.16427" lon="6.08897">
        <ele>1339</ele>
        <time>2024-06-04T23:01:37Z</time>
      </trkpt>
      <trkpt lat="45.16431" lon="6.08896">
        <ele>1340</ele>
        <time>2024-06-04T23:01:38Z</time>
      </trkpt>
      <trkpt lat="45.16434" lon="6.08902">
        <ele>1340</ele>
        <time>2024-06-04T23:01:39Z</time>
      </trkpt>
      <trkpt lat="45.16436" lon="6.08903">
        <ele>1340</ele>
        <time>2024-06-04T23:01:39Z</time>
      </trkpt>
      <trkpt lat="45.16437" lon="6.08854">
        <ele>1342</ele>
        <time>2024-06-04T23:01:45Z</time>
      </trkpt>
      <trkpt lat="45.16439" lon="6.08834">
        <ele>1343</ele>
        <time>2024-06-04T23:01:48Z</time>
      </trkpt>
      <trkpt lat="45.16442" lon="6.0883">
        <ele>1344</ele>
        <time>2024-06-04T23:01:48Z</time>
      </trkpt>
      <trkpt lat="45.16446" lon="6.08828">
        <ele>1345</ele>
        <time>2024-06-04T23:01:49Z</time>
      </trkpt>
      <trkpt lat="45.16451" lon="6.0883">
        <ele>1346</ele>
        <time>2024-06-04T23:01:50Z</time>
      </trkpt>
      <trkpt lat="45.16455" lon="6.08838">
        <ele>1346</ele>
        <time>2024-06-04T23:01:51Z</time>
      </trkpt>
      <trkpt lat="45.16476" lon="6.0888">
        <ele>1347</ele>
        <time>2024-06-04T23:01:58Z</time>
      </trkpt>
      <trkpt lat="45.16485" lon="6.08921">
        <ele>1347</ele>
        <time>2024-06-04T23:02:03Z</time>
      </trkpt>
      <trkpt lat="45.16553" lon="6.09029">
        <ele>1363</ele>
        <time>2024-06-04T23:02:21Z</time>
      </trkpt>
      <trkpt lat="45.16582" lon="6.09095">
        <ele>1368</ele>
        <time>2024-06-04T23:02:31Z</time>
      </trkpt>
      <trkpt lat="45.16624" lon="6.09167">
        <ele>1378</ele>
        <time>2024-06-04T23:02:43Z</time>
      </trkpt>
      <trkpt lat="45.16634" lon="6.09193">
        <ele>1380</ele>
        <time>2024-06-04T23:02:47Z</time>
      </trkpt>
      <trkpt lat="45.16655" lon="6.09237">
        <ele>1384</ele>
        <time>2024-06-04T23:02:53Z</time>
      </trkpt>
      <trkpt lat="45.1668" lon="6.09278">
        <ele>1390</ele>
        <time>2024-06-04T23:03:00Z</time>
      </trkpt>
      <trkpt lat="45.16704" lon="6.09313">
        <ele>1395</ele>
        <time>2024-06-04T23:03:06Z</time>
      </trkpt>
      <trkpt lat="45.16729" lon="6.0936">
        <ele>1400</ele>
        <time>2024-06-04T23:03:14Z</time>
      </trkpt>
      <trkpt lat="45.16737" lon="6.09376">
        <ele>1402</ele>
        <time>2024-06-04T23:03:16Z</time>
      </trkpt>
      <trkpt lat="45.16751" lon="6.09396">
        <ele>1406</ele>
        <time>2024-06-04T23:03:20Z</time>
      </trkpt>
      <trkpt lat="45.16764" lon="6.09411">
        <ele>1407</ele>
        <time>2024-06-04T23:03:23Z</time>
      </trkpt>
      <trkpt lat="45.16774" lon="6.09416">
        <ele>1408</ele>
        <time>2024-06-04T23:03:24Z</time>
      </trkpt>
      <trkpt lat="45.16809" lon="6.09417">
        <ele>1410</ele>
        <time>2024-06-04T23:03:31Z</time>
      </trkpt>
      <trkpt lat="45.16826" lon="6.09417">
        <ele>1411</ele>
        <time>2024-06-04T23:03:34Z</time>
      </trkpt>
      <trkpt lat="45.16842" lon="6.09423">
        <ele>1413</ele>
        <time>2024-06-04T23:03:37Z</time>
      </trkpt>
      <trkpt lat="45.16864" lon="6.09434">
        <ele>1415</ele>
        <time>2024-06-04T23:03:41Z</time>
      </trkpt>
      <trkpt lat="45.16935" lon="6.09464">
        <ele>1422</ele>
        <time>2024-06-04T23:03:54Z</time>
      </trkpt>
      <trkpt lat="45.16978" lon="6.09488">
        <ele>1428</ele>
        <time>2024-06-04T23:04:02Z</time>
      </trkpt>
      <trkpt lat="45.17006" lon="6.09514">
        <ele>1432</ele>
        <time>2024-06-04T23:04:08Z</time>
      </trkpt>
      <trkpt lat="45.17017" lon="6.09529">
        <ele>1434</ele>
        <time>2024-06-04T23:04:11Z</time>
      </trkpt>
      <trkpt lat="45.17028" lon="6.09547">
        <ele>1435</ele>
        <time>2024-06-04T23:04:14Z</time>
      </trkpt>
      <trkpt lat="45.17047" lon="6.09594">
        <ele>1436</ele>
        <time>2024-06-04T23:04:21Z</time>
      </trkpt>
      <trkpt lat="45.17056" lon="6.0961">
        <ele>1436</ele>
        <time>2024-06-04T23:04:23Z</time>
      </trkpt>
      <trkpt lat="45.17061" lon="6.09613">
        <ele>1437</ele>
        <time>2024-06-04T23:04:24Z</time>
      </trkpt>
      <trkpt lat="45.17068" lon="6.09612">
        <ele>1438</ele>
        <time>2024-06-04T23:04:25Z</time>
      </trkpt>
      <trkpt lat="45.17072" lon="6.09608">
        <ele>1440</ele>
        <time>2024-06-04T23:04:26Z</time>
      </trkpt>
      <trkpt lat="45.17074" lon="6.096">
        <ele>1441</ele>
        <time>2024-06-04T23:04:27Z</time>
      </trkpt>
      <trkpt lat="45.17073" lon="6.09584">
        <ele>1443</ele>
        <time>2024-06-04T23:04:29Z</time>
      </trkpt>
      <trkpt lat="45.17067" lon="6.09564">
        <ele>1444</ele>
        <time>2024-06-04T23:04:32Z</time>
      </trkpt>
      <trkpt lat="45.17065" lon="6.09553">
        <ele>1444</ele>
        <time>2024-06-04T23:04:34Z</time>
      </trkpt>
      <trkpt lat="45.17069" lon="6.09446">
        <ele>1457</ele>
        <time>2024-06-04T23:04:47Z</time>
      </trkpt>
      <trkpt lat="45.17067" lon="6.09413">
        <ele>1461</ele>
        <time>2024-06-04T23:04:51Z</time>
      </trkpt>
      <trkpt lat="45.17064" lon="6.09402">
        <ele>1463</ele>
        <time>2024-06-04T23:04:53Z</time>
      </trkpt>
      <trkpt lat="45.17055" lon="6.09386">
        <ele>1464</ele>
        <time>2024-06-04T23:04:55Z</time>
      </trkpt>
      <trkpt lat="45.17017" lon="6.09362">
        <ele>1458</ele>
        <time>2024-06-04T23:05:03Z</time>
      </trkpt>
      <trkpt lat="45.17009" lon="6.09347">
        <ele>1458</ele>
        <time>2024-06-04T23:05:05Z</time>
      </trkpt>
      <trkpt lat="45.17005" lon="6.09327">
        <ele>1461</ele>
        <time>2024-06-04T23:05:08Z</time>
      </trkpt>
      <trkpt lat="45.17005" lon="6.09319">
        <ele>1462</ele>
        <time>2024-06-04T23:05:09Z</time>
      </trkpt>
      <trkpt lat="45.17009" lon="6.09304">
        <ele>1465</ele>
        <time>2024-06-04T23:05:11Z</time>
      </trkpt>
      <trkpt lat="45.17018" lon="6.09282">
        <ele>1471</ele>
        <time>2024-06-04T23:05:14Z</time>
      </trkpt>
      <trkpt lat="45.17025" lon="6.09268">
        <ele>1476</ele>
        <time>2024-06-04T23:05:16Z</time>
      </trkpt>
      <trkpt lat="45.17027" lon="6.09256">
        <ele>1478</ele>
        <time>2024-06-04T23:05:17Z</time>
      </trkpt>
      <trkpt lat="45.17028" lon="6.09244">
        <ele>1481</ele>
        <time>2024-06-04T23:05:19Z</time>
      </trkpt>
      <trkpt lat="45.17025" lon="6.09228">
        <ele>1483</ele>
        <time>2024-06-04T23:05:21Z</time>
      </trkpt>
      <trkpt lat="45.17011" lon="6.09184">
        <ele>1485</ele>
        <time>2024-06-04T23:05:27Z</time>
      </trkpt>
      <trkpt lat="45.16984" lon="6.09115">
        <ele>1486</ele>
        <time>2024-06-04T23:05:37Z</time>
      </trkpt>
      <trkpt lat="45.16986" lon="6.0911">
        <ele>1487</ele>
        <time>2024-06-04T23:05:38Z</time>
      </trkpt>
      <trkpt lat="45.16991" lon="6.09111">
        <ele>1489</ele>
        <time>2024-06-04T23:05:39Z</time>
      </trkpt>
      <trkpt lat="45.17001" lon="6.09126">
        <ele>1490</ele>
        <time>2024-06-04T23:05:41Z</time>
      </trkpt>
      <trkpt lat="45.17019" lon="6.09156">
        <ele>1494</ele>
        <time>2024-06-04T23:05:46Z</time>
      </trkpt>
      <trkpt lat="45.17069" lon="6.09207">
        <ele>1503</ele>
        <time>2024-06-04T23:05:57Z</time>
      </trkpt>
      <trkpt lat="45.1708" lon="6.09222">
        <ele>1504</ele>
        <time>2024-06-04T23:06:00Z</time>
      </trkpt>
      <trkpt lat="45.17097" lon="6.09261">
        <ele>1502</ele>
        <time>2024-06-04T23:06:06Z</time>
      </trkpt>
      <trkpt lat="45.17104" lon="6.09275">
        <ele>1502</ele>
        <time>2024-06-04T23:06:08Z</time>
      </trkpt>
      <trkpt lat="45.17117" lon="6.09286">
        <ele>1505</ele>
        <time>2024-06-04T23:06:10Z</time>
      </trkpt>
      <trkpt lat="45.17224" lon="6.09359">
        <ele>1520</ele>
        <time>2024-06-04T23:06:32Z</time>
      </trkpt>
      <trkpt lat="45.17231" lon="6.09361">
        <ele>1522</ele>
        <time>2024-06-04T23:06:33Z</time>
      </trkpt>
      <trkpt lat="45.17234" lon="6.09353">
        <ele>1524</ele>
        <time>2024-06-04T23:06:34Z</time>
      </trkpt>
      <trkpt lat="45.17232" lon="6.09348">
        <ele>1525</ele>
        <time>2024-06-04T23:06:35Z</time>
      </trkpt>
      <trkpt lat="45.17214" lon="6.09333">
        <ele>1525</ele>
        <time>2024-06-04T23:06:38Z</time>
      </trkpt>
      <trkpt lat="45.17193" lon="6.09297">
        <ele>1528</ele>
        <time>2024-06-04T23:06:44Z</time>
      </trkpt>
      <trkpt lat="45.17183" lon="6.09286">
        <ele>1528</ele>
        <time>2024-06-04T23:06:47Z</time>
      </trkpt>
      <trkpt lat="45.17174" lon="6.09281">
        <ele>1526</ele>
        <time>2024-06-04T23:06:48Z</time>
      </trkpt>
      <trkpt lat="45.17158" lon="6.0926">
        <ele>1525</ele>
        <time>2024-06-04T23:06:52Z</time>
      </trkpt>
      <trkpt lat="45.17156" lon="6.0925">
        <ele>1527</ele>
        <time>2024-06-04T23:06:53Z</time>
      </trkpt>
      <trkpt lat="45.17157" lon="6.09239">
        <ele>1530</ele>
        <time>2024-06-04T23:06:55Z</time>
      </trkpt>
      <trkpt lat="45.17169" lon="6.09207">
        <ele>1542</ele>
        <time>2024-06-04T23:06:59Z</time>
      </trkpt>
      <trkpt lat="45.17173" lon="6.09201">
        <ele>1544</ele>
        <time>2024-06-04T23:07:00Z</time>
      </trkpt>
      <trkpt lat="45.17179" lon="6.092">
        <ele>1547</ele>
        <time>2024-06-04T23:07:01Z</time>
      </trkpt>
      <trkpt lat="45.17182" lon="6.09202">
        <ele>1548</ele>
        <time>2024-06-04T23:07:02Z</time>
      </trkpt>
      <trkpt lat="45.17184" lon="6.09208">
        <ele>1547</ele>
        <time>2024-06-04T23:07:03Z</time>
      </trkpt>
      <trkpt lat="45.17177" lon="6.0923">
        <ele>1539</ele>
        <time>2024-06-04T23:07:06Z</time>
      </trkpt>
      <trkpt lat="45.17176" lon="6.09243">
        <ele>1536</ele>
        <time>2024-06-04T23:07:08Z</time>
      </trkpt>
      <trkpt lat="45.17179" lon="6.09249">
        <ele>1536</ele>
        <time>2024-06-04T23:07:08Z</time>
      </trkpt>
      <trkpt lat="45.17183" lon="6.09254">
        <ele>1536</ele>
        <time>2024-06-04T23:07:09Z</time>
      </trkpt>
      <trkpt lat="45.17198" lon="6.09261">
        <ele>1540</ele>
        <time>2024-06-04T23:07:12Z</time>
      </trkpt>
      <trkpt lat="45.17248" lon="6.09294">
        <ele>1547</ele>
        <time>2024-06-04T23:07:22Z</time>
      </trkpt>
      <trkpt lat="45.17255" lon="6.09295">
        <ele>1548</ele>
        <time>2024-06-04T23:07:23Z</time>
      </trkpt>
      <trkpt lat="45.17274" lon="6.09293">
        <ele>1553</ele>
        <time>2024-06-04T23:07:27Z</time>
      </trkpt>
      <trkpt lat="45.17304" lon="6.09279">
        <ele>1564</ele>
        <time>2024-06-04T23:07:32Z</time>
      </trkpt>
      <trkpt lat="45.17318" lon="6.09279">
        <ele>1567</ele>
        <time>2024-06-04T23:07:35Z</time>
      </trkpt>
      <trkpt lat="45.17328" lon="6.09286">
        <ele>1567</ele>
        <time>2024-06-04T23:07:37Z</time>
      </trkpt>
      <trkpt lat="45.1734" lon="6.09297">
        <ele>1567</ele>
        <time>2024-06-04T23:07:39Z</time>
      </trkpt>
      <trkpt lat="45.17376" lon="6.09347">
        <ele>1566</ele>
        <time>2024-06-04T23:07:48Z</time>
      </trkpt>
      <trkpt lat="45.17382" lon="6.0936">
        <ele>1566</ele>
        <time>2024-06-04T23:07:50Z</time>
      </trkpt>
      <trkpt lat="45.17386" lon="6.09365">
        <ele>1567</ele>
        <time>2024-06-04T23:07:51Z</time>
      </trkpt>
      <trkpt lat="45.1739" lon="6.09366">
        <ele>1568</ele>
        <time>2024-06-04T23:07:52Z</time>
      </trkpt>
      <trkpt lat="45.17396" lon="6.09362">
        <ele>1571</ele>
        <time>2024-06-04T23:07:53Z</time>
      </trkpt>
      <trkpt lat="45.17398" lon="6.09352">
        <ele>1572</ele>
        <time>2024-06-04T23:07:54Z</time>
      </trkpt>
      <trkpt lat="45.17384" lon="6.09318">
        <ele>1573</ele>
        <time>2024-06-04T23:07:59Z</time>
      </trkpt>
      <trkpt lat="45.17381" lon="6.09296">
        <ele>1577</ele>
        <time>2024-06-04T23:08:02Z</time>
      </trkpt>
      <trkpt lat="45.17383" lon="6.09289">
        <ele>1579</ele>
        <time>2024-06-04T23:08:03Z</time>
      </trkpt>
      <trkpt lat="45.17383" lon="6.09274">
        <ele>1582</ele>
        <time>2024-06-04T23:08:05Z</time>
      </trkpt>
      <trkpt lat="45.17377" lon="6.09245">
        <ele>1587</ele>
        <time>2024-06-04T23:08:09Z</time>
      </trkpt>
      <trkpt lat="45.17373" lon="6.09233">
        <ele>1590</ele>
        <time>2024-06-04T23:08:10Z</time>
      </trkpt>
      <trkpt lat="45.17348" lon="6.09209">
        <ele>1593</ele>
        <time>2024-06-04T23:08:16Z</time>
      </trkpt>
      <trkpt lat="45.1732" lon="6.09203">
        <ele>1589</ele>
        <time>2024-06-04T23:08:21Z</time>
      </trkpt>
      <trkpt lat="45.17292" lon="6.09201">
        <ele>1583</ele>
        <time>2024-06-04T23:08:26Z</time>
      </trkpt>
      <trkpt lat="45.17284" lon="6.09197">
        <ele>1582</ele>
        <time>2024-06-04T23:08:27Z</time>
      </trkpt>
      <trkpt lat="45.1728" lon="6.09193">
        <ele>1582</ele>
        <time>2024-06-04T23:08:28Z</time>
      </trkpt>
      <trkpt lat="45.17278" lon="6.09187">
        <ele>1583</ele>
        <time>2024-06-04T23:08:29Z</time>
      </trkpt>
      <trkpt lat="45.17278" lon="6.09181">
        <ele>1585</ele>
        <time>2024-06-04T23:08:30Z</time>
      </trkpt>
      <trkpt lat="45.17288" lon="6.09147">
        <ele>1596</ele>
        <time>2024-06-04T23:08:34Z</time>
      </trkpt>
      <trkpt lat="45.17289" lon="6.09139">
        <ele>1599</ele>
        <time>2024-06-04T23:08:35Z</time>
      </trkpt>
      <trkpt lat="45.17289" lon="6.09123">
        <ele>1603</ele>
        <time>2024-06-04T23:08:37Z</time>
      </trkpt>
      <trkpt lat="45.17285" lon="6.0911">
        <ele>1606</ele>
        <time>2024-06-04T23:08:39Z</time>
      </trkpt>
      <trkpt lat="45.1727" lon="6.09091">
        <ele>1607</ele>
        <time>2024-06-04T23:08:43Z</time>
      </trkpt>
      <trkpt lat="45.17238" lon="6.09067">
        <ele>1601</ele>
        <time>2024-06-04T23:08:49Z</time>
      </trkpt>
      <trkpt lat="45.17224" lon="6.09053">
        <ele>1597</ele>
        <time>2024-06-04T23:08:52Z</time>
      </trkpt>
      <trkpt lat="45.17219" lon="6.09043">
        <ele>1596</ele>
        <time>2024-06-04T23:08:54Z</time>
      </trkpt>
      <trkpt lat="45.17222" lon="6.09028">
        <ele>1598</ele>
        <time>2024-06-04T23:08:56Z</time>
      </trkpt>
      <trkpt lat="45.17226" lon="6.09026">
        <ele>1600</ele>
        <time>2024-06-04T23:08:57Z</time>
      </trkpt>
      <trkpt lat="45.1723" lon="6.09029">
        <ele>1601</ele>
        <time>2024-06-04T23:08:57Z</time>
      </trkpt>
      <trkpt lat="45.17239" lon="6.09046">
        <ele>1604</ele>
        <time>2024-06-04T23:09:00Z</time>
      </trkpt>
      <trkpt lat="45.17248" lon="6.09052">
        <ele>1607</ele>
        <time>2024-06-04T23:09:02Z</time>
      </trkpt>
      <trkpt lat="45.17287" lon="6.09066">
        <ele>1616</ele>
        <time>2024-06-04T23:09:09Z</time>
      </trkpt>
      <trkpt lat="45.17303" lon="6.09076">
        <ele>1619</ele>
        <time>2024-06-04T23:09:12Z</time>
      </trkpt>
      <trkpt lat="45.17326" lon="6.09096">
        <ele>1620</ele>
        <time>2024-06-04T23:09:17Z</time>
      </trkpt>
      <trkpt lat="45.17341" lon="6.09115">
        <ele>1619</ele>
        <time>2024-06-04T23:09:20Z</time>
      </trkpt>
      <trkpt lat="45.17347" lon="6.09118">
        <ele>1619</ele>
        <time>2024-06-04T23:09:22Z</time>
      </trkpt>
      <trkpt lat="45.17351" lon="6.09119">
        <ele>1620</ele>
        <time>2024-06-04T23:09:22Z</time>
      </trkpt>
      <trkpt lat="45.17384" lon="6.09109">
        <ele>1630</ele>
        <time>2024-06-04T23:09:28Z</time>
      </trkpt>
      <trkpt lat="45.17409" lon="6.09107">
        <ele>1637</ele>
        <time>2024-06-04T23:09:33Z</time>
      </trkpt>
      <trkpt lat="45.17459" lon="6.09084">
        <ele>1648</ele>
        <time>2024-06-04T23:09:42Z</time>
      </trkpt>
      <trkpt lat="45.17474" lon="6.0908">
        <ele>1650</ele>
        <time>2024-06-04T23:09:45Z</time>
      </trkpt>
      <trkpt lat="45.1749" lon="6.0908">
        <ele>1651</ele>
        <time>2024-06-04T23:09:48Z</time>
      </trkpt>
      <trkpt lat="45.17544" lon="6.091">
        <ele>1656</ele>
        <time>2024-06-04T23:09:58Z</time>
      </trkpt>
      <trkpt lat="45.17565" lon="6.09118">
        <ele>1655</ele>
        <time>2024-06-04T23:10:02Z</time>
      </trkpt>
      <trkpt lat="45.17574" lon="6.09124">
        <ele>1655</ele>
        <time>2024-06-04T23:10:04Z</time>
      </trkpt>
      <trkpt lat="45.17607" lon="6.0913">
        <ele>1662</ele>
        <time>2024-06-04T23:10:10Z</time>
      </trkpt>
      <trkpt lat="45.17672" lon="6.09179">
        <ele>1666</ele>
        <time>2024-06-04T23:10:23Z</time>
      </trkpt>
      <trkpt lat="45.17681" lon="6.09188">
        <ele>1668</ele>
        <time>2024-06-04T23:10:25Z</time>
      </trkpt>
      <trkpt lat="45.17687" lon="6.092">
        <ele>1668</ele>
        <time>2024-06-04T23:10:27Z</time>
      </trkpt>
      <trkpt lat="45.177" lon="6.09236">
        <ele>1667</ele>
        <time>2024-06-04T23:10:32Z</time>
      </trkpt>
      <trkpt lat="45.17703" lon="6.09239">
        <ele>1668</ele>
        <time>2024-06-04T23:10:32Z</time>
      </trkpt>
      <trkpt lat="45.17709" lon="6.09241">
        <ele>1670</ele>
        <time>2024-06-04T23:10:33Z</time>
      </trkpt>
      <trkpt lat="45.17712" lon="6.09238">
        <ele>1671</ele>
        <time>2024-06-04T23:10:34Z</time>
      </trkpt>
      <trkpt lat="45.17714" lon="6.0923">
        <ele>1673</ele>
        <time>2024-06-04T23:10:35Z</time>
      </trkpt>
      <trkpt lat="45.1771" lon="6.09203">
        <ele>1675</ele>
        <time>2024-06-04T23:10:39Z</time>
      </trkpt>
      <trkpt lat="45.1771" lon="6.09178">
        <ele>1679</ele>
        <time>2024-06-04T23:10:42Z</time>
      </trkpt>
      <trkpt lat="45.17706" lon="6.09166">
        <ele>1679</ele>
        <time>2024-06-04T23:10:43Z</time>
      </trkpt>
      <trkpt lat="45.17666" lon="6.09106">
        <ele>1684</ele>
        <time>2024-06-04T23:10:54Z</time>
      </trkpt>
      <trkpt lat="45.17635" lon="6.09045">
        <ele>1695</ele>
        <time>2024-06-04T23:11:03Z</time>
      </trkpt>
      <trkpt lat="45.17626" lon="6.09037">
        <ele>1695</ele>
        <time>2024-06-04T23:11:05Z</time>
      </trkpt>
      <trkpt lat="45.17619" lon="6.09035">
        <ele>1694</ele>
        <time>2024-06-04T23:11:06Z</time>
      </trkpt>
      <trkpt lat="45.176" lon="6.09039">
        <ele>1687</ele>
        <time>2024-06-04T23:11:10Z</time>
      </trkpt>
      <trkpt lat="45.17595" lon="6.09038">
        <ele>1686</ele>
        <time>2024-06-04T23:11:11Z</time>
      </trkpt>
      <trkpt lat="45.1759" lon="6.09034">
        <ele>1686</ele>
        <time>2024-06-04T23:11:12Z</time>
      </trkpt>
      <trkpt lat="45.1758" lon="6.09011">
        <ele>1690</ele>
        <time>2024-06-04T23:11:15Z</time>
      </trkpt>
      <trkpt lat="45.17567" lon="6.08961">
        <ele>1704</ele>
        <time>2024-06-04T23:11:22Z</time>
      </trkpt>
      <trkpt lat="45.17564" lon="6.08952">
        <ele>1707</ele>
        <time>2024-06-04T23:11:23Z</time>
      </trkpt>
      <trkpt lat="45.17558" lon="6.08942">
        <ele>1710</ele>
        <time>2024-06-04T23:11:25Z</time>
      </trkpt>
      <trkpt lat="45.17552" lon="6.08937">
        <ele>1711</ele>
        <time>2024-06-04T23:11:26Z</time>
      </trkpt>
      <trkpt lat="45.17514" lon="6.08939">
        <ele>1706</ele>
        <time>2024-06-04T23:11:33Z</time>
      </trkpt>
      <trkpt lat="45.17496" lon="6.08934">
        <ele>1705</ele>
        <time>2024-06-04T23:11:36Z</time>
      </trkpt>
      <trkpt lat="45.17466" lon="6.0891">
        <ele>1707</ele>
        <time>2024-06-04T23:11:42Z</time>
      </trkpt>
      <trkpt lat="45.17457" lon="6.08899">
        <ele>1707</ele>
        <time>2024-06-04T23:11:44Z</time>
      </trkpt>
      <trkpt lat="45.17421" lon="6.08872">
        <ele>1702</ele>
        <time>2024-06-04T23:11:51Z</time>
      </trkpt>
      <trkpt lat="45.17415" lon="6.08862">
        <ele>1701</ele>
        <time>2024-06-04T23:11:53Z</time>
      </trkpt>
      <trkpt lat="45.17416" lon="6.08853">
        <ele>1703</ele>
        <time>2024-06-04T23:11:54Z</time>
      </trkpt>
      <trkpt lat="45.17421" lon="6.08852">
        <ele>1705</ele>
        <time>2024-06-04T23:11:55Z</time>
      </trkpt>
      <trkpt lat="45.17425" lon="6.08854">
        <ele>1706</ele>
        <time>2024-06-04T23:11:56Z</time>
      </trkpt>
      <trkpt lat="45.17435" lon="6.08865">
        <ele>1708</ele>
        <time>2024-06-04T23:11:58Z</time>
      </trkpt>
      <trkpt lat="45.17448" lon="6.08871">
        <ele>1711</ele>
        <time>2024-06-04T23:12:00Z</time>
      </trkpt>
      <trkpt lat="45.17466" lon="6.08877">
        <ele>1716</ele>
        <time>2024-06-04T23:12:04Z</time>
      </trkpt>
      <trkpt lat="45.17502" lon="6.08884">
        <ele>1725</ele>
        <time>2024-06-04T23:12:10Z</time>
      </trkpt>
      <trkpt lat="45.17527" lon="6.08893">
        <ele>1724</ele>
        <time>2024-06-04T23:12:15Z</time>
      </trkpt>
      <trkpt lat="45.17538" lon="6.08891">
        <ele>1725</ele>
        <time>2024-06-04T23:12:17Z</time>
      </trkpt>
      <trkpt lat="45.17547" lon="6.08886">
        <ele>1728</ele>
        <time>2024-06-04T23:12:19Z</time>
      </trkpt>
      <trkpt lat="45.17561" lon="6.08873">
        <ele>1734</ele>
        <time>2024-06-04T23:12:21Z</time>
      </trkpt>
      <trkpt lat="45.17568" lon="6.08869">
        <ele>1736</ele>
        <time>2024-06-04T23:12:23Z</time>
      </trkpt>
      <trkpt lat="45.17573" lon="6.08869">
        <ele>1736</ele>
        <time>2024-06-04T23:12:24Z</time>
      </trkpt>
      <trkpt lat="45.17581" lon="6.08871">
        <ele>1736</ele>
        <time>2024-06-04T23:12:25Z</time>
      </trkpt>
      <trkpt lat="45.17596" lon="6.08891">
        <ele>1734</ele>
        <time>2024-06-04T23:12:29Z</time>
      </trkpt>
      <trkpt lat="45.17621" lon="6.08929">
        <ele>1730</ele>
        <time>2024-06-04T23:12:35Z</time>
      </trkpt>
      <trkpt lat="45.17627" lon="6.08935">
        <ele>1730</ele>
        <time>2024-06-04T23:12:37Z</time>
      </trkpt>
      <trkpt lat="45.17632" lon="6.08937">
        <ele>1731</ele>
        <time>2024-06-04T23:12:38Z</time>
      </trkpt>
      <trkpt lat="45.17657" lon="6.08932">
        <ele>1741</ele>
        <time>2024-06-04T23:12:42Z</time>
      </trkpt>
      <trkpt lat="45.17662" lon="6.08933">
        <ele>1742</ele>
        <time>2024-06-04T23:12:43Z</time>
      </trkpt>
      <trkpt lat="45.17669" lon="6.08937">
        <ele>1743</ele>
        <time>2024-06-04T23:12:44Z</time>
      </trkpt>
      <trkpt lat="45.17675" lon="6.08946">
        <ele>1742</ele>
        <time>2024-06-04T23:12:46Z</time>
      </trkpt>
      <trkpt lat="45.17687" lon="6.08968">
        <ele>1737</ele>
        <time>2024-06-04T23:12:49Z</time>
      </trkpt>
      <trkpt lat="45.1769" lon="6.0897">
        <ele>1737</ele>
        <time>2024-06-04T23:12:50Z</time>
      </trkpt>
      <trkpt lat="45.17711" lon="6.08974">
        <ele>1743</ele>
        <time>2024-06-04T23:12:54Z</time>
      </trkpt>
      <trkpt lat="45.17727" lon="6.08986">
        <ele>1744</ele>
        <time>2024-06-04T23:12:57Z</time>
      </trkpt>
      <trkpt lat="45.17765" lon="6.09002">
        <ele>1751</ele>
        <time>2024-06-04T23:13:04Z</time>
      </trkpt>
      <trkpt lat="45.17802" lon="6.09024">
        <ele>1755</ele>
        <time>2024-06-04T23:13:11Z</time>
      </trkpt>
      <trkpt lat="45.17838" lon="6.0904">
        <ele>1763</ele>
        <time>2024-06-04T23:13:18Z</time>
      </trkpt>
      <trkpt lat="45.17861" lon="6.09049">
        <ele>1768</ele>
        <time>2024-06-04T23:13:22Z</time>
      </trkpt>
      <trkpt lat="45.17876" lon="6.09061">
        <ele>1769</ele>
        <time>2024-06-04T23:13:25Z</time>
      </trkpt>
      <trkpt lat="45.17891" lon="6.09068">
        <ele>1772</ele>
        <time>2024-06-04T23:13:28Z</time>
      </trkpt>
      <trkpt lat="45.17898" lon="6.09076">
        <ele>1772</ele>
        <time>2024-06-04T23:13:30Z</time>
      </trkpt>
      <trkpt lat="45.17912" lon="6.09096">
        <ele>1771</ele>
        <time>2024-06-04T23:13:33Z</time>
      </trkpt>
      <trkpt lat="45.17925" lon="6.09109">
        <ele>1772</ele>
        <time>2024-06-04T23:13:36Z</time>
      </trkpt>
      <trkpt lat="45.17957" lon="6.09125">
        <ele>1778</ele>
        <time>2024-06-04T23:13:42Z</time>
      </trkpt>
      <trkpt lat="45.17975" lon="6.0914">
        <ele>1780</ele>
        <time>2024-06-04T23:13:46Z</time>
      </trkpt>
      <trkpt lat="45.1799" lon="6.09163">
        <ele>1779</ele>
        <time>2024-06-04T23:13:50Z</time>
      </trkpt>
      <trkpt lat="45.18015" lon="6.09211">
        <ele>1782</ele>
        <time>2024-06-04T23:13:57Z</time>
      </trkpt>
      <trkpt lat="45.18018" lon="6.09222">
        <ele>1782</ele>
        <time>2024-06-04T23:13:59Z</time>
      </trkpt>
      <trkpt lat="45.18017" lon="6.09259">
        <ele>1777</ele>
        <time>2024-06-04T23:14:03Z</time>
      </trkpt>
      <trkpt lat="45.18019" lon="6.0927">
        <ele>1776</ele>
        <time>2024-06-04T23:14:05Z</time>
      </trkpt>
      <trkpt lat="45.18029" lon="6.09299">
        <ele>1777</ele>
        <time>2024-06-04T23:14:09Z</time>
      </trkpt>
      <trkpt lat="45.18039" lon="6.09316">
        <ele>1779</ele>
        <time>2024-06-04T23:14:11Z</time>
      </trkpt>
      <trkpt lat="45.18052" lon="6.09331">
        <ele>1782</ele>
        <time>2024-06-04T23:14:14Z</time>
      </trkpt>
      <trkpt lat="45.18063" lon="6.09338">
        <ele>1785</ele>
        <time>2024-06-04T23:14:17Z</time>
      </trkpt>
      <trkpt lat="45.18092" lon="6.0935">
        <ele>1793</ele>
        <time>2024-06-04T23:14:22Z</time>
      </trkpt>
      <trkpt lat="45.18113" lon="6.09361">
        <ele>1798</ele>
        <time>2024-06-04T23:14:26Z</time>
      </trkpt>
      <trkpt lat="45.18127" lon="6.09375">
        <ele>1800</ele>
        <time>2024-06-04T23:14:29Z</time>
      </trkpt>
      <trkpt lat="45.18145" lon="6.09402">
        <ele>1801</ele>
        <time>2024-06-04T23:14:34Z</time>
      </trkpt>
      <trkpt lat="45.18199" lon="6.09468">
        <ele>1806</ele>
        <time>2024-06-04T23:14:46Z</time>
      </trkpt>
      <trkpt lat="45.18243" lon="6.09499">
        <ele>1813</ele>
        <time>2024-06-04T23:14:55Z</time>
      </trkpt>
      <trkpt lat="45.18249" lon="6.09505">
        <ele>1815</ele>
        <time>2024-06-04T23:14:56Z</time>
      </trkpt>
      <trkpt lat="45.18251" lon="6.09514">
        <ele>1815</ele>
        <time>2024-06-04T23:14:58Z</time>
      </trkpt>
      <trkpt lat="45.1825" lon="6.09524">
        <ele>1815</ele>
        <time>2024-06-04T23:14:59Z</time>
      </trkpt>
      <trkpt lat="45.18243" lon="6.09545">
        <ele>1813</ele>
        <time>2024-06-04T23:15:02Z</time>
      </trkpt>
      <trkpt lat="45.18241" lon="6.09559">
        <ele>1812</ele>
        <time>2024-06-04T23:15:04Z</time>
      </trkpt>
      <trkpt lat="45.18243" lon="6.09576">
        <ele>1813</ele>
        <time>2024-06-04T23:15:06Z</time>
      </trkpt>
      <trkpt lat="45.18249" lon="6.09604">
        <ele>1817</ele>
        <time>2024-06-04T23:15:09Z</time>
      </trkpt>
      <trkpt lat="45.18245" lon="6.09627">
        <ele>1818</ele>
        <time>2024-06-04T23:15:12Z</time>
      </trkpt>
      <trkpt lat="45.18237" lon="6.09658">
        <ele>1818</ele>
        <time>2024-06-04T23:15:16Z</time>
      </trkpt>
      <trkpt lat="45.18239" lon="6.09711">
        <ele>1826</ele>
        <time>2024-06-04T23:15:23Z</time>
      </trkpt>
      <trkpt lat="45.18226" lon="6.09764">
        <ele>1832</ele>
        <time>2024-06-04T23:15:30Z</time>
      </trkpt>
      <trkpt lat="45.18225" lon="6.09794">
        <ele>1836</ele>
        <time>2024-06-04T23:15:34Z</time>
      </trkpt>
      <trkpt lat="45.18225" lon="6.0983">
        <ele>1842</ele>
        <time>2024-06-04T23:15:38Z</time>
      </trkpt>
      <trkpt lat="45.18225" lon="6.09854">
        <ele>1848</ele>
        <time>2024-06-04T23:15:41Z</time>
      </trkpt>
      <trkpt lat="45.18219" lon="6.09864">
        <ele>1851</ele>
        <time>2024-06-04T23:15:43Z</time>
      </trkpt>
      <trkpt lat="45.18206" lon="6.09864">
        <ele>1851</ele>
        <time>2024-06-04T23:15:45Z</time>
      </trkpt>
      <trkpt lat="45.18186" lon="6.09844">
        <ele>1846</ele>
        <time>2024-06-04T23:15:50Z</time>
      </trkpt>
      <trkpt lat="45.18156" lon="6.09829">
        <ele>1843</ele>
        <time>2024-06-04T23:15:55Z</time>
      </trkpt>
      <trkpt lat="45.1813" lon="6.09819">
        <ele>1843</ele>
        <time>2024-06-04T23:16:00Z</time>
      </trkpt>
      <trkpt lat="45.18101" lon="6.09816">
        <ele>1846</ele>
        <time>2024-06-04T23:16:05Z</time>
      </trkpt>
      <trkpt lat="45.18036" lon="6.09802">
        <ele>1841</ele>
        <time>2024-06-04T23:16:17Z</time>
      </trkpt>
      <trkpt lat="45.17999" lon="6.098">
        <ele>1839</ele>
        <time>2024-06-04T23:16:24Z</time>
      </trkpt>
      <trkpt lat="45.1799" lon="6.09812">
        <ele>1836</ele>
        <time>2024-06-04T23:16:26Z</time>
      </trkpt>
      <trkpt lat="45.18" lon="6.09839">
        <ele>1844</ele>
        <time>2024-06-04T23:16:30Z</time>
      </trkpt>
      <trkpt lat="45.18003" lon="6.09866">
        <ele>1846</ele>
        <time>2024-06-04T23:16:33Z</time>
      </trkpt>
      <trkpt lat="45.18012" lon="6.09896">
        <ele>1850</ele>
        <time>2024-06-04T23:16:37Z</time>
      </trkpt>
      <trkpt lat="45.18023" lon="6.09949">
        <ele>1860</ele>
        <time>2024-06-04T23:16:44Z</time>
      </trkpt>
      <trkpt lat="45.18025" lon="6.09978">
        <ele>1866</ele>
        <time>2024-06-04T23:16:48Z</time>
      </trkpt>
      <trkpt lat="45.18037" lon="6.09977">
        <ele>1870</ele>
        <time>2024-06-04T23:16:50Z</time>
      </trkpt>
      <trkpt lat="45.1804" lon="6.09968">
        <ele>1870</ele>
        <time>2024-06-04T23:16:51Z</time>
      </trkpt>
      <trkpt lat="45.18033" lon="6.09932">
        <ele>1861</ele>
        <time>2024-06-04T23:16:56Z</time>
      </trkpt>
      <trkpt lat="45.18024" lon="6.09899">
        <ele>1854</ele>
        <time>2024-06-04T23:17:00Z</time>
      </trkpt>
      <trkpt lat="45.18031" lon="6.0988">
        <ele>1854</ele>
        <time>2024-06-04T23:17:03Z</time>
      </trkpt>
      <trkpt lat="45.18054" lon="6.09874">
        <ele>1858</ele>
        <time>2024-06-04T23:17:07Z</time>
      </trkpt>
      <trkpt lat="45.18083" lon="6.0988">
        <ele>1867</ele>
        <time>2024-06-04T23:17:12Z</time>
      </trkpt>
      <trkpt lat="45.1812" lon="6.09909">
        <ele>1872</ele>
        <time>2024-06-04T23:17:20Z</time>
      </trkpt>
      <trkpt lat="45.18158" lon="6.09964">
        <ele>1889</ele>
        <time>2024-06-04T23:17:30Z</time>
      </trkpt>
      <trkpt lat="45.18184" lon="6.09964">
        <ele>1886</ele>
        <time>2024-06-04T23:17:34Z</time>
      </trkpt>
      <trkpt lat="45.18201" lon="6.09979">
        <ele>1889</ele>
        <time>2024-06-04T23:17:38Z</time>
      </trkpt>
      <trkpt lat="45.18238" lon="6.10025">
        <ele>1897</ele>
        <time>2024-06-04T23:17:47Z</time>
      </trkpt>
      <trkpt lat="45.18257" lon="6.10066">
        <ele>1908</ele>
        <time>2024-06-04T23:17:53Z</time>
      </trkpt>
      <trkpt lat="45.18275" lon="6.10095">
        <ele>1911</ele>
        <time>2024-06-04T23:17:58Z</time>
      </trkpt>
      <trkpt lat="45.18288" lon="6.10124">
        <ele>1913</ele>
        <time>2024-06-04T23:18:02Z</time>
      </trkpt>
      <trkpt lat="45.18293" lon="6.10131">
        <ele>1914</ele>
        <time>2024-06-04T23:18:03Z</time>
      </trkpt>
      <trkpt lat="45.1831" lon="6.10135">
        <ele>1910</ele>
        <time>2024-06-04T23:18:06Z</time>
      </trkpt>
      <trkpt lat="45.18372" lon="6.10201">
        <ele>1925</ele>
        <time>2024-06-04T23:18:20Z</time>
      </trkpt>
      <trkpt lat="45.18401" lon="6.10224">
        <ele>1931</ele>
        <time>2024-06-04T23:18:26Z</time>
      </trkpt>
      <trkpt lat="45.18435" lon="6.10218">
        <ele>1934</ele>
        <time>2024-06-04T23:18:32Z</time>
      </trkpt>
      <trkpt lat="45.18436" lon="6.10234">
        <ele>1938</ele>
        <time>2024-06-04T23:18:34Z</time>
      </trkpt>
      <trkpt lat="45.1842" lon="6.10245">
        <ele>1935</ele>
        <time>2024-06-04T23:18:37Z</time>
      </trkpt>
      <trkpt lat="45.18403" lon="6.10244">
        <ele>1936</ele>
        <time>2024-06-04T23:18:40Z</time>
      </trkpt>
      <trkpt lat="45.18352" lon="6.10227">
        <ele>1937</ele>
        <time>2024-06-04T23:18:49Z</time>
      </trkpt>
      <trkpt lat="45.18316" lon="6.10209">
        <ele>1932</ele>
        <time>2024-06-04T23:18:56Z</time>
      </trkpt>
      <trkpt lat="45.18307" lon="6.10206">
        <ele>1932</ele>
        <time>2024-06-04T23:18:58Z</time>
      </trkpt>
      <trkpt lat="45.18299" lon="6.10208">
        <ele>1934</ele>
        <time>2024-06-04T23:18:59Z</time>
      </trkpt>
      <trkpt lat="45.18279" lon="6.10222">
        <ele>1940</ele>
        <time>2024-06-04T23:19:03Z</time>
      </trkpt>
      <trkpt lat="45.18249" lon="6.10232">
        <ele>1944</ele>
        <time>2024-06-04T23:19:09Z</time>
      </trkpt>
      <trkpt lat="45.18235" lon="6.10246">
        <ele>1947</ele>
        <time>2024-06-04T23:19:12Z</time>
      </trkpt>
      <trkpt lat="45.18226" lon="6.10252">
        <ele>1949</ele>
        <time>2024-06-04T23:19:14Z</time>
      </trkpt>
      <trkpt lat="45.18201" lon="6.10257">
        <ele>1951</ele>
        <time>2024-06-04T23:19:18Z</time>
      </trkpt>
      <trkpt lat="45.18176" lon="6.10254">
        <ele>1952</ele>
        <time>2024-06-04T23:19:23Z</time>
      </trkpt>
      <trkpt lat="45.18139" lon="6.10264">
        <ele>1957</ele>
        <time>2024-06-04T23:19:29Z</time>
      </trkpt>
      <trkpt lat="45.1813" lon="6.10272">
        <ele>1960</ele>
        <time>2024-06-04T23:19:31Z</time>
      </trkpt>
      <trkpt lat="45.18138" lon="6.10284">
        <ele>1963</ele>
        <time>2024-06-04T23:19:33Z</time>
      </trkpt>
      <trkpt lat="45.18157" lon="6.10272">
        <ele>1958</ele>
        <time>2024-06-04T23:19:37Z</time>
      </trkpt>
      <trkpt lat="45.18175" lon="6.10277">
        <ele>1958</ele>
        <time>2024-06-04T23:19:40Z</time>
      </trkpt>
      <trkpt lat="45.18192" lon="6.1029">
        <ele>1960</ele>
        <time>2024-06-04T23:19:44Z</time>
      </trkpt>
      <trkpt lat="45.18228" lon="6.10327">
        <ele>1967</ele>
        <time>2024-06-04T23:19:52Z</time>
      </trkpt>
      <trkpt lat="45.18251" lon="6.1034">
        <ele>1968</ele>
        <time>2024-06-04T23:19:56Z</time>
      </trkpt>
      <trkpt lat="45.1826" lon="6.10354">
        <ele>1973</ele>
        <time>2024-06-04T23:19:58Z</time>
      </trkpt>
      <trkpt lat="45.18273" lon="6.10356">
        <ele>1975</ele>
        <time>2024-06-04T23:20:01Z</time>
      </trkpt>
      <trkpt lat="45.1829" lon="6.10351">
        <ele>1975</ele>
        <time>2024-06-04T23:20:04Z</time>
      </trkpt>
      <trkpt lat="45.18313" lon="6.10365">
        <ele>1982</ele>
        <time>2024-06-04T23:20:08Z</time>
      </trkpt>
      <trkpt lat="45.18322" lon="6.10374">
        <ele>1985</ele>
        <time>2024-06-04T23:20:10Z</time>
      </trkpt>
      <trkpt lat="45.18332" lon="6.1038">
        <ele>1988</ele>
        <time>2024-06-04T23:20:12Z</time>
      </trkpt>
      <trkpt lat="45.18351" lon="6.10384">
        <ele>1988</ele>
        <time>2024-06-04T23:20:15Z</time>
      </trkpt>
      <trkpt lat="45.18359" lon="6.10383">
        <ele>1988</ele>
        <time>2024-06-04T23:20:17Z</time>
      </trkpt>
      <trkpt lat="45.18363" lon="6.1038">
        <ele>1987</ele>
        <time>2024-06-04T23:20:18Z</time>
      </trkpt>
      <trkpt lat="45.18378" lon="6.10361">
        <ele>1980</ele>
        <time>2024-06-04T23:20:21Z</time>
      </trkpt>
      <trkpt lat="45.18385" lon="6.1036">
        <ele>1979</ele>
        <time>2024-06-04T23:20:23Z</time>
      </trkpt>
      <trkpt lat="45.18391" lon="6.10361">
        <ele>1979</ele>
        <time>2024-06-04T23:20:24Z</time>
      </trkpt>
      <trkpt lat="45.18413" lon="6.1038">
        <ele>1985</ele>
        <time>2024-06-04T23:20:28Z</time>
      </trkpt>
      <trkpt lat="45.18432" lon="6.10392">
        <ele>1991</ele>
        <time>2024-06-04T23:20:32Z</time>
      </trkpt>
      <trkpt lat="45.18449" lon="6.10402">
        <ele>1996</ele>
        <time>2024-06-04T23:20:35Z</time>
      </trkpt>
      <trkpt lat="45.18466" lon="6.1041">
        <ele>2001</ele>
        <time>2024-06-04T23:20:38Z</time>
      </trkpt>
      <trkpt lat="45.18481" lon="6.1041">
        <ele>2003</ele>
        <time>2024-06-04T23:20:41Z</time>
      </trkpt>
      <trkpt lat="45.18496" lon="6.10405">
        <ele>2003</ele>
        <time>2024-06-04T23:20:44Z</time>
      </trkpt>
      <trkpt lat="45.18503" lon="6.10399">
        <ele>2001</ele>
        <time>2024-06-04T23:20:45Z</time>
      </trkpt>
      <trkpt lat="45.18509" lon="6.10393">
        <ele>2000</ele>
        <time>2024-06-04T23:20:47Z</time>
      </trkpt>
      <trkpt lat="45.1852" lon="6.10369">
        <ele>1994</ele>
        <time>2024-06-04T23:20:50Z</time>
      </trkpt>
      <trkpt lat="45.18532" lon="6.10352">
        <ele>1990</ele>
        <time>2024-06-04T23:20:53Z</time>
      </trkpt>
      <trkpt lat="45.18537" lon="6.10351">
        <ele>1990</ele>
        <time>2024-06-04T23:20:54Z</time>
      </trkpt>
      <trkpt lat="45.18541" lon="6.10352">
        <ele>1991</ele>
        <time>2024-06-04T23:20:55Z</time>
      </trkpt>
      <trkpt lat="45.18544" lon="6.1036">
        <ele>1994</ele>
        <time>2024-06-04T23:20:56Z</time>
      </trkpt>
      <trkpt lat="45.18543" lon="6.10366">
        <ele>1996</ele>
        <time>2024-06-04T23:20:57Z</time>
      </trkpt>
      <trkpt lat="45.18532" lon="6.10378">
        <ele>1999</ele>
        <time>2024-06-04T23:20:59Z</time>
      </trkpt>
      <trkpt lat="45.18513" lon="6.10422">
        <ele>2011</ele>
        <time>2024-06-04T23:21:06Z</time>
      </trkpt>
      <trkpt lat="45.185" lon="6.10439">
        <ele>2014</ele>
        <time>2024-06-04T23:21:09Z</time>
      </trkpt>
      <trkpt lat="45.1849" lon="6.10446">
        <ele>2016</ele>
        <time>2024-06-04T23:21:11Z</time>
      </trkpt>
      <trkpt lat="45.1848" lon="6.10449">
        <ele>2016</ele>
        <time>2024-06-04T23:21:13Z</time>
      </trkpt>
      <trkpt lat="45.1846" lon="6.10451">
        <ele>2014</ele>
        <time>2024-06-04T23:21:16Z</time>
      </trkpt>
      <trkpt lat="45.18444" lon="6.10446">
        <ele>2011</ele>
        <time>2024-06-04T23:21:19Z</time>
      </trkpt>
      <trkpt lat="45.1844" lon="6.10449">
        <ele>2012</ele>
        <time>2024-06-04T23:21:20Z</time>
      </trkpt>
      <trkpt lat="45.18427" lon="6.10476">
        <ele>2020</ele>
        <time>2024-06-04T23:21:24Z</time>
      </trkpt>
      <trkpt lat="45.18422" lon="6.10481">
        <ele>2021</ele>
        <time>2024-06-04T23:21:25Z</time>
      </trkpt>
      <trkpt lat="45.18406" lon="6.10483">
        <ele>2021</ele>
        <time>2024-06-04T23:21:28Z</time>
      </trkpt>
      <trkpt lat="45.18384" lon="6.105">
        <ele>2025</ele>
        <time>2024-06-04T23:21:32Z</time>
      </trkpt>
      <trkpt lat="45.18377" lon="6.10502">
        <ele>2026</ele>
        <time>2024-06-04T23:21:34Z</time>
      </trkpt>
      <trkpt lat="45.18356" lon="6.10494">
        <ele>2022</ele>
        <time>2024-06-04T23:21:38Z</time>
      </trkpt>
      <trkpt lat="45.18351" lon="6.105">
        <ele>2024</ele>
        <time>2024-06-04T23:21:39Z</time>
      </trkpt>
      <trkpt lat="45.1835" lon="6.10505">
        <ele>2025</ele>
        <time>2024-06-04T23:21:39Z</time>
      </trkpt>
      <trkpt lat="45.18352" lon="6.10512">
        <ele>2027</ele>
        <time>2024-06-04T23:21:40Z</time>
      </trkpt>
      <trkpt lat="45.18358" lon="6.10515">
        <ele>2028</ele>
        <time>2024-06-04T23:21:41Z</time>
      </trkpt>
      <trkpt lat="45.18376" lon="6.10518">
        <ele>2030</ele>
        <time>2024-06-04T23:21:45Z</time>
      </trkpt>
      <trkpt lat="45.1839" lon="6.10525">
        <ele>2032</ele>
        <time>2024-06-04T23:21:47Z</time>
      </trkpt>
      <trkpt lat="45.18409" lon="6.10523">
        <ele>2032</ele>
        <time>2024-06-04T23:21:51Z</time>
      </trkpt>
      <trkpt lat="45.18434" lon="6.10533">
        <ele>2036</ele>
        <time>2024-06-04T23:21:55Z</time>
      </trkpt>
      <trkpt lat="45.18463" lon="6.10541">
        <ele>2040</ele>
        <time>2024-06-04T23:22:01Z</time>
      </trkpt>
      <trkpt lat="45.18469" lon="6.1054">
        <ele>2040</ele>
        <time>2024-06-04T23:22:02Z</time>
      </trkpt>
      <trkpt lat="45.18479" lon="6.10527">
        <ele>2038</ele>
        <time>2024-06-04T23:22:04Z</time>
      </trkpt>
      <trkpt lat="45.18486" lon="6.10521">
        <ele>2037</ele>
        <time>2024-06-04T23:22:05Z</time>
      </trkpt>
      <trkpt lat="45.18492" lon="6.10521">
        <ele>2037</ele>
        <time>2024-06-04T23:22:07Z</time>
      </trkpt>
      <trkpt lat="45.18514" lon="6.10525">
        <ele>2041</ele>
        <time>2024-06-04T23:22:10Z</time>
      </trkpt>
      <trkpt lat="45.18535" lon="6.10535">
        <ele>2047</ele>
        <time>2024-06-04T23:22:14Z</time>
      </trkpt>
      <trkpt lat="45.18545" lon="6.10536">
        <ele>2049</ele>
        <time>2024-06-04T23:22:16Z</time>
      </trkpt>
      <trkpt lat="45.18554" lon="6.10532">
        <ele>2049</ele>
        <time>2024-06-04T23:22:18Z</time>
      </trkpt>
      <trkpt lat="45.18583" lon="6.10513">
        <ele>2050</ele>
        <time>2024-06-04T23:22:24Z</time>
      </trkpt>
      <trkpt lat="45.18594" lon="6.10508">
        <ele>2049</ele>
        <time>2024-06-04T23:22:26Z</time>
      </trkpt>
      <trkpt lat="45.18618" lon="6.10508">
        <ele>2049</ele>
        <time>2024-06-04T23:22:30Z</time>
      </trkpt>
      <trkpt lat="45.18634" lon="6.10515">
        <ele>2051</ele>
        <time>2024-06-04T23:22:33Z</time>
      </trkpt>
      <trkpt lat="45.18682" lon="6.10542">
        <ele>2058</ele>
        <time>2024-06-04T23:22:42Z</time>
      </trkpt>
      <trkpt lat="45.18712" lon="6.10568">
        <ele>2062</ele>
        <time>2024-06-04T23:22:48Z</time>
      </trkpt>
      <trkpt lat="45.18728" lon="6.10585">
        <ele>2064</ele>
        <time>2024-06-04T23:22:52Z</time>
      </trkpt>
      <trkpt lat="45.18744" lon="6.10597">
        <ele>2068</ele>
        <time>2024-06-04T23:22:55Z</time>
      </trkpt>
      <trkpt lat="45.18772" lon="6.10614">
        <ele>2076</ele>
        <time>2024-06-04T23:23:01Z</time>
      </trkpt>
      <trkpt lat="45.18838" lon="6.10668">
        <ele>2086</ele>
        <time>2024-06-04T23:23:14Z</time>
      </trkpt>
      <trkpt lat="45.18857" lon="6.1069">
        <ele>2096</ele>
        <time>2024-06-04T23:23:18Z</time>
      </trkpt>
      <trkpt lat="45.18906" lon="6.10738">
        <ele>2101</ele>
        <time>2024-06-04T23:23:29Z</time>
      </trkpt>
      <trkpt lat="45.18918" lon="6.10757">
        <ele>2100</ele>
        <time>2024-06-04T23:23:32Z</time>
      </trkpt>
      <trkpt lat="45.1894" lon="6.10799">
        <ele>2108</ele>
        <time>2024-06-04T23:23:39Z</time>
      </trkpt>
      <trkpt lat="45.18959" lon="6.10821">
        <ele>2109</ele>
        <time>2024-06-04T23:23:43Z</time>
      </trkpt>
      <trkpt lat="45.18979" lon="6.10839">
        <ele>2108</ele>
        <time>2024-06-04T23:23:47Z</time>
      </trkpt>
      <trkpt lat="45.18991" lon="6.10847">
        <ele>2108</ele>
        <time>2024-06-04T23:23:50Z</time>
      </trkpt>
      <trkpt lat="45.18979" lon="6.10839">
        <ele>2108</ele>
        <time>2024-06-04T23:23:52Z</time>
      </trkpt>
      <trkpt lat="45.18959" lon="6.10821">
        <ele>2109</ele>
        <time>2024-06-04T23:23:56Z</time>
      </trkpt>
      <trkpt lat="45.1894" lon="6.10799">
        <ele>2108</ele>
        <time>2024-06-04T23:24:01Z</time>
      </trkpt>
      <trkpt lat="45.18918" lon="6.10757">
        <ele>2100</ele>
        <time>2024-06-04T23:24:07Z</time>
      </trkpt>
      <trkpt lat="45.18906" lon="6.10738">
        <ele>2101</ele>
        <time>2024-06-04T23:24:10Z</time>
      </trkpt>
      <trkpt lat="45.18857" lon="6.1069">
        <ele>2096</ele>
        <time>2024-06-04T23:24:21Z</time>
      </trkpt>
      <trkpt lat="45.18838" lon="6.10668">
        <ele>2086</ele>
        <time>2024-06-04T23:24:25Z</time>
      </trkpt>
      <trkpt lat="45.18772" lon="6.10614">
        <ele>2076</ele>
        <time>2024-06-04T23:24:39Z</time>
      </trkpt>
      <trkpt lat="45.18744" lon="6.10597">
        <ele>2068</ele>
        <time>2024-06-04T23:24:44Z</time>
      </trkpt>
      <trkpt lat="45.18728" lon="6.10585">
        <ele>2064</ele>
        <time>2024-06-04T23:24:48Z</time>
      </trkpt>
      <trkpt lat="45.18712" lon="6.10568">
        <ele>2062</ele>
        <time>2024-06-04T23:24:51Z</time>
      </trkpt>
      <trkpt lat="45.18682" lon="6.10542">
        <ele>2058</ele>
        <time>2024-06-04T23:24:57Z</time>
      </trkpt>
      <trkpt lat="45.18634" lon="6.10515">
        <ele>2051</ele>
        <time>2024-06-04T23:25:07Z</time>
      </trkpt>
      <trkpt lat="45.18618" lon="6.10508">
        <ele>2049</ele>
        <time>2024-06-04T23:25:10Z</time>
      </trkpt>
      <trkpt lat="45.18594" lon="6.10508">
        <ele>2049</ele>
        <time>2024-06-04T23:25:14Z</time>
      </trkpt>
      <trkpt lat="45.18583" lon="6.10513">
        <ele>2050</ele>
        <time>2024-06-04T23:25:16Z</time>
      </trkpt>
      <trkpt lat="45.18554" lon="6.10532">
        <ele>2049</ele>
        <time>2024-06-04T23:25:22Z</time>
      </trkpt>
      <trkpt lat="45.18545" lon="6.10536">
        <ele>2049</ele>
        <time>2024-06-04T23:25:23Z</time>
      </trkpt>
      <trkpt lat="45.18535" lon="6.10535">
        <ele>2047</ele>
        <time>2024-06-04T23:25:25Z</time>
      </trkpt>
      <trkpt lat="45.18514" lon="6.10525">
        <ele>2041</ele>
        <time>2024-06-04T23:25:29Z</time>
      </trkpt>
      <trkpt lat="45.18492" lon="6.10521">
        <ele>2037</ele>
        <time>2024-06-04T23:25:33Z</time>
      </trkpt>
      <trkpt lat="45.18486" lon="6.10521">
        <ele>2037</ele>
        <time>2024-06-04T23:25:34Z</time>
      </trkpt>
      <trkpt lat="45.18479" lon="6.10527">
        <ele>2038</ele>
        <time>2024-06-04T23:25:35Z</time>
      </trkpt>
      <trkpt lat="45.18469" lon="6.1054">
        <ele>2040</ele>
        <time>2024-06-04T23:25:38Z</time>
      </trkpt>
      <trkpt lat="45.18463" lon="6.10541">
        <ele>2040</ele>
        <time>2024-06-04T23:25:39Z</time>
      </trkpt>
      <trkpt lat="45.18434" lon="6.10533">
        <ele>2036</ele>
        <time>2024-06-04T23:25:44Z</time>
      </trkpt>
      <trkpt lat="45.18409" lon="6.10523">
        <ele>2032</ele>
        <time>2024-06-04T23:25:49Z</time>
      </trkpt>
      <trkpt lat="45.1839" lon="6.10525">
        <ele>2032</ele>
        <time>2024-06-04T23:25:52Z</time>
      </trkpt>
      <trkpt lat="45.18376" lon="6.10518">
        <ele>2030</ele>
        <time>2024-06-04T23:25:55Z</time>
      </trkpt>
      <trkpt lat="45.18358" lon="6.10515">
        <ele>2028</ele>
        <time>2024-06-04T23:25:58Z</time>
      </trkpt>
      <trkpt lat="45.18352" lon="6.10512">
        <ele>2027</ele>
        <time>2024-06-04T23:25:59Z</time>
      </trkpt>
      <trkpt lat="45.1835" lon="6.10505">
        <ele>2025</ele>
        <time>2024-06-04T23:26:00Z</time>
      </trkpt>
      <trkpt lat="45.18351" lon="6.105">
        <ele>2024</ele>
        <time>2024-06-04T23:26:01Z</time>
      </trkpt>
      <trkpt lat="45.18356" lon="6.10494">
        <ele>2022</ele>
        <time>2024-06-04T23:26:02Z</time>
      </trkpt>
      <trkpt lat="45.18377" lon="6.10502">
        <ele>2026</ele>
        <time>2024-06-04T23:26:06Z</time>
      </trkpt>
      <trkpt lat="45.18384" lon="6.105">
        <ele>2025</ele>
        <time>2024-06-04T23:26:07Z</time>
      </trkpt>
      <trkpt lat="45.18406" lon="6.10483">
        <ele>2021</ele>
        <time>2024-06-04T23:26:12Z</time>
      </trkpt>
      <trkpt lat="45.18422" lon="6.10481">
        <ele>2021</ele>
        <time>2024-06-04T23:26:14Z</time>
      </trkpt>
      <trkpt lat="45.18427" lon="6.10476">
        <ele>2020</ele>
        <time>2024-06-04T23:26:16Z</time>
      </trkpt>
      <trkpt lat="45.1844" lon="6.10449">
        <ele>2012</ele>
        <time>2024-06-04T23:26:20Z</time>
      </trkpt>
      <trkpt lat="45.18444" lon="6.10446">
        <ele>2011</ele>
        <time>2024-06-04T23:26:20Z</time>
      </trkpt>
      <trkpt lat="45.1846" lon="6.10451">
        <ele>2014</ele>
        <time>2024-06-04T23:26:23Z</time>
      </trkpt>
      <trkpt lat="45.1848" lon="6.10449">
        <ele>2016</ele>
        <time>2024-06-04T23:26:27Z</time>
      </trkpt>
      <trkpt lat="45.1849" lon="6.10446">
        <ele>2016</ele>
        <time>2024-06-04T23:26:29Z</time>
      </trkpt>
      <trkpt lat="45.185" lon="6.10439">
        <ele>2014</ele>
        <time>2024-06-04T23:26:31Z</time>
      </trkpt>
      <trkpt lat="45.18513" lon="6.10422">
        <ele>2011</ele>
        <time>2024-06-04T23:26:34Z</time>
      </trkpt>
      <trkpt lat="45.18532" lon="6.10378">
        <ele>1999</ele>
        <time>2024-06-04T23:26:40Z</time>
      </trkpt>
      <trkpt lat="45.18543" lon="6.10366">
        <ele>1996</ele>
        <time>2024-06-04T23:26:43Z</time>
      </trkpt>
      <trkpt lat="45.18544" lon="6.1036">
        <ele>1994</ele>
        <time>2024-06-04T23:26:44Z</time>
      </trkpt>
      <trkpt lat="45.18541" lon="6.10352">
        <ele>1991</ele>
        <time>2024-06-04T23:26:45Z</time>
      </trkpt>
      <trkpt lat="45.18537" lon="6.10351">
        <ele>1990</ele>
        <time>2024-06-04T23:26:45Z</time>
      </trkpt>
      <trkpt lat="45.18532" lon="6.10352">
        <ele>1990</ele>
        <time>2024-06-04T23:26:46Z</time>
      </trkpt>
      <trkpt lat="45.1852" lon="6.10369">
        <ele>1994</ele>
        <time>2024-06-04T23:26:49Z</time>
      </trkpt>
      <trkpt lat="45.18509" lon="6.10393">
        <ele>2000</ele>
        <time>2024-06-04T23:26:53Z</time>
      </trkpt>
      <trkpt lat="45.18503" lon="6.10399">
        <ele>2001</ele>
        <time>2024-06-04T23:26:54Z</time>
      </trkpt>
      <trkpt lat="45.18496" lon="6.10405">
        <ele>2003</ele>
        <time>2024-06-04T23:26:56Z</time>
      </trkpt>
      <trkpt lat="45.18481" lon="6.1041">
        <ele>2003</ele>
        <time>2024-06-04T23:26:58Z</time>
      </trkpt>
      <trkpt lat="45.18466" lon="6.1041">
        <ele>2001</ele>
        <time>2024-06-04T23:27:01Z</time>
      </trkpt>
      <trkpt lat="45.18449" lon="6.10402">
        <ele>1996</ele>
        <time>2024-06-04T23:27:04Z</time>
      </trkpt>
      <trkpt lat="45.18432" lon="6.10392">
        <ele>1991</ele>
        <time>2024-06-04T23:27:08Z</time>
      </trkpt>
      <trkpt lat="45.18413" lon="6.1038">
        <ele>1985</ele>
        <time>2024-06-04T23:27:11Z</time>
      </trkpt>
      <trkpt lat="45.18391" lon="6.10361">
        <ele>1979</ele>
        <time>2024-06-04T23:27:16Z</time>
      </trkpt>
      <trkpt lat="45.18385" lon="6.1036">
        <ele>1979</ele>
        <time>2024-06-04T23:27:17Z</time>
      </trkpt>
      <trkpt lat="45.18378" lon="6.10361">
        <ele>1980</ele>
        <time>2024-06-04T23:27:18Z</time>
      </trkpt>
      <trkpt lat="45.18363" lon="6.1038">
        <ele>1987</ele>
        <time>2024-06-04T23:27:22Z</time>
      </trkpt>
      <trkpt lat="45.18359" lon="6.10383">
        <ele>1988</ele>
        <time>2024-06-04T23:27:23Z</time>
      </trkpt>
      <trkpt lat="45.18351" lon="6.10384">
        <ele>1988</ele>
        <time>2024-06-04T23:27:24Z</time>
      </trkpt>
      <trkpt lat="45.18332" lon="6.1038">
        <ele>1988</ele>
        <time>2024-06-04T23:27:27Z</time>
      </trkpt>
      <trkpt lat="45.18322" lon="6.10374">
        <ele>1985</ele>
        <time>2024-06-04T23:27:29Z</time>
      </trkpt>
      <trkpt lat="45.18313" lon="6.10365">
        <ele>1982</ele>
        <time>2024-06-04T23:27:31Z</time>
      </trkpt>
      <trkpt lat="45.1829" lon="6.10351">
        <ele>1975</ele>
        <time>2024-06-04T23:27:36Z</time>
      </trkpt>
      <trkpt lat="45.18273" lon="6.10356">
        <ele>1975</ele>
        <time>2024-06-04T23:27:39Z</time>
      </trkpt>
      <trkpt lat="45.1826" lon="6.10354">
        <ele>1973</ele>
        <time>2024-06-04T23:27:41Z</time>
      </trkpt>
      <trkpt lat="45.18251" lon="6.1034">
        <ele>1968</ele>
        <time>2024-06-04T23:27:44Z</time>
      </trkpt>
      <trkpt lat="45.18228" lon="6.10327">
        <ele>1967</ele>
        <time>2024-06-04T23:27:48Z</time>
      </trkpt>
      <trkpt lat="45.18192" lon="6.1029">
        <ele>1960</ele>
        <time>2024-06-04T23:27:56Z</time>
      </trkpt>
      <trkpt lat="45.18175" lon="6.10277">
        <ele>1958</ele>
        <time>2024-06-04T23:27:59Z</time>
      </trkpt>
      <trkpt lat="45.18157" lon="6.10272">
        <ele>1958</ele>
        <time>2024-06-04T23:28:03Z</time>
      </trkpt>
      <trkpt lat="45.18138" lon="6.10284">
        <ele>1963</ele>
        <time>2024-06-04T23:28:06Z</time>
      </trkpt>
      <trkpt lat="45.1813" lon="6.10272">
        <ele>1960</ele>
        <time>2024-06-04T23:28:08Z</time>
      </trkpt>
      <trkpt lat="45.18139" lon="6.10264">
        <ele>1957</ele>
        <time>2024-06-04T23:28:10Z</time>
      </trkpt>
      <trkpt lat="45.18176" lon="6.10254">
        <ele>1952</ele>
        <time>2024-06-04T23:28:17Z</time>
      </trkpt>
      <trkpt lat="45.18201" lon="6.10257">
        <ele>1951</ele>
        <time>2024-06-04T23:28:21Z</time>
      </trkpt>
      <trkpt lat="45.18226" lon="6.10252">
        <ele>1949</ele>
        <time>2024-06-04T23:28:26Z</time>
      </trkpt>
      <trkpt lat="45.18235" lon="6.10246">
        <ele>1947</ele>
        <time>2024-06-04T23:28:28Z</time>
      </trkpt>
      <trkpt lat="45.18249" lon="6.10232">
        <ele>1944</ele>
        <time>2024-06-04T23:28:31Z</time>
      </trkpt>
      <trkpt lat="45.18279" lon="6.10222">
        <ele>1940</ele>
        <time>2024-06-04T23:28:36Z</time>
      </trkpt>
      <trkpt lat="45.18299" lon="6.10208">
        <ele>1934</ele>
        <time>2024-06-04T23:28:40Z</time>
      </trkpt>
      <trkpt lat="45.18307" lon="6.10206">
        <ele>1932</ele>
        <time>2024-06-04T23:28:42Z</time>
      </trkpt>
      <trkpt lat="45.18316" lon="6.10209">
        <ele>1932</ele>
        <time>2024-06-04T23:28:43Z</time>
      </trkpt>
      <trkpt lat="45.18352" lon="6.10227">
        <ele>1937</ele>
        <time>2024-06-04T23:28:50Z</time>
      </trkpt>
      <trkpt lat="45.18403" lon="6.10244">
        <ele>1936</ele>
        <time>2024-06-04T23:28:59Z</time>
      </trkpt>
      <trkpt lat="45.1842" lon="6.10245">
        <ele>1935</ele>
        <time>2024-06-04T23:29:02Z</time>
      </trkpt>
      <trkpt lat="45.18436" lon="6.10234">
        <ele>1938</ele>
        <time>2024-06-04T23:29:06Z</time>
      </trkpt>
      <trkpt lat="45.18435" lon="6.10218">
        <ele>1934</ele>
        <time>2024-06-04T23:29:08Z</time>
      </trkpt>
      <trkpt lat="45.18401" lon="6.10224">
        <ele>1931</ele>
        <time>2024-06-04T23:29:14Z</time>
      </trkpt>
      <trkpt lat="45.18372" lon="6.10201">
        <ele>1925</ele>
        <time>2024-06-04T23:29:20Z</time>
      </trkpt>
      <trkpt lat="45.1831" lon="6.10135">
        <ele>1910</ele>
        <time>2024-06-04T23:29:33Z</time>
      </trkpt>
      <trkpt lat="45.18293" lon="6.10131">
        <ele>1914</ele>
        <time>2024-06-04T23:29:36Z</time>
      </trkpt>
      <trkpt lat="45.18288" lon="6.10124">
        <ele>1913</ele>
        <time>2024-06-04T23:29:38Z</time>
      </trkpt>
      <trkpt lat="45.18275" lon="6.10095">
        <ele>1911</ele>
        <time>2024-06-04T23:29:42Z</time>
      </trkpt>
      <trkpt lat="45.18257" lon="6.10066">
        <ele>1908</ele>
        <time>2024-06-04T23:29:47Z</time>
      </trkpt>
      <trkpt lat="45.18238" lon="6.10025">
        <ele>1897</ele>
        <time>2024-06-04T23:29:53Z</time>
      </trkpt>
      <trkpt lat="45.18201" lon="6.09979">
        <ele>1889</ele>
        <time>2024-06-04T23:30:02Z</time>
      </trkpt>
      <trkpt lat="45.1819" lon="6.0997">
        <ele>1888</ele>
        <time>2024-06-04T23:30:04Z</time>
      </trkpt>
      <trkpt lat="45.18184" lon="6.09964">
        <ele>1886</ele>
        <time>2024-06-04T23:30:05Z</time>
      </trkpt>
      <trkpt lat="45.18158" lon="6.09964">
        <ele>1889</ele>
        <time>2024-06-04T23:30:10Z</time>
      </trkpt>
      <trkpt lat="45.1812" lon="6.09909">
        <ele>1872</ele>
        <time>2024-06-04T23:30:20Z</time>
      </trkpt>
      <trkpt lat="45.18083" lon="6.0988">
        <ele>1867</ele>
        <time>2024-06-04T23:30:27Z</time>
      </trkpt>
      <trkpt lat="45.18054" lon="6.09874">
        <ele>1858</ele>
        <time>2024-06-04T23:30:32Z</time>
      </trkpt>
      <trkpt lat="45.18031" lon="6.0988">
        <ele>1854</ele>
        <time>2024-06-04T23:30:36Z</time>
      </trkpt>
      <trkpt lat="45.18024" lon="6.09899">
        <ele>1854</ele>
        <time>2024-06-04T23:30:39Z</time>
      </trkpt>
      <trkpt lat="45.18033" lon="6.09932">
        <ele>1861</ele>
        <time>2024-06-04T23:30:44Z</time>
      </trkpt>
      <trkpt lat="45.1804" lon="6.09968">
        <ele>1870</ele>
        <time>2024-06-04T23:30:48Z</time>
      </trkpt>
      <trkpt lat="45.18037" lon="6.09977">
        <ele>1870</ele>
        <time>2024-06-04T23:30:50Z</time>
      </trkpt>
      <trkpt lat="45.18025" lon="6.09978">
        <ele>1866</ele>
        <time>2024-06-04T23:30:52Z</time>
      </trkpt>
      <trkpt lat="45.18023" lon="6.09949">
        <ele>1860</ele>
        <time>2024-06-04T23:30:55Z</time>
      </trkpt>
      <trkpt lat="45.18012" lon="6.09896">
        <ele>1850</ele>
        <time>2024-06-04T23:31:02Z</time>
      </trkpt>
      <trkpt lat="45.18003" lon="6.09866">
        <ele>1846</ele>
        <time>2024-06-04T23:31:06Z</time>
      </trkpt>
      <trkpt lat="45.18" lon="6.09839">
        <ele>1844</ele>
        <time>2024-06-04T23:31:10Z</time>
      </trkpt>
      <trkpt lat="45.1799" lon="6.09812">
        <ele>1836</ele>
        <time>2024-06-04T23:31:14Z</time>
      </trkpt>
      <trkpt lat="45.17999" lon="6.098">
        <ele>1839</ele>
        <time>2024-06-04T23:31:16Z</time>
      </trkpt>
      <trkpt lat="45.18036" lon="6.09802">
        <ele>1841</ele>
        <time>2024-06-04T23:31:22Z</time>
      </trkpt>
      <trkpt lat="45.18101" lon="6.09816">
        <ele>1846</ele>
        <time>2024-06-04T23:31:34Z</time>
      </trkpt>
      <trkpt lat="45.1813" lon="6.09819">
        <ele>1843</ele>
        <time>2024-06-04T23:31:39Z</time>
      </trkpt>
      <trkpt lat="45.18156" lon="6.09829">
        <ele>1843</ele>
        <time>2024-06-04T23:31:44Z</time>
      </trkpt>
      <trkpt lat="45.18186" lon="6.09844">
        <ele>1846</ele>
        <time>2024-06-04T23:31:50Z</time>
      </trkpt>
      <trkpt lat="45.18206" lon="6.09864">
        <ele>1851</ele>
        <time>2024-06-04T23:31:54Z</time>
      </trkpt>
      <trkpt lat="45.18219" lon="6.09864">
        <ele>1851</ele>
        <time>2024-06-04T23:31:56Z</time>
      </trkpt>
      <trkpt lat="45.18225" lon="6.09854">
        <ele>1848</ele>
        <time>2024-06-04T23:31:58Z</time>
      </trkpt>
      <trkpt lat="45.18225" lon="6.09794">
        <ele>1836</ele>
        <time>2024-06-04T23:32:06Z</time>
      </trkpt>
      <trkpt lat="45.18226" lon="6.09764">
        <ele>1832</ele>
        <time>2024-06-04T23:32:09Z</time>
      </trkpt>
      <trkpt lat="45.18239" lon="6.09711">
        <ele>1826</ele>
        <time>2024-06-04T23:32:16Z</time>
      </trkpt>
      <trkpt lat="45.18237" lon="6.09658">
        <ele>1818</ele>
        <time>2024-06-04T23:32:23Z</time>
      </trkpt>
      <trkpt lat="45.18245" lon="6.09627">
        <ele>1818</ele>
        <time>2024-06-04T23:32:27Z</time>
      </trkpt>
      <trkpt lat="45.18249" lon="6.09604">
        <ele>1817</ele>
        <time>2024-06-04T23:32:30Z</time>
      </trkpt>
      <trkpt lat="45.18243" lon="6.09576">
        <ele>1813</ele>
        <time>2024-06-04T23:32:34Z</time>
      </trkpt>
      <trkpt lat="45.18241" lon="6.09559">
        <ele>1812</ele>
        <time>2024-06-04T23:32:36Z</time>
      </trkpt>
      <trkpt lat="45.18243" lon="6.09545">
        <ele>1813</ele>
        <time>2024-06-04T23:32:38Z</time>
      </trkpt>
      <trkpt lat="45.1825" lon="6.09524">
        <ele>1815</ele>
        <time>2024-06-04T23:32:41Z</time>
      </trkpt>
      <trkpt lat="45.18251" lon="6.09514">
        <ele>1815</ele>
        <time>2024-06-04T23:32:42Z</time>
      </trkpt>
      <trkpt lat="45.18249" lon="6.09505">
        <ele>1815</ele>
        <time>2024-06-04T23:32:43Z</time>
      </trkpt>
      <trkpt lat="45.18243" lon="6.09499">
        <ele>1813</ele>
        <time>2024-06-04T23:32:44Z</time>
      </trkpt>
      <trkpt lat="45.18199" lon="6.09468">
        <ele>1806</ele>
        <time>2024-06-04T23:32:53Z</time>
      </trkpt>
      <trkpt lat="45.18145" lon="6.09402">
        <ele>1801</ele>
        <time>2024-06-04T23:33:06Z</time>
      </trkpt>
      <trkpt lat="45.18127" lon="6.09375">
        <ele>1800</ele>
        <time>2024-06-04T23:33:10Z</time>
      </trkpt>
      <trkpt lat="45.18113" lon="6.09361">
        <ele>1798</ele>
        <time>2024-06-04T23:33:14Z</time>
      </trkpt>
      <trkpt lat="45.18092" lon="6.0935">
        <ele>1793</ele>
        <time>2024-06-04T23:33:18Z</time>
      </trkpt>
      <trkpt lat="45.18063" lon="6.09338">
        <ele>1785</ele>
        <time>2024-06-04T23:33:23Z</time>
      </trkpt>
      <trkpt lat="45.18052" lon="6.09331">
        <ele>1782</ele>
        <time>2024-06-04T23:33:25Z</time>
      </trkpt>
      <trkpt lat="45.18039" lon="6.09316">
        <ele>1779</ele>
        <time>2024-06-04T23:33:28Z</time>
      </trkpt>
      <trkpt lat="45.18029" lon="6.09299">
        <ele>1777</ele>
        <time>2024-06-04T23:33:31Z</time>
      </trkpt>
      <trkpt lat="45.18019" lon="6.0927">
        <ele>1776</ele>
        <time>2024-06-04T23:33:35Z</time>
      </trkpt>
      <trkpt lat="45.18017" lon="6.09259">
        <ele>1777</ele>
        <time>2024-06-04T23:33:36Z</time>
      </trkpt>
      <trkpt lat="45.18018" lon="6.09222">
        <ele>1782</ele>
        <time>2024-06-04T23:33:41Z</time>
      </trkpt>
      <trkpt lat="45.18015" lon="6.09211">
        <ele>1782</ele>
        <time>2024-06-04T23:33:42Z</time>
      </trkpt>
      <trkpt lat="45.1799" lon="6.09163">
        <ele>1779</ele>
        <time>2024-06-04T23:33:50Z</time>
      </trkpt>
      <trkpt lat="45.17975" lon="6.0914">
        <ele>1780</ele>
        <time>2024-06-04T23:33:54Z</time>
      </trkpt>
      <trkpt lat="45.17957" lon="6.09125">
        <ele>1778</ele>
        <time>2024-06-04T23:33:58Z</time>
      </trkpt>
      <trkpt lat="45.17925" lon="6.09109">
        <ele>1772</ele>
        <time>2024-06-04T23:34:04Z</time>
      </trkpt>
      <trkpt lat="45.17912" lon="6.09096">
        <ele>1771</ele>
        <time>2024-06-04T23:34:06Z</time>
      </trkpt>
      <trkpt lat="45.17898" lon="6.09076">
        <ele>1772</ele>
        <time>2024-06-04T23:34:10Z</time>
      </trkpt>
      <trkpt lat="45.17891" lon="6.09068">
        <ele>1772</ele>
        <time>2024-06-04T23:34:12Z</time>
      </trkpt>
      <trkpt lat="45.17876" lon="6.09061">
        <ele>1769</ele>
        <time>2024-06-04T23:34:14Z</time>
      </trkpt>
      <trkpt lat="45.17861" lon="6.09049">
        <ele>1768</ele>
        <time>2024-06-04T23:34:17Z</time>
      </trkpt>
      <trkpt lat="45.17838" lon="6.0904">
        <ele>1763</ele>
        <time>2024-06-04T23:34:22Z</time>
      </trkpt>
      <trkpt lat="45.17802" lon="6.09024">
        <ele>1755</ele>
        <time>2024-06-04T23:34:28Z</time>
      </trkpt>
      <trkpt lat="45.17765" lon="6.09002">
        <ele>1751</ele>
        <time>2024-06-04T23:34:35Z</time>
      </trkpt>
      <trkpt lat="45.17727" lon="6.08986">
        <ele>1744</ele>
        <time>2024-06-04T23:34:43Z</time>
      </trkpt>
      <trkpt lat="45.17711" lon="6.08974">
        <ele>1743</ele>
        <time>2024-06-04T23:34:46Z</time>
      </trkpt>
      <trkpt lat="45.1769" lon="6.0897">
        <ele>1737</ele>
        <time>2024-06-04T23:34:50Z</time>
      </trkpt>
      <trkpt lat="45.17687" lon="6.08968">
        <ele>1737</ele>
        <time>2024-06-04T23:34:50Z</time>
      </trkpt>
      <trkpt lat="45.17675" lon="6.08946">
        <ele>1742</ele>
        <time>2024-06-04T23:34:54Z</time>
      </trkpt>
      <trkpt lat="45.17669" lon="6.08937">
        <ele>1743</ele>
        <time>2024-06-04T23:34:55Z</time>
      </trkpt>
      <trkpt lat="45.17662" lon="6.08933">
        <ele>1742</ele>
        <time>2024-06-04T23:34:57Z</time>
      </trkpt>
      <trkpt lat="45.17657" lon="6.08932">
        <ele>1741</ele>
        <time>2024-06-04T23:34:57Z</time>
      </trkpt>
      <trkpt lat="45.17632" lon="6.08937">
        <ele>1731</ele>
        <time>2024-06-04T23:35:02Z</time>
      </trkpt>
      <trkpt lat="45.17627" lon="6.08935">
        <ele>1730</ele>
        <time>2024-06-04T23:35:03Z</time>
      </trkpt>
      <trkpt lat="45.17621" lon="6.08929">
        <ele>1730</ele>
        <time>2024-06-04T23:35:04Z</time>
      </trkpt>
      <trkpt lat="45.17596" lon="6.08891">
        <ele>1734</ele>
        <time>2024-06-04T23:35:11Z</time>
      </trkpt>
      <trkpt lat="45.17581" lon="6.08871">
        <ele>1736</ele>
        <time>2024-06-04T23:35:14Z</time>
      </trkpt>
      <trkpt lat="45.17573" lon="6.08869">
        <ele>1736</ele>
        <time>2024-06-04T23:35:16Z</time>
      </trkpt>
      <trkpt lat="45.17568" lon="6.08869">
        <ele>1736</ele>
        <time>2024-06-04T23:35:17Z</time>
      </trkpt>
      <trkpt lat="45.17561" lon="6.08873">
        <ele>1734</ele>
        <time>2024-06-04T23:35:18Z</time>
      </trkpt>
      <trkpt lat="45.17547" lon="6.08886">
        <ele>1728</ele>
        <time>2024-06-04T23:35:21Z</time>
      </trkpt>
      <trkpt lat="45.17538" lon="6.08891">
        <ele>1725</ele>
        <time>2024-06-04T23:35:23Z</time>
      </trkpt>
      <trkpt lat="45.17527" lon="6.08893">
        <ele>1724</ele>
        <time>2024-06-04T23:35:25Z</time>
      </trkpt>
      <trkpt lat="45.17502" lon="6.08884">
        <ele>1725</ele>
        <time>2024-06-04T23:35:29Z</time>
      </trkpt>
      <trkpt lat="45.17466" lon="6.08877">
        <ele>1716</ele>
        <time>2024-06-04T23:35:36Z</time>
      </trkpt>
      <trkpt lat="45.17448" lon="6.08871">
        <ele>1711</ele>
        <time>2024-06-04T23:35:39Z</time>
      </trkpt>
      <trkpt lat="45.17435" lon="6.08865">
        <ele>1708</ele>
        <time>2024-06-04T23:35:41Z</time>
      </trkpt>
      <trkpt lat="45.17425" lon="6.08854">
        <ele>1706</ele>
        <time>2024-06-04T23:35:44Z</time>
      </trkpt>
      <trkpt lat="45.17421" lon="6.08852">
        <ele>1705</ele>
        <time>2024-06-04T23:35:44Z</time>
      </trkpt>
      <trkpt lat="45.17416" lon="6.08853">
        <ele>1703</ele>
        <time>2024-06-04T23:35:45Z</time>
      </trkpt>
      <trkpt lat="45.17415" lon="6.08862">
        <ele>1701</ele>
        <time>2024-06-04T23:35:46Z</time>
      </trkpt>
      <trkpt lat="45.17421" lon="6.08872">
        <ele>1702</ele>
        <time>2024-06-04T23:35:48Z</time>
      </trkpt>
      <trkpt lat="45.17457" lon="6.08899">
        <ele>1707</ele>
        <time>2024-06-04T23:35:55Z</time>
      </trkpt>
      <trkpt lat="45.17466" lon="6.0891">
        <ele>1707</ele>
        <time>2024-06-04T23:35:57Z</time>
      </trkpt>
      <trkpt lat="45.17496" lon="6.08934">
        <ele>1705</ele>
        <time>2024-06-04T23:36:04Z</time>
      </trkpt>
      <trkpt lat="45.17514" lon="6.08939">
        <ele>1706</ele>
        <time>2024-06-04T23:36:07Z</time>
      </trkpt>
      <trkpt lat="45.17552" lon="6.08937">
        <ele>1711</ele>
        <time>2024-06-04T23:36:14Z</time>
      </trkpt>
      <trkpt lat="45.17558" lon="6.08942">
        <ele>1710</ele>
        <time>2024-06-04T23:36:15Z</time>
      </trkpt>
      <trkpt lat="45.17564" lon="6.08952">
        <ele>1707</ele>
        <time>2024-06-04T23:36:17Z</time>
      </trkpt>
      <trkpt lat="45.17567" lon="6.08961">
        <ele>1704</ele>
        <time>2024-06-04T23:36:18Z</time>
      </trkpt>
      <trkpt lat="45.1758" lon="6.09011">
        <ele>1690</ele>
        <time>2024-06-04T23:36:24Z</time>
      </trkpt>
      <trkpt lat="45.1759" lon="6.09034">
        <ele>1686</ele>
        <time>2024-06-04T23:36:28Z</time>
      </trkpt>
      <trkpt lat="45.17595" lon="6.09038">
        <ele>1686</ele>
        <time>2024-06-04T23:36:29Z</time>
      </trkpt>
      <trkpt lat="45.176" lon="6.09039">
        <ele>1687</ele>
        <time>2024-06-04T23:36:30Z</time>
      </trkpt>
      <trkpt lat="45.17619" lon="6.09035">
        <ele>1694</ele>
        <time>2024-06-04T23:36:33Z</time>
      </trkpt>
      <trkpt lat="45.17626" lon="6.09037">
        <ele>1695</ele>
        <time>2024-06-04T23:36:34Z</time>
      </trkpt>
      <trkpt lat="45.17635" lon="6.09045">
        <ele>1695</ele>
        <time>2024-06-04T23:36:36Z</time>
      </trkpt>
      <trkpt lat="45.17666" lon="6.09106">
        <ele>1684</ele>
        <time>2024-06-04T23:36:46Z</time>
      </trkpt>
      <trkpt lat="45.17706" lon="6.09166">
        <ele>1679</ele>
        <time>2024-06-04T23:36:56Z</time>
      </trkpt>
      <trkpt lat="45.1771" lon="6.09178">
        <ele>1679</ele>
        <time>2024-06-04T23:36:58Z</time>
      </trkpt>
      <trkpt lat="45.1771" lon="6.09203">
        <ele>1675</ele>
        <time>2024-06-04T23:37:01Z</time>
      </trkpt>
      <trkpt lat="45.17714" lon="6.0923">
        <ele>1673</ele>
        <time>2024-06-04T23:37:04Z</time>
      </trkpt>
      <trkpt lat="45.17712" lon="6.09238">
        <ele>1671</ele>
        <time>2024-06-04T23:37:05Z</time>
      </trkpt>
      <trkpt lat="45.17709" lon="6.09241">
        <ele>1670</ele>
        <time>2024-06-04T23:37:06Z</time>
      </trkpt>
      <trkpt lat="45.17703" lon="6.09239">
        <ele>1668</ele>
        <time>2024-06-04T23:37:07Z</time>
      </trkpt>
      <trkpt lat="45.177" lon="6.09236">
        <ele>1667</ele>
        <time>2024-06-04T23:37:08Z</time>
      </trkpt>
      <trkpt lat="45.17687" lon="6.092">
        <ele>1668</ele>
        <time>2024-06-04T23:37:13Z</time>
      </trkpt>
      <trkpt lat="45.17681" lon="6.09188">
        <ele>1668</ele>
        <time>2024-06-04T23:37:15Z</time>
      </trkpt>
      <trkpt lat="45.17672" lon="6.09179">
        <ele>1666</ele>
        <time>2024-06-04T23:37:17Z</time>
      </trkpt>
      <trkpt lat="45.17607" lon="6.0913">
        <ele>1662</ele>
        <time>2024-06-04T23:37:30Z</time>
      </trkpt>
      <trkpt lat="45.17574" lon="6.09124">
        <ele>1655</ele>
        <time>2024-06-04T23:37:36Z</time>
      </trkpt>
      <trkpt lat="45.17565" lon="6.09118">
        <ele>1655</ele>
        <time>2024-06-04T23:37:38Z</time>
      </trkpt>
      <trkpt lat="45.17544" lon="6.091">
        <ele>1656</ele>
        <time>2024-06-04T23:37:42Z</time>
      </trkpt>
      <trkpt lat="45.1749" lon="6.0908">
        <ele>1651</ele>
        <time>2024-06-04T23:37:52Z</time>
      </trkpt>
      <trkpt lat="45.17474" lon="6.0908">
        <ele>1650</ele>
        <time>2024-06-04T23:37:55Z</time>
      </trkpt>
      <trkpt lat="45.17459" lon="6.09084">
        <ele>1648</ele>
        <time>2024-06-04T23:37:57Z</time>
      </trkpt>
      <trkpt lat="45.17409" lon="6.09107">
        <ele>1637</ele>
        <time>2024-06-04T23:38:07Z</time>
      </trkpt>
      <trkpt lat="45.17384" lon="6.09109">
        <ele>1630</ele>
        <time>2024-06-04T23:38:11Z</time>
      </trkpt>
      <trkpt lat="45.17351" lon="6.09119">
        <ele>1620</ele>
        <time>2024-06-04T23:38:17Z</time>
      </trkpt>
      <trkpt lat="45.17347" lon="6.09118">
        <ele>1619</ele>
        <time>2024-06-04T23:38:18Z</time>
      </trkpt>
      <trkpt lat="45.17341" lon="6.09115">
        <ele>1619</ele>
        <time>2024-06-04T23:38:19Z</time>
      </trkpt>
      <trkpt lat="45.17326" lon="6.09096">
        <ele>1620</ele>
        <time>2024-06-04T23:38:23Z</time>
      </trkpt>
      <trkpt lat="45.17303" lon="6.09076">
        <ele>1619</ele>
        <time>2024-06-04T23:38:27Z</time>
      </trkpt>
      <trkpt lat="45.17287" lon="6.09066">
        <ele>1616</ele>
        <time>2024-06-04T23:38:31Z</time>
      </trkpt>
      <trkpt lat="45.17248" lon="6.09052">
        <ele>1607</ele>
        <time>2024-06-04T23:38:38Z</time>
      </trkpt>
      <trkpt lat="45.17239" lon="6.09046">
        <ele>1604</ele>
        <time>2024-06-04T23:38:39Z</time>
      </trkpt>
      <trkpt lat="45.1723" lon="6.09029">
        <ele>1601</ele>
        <time>2024-06-04T23:38:42Z</time>
      </trkpt>
      <trkpt lat="45.17226" lon="6.09026">
        <ele>1600</ele>
        <time>2024-06-04T23:38:43Z</time>
      </trkpt>
      <trkpt lat="45.17222" lon="6.09028">
        <ele>1598</ele>
        <time>2024-06-04T23:38:44Z</time>
      </trkpt>
      <trkpt lat="45.17219" lon="6.09043">
        <ele>1596</ele>
        <time>2024-06-04T23:38:46Z</time>
      </trkpt>
      <trkpt lat="45.17224" lon="6.09053">
        <ele>1597</ele>
        <time>2024-06-04T23:38:47Z</time>
      </trkpt>
      <trkpt lat="45.17238" lon="6.09067">
        <ele>1601</ele>
        <time>2024-06-04T23:38:50Z</time>
      </trkpt>
      <trkpt lat="45.1727" lon="6.09091">
        <ele>1607</ele>
        <time>2024-06-04T23:38:57Z</time>
      </trkpt>
      <trkpt lat="45.17285" lon="6.0911">
        <ele>1606</ele>
        <time>2024-06-04T23:39:00Z</time>
      </trkpt>
      <trkpt lat="45.17289" lon="6.09123">
        <ele>1603</ele>
        <time>2024-06-04T23:39:02Z</time>
      </trkpt>
      <trkpt lat="45.17289" lon="6.09139">
        <ele>1599</ele>
        <time>2024-06-04T23:39:04Z</time>
      </trkpt>
      <trkpt lat="45.17288" lon="6.09147">
        <ele>1596</ele>
        <time>2024-06-04T23:39:05Z</time>
      </trkpt>
      <trkpt lat="45.17278" lon="6.09181">
        <ele>1585</ele>
        <time>2024-06-04T23:39:10Z</time>
      </trkpt>
      <trkpt lat="45.17278" lon="6.09187">
        <ele>1583</ele>
        <time>2024-06-04T23:39:10Z</time>
      </trkpt>
      <trkpt lat="45.1728" lon="6.09193">
        <ele>1582</ele>
        <time>2024-06-04T23:39:11Z</time>
      </trkpt>
      <trkpt lat="45.17284" lon="6.09197">
        <ele>1582</ele>
        <time>2024-06-04T23:39:12Z</time>
      </trkpt>
      <trkpt lat="45.17292" lon="6.09201">
        <ele>1583</ele>
        <time>2024-06-04T23:39:14Z</time>
      </trkpt>
      <trkpt lat="45.1732" lon="6.09203">
        <ele>1589</ele>
        <time>2024-06-04T23:39:19Z</time>
      </trkpt>
      <trkpt lat="45.17348" lon="6.09209">
        <ele>1593</ele>
        <time>2024-06-04T23:39:24Z</time>
      </trkpt>
      <trkpt lat="45.17373" lon="6.09233">
        <ele>1590</ele>
        <time>2024-06-04T23:39:29Z</time>
      </trkpt>
      <trkpt lat="45.17377" lon="6.09245">
        <ele>1587</ele>
        <time>2024-06-04T23:39:31Z</time>
      </trkpt>
      <trkpt lat="45.1738" lon="6.09258">
        <ele>1585</ele>
        <time>2024-06-04T23:39:32Z</time>
      </trkpt>
      <trkpt lat="45.17383" lon="6.09274">
        <ele>1582</ele>
        <time>2024-06-04T23:39:35Z</time>
      </trkpt>
      <trkpt lat="45.17383" lon="6.09289">
        <ele>1579</ele>
        <time>2024-06-04T23:39:36Z</time>
      </trkpt>
      <trkpt lat="45.17381" lon="6.09296">
        <ele>1577</ele>
        <time>2024-06-04T23:39:37Z</time>
      </trkpt>
      <trkpt lat="45.17382" lon="6.09308">
        <ele>1575</ele>
        <time>2024-06-04T23:39:39Z</time>
      </trkpt>
      <trkpt lat="45.17384" lon="6.09318">
        <ele>1573</ele>
        <time>2024-06-04T23:39:40Z</time>
      </trkpt>
      <trkpt lat="45.17388" lon="6.09327">
        <ele>1573</ele>
        <time>2024-06-04T23:39:42Z</time>
      </trkpt>
      <trkpt lat="45.17398" lon="6.09352">
        <ele>1572</ele>
        <time>2024-06-04T23:39:45Z</time>
      </trkpt>
      <trkpt lat="45.17396" lon="6.09362">
        <ele>1571</ele>
        <time>2024-06-04T23:39:46Z</time>
      </trkpt>
      <trkpt lat="45.1739" lon="6.09366">
        <ele>1568</ele>
        <time>2024-06-04T23:39:48Z</time>
      </trkpt>
      <trkpt lat="45.17386" lon="6.09365">
        <ele>1567</ele>
        <time>2024-06-04T23:39:48Z</time>
      </trkpt>
      <trkpt lat="45.17382" lon="6.0936">
        <ele>1566</ele>
        <time>2024-06-04T23:39:49Z</time>
      </trkpt>
      <trkpt lat="45.17376" lon="6.09347">
        <ele>1566</ele>
        <time>2024-06-04T23:39:51Z</time>
      </trkpt>
      <trkpt lat="45.1734" lon="6.09297">
        <ele>1567</ele>
        <time>2024-06-04T23:40:00Z</time>
      </trkpt>
      <trkpt lat="45.17328" lon="6.09286">
        <ele>1567</ele>
        <time>2024-06-04T23:40:03Z</time>
      </trkpt>
      <trkpt lat="45.17318" lon="6.09279">
        <ele>1567</ele>
        <time>2024-06-04T23:40:05Z</time>
      </trkpt>
      <trkpt lat="45.17304" lon="6.09279">
        <ele>1564</ele>
        <time>2024-06-04T23:40:07Z</time>
      </trkpt>
      <trkpt lat="45.17274" lon="6.09293">
        <ele>1553</ele>
        <time>2024-06-04T23:40:13Z</time>
      </trkpt>
      <trkpt lat="45.17255" lon="6.09295">
        <ele>1548</ele>
        <time>2024-06-04T23:40:16Z</time>
      </trkpt>
      <trkpt lat="45.17248" lon="6.09294">
        <ele>1547</ele>
        <time>2024-06-04T23:40:17Z</time>
      </trkpt>
      <trkpt lat="45.17198" lon="6.09261">
        <ele>1540</ele>
        <time>2024-06-04T23:40:27Z</time>
      </trkpt>
      <trkpt lat="45.17183" lon="6.09254">
        <ele>1536</ele>
        <time>2024-06-04T23:40:30Z</time>
      </trkpt>
      <trkpt lat="45.17179" lon="6.09249">
        <ele>1536</ele>
        <time>2024-06-04T23:40:31Z</time>
      </trkpt>
      <trkpt lat="45.17176" lon="6.09243">
        <ele>1536</ele>
        <time>2024-06-04T23:40:32Z</time>
      </trkpt>
      <trkpt lat="45.17177" lon="6.0923">
        <ele>1539</ele>
        <time>2024-06-04T23:40:34Z</time>
      </trkpt>
      <trkpt lat="45.17184" lon="6.09208">
        <ele>1547</ele>
        <time>2024-06-04T23:40:37Z</time>
      </trkpt>
      <trkpt lat="45.17182" lon="6.09202">
        <ele>1548</ele>
        <time>2024-06-04T23:40:37Z</time>
      </trkpt>
      <trkpt lat="45.17179" lon="6.092">
        <ele>1547</ele>
        <time>2024-06-04T23:40:38Z</time>
      </trkpt>
      <trkpt lat="45.17173" lon="6.09201">
        <ele>1544</ele>
        <time>2024-06-04T23:40:39Z</time>
      </trkpt>
      <trkpt lat="45.17169" lon="6.09207">
        <ele>1542</ele>
        <time>2024-06-04T23:40:40Z</time>
      </trkpt>
      <trkpt lat="45.17157" lon="6.09239">
        <ele>1530</ele>
        <time>2024-06-04T23:40:45Z</time>
      </trkpt>
      <trkpt lat="45.17156" lon="6.0925">
        <ele>1527</ele>
        <time>2024-06-04T23:40:46Z</time>
      </trkpt>
      <trkpt lat="45.17158" lon="6.0926">
        <ele>1525</ele>
        <time>2024-06-04T23:40:47Z</time>
      </trkpt>
      <trkpt lat="45.17174" lon="6.09281">
        <ele>1526</ele>
        <time>2024-06-04T23:40:51Z</time>
      </trkpt>
      <trkpt lat="45.17183" lon="6.09286">
        <ele>1528</ele>
        <time>2024-06-04T23:40:53Z</time>
      </trkpt>
      <trkpt lat="45.17193" lon="6.09297">
        <ele>1528</ele>
        <time>2024-06-04T23:40:55Z</time>
      </trkpt>
      <trkpt lat="45.17214" lon="6.09333">
        <ele>1525</ele>
        <time>2024-06-04T23:41:01Z</time>
      </trkpt>
      <trkpt lat="45.17232" lon="6.09348">
        <ele>1525</ele>
        <time>2024-06-04T23:41:05Z</time>
      </trkpt>
      <trkpt lat="45.17234" lon="6.09353">
        <ele>1524</ele>
        <time>2024-06-04T23:41:06Z</time>
      </trkpt>
      <trkpt lat="45.17231" lon="6.09361">
        <ele>1522</ele>
        <time>2024-06-04T23:41:07Z</time>
      </trkpt>
      <trkpt lat="45.17224" lon="6.09359">
        <ele>1520</ele>
        <time>2024-06-04T23:41:08Z</time>
      </trkpt>
      <trkpt lat="45.17117" lon="6.09286">
        <ele>1505</ele>
        <time>2024-06-04T23:41:29Z</time>
      </trkpt>
      <trkpt lat="45.17104" lon="6.09275">
        <ele>1502</ele>
        <time>2024-06-04T23:41:32Z</time>
      </trkpt>
      <trkpt lat="45.17097" lon="6.09261">
        <ele>1502</ele>
        <time>2024-06-04T23:41:34Z</time>
      </trkpt>
      <trkpt lat="45.1708" lon="6.09222">
        <ele>1504</ele>
        <time>2024-06-04T23:41:40Z</time>
      </trkpt>
      <trkpt lat="45.17069" lon="6.09207">
        <ele>1503</ele>
        <time>2024-06-04T23:41:42Z</time>
      </trkpt>
      <trkpt lat="45.17019" lon="6.09156">
        <ele>1494</ele>
        <time>2024-06-04T23:41:53Z</time>
      </trkpt>
      <trkpt lat="45.17001" lon="6.09126">
        <ele>1490</ele>
        <time>2024-06-04T23:41:58Z</time>
      </trkpt>
      <trkpt lat="45.16991" lon="6.09111">
        <ele>1489</ele>
        <time>2024-06-04T23:42:01Z</time>
      </trkpt>
      <trkpt lat="45.16986" lon="6.0911">
        <ele>1487</ele>
        <time>2024-06-04T23:42:02Z</time>
      </trkpt>
      <trkpt lat="45.16984" lon="6.09115">
        <ele>1486</ele>
        <time>2024-06-04T23:42:02Z</time>
      </trkpt>
      <trkpt lat="45.17011" lon="6.09184">
        <ele>1485</ele>
        <time>2024-06-04T23:42:12Z</time>
      </trkpt>
      <trkpt lat="45.17025" lon="6.09228">
        <ele>1483</ele>
        <time>2024-06-04T23:42:18Z</time>
      </trkpt>
      <trkpt lat="45.17028" lon="6.09244">
        <ele>1481</ele>
        <time>2024-06-04T23:42:21Z</time>
      </trkpt>
      <trkpt lat="45.17027" lon="6.09256">
        <ele>1478</ele>
        <time>2024-06-04T23:42:22Z</time>
      </trkpt>
      <trkpt lat="45.17025" lon="6.09268">
        <ele>1476</ele>
        <time>2024-06-04T23:42:24Z</time>
      </trkpt>
      <trkpt lat="45.17018" lon="6.09282">
        <ele>1471</ele>
        <time>2024-06-04T23:42:26Z</time>
      </trkpt>
      <trkpt lat="45.17009" lon="6.09304">
        <ele>1465</ele>
        <time>2024-06-04T23:42:29Z</time>
      </trkpt>
      <trkpt lat="45.17005" lon="6.09319">
        <ele>1462</ele>
        <time>2024-06-04T23:42:31Z</time>
      </trkpt>
      <trkpt lat="45.17005" lon="6.09327">
        <ele>1461</ele>
        <time>2024-06-04T23:42:32Z</time>
      </trkpt>
      <trkpt lat="45.17009" lon="6.09347">
        <ele>1458</ele>
        <time>2024-06-04T23:42:35Z</time>
      </trkpt>
      <trkpt lat="45.17017" lon="6.09362">
        <ele>1458</ele>
        <time>2024-06-04T23:42:37Z</time>
      </trkpt>
      <trkpt lat="45.17055" lon="6.09386">
        <ele>1464</ele>
        <time>2024-06-04T23:42:44Z</time>
      </trkpt>
      <trkpt lat="45.17064" lon="6.09402">
        <ele>1463</ele>
        <time>2024-06-04T23:42:47Z</time>
      </trkpt>
      <trkpt lat="45.17067" lon="6.09413">
        <ele>1461</ele>
        <time>2024-06-04T23:42:48Z</time>
      </trkpt>
      <trkpt lat="45.17069" lon="6.09446">
        <ele>1457</ele>
        <time>2024-06-04T23:42:53Z</time>
      </trkpt>
      <trkpt lat="45.17065" lon="6.09553">
        <ele>1444</ele>
        <time>2024-06-04T23:43:06Z</time>
      </trkpt>
      <trkpt lat="45.17067" lon="6.09564">
        <ele>1444</ele>
        <time>2024-06-04T23:43:07Z</time>
      </trkpt>
      <trkpt lat="45.17073" lon="6.09584">
        <ele>1443</ele>
        <time>2024-06-04T23:43:10Z</time>
      </trkpt>
      <trkpt lat="45.17074" lon="6.096">
        <ele>1441</ele>
        <time>2024-06-04T23:43:12Z</time>
      </trkpt>
      <trkpt lat="45.17072" lon="6.09608">
        <ele>1440</ele>
        <time>2024-06-04T23:43:13Z</time>
      </trkpt>
      <trkpt lat="45.17068" lon="6.09612">
        <ele>1438</ele>
        <time>2024-06-04T23:43:14Z</time>
      </trkpt>
      <trkpt lat="45.17061" lon="6.09613">
        <ele>1437</ele>
        <time>2024-06-04T23:43:15Z</time>
      </trkpt>
      <trkpt lat="45.17056" lon="6.0961">
        <ele>1436</ele>
        <time>2024-06-04T23:43:16Z</time>
      </trkpt>
      <trkpt lat="45.17047" lon="6.09594">
        <ele>1436</ele>
        <time>2024-06-04T23:43:19Z</time>
      </trkpt>
      <trkpt lat="45.17028" lon="6.09547">
        <ele>1435</ele>
        <time>2024-06-04T23:43:26Z</time>
      </trkpt>
      <trkpt lat="45.17017" lon="6.09529">
        <ele>1434</ele>
        <time>2024-06-04T23:43:29Z</time>
      </trkpt>
      <trkpt lat="45.17006" lon="6.09514">
        <ele>1432</ele>
        <time>2024-06-04T23:43:31Z</time>
      </trkpt>
      <trkpt lat="45.16978" lon="6.09488">
        <ele>1428</ele>
        <time>2024-06-04T23:43:37Z</time>
      </trkpt>
      <trkpt lat="45.16935" lon="6.09464">
        <ele>1422</ele>
        <time>2024-06-04T23:43:46Z</time>
      </trkpt>
      <trkpt lat="45.16864" lon="6.09434">
        <ele>1415</ele>
        <time>2024-06-04T23:43:59Z</time>
      </trkpt>
      <trkpt lat="45.16842" lon="6.09423">
        <ele>1413</ele>
        <time>2024-06-04T23:44:03Z</time>
      </trkpt>
      <trkpt lat="45.16826" lon="6.09417">
        <ele>1411</ele>
        <time>2024-06-04T23:44:06Z</time>
      </trkpt>
      <trkpt lat="45.16809" lon="6.09417">
        <ele>1410</ele>
        <time>2024-06-04T23:44:09Z</time>
      </trkpt>
      <trkpt lat="45.16774" lon="6.09416">
        <ele>1408</ele>
        <time>2024-06-04T23:44:15Z</time>
      </trkpt>
      <trkpt lat="45.16764" lon="6.09411">
        <ele>1407</ele>
        <time>2024-06-04T23:44:17Z</time>
      </trkpt>
      <trkpt lat="45.16751" lon="6.09396">
        <ele>1406</ele>
        <time>2024-06-04T23:44:20Z</time>
      </trkpt>
      <trkpt lat="45.16739" lon="6.09379">
        <ele>1403</ele>
        <time>2024-06-04T23:44:23Z</time>
      </trkpt>
      <trkpt lat="45.16704" lon="6.09313">
        <ele>1395</ele>
        <time>2024-06-04T23:44:33Z</time>
      </trkpt>
      <trkpt lat="45.1668" lon="6.09278">
        <ele>1390</ele>
        <time>2024-06-04T23:44:39Z</time>
      </trkpt>
      <trkpt lat="45.16655" lon="6.09237">
        <ele>1384</ele>
        <time>2024-06-04T23:44:46Z</time>
      </trkpt>
      <trkpt lat="45.16634" lon="6.09193">
        <ele>1380</ele>
        <time>2024-06-04T23:44:53Z</time>
      </trkpt>
      <trkpt lat="45.16624" lon="6.09167">
        <ele>1378</ele>
        <time>2024-06-04T23:44:57Z</time>
      </trkpt>
      <trkpt lat="45.16582" lon="6.09095">
        <ele>1368</ele>
        <time>2024-06-04T23:45:08Z</time>
      </trkpt>
      <trkpt lat="45.16553" lon="6.09029">
        <ele>1363</ele>
        <time>2024-06-04T23:45:18Z</time>
      </trkpt>
      <trkpt lat="45.16485" lon="6.08921">
        <ele>1347</ele>
        <time>2024-06-04T23:45:36Z</time>
      </trkpt>
      <trkpt lat="45.16476" lon="6.0888">
        <ele>1347</ele>
        <time>2024-06-04T23:45:42Z</time>
      </trkpt>
      <trkpt lat="45.16455" lon="6.08838">
        <ele>1346</ele>
        <time>2024-06-04T23:45:48Z</time>
      </trkpt>
      <trkpt lat="45.16451" lon="6.0883">
        <ele>1346</ele>
        <time>2024-06-04T23:45:49Z</time>
      </trkpt>
      <trkpt lat="45.16446" lon="6.08828">
        <ele>1345</ele>
        <time>2024-06-04T23:45:50Z</time>
      </trkpt>
      <trkpt lat="45.16442" lon="6.0883">
        <ele>1344</ele>
        <time>2024-06-04T23:45:51Z</time>
      </trkpt>
      <trkpt lat="45.16439" lon="6.08834">
        <ele>1343</ele>
        <time>2024-06-04T23:45:52Z</time>
      </trkpt>
      <trkpt lat="45.16437" lon="6.08854">
        <ele>1342</ele>
        <time>2024-06-04T23:45:54Z</time>
      </trkpt>
      <trkpt lat="45.16436" lon="6.08903">
        <ele>1340</ele>
        <time>2024-06-04T23:46:00Z</time>
      </trkpt>
      <trkpt lat="45.16434" lon="6.08902">
        <ele>1340</ele>
        <time>2024-06-04T23:46:01Z</time>
      </trkpt>
      <trkpt lat="45.16431" lon="6.08896">
        <ele>1340</ele>
        <time>2024-06-04T23:46:02Z</time>
      </trkpt>
      <trkpt lat="45.16427" lon="6.08897">
        <ele>1339</ele>
        <time>2024-06-04T23:46:02Z</time>
      </trkpt>
      <trkpt lat="45.16408" lon="6.08908">
        <ele>1335</ele>
        <time>2024-06-04T23:46:06Z</time>
      </trkpt>
      <trkpt lat="45.16398" lon="6.08912">
        <ele>1333</ele>
        <time>2024-06-04T23:46:08Z</time>
      </trkpt>
      <trkpt lat="45.16392" lon="6.08911">
        <ele>1332</ele>
        <time>2024-06-04T23:46:09Z</time>
      </trkpt>
      <trkpt lat="45.16374" lon="6.08914">
        <ele>1328</ele>
        <time>2024-06-04T23:46:12Z</time>
      </trkpt>
      <trkpt lat="45.16365" lon="6.08823">
        <ele>1328</ele>
        <time>2024-06-04T23:46:24Z</time>
      </trkpt>
      <trkpt lat="45.16361" lon="6.08811">
        <ele>1327</ele>
        <time>2024-06-04T23:46:25Z</time>
      </trkpt>
      <trkpt lat="45.16334" lon="6.08759">
        <ele>1321</ele>
        <time>2024-06-04T23:46:34Z</time>
      </trkpt>
      <trkpt lat="45.16329" lon="6.08743">
        <ele>1320</ele>
        <time>2024-06-04T23:46:36Z</time>
      </trkpt>
      <trkpt lat="45.16325" lon="6.08723">
        <ele>1320</ele>
        <time>2024-06-04T23:46:38Z</time>
      </trkpt>
      <trkpt lat="45.16327" lon="6.08714">
        <ele>1321</ele>
        <time>2024-06-04T23:46:40Z</time>
      </trkpt>
      <trkpt lat="45.16334" lon="6.08706">
        <ele>1323</ele>
        <time>2024-06-04T23:46:41Z</time>
      </trkpt>
      <trkpt lat="45.16355" lon="6.08697">
        <ele>1329</ele>
        <time>2024-06-04T23:46:45Z</time>
      </trkpt>
      <trkpt lat="45.16359" lon="6.08692">
        <ele>1330</ele>
        <time>2024-06-04T23:46:46Z</time>
      </trkpt>
      <trkpt lat="45.16359" lon="6.08677">
        <ele>1331</ele>
        <time>2024-06-04T23:46:48Z</time>
      </trkpt>
      <trkpt lat="45.16357" lon="6.08671">
        <ele>1331</ele>
        <time>2024-06-04T23:46:49Z</time>
      </trkpt>
      <trkpt lat="45.16343" lon="6.08657">
        <ele>1329</ele>
        <time>2024-06-04T23:46:52Z</time>
      </trkpt>
      <trkpt lat="45.16295" lon="6.08644">
        <ele>1318</ele>
        <time>2024-06-04T23:47:00Z</time>
      </trkpt>
      <trkpt lat="45.16285" lon="6.08632">
        <ele>1317</ele>
        <time>2024-06-04T23:47:03Z</time>
      </trkpt>
      <trkpt lat="45.16267" lon="6.08603">
        <ele>1315</ele>
        <time>2024-06-04T23:47:08Z</time>
      </trkpt>
      <trkpt lat="45.16173" lon="6.08509">
        <ele>1307</ele>
        <time>2024-06-04T23:47:28Z</time>
      </trkpt>
      <trkpt lat="45.16112" lon="6.08447">
        <ele>1299</ele>
        <time>2024-06-04T23:47:41Z</time>
      </trkpt>
      <trkpt lat="45.16074" lon="6.08397">
        <ele>1296</ele>
        <time>2024-06-04T23:47:51Z</time>
      </trkpt>
      <trkpt lat="45.16007" lon="6.08298">
        <ele>1288</ele>
        <time>2024-06-04T23:48:08Z</time>
      </trkpt>
      <trkpt lat="45.15943" lon="6.08216">
        <ele>1277</ele>
        <time>2024-06-04T23:48:23Z</time>
      </trkpt>
      <trkpt lat="45.15918" lon="6.08174">
        <ele>1275</ele>
        <time>2024-06-04T23:48:30Z</time>
      </trkpt>
      <trkpt lat="45.15897" lon="6.08145">
        <ele>1269</ele>
        <time>2024-06-04T23:48:35Z</time>
      </trkpt>
      <trkpt lat="45.15879" lon="6.08133">
        <ele>1262</ele>
        <time>2024-06-04T23:48:39Z</time>
      </trkpt>
      <trkpt lat="45.15869" lon="6.08122">
        <ele>1259</ele>
        <time>2024-06-04T23:48:41Z</time>
      </trkpt>
      <trkpt lat="45.15857" lon="6.081">
        <ele>1257</ele>
        <time>2024-06-04T23:48:45Z</time>
      </trkpt>
      <trkpt lat="45.15851" lon="6.08085">
        <ele>1257</ele>
        <time>2024-06-04T23:48:47Z</time>
      </trkpt>
      <trkpt lat="45.1585" lon="6.08027">
        <ele>1259</ele>
        <time>2024-06-04T23:48:54Z</time>
      </trkpt>
      <trkpt lat="45.15843" lon="6.07995">
        <ele>1258</ele>
        <time>2024-06-04T23:48:58Z</time>
      </trkpt>
      <trkpt lat="45.15806" lon="6.07925">
        <ele>1252</ele>
        <time>2024-06-04T23:49:09Z</time>
      </trkpt>
      <trkpt lat="45.15787" lon="6.07867">
        <ele>1252</ele>
        <time>2024-06-04T23:49:17Z</time>
      </trkpt>
      <trkpt lat="45.15779" lon="6.07852">
        <ele>1251</ele>
        <time>2024-06-04T23:49:20Z</time>
      </trkpt>
      <trkpt lat="45.15763" lon="6.07828">
        <ele>1248</ele>
        <time>2024-06-04T23:49:24Z</time>
      </trkpt>
      <trkpt lat="45.15759" lon="6.07811">
        <ele>1246</ele>
        <time>2024-06-04T23:49:26Z</time>
      </trkpt>
      <trkpt lat="45.15761" lon="6.07744">
        <ele>1244</ele>
        <time>2024-06-04T23:49:34Z</time>
      </trkpt>
      <trkpt lat="45.15771" lon="6.07709">
        <ele>1245</ele>
        <time>2024-06-04T23:49:39Z</time>
      </trkpt>
      <trkpt lat="45.15774" lon="6.07693">
        <ele>1245</ele>
        <time>2024-06-04T23:49:41Z</time>
      </trkpt>
      <trkpt lat="45.15774" lon="6.07686">
        <ele>1245</ele>
        <time>2024-06-04T23:49:42Z</time>
      </trkpt>
      <trkpt lat="45.15772" lon="6.07653">
        <ele>1241</ele>
        <time>2024-06-04T23:49:46Z</time>
      </trkpt>
      <trkpt lat="45.15766" lon="6.0763">
        <ele>1235</ele>
        <time>2024-06-04T23:49:49Z</time>
      </trkpt>
      <trkpt lat="45.15766" lon="6.07613">
        <ele>1232</ele>
        <time>2024-06-04T23:49:51Z</time>
      </trkpt>
      <trkpt lat="45.15772" lon="6.07594">
        <ele>1231</ele>
        <time>2024-06-04T23:49:54Z</time>
      </trkpt>
      <trkpt lat="45.15782" lon="6.07582">
        <ele>1231</ele>
        <time>2024-06-04T23:49:56Z</time>
      </trkpt>
      <trkpt lat="45.15832" lon="6.07553">
        <ele>1238</ele>
        <time>2024-06-04T23:50:06Z</time>
      </trkpt>
      <trkpt lat="45.15844" lon="6.07542">
        <ele>1240</ele>
        <time>2024-06-04T23:50:09Z</time>
      </trkpt>
      <trkpt lat="45.15848" lon="6.07524">
        <ele>1238</ele>
        <time>2024-06-04T23:50:11Z</time>
      </trkpt>
      <trkpt lat="45.15848" lon="6.07516">
        <ele>1236</ele>
        <time>2024-06-04T23:50:12Z</time>
      </trkpt>
      <trkpt lat="45.15828" lon="6.07489">
        <ele>1228</ele>
        <time>2024-06-04T23:50:17Z</time>
      </trkpt>
      <trkpt lat="45.15779" lon="6.07456">
        <ele>1218</ele>
        <time>2024-06-04T23:50:27Z</time>
      </trkpt>
      <trkpt lat="45.15772" lon="6.07448">
        <ele>1217</ele>
        <time>2024-06-04T23:50:28Z</time>
      </trkpt>
      <trkpt lat="45.15769" lon="6.07438">
        <ele>1217</ele>
        <time>2024-06-04T23:50:29Z</time>
      </trkpt>
      <trkpt lat="45.15764" lon="6.07379">
        <ele>1218</ele>
        <time>2024-06-04T23:50:37Z</time>
      </trkpt>
      <trkpt lat="45.15757" lon="6.07339">
        <ele>1216</ele>
        <time>2024-06-04T23:50:42Z</time>
      </trkpt>
      <trkpt lat="45.15749" lon="6.07326">
        <ele>1213</ele>
        <time>2024-06-04T23:50:44Z</time>
      </trkpt>
      <trkpt lat="45.15741" lon="6.07317">
        <ele>1211</ele>
        <time>2024-06-04T23:50:46Z</time>
      </trkpt>
      <trkpt lat="45.15732" lon="6.07311">
        <ele>1209</ele>
        <time>2024-06-04T23:50:48Z</time>
      </trkpt>
      <trkpt lat="45.15722" lon="6.07299">
        <ele>1207</ele>
        <time>2024-06-04T23:50:50Z</time>
      </trkpt>
      <trkpt lat="45.15716" lon="6.07282">
        <ele>1207</ele>
        <time>2024-06-04T23:50:53Z</time>
      </trkpt>
      <trkpt lat="45.15707" lon="6.07248">
        <ele>1208</ele>
        <time>2024-06-04T23:50:57Z</time>
      </trkpt>
      <trkpt lat="45.15704" lon="6.07242">
        <ele>1209</ele>
        <time>2024-06-04T23:50:58Z</time>
      </trkpt>
      <trkpt lat="45.15656" lon="6.07216">
        <ele>1201</ele>
        <time>2024-06-04T23:51:07Z</time>
      </trkpt>
      <trkpt lat="45.15637" lon="6.07202">
        <ele>1197</ele>
        <time>2024-06-04T23:51:11Z</time>
      </trkpt>
      <trkpt lat="45.15619" lon="6.07184">
        <ele>1193</ele>
        <time>2024-06-04T23:51:15Z</time>
      </trkpt>
      <trkpt lat="45.15575" lon="6.07131">
        <ele>1185</ele>
        <time>2024-06-04T23:51:25Z</time>
      </trkpt>
      <trkpt lat="45.15562" lon="6.07112">
        <ele>1183</ele>
        <time>2024-06-04T23:51:29Z</time>
      </trkpt>
      <trkpt lat="45.155" lon="6.06985">
        <ele>1179</ele>
        <time>2024-06-04T23:51:48Z</time>
      </trkpt>
      <trkpt lat="45.1548" lon="6.06932">
        <ele>1180</ele>
        <time>2024-06-04T23:51:55Z</time>
      </trkpt>
      <trkpt lat="45.15459" lon="6.06888">
        <ele>1175</ele>
        <time>2024-06-04T23:52:02Z</time>
      </trkpt>
      <trkpt lat="45.15413" lon="6.06805">
        <ele>1169</ele>
        <time>2024-06-04T23:52:15Z</time>
      </trkpt>
      <trkpt lat="45.15389" lon="6.06777">
        <ele>1163</ele>
        <time>2024-06-04T23:52:21Z</time>
      </trkpt>
      <trkpt lat="45.15378" lon="6.06748">
        <ele>1167</ele>
        <time>2024-06-04T23:52:25Z</time>
      </trkpt>
      <trkpt lat="45.15367" lon="6.06739">
        <ele>1163</ele>
        <time>2024-06-04T23:52:27Z</time>
      </trkpt>
      <trkpt lat="45.15338" lon="6.06725">
        <ele>1151</ele>
        <time>2024-06-04T23:52:33Z</time>
      </trkpt>
      <trkpt lat="45.15322" lon="6.06702">
        <ele>1150</ele>
        <time>2024-06-04T23:52:37Z</time>
      </trkpt>
      <trkpt lat="45.15293" lon="6.06652">
        <ele>1147</ele>
        <time>2024-06-04T23:52:45Z</time>
      </trkpt>
      <trkpt lat="45.15252" lon="6.06588">
        <ele>1137</ele>
        <time>2024-06-04T23:52:56Z</time>
      </trkpt>
      <trkpt lat="45.15239" lon="6.06565">
        <ele>1133</ele>
        <time>2024-06-04T23:52:59Z</time>
      </trkpt>
      <trkpt lat="45.15224" lon="6.06533">
        <ele>1128</ele>
        <time>2024-06-04T23:53:04Z</time>
      </trkpt>
      <trkpt lat="45.15199" lon="6.06467">
        <ele>1119</ele>
        <time>2024-06-04T23:53:14Z</time>
      </trkpt>
      <trkpt lat="45.15192" lon="6.06444">
        <ele>1115</ele>
        <time>2024-06-04T23:53:17Z</time>
      </trkpt>
      <trkpt lat="45.15189" lon="6.06426">
        <ele>1113</ele>
        <time>2024-06-04T23:53:19Z</time>
      </trkpt>
      <trkpt lat="45.1519" lon="6.06398">
        <ele>1112</ele>
        <time>2024-06-04T23:53:23Z</time>
      </trkpt>
      <trkpt lat="45.15195" lon="6.06378">
        <ele>1112</ele>
        <time>2024-06-04T23:53:25Z</time>
      </trkpt>
      <trkpt lat="45.15206" lon="6.06352">
        <ele>1115</ele>
        <time>2024-06-04T23:53:29Z</time>
      </trkpt>
      <trkpt lat="45.1521" lon="6.06339">
        <ele>1116</ele>
        <time>2024-06-04T23:53:31Z</time>
      </trkpt>
      <trkpt lat="45.15209" lon="6.06331">
        <ele>1115</ele>
        <time>2024-06-04T23:53:32Z</time>
      </trkpt>
      <trkpt lat="45.15206" lon="6.06326">
        <ele>1114</ele>
        <time>2024-06-04T23:53:33Z</time>
      </trkpt>
      <trkpt lat="45.152" lon="6.06322">
        <ele>1111</ele>
        <time>2024-06-04T23:53:34Z</time>
      </trkpt>
      <trkpt lat="45.15194" lon="6.06322">
        <ele>1109</ele>
        <time>2024-06-04T23:53:35Z</time>
      </trkpt>
      <trkpt lat="45.15188" lon="6.06329">
        <ele>1106</ele>
        <time>2024-06-04T23:53:36Z</time>
      </trkpt>
      <trkpt lat="45.15162" lon="6.0644">
        <ele>1101</ele>
        <time>2024-06-04T23:53:51Z</time>
      </trkpt>
      <trkpt lat="45.15161" lon="6.06455">
        <ele>1101</ele>
        <time>2024-06-04T23:53:53Z</time>
      </trkpt>
      <trkpt lat="45.15171" lon="6.06499">
        <ele>1106</ele>
        <time>2024-06-04T23:53:59Z</time>
      </trkpt>
      <trkpt lat="45.1517" lon="6.06508">
        <ele>1104</ele>
        <time>2024-06-04T23:54:00Z</time>
      </trkpt>
      <trkpt lat="45.15167" lon="6.06513">
        <ele>1102</ele>
        <time>2024-06-04T23:54:01Z</time>
      </trkpt>
      <trkpt lat="45.15162" lon="6.06515">
        <ele>1100</ele>
        <time>2024-06-04T23:54:02Z</time>
      </trkpt>
      <trkpt lat="45.15153" lon="6.06511">
        <ele>1097</ele>
        <time>2024-06-04T23:54:03Z</time>
      </trkpt>
      <trkpt lat="45.15142" lon="6.06458">
        <ele>1094</ele>
        <time>2024-06-04T23:54:10Z</time>
      </trkpt>
      <trkpt lat="45.15129" lon="6.06426">
        <ele>1088</ele>
        <time>2024-06-04T23:54:15Z</time>
      </trkpt>
      <trkpt lat="45.15122" lon="6.064">
        <ele>1085</ele>
        <time>2024-06-04T23:54:18Z</time>
      </trkpt>
      <trkpt lat="45.15119" lon="6.06378">
        <ele>1083</ele>
        <time>2024-06-04T23:54:21Z</time>
      </trkpt>
      <trkpt lat="45.15115" lon="6.06333">
        <ele>1079</ele>
        <time>2024-06-04T23:54:27Z</time>
      </trkpt>
      <trkpt lat="45.15118" lon="6.06292">
        <ele>1078</ele>
        <time>2024-06-04T23:54:32Z</time>
      </trkpt>
      <trkpt lat="45.15137" lon="6.06257">
        <ele>1083</ele>
        <time>2024-06-04T23:54:38Z</time>
      </trkpt>
      <trkpt lat="45.1514" lon="6.06241">
        <ele>1083</ele>
        <time>2024-06-04T23:54:40Z</time>
      </trkpt>
      <trkpt lat="45.15139" lon="6.06204">
        <ele>1082</ele>
        <time>2024-06-04T23:54:44Z</time>
      </trkpt>
      <trkpt lat="45.15131" lon="6.06169">
        <ele>1077</ele>
        <time>2024-06-04T23:54:49Z</time>
      </trkpt>
      <trkpt lat="45.15123" lon="6.06119">
        <ele>1069</ele>
        <time>2024-06-04T23:54:55Z</time>
      </trkpt>
      <trkpt lat="45.15119" lon="6.0608">
        <ele>1065</ele>
        <time>2024-06-04T23:55:00Z</time>
      </trkpt>
      <trkpt lat="45.15119" lon="6.06041">
        <ele>1066</ele>
        <time>2024-06-04T23:55:05Z</time>
      </trkpt>
      <trkpt lat="45.15117" lon="6.0603">
        <ele>1065</ele>
        <time>2024-06-04T23:55:07Z</time>
      </trkpt>
      <trkpt lat="45.15101" lon="6.05995">
        <ele>1058</ele>
        <time>2024-06-04T23:55:12Z</time>
      </trkpt>
      <trkpt lat="45.15099" lon="6.05982">
        <ele>1057</ele>
        <time>2024-06-04T23:55:14Z</time>
      </trkpt>
      <trkpt lat="45.15099" lon="6.05946">
        <ele>1055</ele>
        <time>2024-06-04T23:55:18Z</time>
      </trkpt>
      <trkpt lat="45.15097" lon="6.05927">
        <ele>1054</ele>
        <time>2024-06-04T23:55:20Z</time>
      </trkpt>
      <trkpt lat="45.15084" lon="6.05868">
        <ele>1045</ele>
        <time>2024-06-04T23:55:28Z</time>
      </trkpt>
      <trkpt lat="45.15081" lon="6.05849">
        <ele>1043</ele>
        <time>2024-06-04T23:55:31Z</time>
      </trkpt>
      <trkpt lat="45.15082" lon="6.05835">
        <ele>1043</ele>
        <time>2024-06-04T23:55:32Z</time>
      </trkpt>
      <trkpt lat="45.15099" lon="6.05789">
        <ele>1050</ele>
        <time>2024-06-04T23:55:39Z</time>
      </trkpt>
      <trkpt lat="45.15099" lon="6.0578">
        <ele>1050</ele>
        <time>2024-06-04T23:55:40Z</time>
      </trkpt>
      <trkpt lat="45.15096" lon="6.05775">
        <ele>1049</ele>
        <time>2024-06-04T23:55:41Z</time>
      </trkpt>
      <trkpt lat="45.15091" lon="6.05771">
        <ele>1046</ele>
        <time>2024-06-04T23:55:42Z</time>
      </trkpt>
      <trkpt lat="45.15081" lon="6.05773">
        <ele>1041</ele>
        <time>2024-06-04T23:55:44Z</time>
      </trkpt>
      <trkpt lat="45.15077" lon="6.0578">
        <ele>1040</ele>
        <time>2024-06-04T23:55:45Z</time>
      </trkpt>
      <trkpt lat="45.15066" lon="6.05834">
        <ele>1037</ele>
        <time>2024-06-04T23:55:52Z</time>
      </trkpt>
      <trkpt lat="45.15039" lon="6.05907">
        <ele>1032</ele>
        <time>2024-06-04T23:56:02Z</time>
      </trkpt>
      <trkpt lat="45.14996" lon="6.06003">
        <ele>1022</ele>
        <time>2024-06-04T23:56:17Z</time>
      </trkpt>
      <trkpt lat="45.14995" lon="6.06017">
        <ele>1021</ele>
        <time>2024-06-04T23:56:18Z</time>
      </trkpt>
      <trkpt lat="45.15004" lon="6.06047">
        <ele>1023</ele>
        <time>2024-06-04T23:56:22Z</time>
      </trkpt>
      <trkpt lat="45.15005" lon="6.06061">
        <ele>1023</ele>
        <time>2024-06-04T23:56:24Z</time>
      </trkpt>
      <trkpt lat="45.15003" lon="6.06067">
        <ele>1022</ele>
        <time>2024-06-04T23:56:25Z</time>
      </trkpt>
      <trkpt lat="45.15" lon="6.06071">
        <ele>1020</ele>
        <time>2024-06-04T23:56:26Z</time>
      </trkpt>
      <trkpt lat="45.14994" lon="6.06074">
        <ele>1019</ele>
        <time>2024-06-04T23:56:27Z</time>
      </trkpt>
      <trkpt lat="45.14987" lon="6.06072">
        <ele>1017</ele>
        <time>2024-06-04T23:56:28Z</time>
      </trkpt>
      <trkpt lat="45.14983" lon="6.06064">
        <ele>1016</ele>
        <time>2024-06-04T23:56:29Z</time>
      </trkpt>
      <trkpt lat="45.1497" lon="6.06029">
        <ele>1014</ele>
        <time>2024-06-04T23:56:34Z</time>
      </trkpt>
      <trkpt lat="45.14946" lon="6.05973">
        <ele>1009</ele>
        <time>2024-06-04T23:56:43Z</time>
      </trkpt>
      <trkpt lat="45.14924" lon="6.05901">
        <ele>1003</ele>
        <time>2024-06-04T23:56:52Z</time>
      </trkpt>
      <trkpt lat="45.14917" lon="6.05812">
        <ele>998</ele>
        <time>2024-06-04T23:57:04Z</time>
      </trkpt>
      <trkpt lat="45.14916" lon="6.05772">
        <ele>992</ele>
        <time>2024-06-04T23:57:09Z</time>
      </trkpt>
      <trkpt lat="45.14919" lon="6.0575">
        <ele>991</ele>
        <time>2024-06-04T23:57:11Z</time>
      </trkpt>
      <trkpt lat="45.14928" lon="6.05715">
        <ele>987</ele>
        <time>2024-06-04T23:57:16Z</time>
      </trkpt>
      <trkpt lat="45.1494" lon="6.05682">
        <ele>985</ele>
        <time>2024-06-04T23:57:21Z</time>
      </trkpt>
      <trkpt lat="45.14948" lon="6.05669">
        <ele>986</ele>
        <time>2024-06-04T23:57:23Z</time>
      </trkpt>
      <trkpt lat="45.1497" lon="6.05653">
        <ele>990</ele>
        <time>2024-06-04T23:57:27Z</time>
      </trkpt>
      <trkpt lat="45.14977" lon="6.05646">
        <ele>992</ele>
        <time>2024-06-04T23:57:29Z</time>
      </trkpt>
      <trkpt lat="45.14981" lon="6.05637">
        <ele>992</ele>
        <time>2024-06-04T23:57:30Z</time>
      </trkpt>
      <trkpt lat="45.14983" lon="6.05626">
        <ele>992</ele>
        <time>2024-06-04T23:57:32Z</time>
      </trkpt>
      <trkpt lat="45.14983" lon="6.05608">
        <ele>990</ele>
        <time>2024-06-04T23:57:34Z</time>
      </trkpt>
      <trkpt lat="45.14981" lon="6.05587">
        <ele>987</ele>
        <time>2024-06-04T23:57:37Z</time>
      </trkpt>
      <trkpt lat="45.14975" lon="6.05567">
        <ele>982</ele>
        <time>2024-06-04T23:57:39Z</time>
      </trkpt>
      <trkpt lat="45.14951" lon="6.05534">
        <ele>969</ele>
        <time>2024-06-04T23:57:45Z</time>
      </trkpt>
      <trkpt lat="45.14946" lon="6.05524">
        <ele>966</ele>
        <time>2024-06-04T23:57:47Z</time>
      </trkpt>
      <trkpt lat="45.14944" lon="6.05514">
        <ele>964</ele>
        <time>2024-06-04T23:57:48Z</time>
      </trkpt>
      <trkpt lat="45.14945" lon="6.05503">
        <ele>964</ele>
        <time>2024-06-04T23:57:49Z</time>
      </trkpt>
      <trkpt lat="45.14957" lon="6.05462">
        <ele>962</ele>
        <time>2024-06-04T23:57:55Z</time>
      </trkpt>
      <trkpt lat="45.14978" lon="6.05378">
        <ele>956</ele>
        <time>2024-06-04T23:58:06Z</time>
      </trkpt>
      <trkpt lat="45.15" lon="6.05311">
        <ele>954</ele>
        <time>2024-06-04T23:58:15Z</time>
      </trkpt>
      <trkpt lat="45.15" lon="6.05306">
        <ele>953</ele>
        <time>2024-06-04T23:58:16Z</time>
      </trkpt>
      <trkpt lat="45.14997" lon="6.05296">
        <ele>951</ele>
        <time>2024-06-04T23:58:17Z</time>
      </trkpt>
      <trkpt lat="45.14993" lon="6.05292">
        <ele>949</ele>
        <time>2024-06-04T23:58:18Z</time>
      </trkpt>
      <trkpt lat="45.14985" lon="6.05291">
        <ele>945</ele>
        <time>2024-06-04T23:58:20Z</time>
      </trkpt>
      <trkpt lat="45.14979" lon="6.05298">
        <ele>944</ele>
        <time>2024-06-04T23:58:21Z</time>
      </trkpt>
      <trkpt lat="45.14977" lon="6.05304">
        <ele>944</ele>
        <time>2024-06-04T23:58:22Z</time>
      </trkpt>
      <trkpt lat="45.14975" lon="6.05341">
        <ele>948</ele>
        <time>2024-06-04T23:58:27Z</time>
      </trkpt>
      <trkpt lat="45.14972" lon="6.05354">
        <ele>949</ele>
        <time>2024-06-04T23:58:28Z</time>
      </trkpt>
      <trkpt lat="45.14963" lon="6.05366">
        <ele>948</ele>
        <time>2024-06-04T23:58:31Z</time>
      </trkpt>
      <trkpt lat="45.14915" lon="6.05412">
        <ele>936</ele>
        <time>2024-06-04T23:58:41Z</time>
      </trkpt>
      <trkpt lat="45.14876" lon="6.05443">
        <ele>929</ele>
        <time>2024-06-04T23:58:49Z</time>
      </trkpt>
      <trkpt lat="45.14869" lon="6.05451">
        <ele>928</ele>
        <time>2024-06-04T23:58:50Z</time>
      </trkpt>
      <trkpt lat="45.14866" lon="6.05463">
        <ele>929</ele>
        <time>2024-06-04T23:58:52Z</time>
      </trkpt>
      <trkpt lat="45.14867" lon="6.05479">
        <ele>932</ele>
        <time>2024-06-04T23:58:54Z</time>
      </trkpt>
      <trkpt lat="45.14876" lon="6.05502">
        <ele>939</ele>
        <time>2024-06-04T23:58:57Z</time>
      </trkpt>
      <trkpt lat="45.1488" lon="6.05516">
        <ele>942</ele>
        <time>2024-06-04T23:58:59Z</time>
      </trkpt>
      <trkpt lat="45.14877" lon="6.05533">
        <ele>944</ele>
        <time>2024-06-04T23:59:01Z</time>
      </trkpt>
      <trkpt lat="45.1487" lon="6.0554">
        <ele>943</ele>
        <time>2024-06-04T23:59:03Z</time>
      </trkpt>
      <trkpt lat="45.14862" lon="6.05539">
        <ele>941</ele>
        <time>2024-06-04T23:59:04Z</time>
      </trkpt>
      <trkpt lat="45.14815" lon="6.05527">
        <ele>926</ele>
        <time>2024-06-04T23:59:13Z</time>
      </trkpt>
      <trkpt lat="45.1477" lon="6.05521">
        <ele>914</ele>
        <time>2024-06-04T23:59:21Z</time>
      </trkpt>
      <trkpt lat="45.14756" lon="6.05524">
        <ele>912</ele>
        <time>2024-06-04T23:59:23Z</time>
      </trkpt>
      <trkpt lat="45.14749" lon="6.05528">
        <ele>911</ele>
        <time>2024-06-04T23:59:25Z</time>
      </trkpt>
      <trkpt lat="45.14716" lon="6.05569">
        <ele>905</ele>
        <time>2024-06-04T23:59:33Z</time>
      </trkpt>
      <trkpt lat="45.14708" lon="6.05582">
        <ele>904</ele>
        <time>2024-06-04T23:59:35Z</time>
      </trkpt>
      <trkpt lat="45.14703" lon="6.05597">
        <ele>903</ele>
        <time>2024-06-04T23:59:37Z</time>
      </trkpt>
      <trkpt lat="45.14697" lon="6.05627">
        <ele>903</ele>
        <time>2024-06-04T23:59:41Z</time>
      </trkpt>
      <trkpt lat="45.14692" lon="6.05639">
        <ele>901</ele>
        <time>2024-06-04T23:59:42Z</time>
      </trkpt>
      <trkpt lat="45.14685" lon="6.05641">
        <ele>898</ele>
        <time>2024-06-04T23:59:44Z</time>
      </trkpt>
      <trkpt lat="45.14679" lon="6.05638">
        <ele>895</ele>
        <time>2024-06-04T23:59:45Z</time>
      </trkpt>
      <trkpt lat="45.14673" lon="6.05632">
        <ele>892</ele>
        <time>2024-06-04T23:59:46Z</time>
      </trkpt>
      <trkpt lat="45.14672" lon="6.05614">
        <ele>891</ele>
        <time>2024-06-04T23:59:48Z</time>
      </trkpt>
      <trkpt lat="45.14675" lon="6.05591">
        <ele>891</ele>
        <time>2024-06-04T23:59:51Z</time>
      </trkpt>
      <trkpt lat="45.14683" lon="6.05549">
        <ele>889</ele>
        <time>2024-06-04T23:59:57Z</time>
      </trkpt>
      <trkpt lat="45.14702" lon="6.05475">
        <ele>882</ele>
        <time>2024-06-05T00:00:07Z</time>
      </trkpt>
      <trkpt lat="45.1471" lon="6.05457">
        <ele>880</ele>
        <time>2024-06-05T00:00:09Z</time>
      </trkpt>
      <trkpt lat="45.14722" lon="6.05443">
        <ele>881</ele>
        <time>2024-06-05T00:00:12Z</time>
      </trkpt>
      <trkpt lat="45.14739" lon="6.05434">
        <ele>884</ele>
        <time>2024-06-05T00:00:15Z</time>
      </trkpt>
      <trkpt lat="45.14753" lon="6.05421">
        <ele>884</ele>
        <time>2024-06-05T00:00:18Z</time>
      </trkpt>
      <trkpt lat="45.14756" lon="6.05413">
        <ele>884</ele>
        <time>2024-06-05T00:00:20Z</time>
      </trkpt>
      <trkpt lat="45.14756" lon="6.05402">
        <ele>882</ele>
        <time>2024-06-05T00:00:21Z</time>
      </trkpt>
      <trkpt lat="45.1475" lon="6.05394">
        <ele>879</ele>
        <time>2024-06-05T00:00:22Z</time>
      </trkpt>
      <trkpt lat="45.14724" lon="6.05374">
        <ele>870</ele>
        <time>2024-06-05T00:00:28Z</time>
      </trkpt>
      <trkpt lat="45.14714" lon="6.05358">
        <ele>866</ele>
        <time>2024-06-05T00:00:30Z</time>
      </trkpt>
      <trkpt lat="45.14712" lon="6.0534">
        <ele>864</ele>
        <time>2024-06-05T00:00:33Z</time>
      </trkpt>
      <trkpt lat="45.14713" lon="6.05332">
        <ele>863</ele>
        <time>2024-06-05T00:00:34Z</time>
      </trkpt>
      <trkpt lat="45.14725" lon="6.0531">
        <ele>863</ele>
        <time>2024-06-05T00:00:37Z</time>
      </trkpt>
      <trkpt lat="45.14742" lon="6.05271">
        <ele>861</ele>
        <time>2024-06-05T00:00:43Z</time>
      </trkpt>
      <trkpt lat="45.14792" lon="6.05198">
        <ele>861</ele>
        <time>2024-06-05T00:00:56Z</time>
      </trkpt>
      <trkpt lat="45.148" lon="6.05184">
        <ele>860</ele>
        <time>2024-06-05T00:00:58Z</time>
      </trkpt>
      <trkpt lat="45.14825" lon="6.05114">
        <ele>848</ele>
        <time>2024-06-05T00:01:08Z</time>
      </trkpt>
      <trkpt lat="45.14846" lon="6.05081">
        <ele>845</ele>
        <time>2024-06-05T00:01:13Z</time>
      </trkpt>
      <trkpt lat="45.14886" lon="6.05041">
        <ele>850</ele>
        <time>2024-06-05T00:01:22Z</time>
      </trkpt>
      <trkpt lat="45.14889" lon="6.05036">
        <ele>850</ele>
        <time>2024-06-05T00:01:23Z</time>
      </trkpt>
      <trkpt lat="45.14889" lon="6.05023">
        <ele>847</ele>
        <time>2024-06-05T00:01:24Z</time>
      </trkpt>
      <trkpt lat="45.1488" lon="6.05014">
        <ele>841</ele>
        <time>2024-06-05T00:01:26Z</time>
      </trkpt>
      <trkpt lat="45.14872" lon="6.05015">
        <ele>839</ele>
        <time>2024-06-05T00:01:28Z</time>
      </trkpt>
      <trkpt lat="45.14863" lon="6.05026">
        <ele>838</ele>
        <time>2024-06-05T00:01:30Z</time>
      </trkpt>
      <trkpt lat="45.14849" lon="6.05054">
        <ele>840</ele>
        <time>2024-06-05T00:01:34Z</time>
      </trkpt>
      <trkpt lat="45.14837" lon="6.05063">
        <ele>837</ele>
        <time>2024-06-05T00:01:37Z</time>
      </trkpt>
      <trkpt lat="45.14783" lon="6.05089">
        <ele>831</ele>
        <time>2024-06-05T00:01:47Z</time>
      </trkpt>
      <trkpt lat="45.14774" lon="6.05093">
        <ele>829</ele>
        <time>2024-06-05T00:01:49Z</time>
      </trkpt>
      <trkpt lat="45.14729" lon="6.05099">
        <ele>821</ele>
        <time>2024-06-05T00:01:57Z</time>
      </trkpt>
      <trkpt lat="45.14685" lon="6.05101">
        <ele>813</ele>
        <time>2024-06-05T00:02:04Z</time>
      </trkpt>
      <trkpt lat="45.14675" lon="6.05104">
        <ele>812</ele>
        <time>2024-06-05T00:02:06Z</time>
      </trkpt>
      <trkpt lat="45.14669" lon="6.0511">
        <ele>812</ele>
        <time>2024-06-05T00:02:08Z</time>
      </trkpt>
      <trkpt lat="45.14657" lon="6.05127">
        <ele>813</ele>
        <time>2024-06-05T00:02:11Z</time>
      </trkpt>
      <trkpt lat="45.14652" lon="6.05132">
        <ele>813</ele>
        <time>2024-06-05T00:02:12Z</time>
      </trkpt>
      <trkpt lat="45.14644" lon="6.05136">
        <ele>811</ele>
        <time>2024-06-05T00:02:13Z</time>
      </trkpt>
      <trkpt lat="45.14638" lon="6.05136">
        <ele>810</ele>
        <time>2024-06-05T00:02:14Z</time>
      </trkpt>
      <trkpt lat="45.14628" lon="6.05139">
        <ele>807</ele>
        <time>2024-06-05T00:02:16Z</time>
      </trkpt>
      <trkpt lat="45.1461" lon="6.05163">
        <ele>806</ele>
        <time>2024-06-05T00:02:20Z</time>
      </trkpt>
      <trkpt lat="45.14604" lon="6.05174">
        <ele>806</ele>
        <time>2024-06-05T00:02:22Z</time>
      </trkpt>
      <trkpt lat="45.14598" lon="6.05196">
        <ele>808</ele>
        <time>2024-06-05T00:02:25Z</time>
      </trkpt>
      <trkpt lat="45.14593" lon="6.05235">
        <ele>813</ele>
        <time>2024-06-05T00:02:30Z</time>
      </trkpt>
      <trkpt lat="45.1458" lon="6.05347">
        <ele>817</ele>
        <time>2024-06-05T00:02:44Z</time>
      </trkpt>
      <trkpt lat="45.14577" lon="6.05363">
        <ele>817</ele>
        <time>2024-06-05T00:02:46Z</time>
      </trkpt>
      <trkpt lat="45.14563" lon="6.05402">
        <ele>815</ele>
        <time>2024-06-05T00:02:52Z</time>
      </trkpt>
      <trkpt lat="45.14555" lon="6.05418">
        <ele>814</ele>
        <time>2024-06-05T00:02:54Z</time>
      </trkpt>
      <trkpt lat="45.1455" lon="6.05425">
        <ele>815</ele>
        <time>2024-06-05T00:02:56Z</time>
      </trkpt>
      <trkpt lat="45.14528" lon="6.05444">
        <ele>817</ele>
        <time>2024-06-05T00:03:00Z</time>
      </trkpt>
      <trkpt lat="45.14511" lon="6.0545">
        <ele>816</ele>
        <time>2024-06-05T00:03:03Z</time>
      </trkpt>
      <trkpt lat="45.14498" lon="6.05451">
        <ele>817</ele>
        <time>2024-06-05T00:03:06Z</time>
      </trkpt>
      <trkpt lat="45.14484" lon="6.05444">
        <ele>822</ele>
        <time>2024-06-05T00:03:08Z</time>
      </trkpt>
      <trkpt lat="45.1447" lon="6.05428">
        <ele>825</ele>
        <time>2024-06-05T00:03:11Z</time>
      </trkpt>
      <trkpt lat="45.1446" lon="6.05413">
        <ele>826</ele>
        <time>2024-06-05T00:03:14Z</time>
      </trkpt>
      <trkpt lat="45.14454" lon="6.05399">
        <ele>826</ele>
        <time>2024-06-05T00:03:16Z</time>
      </trkpt>
      <trkpt lat="45.14445" lon="6.05354">
        <ele>820</ele>
        <time>2024-06-05T00:03:22Z</time>
      </trkpt>
      <trkpt lat="45.1444" lon="6.05306">
        <ele>814</ele>
        <time>2024-06-05T00:03:28Z</time>
      </trkpt>
      <trkpt lat="45.14443" lon="6.05273">
        <ele>810</ele>
        <time>2024-06-05T00:03:32Z</time>
      </trkpt>
      <trkpt lat="45.14461" lon="6.05213">
        <ele>797</ele>
        <time>2024-06-05T00:03:40Z</time>
      </trkpt>
      <trkpt lat="45.14464" lon="6.05196">
        <ele>794</ele>
        <time>2024-06-05T00:03:43Z</time>
      </trkpt>
      <trkpt lat="45.14463" lon="6.05182">
        <ele>792</ele>
        <time>2024-06-05T00:03:44Z</time>
      </trkpt>
      <trkpt lat="45.14459" lon="6.05165">
        <ele>791</ele>
        <time>2024-06-05T00:03:47Z</time>
      </trkpt>
      <trkpt lat="45.14451" lon="6.05151">
        <ele>789</ele>
        <time>2024-06-05T00:03:49Z</time>
      </trkpt>
      <trkpt lat="45.14443" lon="6.05143">
        <ele>788</ele>
        <time>2024-06-05T00:03:51Z</time>
      </trkpt>
      <trkpt lat="45.14408" lon="6.05123">
        <ele>787</ele>
        <time>2024-06-05T00:03:57Z</time>
      </trkpt>
      <trkpt lat="45.14379" lon="6.05102">
        <ele>790</ele>
        <time>2024-06-05T00:04:03Z</time>
      </trkpt>
      <trkpt lat="45.1434" lon="6.05058">
        <ele>788</ele>
        <time>2024-06-05T00:04:12Z</time>
      </trkpt>
      <trkpt lat="45.14311" lon="6.05034">
        <ele>787</ele>
        <time>2024-06-05T00:04:18Z</time>
      </trkpt>
      <trkpt lat="45.14208" lon="6.04966">
        <ele>793</ele>
        <time>2024-06-05T00:04:38Z</time>
      </trkpt>
      <trkpt lat="45.14143" lon="6.04929">
        <ele>790</ele>
        <time>2024-06-05T00:04:51Z</time>
      </trkpt>
      <trkpt lat="45.14099" lon="6.04909">
        <ele>785</ele>
        <time>2024-06-05T00:04:59Z</time>
      </trkpt>
      <trkpt lat="45.14078" lon="6.04903">
        <ele>785</ele>
        <time>2024-06-05T00:05:03Z</time>
      </trkpt>
      <trkpt lat="45.14021" lon="6.04893">
        <ele>787</ele>
        <time>2024-06-05T00:05:13Z</time>
      </trkpt>
      <trkpt lat="45.13945" lon="6.04896">
        <ele>793</ele>
        <time>2024-06-05T00:05:26Z</time>
      </trkpt>
      <trkpt lat="45.1393" lon="6.04891">
        <ele>792</ele>
        <time>2024-06-05T00:05:29Z</time>
      </trkpt>
      <trkpt lat="45.13884" lon="6.04869">
        <ele>787</ele>
        <time>2024-06-05T00:05:38Z</time>
      </trkpt>
      <trkpt lat="45.13859" lon="6.04856">
        <ele>784</ele>
        <time>2024-06-05T00:05:43Z</time>
      </trkpt>
      <trkpt lat="45.13824" lon="6.04843">
        <ele>780</ele>
        <time>2024-06-05T00:05:49Z</time>
      </trkpt>
      <trkpt lat="45.13809" lon="6.04842">
        <ele>779</ele>
        <time>2024-06-05T00:05:52Z</time>
      </trkpt>
      <trkpt lat="45.13792" lon="6.04843">
        <ele>778</ele>
        <time>2024-06-05T00:05:55Z</time>
      </trkpt>
      <trkpt lat="45.13759" lon="6.04853">
        <ele>780</ele>
        <time>2024-06-05T00:06:01Z</time>
      </trkpt>
      <trkpt lat="45.13737" lon="6.04867">
        <ele>783</ele>
        <time>2024-06-05T00:06:05Z</time>
      </trkpt>
      <trkpt lat="45.1364" lon="6.04946">
        <ele>788</ele>
        <time>2024-06-05T00:06:25Z</time>
      </trkpt>
      <trkpt lat="45.1362" lon="6.04953">
        <ele>786</ele>
        <time>2024-06-05T00:06:29Z</time>
      </trkpt>
      <trkpt lat="45.13599" lon="6.04952">
        <ele>781</ele>
        <time>2024-06-05T00:06:32Z</time>
      </trkpt>
      <trkpt lat="45.13228" lon="6.0486">
        <ele>770</ele>
        <time>2024-06-05T00:07:39Z</time>
      </trkpt>
      <trkpt lat="45.13027" lon="6.04804">
        <ele>797</ele>
        <time>2024-06-05T00:08:16Z</time>
      </trkpt>
      <trkpt lat="45.1301" lon="6.04797">
        <ele>796</ele>
        <time>2024-06-05T00:08:19Z</time>
      </trkpt>
      <trkpt lat="45.1299" lon="6.04793">
        <ele>796</ele>
        <time>2024-06-05T00:08:23Z</time>
      </trkpt>
      <trkpt lat="45.1296" lon="6.04784">
        <ele>794</ele>
        <time>2024-06-05T00:08:28Z</time>
      </trkpt>
      <trkpt lat="45.12938" lon="6.04765">
        <ele>790</ele>
        <time>2024-06-05T00:08:33Z</time>
      </trkpt>
      <trkpt lat="45.12828" lon="6.04594">
        <ele>790</ele>
        <time>2024-06-05T00:09:02Z</time>
      </trkpt>
      <trkpt lat="45.12811" lon="6.04565">
        <ele>788</ele>
        <time>2024-06-05T00:09:06Z</time>
      </trkpt>
      <trkpt lat="45.12807" lon="6.04556">
        <ele>787</ele>
        <time>2024-06-05T00:09:08Z</time>
      </trkpt>
      <trkpt lat="45.12808" lon="6.04543">
        <ele>784</ele>
        <time>2024-06-05T00:09:09Z</time>
      </trkpt>
      <trkpt lat="45.12814" lon="6.04529">
        <ele>779</ele>
        <time>2024-06-05T00:09:11Z</time>
      </trkpt>
      <trkpt lat="45.1282" lon="6.04518">
        <ele>774</ele>
        <time>2024-06-05T00:09:13Z</time>
      </trkpt>
      <trkpt lat="45.13067" lon="6.04117">
        <ele>769</ele>
        <time>2024-06-05T00:10:20Z</time>
      </trkpt>
      <trkpt lat="45.13076" lon="6.041">
        <ele>772</ele>
        <time>2024-06-05T00:10:23Z</time>
      </trkpt>
      <trkpt lat="45.13075" lon="6.04089">
        <ele>773</ele>
        <time>2024-06-05T00:10:24Z</time>
      </trkpt>
      <trkpt lat="45.13073" lon="6.04084">
        <ele>773</ele>
        <time>2024-06-05T00:10:25Z</time>
      </trkpt>
      <trkpt lat="45.13065" lon="6.04076">
        <ele>772</ele>
        <time>2024-06-05T00:10:26Z</time>
      </trkpt>
      <trkpt lat="45.13066" lon="6.04071">
        <ele>773</ele>
        <time>2024-06-05T00:10:27Z</time>
      </trkpt>
      <trkpt lat="45.13065" lon="6.04066">
        <ele>774</ele>
        <time>2024-06-05T00:10:28Z</time>
      </trkpt>
      <trkpt lat="45.13059" lon="6.04064">
        <ele>773</ele>
        <time>2024-06-05T00:10:29Z</time>
      </trkpt>
      <trkpt lat="45.13055" lon="6.04048">
        <ele>774</ele>
        <time>2024-06-05T00:10:31Z</time>
      </trkpt>
      <trkpt lat="45.13045" lon="6.04049">
        <ele>772</ele>
        <time>2024-06-05T00:10:33Z</time>
      </trkpt>
      <trkpt lat="45.13024" lon="6.04032">
        <ele>769</ele>
        <time>2024-06-05T00:10:37Z</time>
      </trkpt>
      <trkpt lat="45.13003" lon="6.04023">
        <ele>766</ele>
        <time>2024-06-05T00:10:41Z</time>
      </trkpt>
      <trkpt lat="45.12992" lon="6.04018">
        <ele>763</ele>
        <time>2024-06-05T00:10:43Z</time>
      </trkpt>
      <trkpt lat="45.12971" lon="6.04">
        <ele>758</ele>
        <time>2024-06-05T00:10:47Z</time>
      </trkpt>
      <trkpt lat="45.12964" lon="6.03987">
        <ele>757</ele>
        <time>2024-06-05T00:10:49Z</time>
      </trkpt>
      <trkpt lat="45.1295" lon="6.03938">
        <ele>756</ele>
        <time>2024-06-05T00:10:56Z</time>
      </trkpt>
      <trkpt lat="45.12924" lon="6.03925">
        <ele>746</ele>
        <time>2024-06-05T00:11:01Z</time>
      </trkpt>
      <trkpt lat="45.12909" lon="6.03925">
        <ele>741</ele>
        <time>2024-06-05T00:11:04Z</time>
      </trkpt>
      <trkpt lat="45.12901" lon="6.03927">
        <ele>740</ele>
        <time>2024-06-05T00:11:05Z</time>
      </trkpt>
      <trkpt lat="45.12851" lon="6.0397">
        <ele>732</ele>
        <time>2024-06-05T00:11:16Z</time>
      </trkpt>
      <trkpt lat="45.12834" lon="6.03938">
        <ele>729</ele>
        <time>2024-06-05T00:11:21Z</time>
      </trkpt>
      <trkpt lat="45.12812" lon="6.03888">
        <ele>729</ele>
        <time>2024-06-05T00:11:28Z</time>
      </trkpt>
      <trkpt lat="45.12806" lon="6.03866">
        <ele>729</ele>
        <time>2024-06-05T00:11:31Z</time>
      </trkpt>
      <trkpt lat="45.12784" lon="6.03814">
        <ele>730</ele>
        <time>2024-06-05T00:11:39Z</time>
      </trkpt>
      <trkpt lat="45.12785" lon="6.03792">
        <ele>731</ele>
        <time>2024-06-05T00:11:41Z</time>
      </trkpt>
      <trkpt lat="45.12791" lon="6.03761">
        <ele>734</ele>
        <time>2024-06-05T00:11:45Z</time>
      </trkpt>
      <trkpt lat="45.12792" lon="6.03749">
        <ele>735</ele>
        <time>2024-06-05T00:11:47Z</time>
      </trkpt>
      <trkpt lat="45.12788" lon="6.03734">
        <ele>735</ele>
        <time>2024-06-05T00:11:49Z</time>
      </trkpt>
      <trkpt lat="45.12737" lon="6.0361">
        <ele>729</ele>
        <time>2024-06-05T00:12:07Z</time>
      </trkpt>
      <trkpt lat="45.12577" lon="6.03213">
        <ele>724</ele>
        <time>2024-06-05T00:13:04Z</time>
      </trkpt>
      <trkpt lat="45.12519" lon="6.03075">
        <ele>724</ele>
        <time>2024-06-05T00:13:24Z</time>
      </trkpt>
      <trkpt lat="45.12416" lon="6.02816">
        <ele>722</ele>
        <time>2024-06-05T00:14:02Z</time>
      </trkpt>
      <trkpt lat="45.12365" lon="6.02694">
        <ele>722</ele>
        <time>2024-06-05T00:14:20Z</time>
      </trkpt>
      <trkpt lat="45.12335" lon="6.02611">
        <ele>721</ele>
        <time>2024-06-05T00:14:31Z</time>
      </trkpt>
      <trkpt lat="45.12331" lon="6.02605">
        <ele>721</ele>
        <time>2024-06-05T00:14:32Z</time>
      </trkpt>
      <trkpt lat="45.1229" lon="6.02498">
        <ele>723</ele>
        <time>2024-06-05T00:14:48Z</time>
      </trkpt>
      <trkpt lat="45.12264" lon="6.02435">
        <ele>720</ele>
        <time>2024-06-05T00:14:57Z</time>
      </trkpt>
      <trkpt lat="45.12252" lon="6.02403">
        <ele>718</ele>
        <time>2024-06-05T00:15:01Z</time>
      </trkpt>
      <trkpt lat="45.12237" lon="6.02343">
        <ele>722</ele>
        <time>2024-06-05T00:15:09Z</time>
      </trkpt>
      <trkpt lat="45.1223" lon="6.02319">
        <ele>725</ele>
        <time>2024-06-05T00:15:13Z</time>
      </trkpt>
      <trkpt lat="45.12218" lon="6.02297">
        <ele>727</ele>
        <time>2024-06-05T00:15:16Z</time>
      </trkpt>
      <trkpt lat="45.12211" lon="6.02288">
        <ele>727</ele>
        <time>2024-06-05T00:15:18Z</time>
      </trkpt>
      <trkpt lat="45.12203" lon="6.02282">
        <ele>726</ele>
        <time>2024-06-05T00:15:19Z</time>
      </trkpt>
      <trkpt lat="45.12191" lon="6.02276">
        <ele>724</ele>
        <time>2024-06-05T00:15:22Z</time>
      </trkpt>
      <trkpt lat="45.12158" lon="6.02264">
        <ele>719</ele>
        <time>2024-06-05T00:15:28Z</time>
      </trkpt>
      <trkpt lat="45.12138" lon="6.02252">
        <ele>718</ele>
        <time>2024-06-05T00:15:32Z</time>
      </trkpt>
      <trkpt lat="45.12128" lon="6.02241">
        <ele>719</ele>
        <time>2024-06-05T00:15:34Z</time>
      </trkpt>
      <trkpt lat="45.12115" lon="6.0222">
        <ele>720</ele>
        <time>2024-06-05T00:15:37Z</time>
      </trkpt>
      <trkpt lat="45.12109" lon="6.02207">
        <ele>720</ele>
        <time>2024-06-05T00:15:39Z</time>
      </trkpt>
      <trkpt lat="45.12101" lon="6.02183">
        <ele>720</ele>
        <time>2024-06-05T00:15:43Z</time>
      </trkpt>
      <trkpt lat="45.12085" lon="6.02101">
        <ele>720</ele>
        <time>2024-06-05T00:15:53Z</time>
      </trkpt>
      <trkpt lat="45.12029" lon="6.01963">
        <ele>716</ele>
        <time>2024-06-05T00:16:13Z</time>
      </trkpt>
      <trkpt lat="45.1198" lon="6.01846">
        <ele>715</ele>
        <time>2024-06-05T00:16:30Z</time>
      </trkpt>
      <trkpt lat="45.11943" lon="6.01776">
        <ele>714</ele>
        <time>2024-06-05T00:16:41Z</time>
      </trkpt>
      <trkpt lat="45.11903" lon="6.01719">
        <ele>714</ele>
        <time>2024-06-05T00:16:51Z</time>
      </trkpt>
      <trkpt lat="45.11668" lon="6.01434">
        <ele>711</ele>
        <time>2024-06-05T00:17:46Z</time>
      </trkpt>
      <trkpt lat="45.11589" lon="6.0135">
        <ele>711</ele>
        <time>2024-06-05T00:18:04Z</time>
      </trkpt>
      <trkpt lat="45.11558" lon="6.01317">
        <ele>712</ele>
        <time>2024-06-05T00:18:11Z</time>
      </trkpt>
      <trkpt lat="45.11536" lon="6.01294">
        <ele>713</ele>
        <time>2024-06-05T00:18:16Z</time>
      </trkpt>
      <trkpt lat="45.11523" lon="6.01274">
        <ele>714</ele>
        <time>2024-06-05T00:18:19Z</time>
      </trkpt>
      <trkpt lat="45.11511" lon="6.01249">
        <ele>715</ele>
        <time>2024-06-05T00:18:23Z</time>
      </trkpt>
      <trkpt lat="45.115" lon="6.01214">
        <ele>715</ele>
        <time>2024-06-05T00:18:28Z</time>
      </trkpt>
      <trkpt lat="45.11494" lon="6.01186">
        <ele>714</ele>
        <time>2024-06-05T00:18:31Z</time>
      </trkpt>
      <trkpt lat="45.1144" lon="6.00646">
        <ele>713</ele>
        <time>2024-06-05T00:19:40Z</time>
      </trkpt>
      <trkpt lat="45.11432" lon="6.00588">
        <ele>712</ele>
        <time>2024-06-05T00:19:47Z</time>
      </trkpt>
      <trkpt lat="45.11419" lon="6.00561">
        <ele>714</ele>
        <time>2024-06-05T00:19:51Z</time>
      </trkpt>
      <trkpt lat="45.11394" lon="6.00581">
        <ele>716</ele>
        <time>2024-06-05T00:19:57Z</time>
      </trkpt>
      <trkpt lat="45.11366" lon="6.00594">
        <ele>718</ele>
        <time>2024-06-05T00:20:02Z</time>
      </trkpt>
      <trkpt lat="45.09856" lon="6.0095">
        <ele>714</ele>
        <time>2024-06-05T00:24:34Z</time>
      </trkpt>
      <trkpt lat="45.09813" lon="6.00958">
        <ele>714</ele>
        <time>2024-06-05T00:24:42Z</time>
      </trkpt>
      <trkpt lat="45.09776" lon="6.00955">
        <ele>714</ele>
        <time>2024-06-05T00:24:49Z</time>
      </trkpt>
      <trkpt lat="45.09763" lon="6.00956">
        <ele>714</ele>
        <time>2024-06-05T00:24:51Z</time>
      </trkpt>
      <trkpt lat="45.09746" lon="6.00963">
        <ele>713</ele>
        <time>2024-06-05T00:24:54Z</time>
      </trkpt>
      <trkpt lat="45.09723" lon="6.00979">
        <ele>712</ele>
        <time>2024-06-05T00:24:59Z</time>
      </trkpt>
      <trkpt lat="45.09702" lon="6.00987">
        <ele>712</ele>
        <time>2024-06-05T00:25:02Z</time>
      </trkpt>
      <trkpt lat="45.09078" lon="6.01134">
        <ele>714</ele>
        <time>2024-06-05T00:26:55Z</time>
      </trkpt>
      <trkpt lat="45.09037" lon="6.01154">
        <ele>714</ele>
        <time>2024-06-05T00:27:03Z</time>
      </trkpt>
      <trkpt lat="45.09025" lon="6.01156">
        <ele>714</ele>
        <time>2024-06-05T00:27:05Z</time>
      </trkpt>
      <trkpt lat="45.0899" lon="6.01157">
        <ele>714</ele>
        <time>2024-06-05T00:27:11Z</time>
      </trkpt>
      <trkpt lat="45.08961" lon="6.01162">
        <ele>714</ele>
        <time>2024-06-05T00:27:16Z</time>
      </trkpt>
      <trkpt lat="45.08896" lon="6.01177">
        <ele>714</ele>
        <time>2024-06-05T00:27:28Z</time>
      </trkpt>
      <trkpt lat="45.08036" lon="6.0138">
        <ele>714</ele>
        <time>2024-06-05T00:30:03Z</time>
      </trkpt>
      <trkpt lat="45.07637" lon="6.01477">
        <ele>723</ele>
        <time>2024-06-05T00:31:15Z</time>
      </trkpt>
      <trkpt lat="45.07602" lon="6.01497">
        <ele>724</ele>
        <time>2024-06-05T00:31:22Z</time>
      </trkpt>
      <trkpt lat="45.07417" lon="6.01638">
        <ele>728</ele>
        <time>2024-06-05T00:31:59Z</time>
      </trkpt>
      <trkpt lat="45.07401" lon="6.01651">
        <ele>728</ele>
        <time>2024-06-05T00:32:03Z</time>
      </trkpt>
      <trkpt lat="45.07359" lon="6.01683">
        <ele>727</ele>
        <time>2024-06-05T00:32:11Z</time>
      </trkpt>
      <trkpt lat="45.07216" lon="6.01799">
        <ele>728</ele>
        <time>2024-06-05T00:32:40Z</time>
      </trkpt>
      <trkpt lat="45.07115" lon="6.0188">
        <ele>748</ele>
        <time>2024-06-05T00:33:01Z</time>
      </trkpt>
      <trkpt lat="45.06992" lon="6.01967">
        <ele>726</ele>
        <time>2024-06-05T00:33:25Z</time>
      </trkpt>
      <trkpt lat="45.06872" lon="6.02057">
        <ele>717</ele>
        <time>2024-06-05T00:33:50Z</time>
      </trkpt>
      <trkpt lat="45.06697" lon="6.02194">
        <ele>716</ele>
        <time>2024-06-05T00:34:25Z</time>
      </trkpt>
      <trkpt lat="45.06581" lon="6.02281">
        <ele>721</ele>
        <time>2024-06-05T00:34:49Z</time>
      </trkpt>
    </trkseg>
  </trk>
</gpx>